<?xml version="1.0" encoding="UTF-8" standalone="no" ?>
<gpx xmlns="http://www.topografix.com/GPX/1/1" xmlns:xsi="http://www.w3.org/2001/XMLSchema-instance" xsi:schemaLocation="http://www.topografix.com/GPX/1/1 http://www.topografix.com/GPX/1/1/gpx.xsd" version="1.1" creator="VisuGPX - https://www.visugpx.com">
  <metadata>
    <name>École cyclo </name>
  </metadata>
  <trk>
    <name><![CDATA[École cyclo _1]]></name>
    <trkseg>
      <trkpt lat="48.93695" lon="7.87879">
        <ele>149</ele>
        <time>2021-06-26T12:04:56Z</time>
      </trkpt>
      <trkpt lat="48.937" lon="7.87867">
        <ele>150</ele>
        <time>2021-06-26T12:05:01Z</time>
      </trkpt>
      <trkpt lat="48.93702" lon="7.87866">
        <ele>150</ele>
        <time>2021-06-26T12:05:02Z</time>
      </trkpt>
      <trkpt lat="48.93706" lon="7.87866">
        <ele>149.8</ele>
        <time>2021-06-26T12:05:04Z</time>
      </trkpt>
      <trkpt lat="48.93707" lon="7.87865">
        <ele>149.8</ele>
        <time>2021-06-26T12:05:05Z</time>
      </trkpt>
      <trkpt lat="48.93709" lon="7.87863">
        <ele>149.6</ele>
        <time>2021-06-26T12:05:06Z</time>
      </trkpt>
      <trkpt lat="48.9371" lon="7.8786">
        <ele>149.6</ele>
        <time>2021-06-26T12:05:07Z</time>
      </trkpt>
      <trkpt lat="48.93711" lon="7.87858">
        <ele>149.8</ele>
        <time>2021-06-26T12:05:08Z</time>
      </trkpt>
      <trkpt lat="48.93711" lon="7.87855">
        <ele>149.2</ele>
        <time>2021-06-26T12:05:09Z</time>
      </trkpt>
      <trkpt lat="48.93711" lon="7.87852">
        <ele>149.6</ele>
        <time>2021-06-26T12:05:10Z</time>
      </trkpt>
      <trkpt lat="48.93712" lon="7.87848">
        <ele>149.4</ele>
        <time>2021-06-26T12:05:11Z</time>
      </trkpt>
      <trkpt lat="48.93712" lon="7.87845">
        <ele>149.4</ele>
        <time>2021-06-26T12:05:12Z</time>
      </trkpt>
      <trkpt lat="48.93712" lon="7.87823">
        <ele>149.8</ele>
        <time>2021-06-26T12:05:19Z</time>
      </trkpt>
      <trkpt lat="48.93711" lon="7.8782">
        <ele>149.8</ele>
        <time>2021-06-26T12:05:20Z</time>
      </trkpt>
      <trkpt lat="48.9371" lon="7.87816">
        <ele>149.6</ele>
        <time>2021-06-26T12:05:21Z</time>
      </trkpt>
      <trkpt lat="48.93705" lon="7.87798">
        <ele>149.4</ele>
        <time>2021-06-26T12:05:26Z</time>
      </trkpt>
      <trkpt lat="48.93691" lon="7.87769">
        <ele>149.6</ele>
        <time>2021-06-26T12:05:34Z</time>
      </trkpt>
      <trkpt lat="48.93682" lon="7.87738">
        <ele>149.6</ele>
        <time>2021-06-26T12:05:41Z</time>
      </trkpt>
      <trkpt lat="48.93682" lon="7.87733">
        <ele>149.6</ele>
        <time>2021-06-26T12:05:42Z</time>
      </trkpt>
      <trkpt lat="48.93683" lon="7.8773">
        <ele>149.6</ele>
        <time>2021-06-26T12:05:43Z</time>
      </trkpt>
      <trkpt lat="48.93683" lon="7.87727">
        <ele>149.6</ele>
        <time>2021-06-26T12:05:44Z</time>
      </trkpt>
      <trkpt lat="48.93683" lon="7.87724">
        <ele>149.6</ele>
        <time>2021-06-26T12:05:45Z</time>
      </trkpt>
      <trkpt lat="48.93684" lon="7.87721">
        <ele>149.6</ele>
        <time>2021-06-26T12:05:46Z</time>
      </trkpt>
      <trkpt lat="48.93687" lon="7.87709">
        <ele>149.8</ele>
        <time>2021-06-26T12:05:49Z</time>
      </trkpt>
      <trkpt lat="48.93695" lon="7.87681">
        <ele>149.6</ele>
        <time>2021-06-26T12:05:53Z</time>
      </trkpt>
      <trkpt lat="48.93696" lon="7.87665">
        <ele>149.6</ele>
        <time>2021-06-26T12:05:55Z</time>
      </trkpt>
      <trkpt lat="48.93696" lon="7.87658">
        <ele>149.6</ele>
        <time>2021-06-26T12:05:56Z</time>
      </trkpt>
      <trkpt lat="48.93696" lon="7.8765">
        <ele>149.4</ele>
        <time>2021-06-26T12:05:57Z</time>
      </trkpt>
      <trkpt lat="48.93695" lon="7.87644">
        <ele>149.4</ele>
        <time>2021-06-26T12:05:58Z</time>
      </trkpt>
      <trkpt lat="48.93693" lon="7.87638">
        <ele>149.4</ele>
        <time>2021-06-26T12:05:59Z</time>
      </trkpt>
      <trkpt lat="48.93691" lon="7.87631">
        <ele>149.2</ele>
        <time>2021-06-26T12:06:00Z</time>
      </trkpt>
      <trkpt lat="48.9369" lon="7.87625">
        <ele>149.2</ele>
        <time>2021-06-26T12:06:01Z</time>
      </trkpt>
      <trkpt lat="48.93692" lon="7.8762">
        <ele>149.2</ele>
        <time>2021-06-26T12:06:02Z</time>
      </trkpt>
      <trkpt lat="48.93698" lon="7.87611">
        <ele>149</ele>
        <time>2021-06-26T12:06:04Z</time>
      </trkpt>
      <trkpt lat="48.93702" lon="7.87608">
        <ele>148.8</ele>
        <time>2021-06-26T12:06:05Z</time>
      </trkpt>
      <trkpt lat="48.93709" lon="7.87601">
        <ele>148.8</ele>
        <time>2021-06-26T12:06:07Z</time>
      </trkpt>
      <trkpt lat="48.93712" lon="7.87597">
        <ele>148.8</ele>
        <time>2021-06-26T12:06:08Z</time>
      </trkpt>
      <trkpt lat="48.93716" lon="7.87593">
        <ele>148.8</ele>
        <time>2021-06-26T12:06:09Z</time>
      </trkpt>
      <trkpt lat="48.93719" lon="7.8759">
        <ele>148.8</ele>
        <time>2021-06-26T12:06:10Z</time>
      </trkpt>
      <trkpt lat="48.93722" lon="7.87586">
        <ele>148.8</ele>
        <time>2021-06-26T12:06:11Z</time>
      </trkpt>
      <trkpt lat="48.93724" lon="7.87583">
        <ele>148.8</ele>
        <time>2021-06-26T12:06:12Z</time>
      </trkpt>
      <trkpt lat="48.93727" lon="7.8758">
        <ele>148.8</ele>
        <time>2021-06-26T12:06:13Z</time>
      </trkpt>
      <trkpt lat="48.9373" lon="7.87576">
        <ele>149</ele>
        <time>2021-06-26T12:06:14Z</time>
      </trkpt>
      <trkpt lat="48.93732" lon="7.87573">
        <ele>149</ele>
        <time>2021-06-26T12:06:15Z</time>
      </trkpt>
      <trkpt lat="48.93735" lon="7.8757">
        <ele>149</ele>
        <time>2021-06-26T12:06:16Z</time>
      </trkpt>
      <trkpt lat="48.93737" lon="7.87565">
        <ele>149.2</ele>
        <time>2021-06-26T12:06:17Z</time>
      </trkpt>
      <trkpt lat="48.93738" lon="7.87561">
        <ele>149.2</ele>
        <time>2021-06-26T12:06:18Z</time>
      </trkpt>
      <trkpt lat="48.93739" lon="7.87556">
        <ele>149.4</ele>
        <time>2021-06-26T12:06:19Z</time>
      </trkpt>
      <trkpt lat="48.93739" lon="7.87552">
        <ele>149.6</ele>
        <time>2021-06-26T12:06:20Z</time>
      </trkpt>
      <trkpt lat="48.9374" lon="7.87546">
        <ele>149.8</ele>
        <time>2021-06-26T12:06:21Z</time>
      </trkpt>
      <trkpt lat="48.93742" lon="7.87543">
        <ele>150.2</ele>
        <time>2021-06-26T12:06:22Z</time>
      </trkpt>
      <trkpt lat="48.93744" lon="7.87541">
        <ele>150.4</ele>
        <time>2021-06-26T12:06:23Z</time>
      </trkpt>
      <trkpt lat="48.93747" lon="7.8754">
        <ele>150.8</ele>
        <time>2021-06-26T12:06:24Z</time>
      </trkpt>
      <trkpt lat="48.93753" lon="7.87537">
        <ele>151.6</ele>
        <time>2021-06-26T12:06:26Z</time>
      </trkpt>
      <trkpt lat="48.93759" lon="7.87534">
        <ele>152</ele>
        <time>2021-06-26T12:06:28Z</time>
      </trkpt>
      <trkpt lat="48.93769" lon="7.87531">
        <ele>152.2</ele>
        <time>2021-06-26T12:06:31Z</time>
      </trkpt>
      <trkpt lat="48.93772" lon="7.8753">
        <ele>152.4</ele>
        <time>2021-06-26T12:06:32Z</time>
      </trkpt>
      <trkpt lat="48.93775" lon="7.87529">
        <ele>152.4</ele>
        <time>2021-06-26T12:06:33Z</time>
      </trkpt>
      <trkpt lat="48.93778" lon="7.87528">
        <ele>152.4</ele>
        <time>2021-06-26T12:06:34Z</time>
      </trkpt>
      <trkpt lat="48.93781" lon="7.87526">
        <ele>152.6</ele>
        <time>2021-06-26T12:06:35Z</time>
      </trkpt>
      <trkpt lat="48.93784" lon="7.87525">
        <ele>152.6</ele>
        <time>2021-06-26T12:06:36Z</time>
      </trkpt>
      <trkpt lat="48.93787" lon="7.87524">
        <ele>152.6</ele>
        <time>2021-06-26T12:06:37Z</time>
      </trkpt>
      <trkpt lat="48.9379" lon="7.87524">
        <ele>152.6</ele>
        <time>2021-06-26T12:06:38Z</time>
      </trkpt>
      <trkpt lat="48.93793" lon="7.87523">
        <ele>152.8</ele>
        <time>2021-06-26T12:06:39Z</time>
      </trkpt>
      <trkpt lat="48.93795" lon="7.87522">
        <ele>153.2</ele>
        <time>2021-06-26T12:06:40Z</time>
      </trkpt>
      <trkpt lat="48.93798" lon="7.87521">
        <ele>153.4</ele>
        <time>2021-06-26T12:06:41Z</time>
      </trkpt>
      <trkpt lat="48.93801" lon="7.87519">
        <ele>153.4</ele>
        <time>2021-06-26T12:06:42Z</time>
      </trkpt>
      <trkpt lat="48.93803" lon="7.87518">
        <ele>153.6</ele>
        <time>2021-06-26T12:06:43Z</time>
      </trkpt>
      <trkpt lat="48.93806" lon="7.87517">
        <ele>153.8</ele>
        <time>2021-06-26T12:06:44Z</time>
      </trkpt>
      <trkpt lat="48.93809" lon="7.87516">
        <ele>154</ele>
        <time>2021-06-26T12:06:45Z</time>
      </trkpt>
      <trkpt lat="48.93812" lon="7.87515">
        <ele>154.4</ele>
        <time>2021-06-26T12:06:46Z</time>
      </trkpt>
      <trkpt lat="48.93814" lon="7.87514">
        <ele>154.6</ele>
        <time>2021-06-26T12:06:47Z</time>
      </trkpt>
      <trkpt lat="48.93817" lon="7.87513">
        <ele>154.8</ele>
        <time>2021-06-26T12:06:48Z</time>
      </trkpt>
      <trkpt lat="48.9382" lon="7.87512">
        <ele>155.2</ele>
        <time>2021-06-26T12:06:49Z</time>
      </trkpt>
      <trkpt lat="48.93822" lon="7.8751">
        <ele>155.6</ele>
        <time>2021-06-26T12:06:50Z</time>
      </trkpt>
      <trkpt lat="48.93825" lon="7.8751">
        <ele>156</ele>
        <time>2021-06-26T12:06:51Z</time>
      </trkpt>
      <trkpt lat="48.93827" lon="7.87509">
        <ele>156.2</ele>
        <time>2021-06-26T12:06:52Z</time>
      </trkpt>
      <trkpt lat="48.93829" lon="7.87508">
        <ele>156.4</ele>
        <time>2021-06-26T12:06:53Z</time>
      </trkpt>
      <trkpt lat="48.93832" lon="7.87507">
        <ele>156.8</ele>
        <time>2021-06-26T12:06:54Z</time>
      </trkpt>
      <trkpt lat="48.93834" lon="7.87505">
        <ele>157.2</ele>
        <time>2021-06-26T12:06:55Z</time>
      </trkpt>
      <trkpt lat="48.93836" lon="7.87505">
        <ele>157.6</ele>
        <time>2021-06-26T12:06:56Z</time>
      </trkpt>
      <trkpt lat="48.93839" lon="7.87504">
        <ele>157.6</ele>
        <time>2021-06-26T12:06:57Z</time>
      </trkpt>
      <trkpt lat="48.93841" lon="7.87504">
        <ele>158</ele>
        <time>2021-06-26T12:06:58Z</time>
      </trkpt>
      <trkpt lat="48.93843" lon="7.87503">
        <ele>158.2</ele>
        <time>2021-06-26T12:06:59Z</time>
      </trkpt>
      <trkpt lat="48.93845" lon="7.87503">
        <ele>158.6</ele>
        <time>2021-06-26T12:07:00Z</time>
      </trkpt>
      <trkpt lat="48.93847" lon="7.87502">
        <ele>159</ele>
        <time>2021-06-26T12:07:01Z</time>
      </trkpt>
      <trkpt lat="48.93848" lon="7.87501">
        <ele>159.4</ele>
        <time>2021-06-26T12:07:02Z</time>
      </trkpt>
      <trkpt lat="48.9385" lon="7.875">
        <ele>159.6</ele>
        <time>2021-06-26T12:07:03Z</time>
      </trkpt>
      <trkpt lat="48.93851" lon="7.87499">
        <ele>160</ele>
        <time>2021-06-26T12:07:04Z</time>
      </trkpt>
      <trkpt lat="48.93853" lon="7.87498">
        <ele>160</ele>
        <time>2021-06-26T12:07:05Z</time>
      </trkpt>
      <trkpt lat="48.93855" lon="7.87497">
        <ele>160</ele>
        <time>2021-06-26T12:07:06Z</time>
      </trkpt>
      <trkpt lat="48.93858" lon="7.87496">
        <ele>160.2</ele>
        <time>2021-06-26T12:07:07Z</time>
      </trkpt>
      <trkpt lat="48.9386" lon="7.87496">
        <ele>160.4</ele>
        <time>2021-06-26T12:07:08Z</time>
      </trkpt>
      <trkpt lat="48.93861" lon="7.87495">
        <ele>160.6</ele>
        <time>2021-06-26T12:07:09Z</time>
      </trkpt>
      <trkpt lat="48.93864" lon="7.87494">
        <ele>160.6</ele>
        <time>2021-06-26T12:07:10Z</time>
      </trkpt>
      <trkpt lat="48.93866" lon="7.87493">
        <ele>161</ele>
        <time>2021-06-26T12:07:11Z</time>
      </trkpt>
      <trkpt lat="48.93868" lon="7.87492">
        <ele>161.2</ele>
        <time>2021-06-26T12:07:12Z</time>
      </trkpt>
      <trkpt lat="48.9387" lon="7.87491">
        <ele>161.4</ele>
        <time>2021-06-26T12:07:13Z</time>
      </trkpt>
      <trkpt lat="48.93872" lon="7.8749">
        <ele>161.4</ele>
        <time>2021-06-26T12:07:14Z</time>
      </trkpt>
      <trkpt lat="48.93874" lon="7.8749">
        <ele>161.6</ele>
        <time>2021-06-26T12:07:15Z</time>
      </trkpt>
      <trkpt lat="48.93876" lon="7.87489">
        <ele>161.8</ele>
        <time>2021-06-26T12:07:16Z</time>
      </trkpt>
      <trkpt lat="48.93878" lon="7.87489">
        <ele>162</ele>
        <time>2021-06-26T12:07:17Z</time>
      </trkpt>
      <trkpt lat="48.9388" lon="7.87488">
        <ele>162.2</ele>
        <time>2021-06-26T12:07:18Z</time>
      </trkpt>
      <trkpt lat="48.93882" lon="7.87487">
        <ele>162.2</ele>
        <time>2021-06-26T12:07:19Z</time>
      </trkpt>
      <trkpt lat="48.93884" lon="7.87486">
        <ele>162.4</ele>
        <time>2021-06-26T12:07:20Z</time>
      </trkpt>
      <trkpt lat="48.93886" lon="7.87486">
        <ele>162.8</ele>
        <time>2021-06-26T12:07:21Z</time>
      </trkpt>
      <trkpt lat="48.93887" lon="7.87486">
        <ele>163</ele>
        <time>2021-06-26T12:07:22Z</time>
      </trkpt>
      <trkpt lat="48.93889" lon="7.87486">
        <ele>163.2</ele>
        <time>2021-06-26T12:07:23Z</time>
      </trkpt>
      <trkpt lat="48.9389" lon="7.87486">
        <ele>163.4</ele>
        <time>2021-06-26T12:07:24Z</time>
      </trkpt>
      <trkpt lat="48.9389" lon="7.87486">
        <ele>163.6</ele>
        <time>2021-06-26T12:07:25Z</time>
      </trkpt>
      <trkpt lat="48.9389" lon="7.87485">
        <ele>163.8</ele>
        <time>2021-06-26T12:07:26Z</time>
      </trkpt>
      <trkpt lat="48.9389" lon="7.87483">
        <ele>163.8</ele>
        <time>2021-06-26T12:07:27Z</time>
      </trkpt>
      <trkpt lat="48.93889" lon="7.87481">
        <ele>164</ele>
        <time>2021-06-26T12:07:28Z</time>
      </trkpt>
      <trkpt lat="48.93889" lon="7.8748">
        <ele>164.2</ele>
        <time>2021-06-26T12:07:29Z</time>
      </trkpt>
      <trkpt lat="48.9389" lon="7.87479">
        <ele>164.2</ele>
        <time>2021-06-26T12:07:30Z</time>
      </trkpt>
      <trkpt lat="48.9389" lon="7.87477">
        <ele>164.4</ele>
        <time>2021-06-26T12:07:31Z</time>
      </trkpt>
      <trkpt lat="48.93891" lon="7.87476">
        <ele>164.4</ele>
        <time>2021-06-26T12:07:33Z</time>
      </trkpt>
      <trkpt lat="48.93891" lon="7.87476">
        <ele>164.4</ele>
        <time>2021-06-26T12:07:35Z</time>
      </trkpt>
      <trkpt lat="48.93892" lon="7.87474">
        <ele>164.6</ele>
        <time>2021-06-26T12:07:48Z</time>
      </trkpt>
      <trkpt lat="48.93893" lon="7.87471">
        <ele>164.8</ele>
        <time>2021-06-26T12:07:50Z</time>
      </trkpt>
      <trkpt lat="48.93894" lon="7.87469">
        <ele>164.8</ele>
        <time>2021-06-26T12:07:51Z</time>
      </trkpt>
      <trkpt lat="48.93895" lon="7.87468">
        <ele>164.8</ele>
        <time>2021-06-26T12:07:52Z</time>
      </trkpt>
      <trkpt lat="48.93895" lon="7.87467">
        <ele>164.8</ele>
        <time>2021-06-26T12:07:53Z</time>
      </trkpt>
      <trkpt lat="48.93895" lon="7.87467">
        <ele>164.8</ele>
        <time>2021-06-26T12:07:54Z</time>
      </trkpt>
      <trkpt lat="48.93896" lon="7.87466">
        <ele>164.8</ele>
        <time>2021-06-26T12:07:56Z</time>
      </trkpt>
      <trkpt lat="48.93897" lon="7.87464">
        <ele>164.8</ele>
        <time>2021-06-26T12:07:59Z</time>
      </trkpt>
      <trkpt lat="48.93899" lon="7.8746">
        <ele>164.8</ele>
        <time>2021-06-26T12:08:01Z</time>
      </trkpt>
      <trkpt lat="48.9391" lon="7.87447">
        <ele>164.8</ele>
        <time>2021-06-26T12:08:06Z</time>
      </trkpt>
      <trkpt lat="48.93915" lon="7.8744">
        <ele>164.8</ele>
        <time>2021-06-26T12:08:08Z</time>
      </trkpt>
      <trkpt lat="48.93918" lon="7.87437">
        <ele>164.8</ele>
        <time>2021-06-26T12:08:09Z</time>
      </trkpt>
      <trkpt lat="48.93923" lon="7.87433">
        <ele>164.8</ele>
        <time>2021-06-26T12:08:11Z</time>
      </trkpt>
      <trkpt lat="48.93932" lon="7.87426">
        <ele>165</ele>
        <time>2021-06-26T12:08:14Z</time>
      </trkpt>
      <trkpt lat="48.93952" lon="7.87409">
        <ele>165.6</ele>
        <time>2021-06-26T12:08:21Z</time>
      </trkpt>
      <trkpt lat="48.93965" lon="7.87397">
        <ele>166</ele>
        <time>2021-06-26T12:08:25Z</time>
      </trkpt>
      <trkpt lat="48.93972" lon="7.87385">
        <ele>166.2</ele>
        <time>2021-06-26T12:08:28Z</time>
      </trkpt>
      <trkpt lat="48.93983" lon="7.87351">
        <ele>166.6</ele>
        <time>2021-06-26T12:08:35Z</time>
      </trkpt>
      <trkpt lat="48.93988" lon="7.87336">
        <ele>167</ele>
        <time>2021-06-26T12:08:38Z</time>
      </trkpt>
      <trkpt lat="48.93993" lon="7.87317">
        <ele>167.6</ele>
        <time>2021-06-26T12:08:42Z</time>
      </trkpt>
      <trkpt lat="48.93995" lon="7.87312">
        <ele>167.8</ele>
        <time>2021-06-26T12:08:43Z</time>
      </trkpt>
      <trkpt lat="48.93996" lon="7.87307">
        <ele>167.8</ele>
        <time>2021-06-26T12:08:44Z</time>
      </trkpt>
      <trkpt lat="48.93999" lon="7.87298">
        <ele>168.2</ele>
        <time>2021-06-26T12:08:46Z</time>
      </trkpt>
      <trkpt lat="48.94004" lon="7.8728">
        <ele>168.8</ele>
        <time>2021-06-26T12:08:50Z</time>
      </trkpt>
      <trkpt lat="48.94006" lon="7.87276">
        <ele>169</ele>
        <time>2021-06-26T12:08:51Z</time>
      </trkpt>
      <trkpt lat="48.94008" lon="7.87272">
        <ele>169.4</ele>
        <time>2021-06-26T12:08:52Z</time>
      </trkpt>
      <trkpt lat="48.9401" lon="7.87268">
        <ele>169.6</ele>
        <time>2021-06-26T12:08:53Z</time>
      </trkpt>
      <trkpt lat="48.94012" lon="7.87265">
        <ele>169.8</ele>
        <time>2021-06-26T12:08:54Z</time>
      </trkpt>
      <trkpt lat="48.94014" lon="7.87261">
        <ele>170</ele>
        <time>2021-06-26T12:08:55Z</time>
      </trkpt>
      <trkpt lat="48.94016" lon="7.87257">
        <ele>170.2</ele>
        <time>2021-06-26T12:08:56Z</time>
      </trkpt>
      <trkpt lat="48.94018" lon="7.87254">
        <ele>170.6</ele>
        <time>2021-06-26T12:08:57Z</time>
      </trkpt>
      <trkpt lat="48.94021" lon="7.87251">
        <ele>171</ele>
        <time>2021-06-26T12:08:58Z</time>
      </trkpt>
      <trkpt lat="48.94022" lon="7.87249">
        <ele>171.4</ele>
        <time>2021-06-26T12:08:59Z</time>
      </trkpt>
      <trkpt lat="48.94024" lon="7.87247">
        <ele>171.4</ele>
        <time>2021-06-26T12:09:00Z</time>
      </trkpt>
      <trkpt lat="48.94026" lon="7.87244">
        <ele>171.6</ele>
        <time>2021-06-26T12:09:01Z</time>
      </trkpt>
      <trkpt lat="48.94027" lon="7.87242">
        <ele>171.8</ele>
        <time>2021-06-26T12:09:02Z</time>
      </trkpt>
      <trkpt lat="48.94029" lon="7.8724">
        <ele>172.2</ele>
        <time>2021-06-26T12:09:03Z</time>
      </trkpt>
      <trkpt lat="48.94031" lon="7.87237">
        <ele>172.4</ele>
        <time>2021-06-26T12:09:04Z</time>
      </trkpt>
      <trkpt lat="48.94033" lon="7.87235">
        <ele>172.6</ele>
        <time>2021-06-26T12:09:05Z</time>
      </trkpt>
      <trkpt lat="48.94035" lon="7.87232">
        <ele>172.8</ele>
        <time>2021-06-26T12:09:06Z</time>
      </trkpt>
      <trkpt lat="48.94037" lon="7.87229">
        <ele>173.2</ele>
        <time>2021-06-26T12:09:07Z</time>
      </trkpt>
      <trkpt lat="48.94039" lon="7.87227">
        <ele>173.4</ele>
        <time>2021-06-26T12:09:08Z</time>
      </trkpt>
      <trkpt lat="48.94041" lon="7.87224">
        <ele>173.6</ele>
        <time>2021-06-26T12:09:09Z</time>
      </trkpt>
      <trkpt lat="48.94043" lon="7.87222">
        <ele>173.8</ele>
        <time>2021-06-26T12:09:10Z</time>
      </trkpt>
      <trkpt lat="48.94045" lon="7.87219">
        <ele>174</ele>
        <time>2021-06-26T12:09:11Z</time>
      </trkpt>
      <trkpt lat="48.94047" lon="7.87217">
        <ele>174.2</ele>
        <time>2021-06-26T12:09:12Z</time>
      </trkpt>
      <trkpt lat="48.94049" lon="7.87214">
        <ele>174.4</ele>
        <time>2021-06-26T12:09:13Z</time>
      </trkpt>
      <trkpt lat="48.94051" lon="7.87211">
        <ele>174.6</ele>
        <time>2021-06-26T12:09:14Z</time>
      </trkpt>
      <trkpt lat="48.94052" lon="7.87209">
        <ele>174.8</ele>
        <time>2021-06-26T12:09:15Z</time>
      </trkpt>
      <trkpt lat="48.94054" lon="7.87206">
        <ele>174.8</ele>
        <time>2021-06-26T12:09:16Z</time>
      </trkpt>
      <trkpt lat="48.94055" lon="7.87203">
        <ele>175</ele>
        <time>2021-06-26T12:09:17Z</time>
      </trkpt>
      <trkpt lat="48.94057" lon="7.872">
        <ele>175.2</ele>
        <time>2021-06-26T12:09:18Z</time>
      </trkpt>
      <trkpt lat="48.94059" lon="7.87198">
        <ele>175.4</ele>
        <time>2021-06-26T12:09:19Z</time>
      </trkpt>
      <trkpt lat="48.94061" lon="7.87195">
        <ele>175.6</ele>
        <time>2021-06-26T12:09:20Z</time>
      </trkpt>
      <trkpt lat="48.94063" lon="7.87192">
        <ele>175.8</ele>
        <time>2021-06-26T12:09:21Z</time>
      </trkpt>
      <trkpt lat="48.94065" lon="7.87189">
        <ele>176</ele>
        <time>2021-06-26T12:09:22Z</time>
      </trkpt>
      <trkpt lat="48.94066" lon="7.87186">
        <ele>176</ele>
        <time>2021-06-26T12:09:23Z</time>
      </trkpt>
      <trkpt lat="48.94068" lon="7.87183">
        <ele>176.4</ele>
        <time>2021-06-26T12:09:24Z</time>
      </trkpt>
      <trkpt lat="48.9407" lon="7.8718">
        <ele>176.6</ele>
        <time>2021-06-26T12:09:25Z</time>
      </trkpt>
      <trkpt lat="48.94072" lon="7.87177">
        <ele>177</ele>
        <time>2021-06-26T12:09:26Z</time>
      </trkpt>
      <trkpt lat="48.94074" lon="7.87174">
        <ele>177.2</ele>
        <time>2021-06-26T12:09:27Z</time>
      </trkpt>
      <trkpt lat="48.94075" lon="7.87172">
        <ele>177.4</ele>
        <time>2021-06-26T12:09:28Z</time>
      </trkpt>
      <trkpt lat="48.94077" lon="7.87168">
        <ele>177.4</ele>
        <time>2021-06-26T12:09:29Z</time>
      </trkpt>
      <trkpt lat="48.94079" lon="7.87165">
        <ele>177.6</ele>
        <time>2021-06-26T12:09:30Z</time>
      </trkpt>
      <trkpt lat="48.9408" lon="7.87162">
        <ele>178</ele>
        <time>2021-06-26T12:09:31Z</time>
      </trkpt>
      <trkpt lat="48.94082" lon="7.87159">
        <ele>178</ele>
        <time>2021-06-26T12:09:32Z</time>
      </trkpt>
      <trkpt lat="48.94084" lon="7.87157">
        <ele>178.2</ele>
        <time>2021-06-26T12:09:33Z</time>
      </trkpt>
      <trkpt lat="48.94086" lon="7.87154">
        <ele>178.4</ele>
        <time>2021-06-26T12:09:34Z</time>
      </trkpt>
      <trkpt lat="48.94087" lon="7.87151">
        <ele>178.4</ele>
        <time>2021-06-26T12:09:35Z</time>
      </trkpt>
      <trkpt lat="48.94089" lon="7.87148">
        <ele>178.6</ele>
        <time>2021-06-26T12:09:36Z</time>
      </trkpt>
      <trkpt lat="48.94091" lon="7.87145">
        <ele>178.8</ele>
        <time>2021-06-26T12:09:37Z</time>
      </trkpt>
      <trkpt lat="48.94092" lon="7.87143">
        <ele>178.8</ele>
        <time>2021-06-26T12:09:38Z</time>
      </trkpt>
      <trkpt lat="48.94094" lon="7.8714">
        <ele>179</ele>
        <time>2021-06-26T12:09:39Z</time>
      </trkpt>
      <trkpt lat="48.94096" lon="7.87136">
        <ele>179.2</ele>
        <time>2021-06-26T12:09:40Z</time>
      </trkpt>
      <trkpt lat="48.94098" lon="7.87133">
        <ele>179.2</ele>
        <time>2021-06-26T12:09:41Z</time>
      </trkpt>
      <trkpt lat="48.941" lon="7.8713">
        <ele>179.4</ele>
        <time>2021-06-26T12:09:42Z</time>
      </trkpt>
      <trkpt lat="48.94102" lon="7.87127">
        <ele>179.6</ele>
        <time>2021-06-26T12:09:43Z</time>
      </trkpt>
      <trkpt lat="48.94104" lon="7.87124">
        <ele>179.8</ele>
        <time>2021-06-26T12:09:44Z</time>
      </trkpt>
      <trkpt lat="48.94106" lon="7.8712">
        <ele>180</ele>
        <time>2021-06-26T12:09:45Z</time>
      </trkpt>
      <trkpt lat="48.94108" lon="7.87116">
        <ele>180.2</ele>
        <time>2021-06-26T12:09:46Z</time>
      </trkpt>
      <trkpt lat="48.9411" lon="7.87112">
        <ele>180.4</ele>
        <time>2021-06-26T12:09:47Z</time>
      </trkpt>
      <trkpt lat="48.94112" lon="7.87109">
        <ele>180.6</ele>
        <time>2021-06-26T12:09:48Z</time>
      </trkpt>
      <trkpt lat="48.94114" lon="7.87105">
        <ele>180.6</ele>
        <time>2021-06-26T12:09:49Z</time>
      </trkpt>
      <trkpt lat="48.94116" lon="7.87101">
        <ele>180.8</ele>
        <time>2021-06-26T12:09:50Z</time>
      </trkpt>
      <trkpt lat="48.94118" lon="7.87097">
        <ele>180.8</ele>
        <time>2021-06-26T12:09:51Z</time>
      </trkpt>
      <trkpt lat="48.94119" lon="7.87095">
        <ele>180.8</ele>
        <time>2021-06-26T12:09:52Z</time>
      </trkpt>
      <trkpt lat="48.94122" lon="7.8709">
        <ele>181</ele>
        <time>2021-06-26T12:09:53Z</time>
      </trkpt>
      <trkpt lat="48.94124" lon="7.87086">
        <ele>181</ele>
        <time>2021-06-26T12:09:54Z</time>
      </trkpt>
      <trkpt lat="48.94126" lon="7.87082">
        <ele>181.2</ele>
        <time>2021-06-26T12:09:55Z</time>
      </trkpt>
      <trkpt lat="48.94129" lon="7.87077">
        <ele>181.2</ele>
        <time>2021-06-26T12:09:56Z</time>
      </trkpt>
      <trkpt lat="48.94131" lon="7.87072">
        <ele>181.2</ele>
        <time>2021-06-26T12:09:57Z</time>
      </trkpt>
      <trkpt lat="48.94133" lon="7.87068">
        <ele>181.4</ele>
        <time>2021-06-26T12:09:58Z</time>
      </trkpt>
      <trkpt lat="48.94136" lon="7.87063">
        <ele>181.4</ele>
        <time>2021-06-26T12:09:59Z</time>
      </trkpt>
      <trkpt lat="48.94138" lon="7.87059">
        <ele>181.4</ele>
        <time>2021-06-26T12:10:00Z</time>
      </trkpt>
      <trkpt lat="48.9414" lon="7.87054">
        <ele>181.6</ele>
        <time>2021-06-26T12:10:01Z</time>
      </trkpt>
      <trkpt lat="48.94142" lon="7.8705">
        <ele>181.6</ele>
        <time>2021-06-26T12:10:02Z</time>
      </trkpt>
      <trkpt lat="48.94145" lon="7.87046">
        <ele>181.6</ele>
        <time>2021-06-26T12:10:03Z</time>
      </trkpt>
      <trkpt lat="48.94147" lon="7.87041">
        <ele>181.8</ele>
        <time>2021-06-26T12:10:04Z</time>
      </trkpt>
      <trkpt lat="48.94149" lon="7.87037">
        <ele>181.8</ele>
        <time>2021-06-26T12:10:05Z</time>
      </trkpt>
      <trkpt lat="48.94151" lon="7.87033">
        <ele>181.8</ele>
        <time>2021-06-26T12:10:06Z</time>
      </trkpt>
      <trkpt lat="48.94153" lon="7.87028">
        <ele>181.8</ele>
        <time>2021-06-26T12:10:07Z</time>
      </trkpt>
      <trkpt lat="48.94156" lon="7.87024">
        <ele>181.8</ele>
        <time>2021-06-26T12:10:08Z</time>
      </trkpt>
      <trkpt lat="48.94159" lon="7.87019">
        <ele>181.8</ele>
        <time>2021-06-26T12:10:09Z</time>
      </trkpt>
      <trkpt lat="48.94161" lon="7.87014">
        <ele>181.8</ele>
        <time>2021-06-26T12:10:10Z</time>
      </trkpt>
      <trkpt lat="48.94186" lon="7.86973">
        <ele>181.8</ele>
        <time>2021-06-26T12:10:18Z</time>
      </trkpt>
      <trkpt lat="48.94189" lon="7.86967">
        <ele>181.8</ele>
        <time>2021-06-26T12:10:19Z</time>
      </trkpt>
      <trkpt lat="48.94204" lon="7.86937">
        <ele>181.6</ele>
        <time>2021-06-26T12:10:24Z</time>
      </trkpt>
      <trkpt lat="48.94232" lon="7.86875">
        <ele>180.8</ele>
        <time>2021-06-26T12:10:33Z</time>
      </trkpt>
      <trkpt lat="48.94259" lon="7.86812">
        <ele>180</ele>
        <time>2021-06-26T12:10:42Z</time>
      </trkpt>
      <trkpt lat="48.94268" lon="7.86792">
        <ele>179.8</ele>
        <time>2021-06-26T12:10:45Z</time>
      </trkpt>
      <trkpt lat="48.94293" lon="7.86737">
        <ele>179.8</ele>
        <time>2021-06-26T12:10:53Z</time>
      </trkpt>
      <trkpt lat="48.94305" lon="7.86712">
        <ele>179.8</ele>
        <time>2021-06-26T12:10:57Z</time>
      </trkpt>
      <trkpt lat="48.94308" lon="7.86706">
        <ele>179.8</ele>
        <time>2021-06-26T12:10:58Z</time>
      </trkpt>
      <trkpt lat="48.9431" lon="7.867">
        <ele>179.8</ele>
        <time>2021-06-26T12:10:59Z</time>
      </trkpt>
      <trkpt lat="48.94313" lon="7.86694">
        <ele>179.8</ele>
        <time>2021-06-26T12:11:00Z</time>
      </trkpt>
      <trkpt lat="48.94316" lon="7.86689">
        <ele>180</ele>
        <time>2021-06-26T12:11:01Z</time>
      </trkpt>
      <trkpt lat="48.94318" lon="7.86683">
        <ele>180</ele>
        <time>2021-06-26T12:11:02Z</time>
      </trkpt>
      <trkpt lat="48.9432" lon="7.86678">
        <ele>180</ele>
        <time>2021-06-26T12:11:03Z</time>
      </trkpt>
      <trkpt lat="48.94323" lon="7.86672">
        <ele>180.2</ele>
        <time>2021-06-26T12:11:04Z</time>
      </trkpt>
      <trkpt lat="48.94326" lon="7.86667">
        <ele>180.2</ele>
        <time>2021-06-26T12:11:05Z</time>
      </trkpt>
      <trkpt lat="48.94328" lon="7.86662">
        <ele>180.4</ele>
        <time>2021-06-26T12:11:06Z</time>
      </trkpt>
      <trkpt lat="48.9433" lon="7.86657">
        <ele>180.6</ele>
        <time>2021-06-26T12:11:07Z</time>
      </trkpt>
      <trkpt lat="48.94332" lon="7.86651">
        <ele>180.8</ele>
        <time>2021-06-26T12:11:08Z</time>
      </trkpt>
      <trkpt lat="48.94335" lon="7.86647">
        <ele>180.8</ele>
        <time>2021-06-26T12:11:09Z</time>
      </trkpt>
      <trkpt lat="48.94337" lon="7.86642">
        <ele>181</ele>
        <time>2021-06-26T12:11:10Z</time>
      </trkpt>
      <trkpt lat="48.94339" lon="7.86638">
        <ele>181</ele>
        <time>2021-06-26T12:11:11Z</time>
      </trkpt>
      <trkpt lat="48.94341" lon="7.86633">
        <ele>181.2</ele>
        <time>2021-06-26T12:11:12Z</time>
      </trkpt>
      <trkpt lat="48.94343" lon="7.86629">
        <ele>181.2</ele>
        <time>2021-06-26T12:11:13Z</time>
      </trkpt>
      <trkpt lat="48.94346" lon="7.86624">
        <ele>181.4</ele>
        <time>2021-06-26T12:11:14Z</time>
      </trkpt>
      <trkpt lat="48.94347" lon="7.8662">
        <ele>181.6</ele>
        <time>2021-06-26T12:11:15Z</time>
      </trkpt>
      <trkpt lat="48.94349" lon="7.86615">
        <ele>181.6</ele>
        <time>2021-06-26T12:11:16Z</time>
      </trkpt>
      <trkpt lat="48.94352" lon="7.86611">
        <ele>182</ele>
        <time>2021-06-26T12:11:17Z</time>
      </trkpt>
      <trkpt lat="48.94354" lon="7.86607">
        <ele>182.2</ele>
        <time>2021-06-26T12:11:18Z</time>
      </trkpt>
      <trkpt lat="48.94356" lon="7.86603">
        <ele>182.4</ele>
        <time>2021-06-26T12:11:19Z</time>
      </trkpt>
      <trkpt lat="48.94358" lon="7.86599">
        <ele>182.4</ele>
        <time>2021-06-26T12:11:20Z</time>
      </trkpt>
      <trkpt lat="48.94364" lon="7.86583">
        <ele>182.8</ele>
        <time>2021-06-26T12:11:23Z</time>
      </trkpt>
      <trkpt lat="48.94368" lon="7.86573">
        <ele>183.2</ele>
        <time>2021-06-26T12:11:25Z</time>
      </trkpt>
      <trkpt lat="48.94369" lon="7.86568">
        <ele>183.4</ele>
        <time>2021-06-26T12:11:26Z</time>
      </trkpt>
      <trkpt lat="48.94371" lon="7.86564">
        <ele>183.6</ele>
        <time>2021-06-26T12:11:27Z</time>
      </trkpt>
      <trkpt lat="48.94372" lon="7.86559">
        <ele>183.8</ele>
        <time>2021-06-26T12:11:28Z</time>
      </trkpt>
      <trkpt lat="48.94373" lon="7.86554">
        <ele>184.2</ele>
        <time>2021-06-26T12:11:29Z</time>
      </trkpt>
      <trkpt lat="48.94374" lon="7.8655">
        <ele>184.2</ele>
        <time>2021-06-26T12:11:30Z</time>
      </trkpt>
      <trkpt lat="48.94375" lon="7.86545">
        <ele>184.4</ele>
        <time>2021-06-26T12:11:31Z</time>
      </trkpt>
      <trkpt lat="48.94376" lon="7.86541">
        <ele>184.6</ele>
        <time>2021-06-26T12:11:32Z</time>
      </trkpt>
      <trkpt lat="48.94376" lon="7.86536">
        <ele>185</ele>
        <time>2021-06-26T12:11:33Z</time>
      </trkpt>
      <trkpt lat="48.94377" lon="7.86531">
        <ele>185</ele>
        <time>2021-06-26T12:11:34Z</time>
      </trkpt>
      <trkpt lat="48.94378" lon="7.86526">
        <ele>185.4</ele>
        <time>2021-06-26T12:11:35Z</time>
      </trkpt>
      <trkpt lat="48.94379" lon="7.8652">
        <ele>185.4</ele>
        <time>2021-06-26T12:11:36Z</time>
      </trkpt>
      <trkpt lat="48.94379" lon="7.86515">
        <ele>185.6</ele>
        <time>2021-06-26T12:11:37Z</time>
      </trkpt>
      <trkpt lat="48.94379" lon="7.8651">
        <ele>186</ele>
        <time>2021-06-26T12:11:38Z</time>
      </trkpt>
      <trkpt lat="48.9438" lon="7.86504">
        <ele>186.2</ele>
        <time>2021-06-26T12:11:39Z</time>
      </trkpt>
      <trkpt lat="48.9438" lon="7.86498">
        <ele>186.4</ele>
        <time>2021-06-26T12:11:40Z</time>
      </trkpt>
      <trkpt lat="48.9438" lon="7.86492">
        <ele>186.4</ele>
        <time>2021-06-26T12:11:41Z</time>
      </trkpt>
      <trkpt lat="48.9438" lon="7.86486">
        <ele>186.8</ele>
        <time>2021-06-26T12:11:42Z</time>
      </trkpt>
      <trkpt lat="48.9438" lon="7.86481">
        <ele>186.8</ele>
        <time>2021-06-26T12:11:43Z</time>
      </trkpt>
      <trkpt lat="48.9438" lon="7.86475">
        <ele>187</ele>
        <time>2021-06-26T12:11:44Z</time>
      </trkpt>
      <trkpt lat="48.9438" lon="7.86469">
        <ele>187</ele>
        <time>2021-06-26T12:11:45Z</time>
      </trkpt>
      <trkpt lat="48.9438" lon="7.86462">
        <ele>187.2</ele>
        <time>2021-06-26T12:11:46Z</time>
      </trkpt>
      <trkpt lat="48.9438" lon="7.86457">
        <ele>187.4</ele>
        <time>2021-06-26T12:11:47Z</time>
      </trkpt>
      <trkpt lat="48.9438" lon="7.86451">
        <ele>187.4</ele>
        <time>2021-06-26T12:11:48Z</time>
      </trkpt>
      <trkpt lat="48.9438" lon="7.86446">
        <ele>187.4</ele>
        <time>2021-06-26T12:11:49Z</time>
      </trkpt>
      <trkpt lat="48.9438" lon="7.8644">
        <ele>187.6</ele>
        <time>2021-06-26T12:11:50Z</time>
      </trkpt>
      <trkpt lat="48.9438" lon="7.86435">
        <ele>187.6</ele>
        <time>2021-06-26T12:11:51Z</time>
      </trkpt>
      <trkpt lat="48.9438" lon="7.8643">
        <ele>187.8</ele>
        <time>2021-06-26T12:11:52Z</time>
      </trkpt>
      <trkpt lat="48.94381" lon="7.86424">
        <ele>187.8</ele>
        <time>2021-06-26T12:11:53Z</time>
      </trkpt>
      <trkpt lat="48.94381" lon="7.86419">
        <ele>187.8</ele>
        <time>2021-06-26T12:11:54Z</time>
      </trkpt>
      <trkpt lat="48.94381" lon="7.86414">
        <ele>187.8</ele>
        <time>2021-06-26T12:11:55Z</time>
      </trkpt>
      <trkpt lat="48.94381" lon="7.86408">
        <ele>188</ele>
        <time>2021-06-26T12:11:56Z</time>
      </trkpt>
      <trkpt lat="48.94381" lon="7.86403">
        <ele>188.2</ele>
        <time>2021-06-26T12:11:57Z</time>
      </trkpt>
      <trkpt lat="48.94381" lon="7.86398">
        <ele>188.2</ele>
        <time>2021-06-26T12:11:58Z</time>
      </trkpt>
      <trkpt lat="48.94381" lon="7.86394">
        <ele>188.4</ele>
        <time>2021-06-26T12:11:59Z</time>
      </trkpt>
      <trkpt lat="48.94381" lon="7.86389">
        <ele>188.6</ele>
        <time>2021-06-26T12:12:00Z</time>
      </trkpt>
      <trkpt lat="48.94381" lon="7.86383">
        <ele>188.6</ele>
        <time>2021-06-26T12:12:01Z</time>
      </trkpt>
      <trkpt lat="48.94381" lon="7.86378">
        <ele>188.8</ele>
        <time>2021-06-26T12:12:02Z</time>
      </trkpt>
      <trkpt lat="48.94382" lon="7.86373">
        <ele>188.8</ele>
        <time>2021-06-26T12:12:03Z</time>
      </trkpt>
      <trkpt lat="48.94382" lon="7.86367">
        <ele>189</ele>
        <time>2021-06-26T12:12:04Z</time>
      </trkpt>
      <trkpt lat="48.94382" lon="7.8636">
        <ele>189.2</ele>
        <time>2021-06-26T12:12:05Z</time>
      </trkpt>
      <trkpt lat="48.94382" lon="7.86353">
        <ele>189.4</ele>
        <time>2021-06-26T12:12:06Z</time>
      </trkpt>
      <trkpt lat="48.94383" lon="7.86347">
        <ele>189.6</ele>
        <time>2021-06-26T12:12:07Z</time>
      </trkpt>
      <trkpt lat="48.94383" lon="7.86342">
        <ele>189.8</ele>
        <time>2021-06-26T12:12:08Z</time>
      </trkpt>
      <trkpt lat="48.94383" lon="7.86337">
        <ele>190</ele>
        <time>2021-06-26T12:12:09Z</time>
      </trkpt>
      <trkpt lat="48.94384" lon="7.86332">
        <ele>190</ele>
        <time>2021-06-26T12:12:10Z</time>
      </trkpt>
      <trkpt lat="48.94384" lon="7.86327">
        <ele>190.2</ele>
        <time>2021-06-26T12:12:11Z</time>
      </trkpt>
      <trkpt lat="48.94384" lon="7.86323">
        <ele>190.2</ele>
        <time>2021-06-26T12:12:12Z</time>
      </trkpt>
      <trkpt lat="48.94385" lon="7.86318">
        <ele>190.4</ele>
        <time>2021-06-26T12:12:13Z</time>
      </trkpt>
      <trkpt lat="48.94385" lon="7.86314">
        <ele>190.6</ele>
        <time>2021-06-26T12:12:14Z</time>
      </trkpt>
      <trkpt lat="48.94385" lon="7.86309">
        <ele>190.8</ele>
        <time>2021-06-26T12:12:15Z</time>
      </trkpt>
      <trkpt lat="48.94385" lon="7.86304">
        <ele>190.8</ele>
        <time>2021-06-26T12:12:16Z</time>
      </trkpt>
      <trkpt lat="48.94386" lon="7.86299">
        <ele>191</ele>
        <time>2021-06-26T12:12:17Z</time>
      </trkpt>
      <trkpt lat="48.94386" lon="7.86294">
        <ele>191.2</ele>
        <time>2021-06-26T12:12:18Z</time>
      </trkpt>
      <trkpt lat="48.94386" lon="7.8629">
        <ele>191.4</ele>
        <time>2021-06-26T12:12:19Z</time>
      </trkpt>
      <trkpt lat="48.94385" lon="7.86285">
        <ele>191.6</ele>
        <time>2021-06-26T12:12:20Z</time>
      </trkpt>
      <trkpt lat="48.94386" lon="7.86281">
        <ele>191.6</ele>
        <time>2021-06-26T12:12:21Z</time>
      </trkpt>
      <trkpt lat="48.94386" lon="7.86276">
        <ele>191.8</ele>
        <time>2021-06-26T12:12:22Z</time>
      </trkpt>
      <trkpt lat="48.94386" lon="7.86271">
        <ele>192</ele>
        <time>2021-06-26T12:12:23Z</time>
      </trkpt>
      <trkpt lat="48.94386" lon="7.86266">
        <ele>192</ele>
        <time>2021-06-26T12:12:24Z</time>
      </trkpt>
      <trkpt lat="48.94386" lon="7.86262">
        <ele>192.2</ele>
        <time>2021-06-26T12:12:25Z</time>
      </trkpt>
      <trkpt lat="48.94387" lon="7.86257">
        <ele>192.2</ele>
        <time>2021-06-26T12:12:26Z</time>
      </trkpt>
      <trkpt lat="48.94387" lon="7.86253">
        <ele>192.4</ele>
        <time>2021-06-26T12:12:27Z</time>
      </trkpt>
      <trkpt lat="48.94387" lon="7.86249">
        <ele>192.6</ele>
        <time>2021-06-26T12:12:28Z</time>
      </trkpt>
      <trkpt lat="48.94388" lon="7.86246">
        <ele>192.8</ele>
        <time>2021-06-26T12:12:29Z</time>
      </trkpt>
      <trkpt lat="48.94388" lon="7.86242">
        <ele>193</ele>
        <time>2021-06-26T12:12:30Z</time>
      </trkpt>
      <trkpt lat="48.94388" lon="7.86238">
        <ele>193</ele>
        <time>2021-06-26T12:12:31Z</time>
      </trkpt>
      <trkpt lat="48.94388" lon="7.86234">
        <ele>193</ele>
        <time>2021-06-26T12:12:32Z</time>
      </trkpt>
      <trkpt lat="48.94388" lon="7.86229">
        <ele>193</ele>
        <time>2021-06-26T12:12:33Z</time>
      </trkpt>
      <trkpt lat="48.94388" lon="7.86225">
        <ele>193.2</ele>
        <time>2021-06-26T12:12:34Z</time>
      </trkpt>
      <trkpt lat="48.94389" lon="7.8622">
        <ele>193.2</ele>
        <time>2021-06-26T12:12:35Z</time>
      </trkpt>
      <trkpt lat="48.94389" lon="7.86217">
        <ele>193.2</ele>
        <time>2021-06-26T12:12:36Z</time>
      </trkpt>
      <trkpt lat="48.94389" lon="7.86213">
        <ele>193.2</ele>
        <time>2021-06-26T12:12:37Z</time>
      </trkpt>
      <trkpt lat="48.94389" lon="7.8621">
        <ele>193.2</ele>
        <time>2021-06-26T12:12:38Z</time>
      </trkpt>
      <trkpt lat="48.9439" lon="7.86207">
        <ele>193.4</ele>
        <time>2021-06-26T12:12:39Z</time>
      </trkpt>
      <trkpt lat="48.9439" lon="7.86204">
        <ele>193.4</ele>
        <time>2021-06-26T12:12:40Z</time>
      </trkpt>
      <trkpt lat="48.94391" lon="7.862">
        <ele>193.4</ele>
        <time>2021-06-26T12:12:41Z</time>
      </trkpt>
      <trkpt lat="48.94391" lon="7.86196">
        <ele>193.4</ele>
        <time>2021-06-26T12:12:42Z</time>
      </trkpt>
      <trkpt lat="48.94391" lon="7.86192">
        <ele>193.4</ele>
        <time>2021-06-26T12:12:43Z</time>
      </trkpt>
      <trkpt lat="48.94391" lon="7.86187">
        <ele>193.4</ele>
        <time>2021-06-26T12:12:44Z</time>
      </trkpt>
      <trkpt lat="48.94391" lon="7.86182">
        <ele>193.4</ele>
        <time>2021-06-26T12:12:45Z</time>
      </trkpt>
      <trkpt lat="48.9439" lon="7.86152">
        <ele>193.4</ele>
        <time>2021-06-26T12:12:51Z</time>
      </trkpt>
      <trkpt lat="48.94391" lon="7.86117">
        <ele>193.6</ele>
        <time>2021-06-26T12:12:58Z</time>
      </trkpt>
      <trkpt lat="48.94392" lon="7.86112">
        <ele>193.6</ele>
        <time>2021-06-26T12:12:59Z</time>
      </trkpt>
      <trkpt lat="48.94392" lon="7.86107">
        <ele>193.6</ele>
        <time>2021-06-26T12:13:00Z</time>
      </trkpt>
      <trkpt lat="48.94392" lon="7.86102">
        <ele>193.8</ele>
        <time>2021-06-26T12:13:01Z</time>
      </trkpt>
      <trkpt lat="48.94392" lon="7.86097">
        <ele>193.8</ele>
        <time>2021-06-26T12:13:02Z</time>
      </trkpt>
      <trkpt lat="48.94392" lon="7.86093">
        <ele>193.8</ele>
        <time>2021-06-26T12:13:03Z</time>
      </trkpt>
      <trkpt lat="48.94393" lon="7.86088">
        <ele>193.8</ele>
        <time>2021-06-26T12:13:04Z</time>
      </trkpt>
      <trkpt lat="48.94393" lon="7.86083">
        <ele>193.8</ele>
        <time>2021-06-26T12:13:05Z</time>
      </trkpt>
      <trkpt lat="48.94393" lon="7.86078">
        <ele>193.8</ele>
        <time>2021-06-26T12:13:06Z</time>
      </trkpt>
      <trkpt lat="48.94393" lon="7.86074">
        <ele>194</ele>
        <time>2021-06-26T12:13:07Z</time>
      </trkpt>
      <trkpt lat="48.94394" lon="7.86039">
        <ele>194.6</ele>
        <time>2021-06-26T12:13:14Z</time>
      </trkpt>
      <trkpt lat="48.94394" lon="7.86034">
        <ele>194.6</ele>
        <time>2021-06-26T12:13:15Z</time>
      </trkpt>
      <trkpt lat="48.94396" lon="7.85999">
        <ele>195.8</ele>
        <time>2021-06-26T12:13:22Z</time>
      </trkpt>
      <trkpt lat="48.94397" lon="7.8598">
        <ele>196.8</ele>
        <time>2021-06-26T12:13:26Z</time>
      </trkpt>
      <trkpt lat="48.94397" lon="7.8597">
        <ele>197.2</ele>
        <time>2021-06-26T12:13:28Z</time>
      </trkpt>
      <trkpt lat="48.94397" lon="7.85965">
        <ele>197.4</ele>
        <time>2021-06-26T12:13:29Z</time>
      </trkpt>
      <trkpt lat="48.94397" lon="7.8596">
        <ele>197.6</ele>
        <time>2021-06-26T12:13:30Z</time>
      </trkpt>
      <trkpt lat="48.94397" lon="7.85955">
        <ele>197.6</ele>
        <time>2021-06-26T12:13:31Z</time>
      </trkpt>
      <trkpt lat="48.94397" lon="7.8595">
        <ele>197.8</ele>
        <time>2021-06-26T12:13:32Z</time>
      </trkpt>
      <trkpt lat="48.94397" lon="7.85945">
        <ele>198</ele>
        <time>2021-06-26T12:13:33Z</time>
      </trkpt>
      <trkpt lat="48.94398" lon="7.8594">
        <ele>198</ele>
        <time>2021-06-26T12:13:34Z</time>
      </trkpt>
      <trkpt lat="48.94397" lon="7.85935">
        <ele>198.2</ele>
        <time>2021-06-26T12:13:35Z</time>
      </trkpt>
      <trkpt lat="48.94397" lon="7.85929">
        <ele>198.2</ele>
        <time>2021-06-26T12:13:36Z</time>
      </trkpt>
      <trkpt lat="48.94397" lon="7.85925">
        <ele>198.2</ele>
        <time>2021-06-26T12:13:37Z</time>
      </trkpt>
      <trkpt lat="48.94397" lon="7.8592">
        <ele>198.2</ele>
        <time>2021-06-26T12:13:38Z</time>
      </trkpt>
      <trkpt lat="48.94397" lon="7.85914">
        <ele>198.2</ele>
        <time>2021-06-26T12:13:39Z</time>
      </trkpt>
      <trkpt lat="48.94397" lon="7.85909">
        <ele>198.2</ele>
        <time>2021-06-26T12:13:40Z</time>
      </trkpt>
      <trkpt lat="48.94396" lon="7.85905">
        <ele>198.2</ele>
        <time>2021-06-26T12:13:41Z</time>
      </trkpt>
      <trkpt lat="48.94396" lon="7.85899">
        <ele>198.4</ele>
        <time>2021-06-26T12:13:42Z</time>
      </trkpt>
      <trkpt lat="48.94396" lon="7.85894">
        <ele>198.4</ele>
        <time>2021-06-26T12:13:43Z</time>
      </trkpt>
      <trkpt lat="48.94396" lon="7.85888">
        <ele>198.4</ele>
        <time>2021-06-26T12:13:44Z</time>
      </trkpt>
      <trkpt lat="48.94396" lon="7.85883">
        <ele>198.4</ele>
        <time>2021-06-26T12:13:45Z</time>
      </trkpt>
      <trkpt lat="48.94397" lon="7.85878">
        <ele>198.4</ele>
        <time>2021-06-26T12:13:46Z</time>
      </trkpt>
      <trkpt lat="48.94397" lon="7.85872">
        <ele>198.4</ele>
        <time>2021-06-26T12:13:47Z</time>
      </trkpt>
      <trkpt lat="48.94397" lon="7.85867">
        <ele>198.4</ele>
        <time>2021-06-26T12:13:48Z</time>
      </trkpt>
      <trkpt lat="48.94397" lon="7.85861">
        <ele>198.4</ele>
        <time>2021-06-26T12:13:49Z</time>
      </trkpt>
      <trkpt lat="48.94397" lon="7.85829">
        <ele>199</ele>
        <time>2021-06-26T12:13:55Z</time>
      </trkpt>
      <trkpt lat="48.94397" lon="7.85804">
        <ele>199.6</ele>
        <time>2021-06-26T12:13:59Z</time>
      </trkpt>
      <trkpt lat="48.94396" lon="7.85764">
        <ele>200.2</ele>
        <time>2021-06-26T12:14:06Z</time>
      </trkpt>
      <trkpt lat="48.94396" lon="7.8575">
        <ele>200.4</ele>
        <time>2021-06-26T12:14:08Z</time>
      </trkpt>
      <trkpt lat="48.94398" lon="7.85731">
        <ele>200.6</ele>
        <time>2021-06-26T12:14:11Z</time>
      </trkpt>
      <trkpt lat="48.94398" lon="7.85702">
        <ele>200.6</ele>
        <time>2021-06-26T12:14:16Z</time>
      </trkpt>
      <trkpt lat="48.94398" lon="7.85697">
        <ele>200.6</ele>
        <time>2021-06-26T12:14:17Z</time>
      </trkpt>
      <trkpt lat="48.94398" lon="7.85693">
        <ele>200.8</ele>
        <time>2021-06-26T12:14:18Z</time>
      </trkpt>
      <trkpt lat="48.94399" lon="7.85689">
        <ele>200.8</ele>
        <time>2021-06-26T12:14:19Z</time>
      </trkpt>
      <trkpt lat="48.944" lon="7.85687">
        <ele>201</ele>
        <time>2021-06-26T12:14:20Z</time>
      </trkpt>
      <trkpt lat="48.94401" lon="7.85685">
        <ele>201</ele>
        <time>2021-06-26T12:14:21Z</time>
      </trkpt>
      <trkpt lat="48.94402" lon="7.85683">
        <ele>201.2</ele>
        <time>2021-06-26T12:14:22Z</time>
      </trkpt>
      <trkpt lat="48.94403" lon="7.85683">
        <ele>201.2</ele>
        <time>2021-06-26T12:14:23Z</time>
      </trkpt>
      <trkpt lat="48.94403" lon="7.85684">
        <ele>201.2</ele>
        <time>2021-06-26T12:14:25Z</time>
      </trkpt>
      <trkpt lat="48.94403" lon="7.85683">
        <ele>201.2</ele>
        <time>2021-06-26T12:14:28Z</time>
      </trkpt>
      <trkpt lat="48.94403" lon="7.85683">
        <ele>201.2</ele>
        <time>2021-06-26T12:14:31Z</time>
      </trkpt>
      <trkpt lat="48.94404" lon="7.85683">
        <ele>201.2</ele>
        <time>2021-06-26T12:14:33Z</time>
      </trkpt>
      <trkpt lat="48.94406" lon="7.85681">
        <ele>201.4</ele>
        <time>2021-06-26T12:17:45Z</time>
      </trkpt>
      <trkpt lat="48.94407" lon="7.85679">
        <ele>201.4</ele>
        <time>2021-06-26T12:17:46Z</time>
      </trkpt>
      <trkpt lat="48.94409" lon="7.85678">
        <ele>201.4</ele>
        <time>2021-06-26T12:17:47Z</time>
      </trkpt>
      <trkpt lat="48.9441" lon="7.85676">
        <ele>201.4</ele>
        <time>2021-06-26T12:17:48Z</time>
      </trkpt>
      <trkpt lat="48.94412" lon="7.85675">
        <ele>201.4</ele>
        <time>2021-06-26T12:17:49Z</time>
      </trkpt>
      <trkpt lat="48.94419" lon="7.85669">
        <ele>201.4</ele>
        <time>2021-06-26T12:17:52Z</time>
      </trkpt>
      <trkpt lat="48.94435" lon="7.8566">
        <ele>201.2</ele>
        <time>2021-06-26T12:17:57Z</time>
      </trkpt>
      <trkpt lat="48.94438" lon="7.85659">
        <ele>201.2</ele>
        <time>2021-06-26T12:17:58Z</time>
      </trkpt>
      <trkpt lat="48.94453" lon="7.85657">
        <ele>201</ele>
        <time>2021-06-26T12:18:03Z</time>
      </trkpt>
      <trkpt lat="48.94461" lon="7.85656">
        <ele>201</ele>
        <time>2021-06-26T12:18:05Z</time>
      </trkpt>
      <trkpt lat="48.94501" lon="7.85645">
        <ele>200.6</ele>
        <time>2021-06-26T12:18:13Z</time>
      </trkpt>
      <trkpt lat="48.94518" lon="7.85634">
        <ele>200.4</ele>
        <time>2021-06-26T12:18:17Z</time>
      </trkpt>
      <trkpt lat="48.94523" lon="7.85632">
        <ele>200.2</ele>
        <time>2021-06-26T12:18:18Z</time>
      </trkpt>
      <trkpt lat="48.94527" lon="7.85629">
        <ele>199.8</ele>
        <time>2021-06-26T12:18:19Z</time>
      </trkpt>
      <trkpt lat="48.94536" lon="7.85626">
        <ele>199.2</ele>
        <time>2021-06-26T12:18:21Z</time>
      </trkpt>
      <trkpt lat="48.9454" lon="7.85622">
        <ele>199</ele>
        <time>2021-06-26T12:18:22Z</time>
      </trkpt>
      <trkpt lat="48.94544" lon="7.85619">
        <ele>199</ele>
        <time>2021-06-26T12:18:23Z</time>
      </trkpt>
      <trkpt lat="48.94557" lon="7.85614">
        <ele>198.8</ele>
        <time>2021-06-26T12:18:25Z</time>
      </trkpt>
      <trkpt lat="48.94564" lon="7.8561">
        <ele>198.2</ele>
        <time>2021-06-26T12:18:26Z</time>
      </trkpt>
      <trkpt lat="48.94571" lon="7.85608">
        <ele>197.8</ele>
        <time>2021-06-26T12:18:27Z</time>
      </trkpt>
      <trkpt lat="48.94575" lon="7.85602">
        <ele>197.4</ele>
        <time>2021-06-26T12:18:28Z</time>
      </trkpt>
      <trkpt lat="48.94584" lon="7.85591">
        <ele>196.8</ele>
        <time>2021-06-26T12:18:30Z</time>
      </trkpt>
      <trkpt lat="48.94588" lon="7.85585">
        <ele>196.8</ele>
        <time>2021-06-26T12:18:31Z</time>
      </trkpt>
      <trkpt lat="48.94591" lon="7.85579">
        <ele>196.6</ele>
        <time>2021-06-26T12:18:32Z</time>
      </trkpt>
      <trkpt lat="48.94593" lon="7.85572">
        <ele>196.2</ele>
        <time>2021-06-26T12:18:33Z</time>
      </trkpt>
      <trkpt lat="48.94596" lon="7.85566">
        <ele>196</ele>
        <time>2021-06-26T12:18:34Z</time>
      </trkpt>
      <trkpt lat="48.94599" lon="7.8556">
        <ele>195.6</ele>
        <time>2021-06-26T12:18:35Z</time>
      </trkpt>
      <trkpt lat="48.94602" lon="7.85554">
        <ele>195.4</ele>
        <time>2021-06-26T12:18:36Z</time>
      </trkpt>
      <trkpt lat="48.94606" lon="7.85549">
        <ele>195.2</ele>
        <time>2021-06-26T12:18:37Z</time>
      </trkpt>
      <trkpt lat="48.94609" lon="7.85543">
        <ele>195</ele>
        <time>2021-06-26T12:18:38Z</time>
      </trkpt>
      <trkpt lat="48.94612" lon="7.85539">
        <ele>195</ele>
        <time>2021-06-26T12:18:39Z</time>
      </trkpt>
      <trkpt lat="48.94615" lon="7.85535">
        <ele>194.8</ele>
        <time>2021-06-26T12:18:40Z</time>
      </trkpt>
      <trkpt lat="48.94618" lon="7.85531">
        <ele>194.8</ele>
        <time>2021-06-26T12:18:41Z</time>
      </trkpt>
      <trkpt lat="48.94623" lon="7.8552">
        <ele>194.8</ele>
        <time>2021-06-26T12:18:43Z</time>
      </trkpt>
      <trkpt lat="48.94626" lon="7.85515">
        <ele>194.8</ele>
        <time>2021-06-26T12:18:44Z</time>
      </trkpt>
      <trkpt lat="48.94636" lon="7.85497">
        <ele>194.6</ele>
        <time>2021-06-26T12:18:47Z</time>
      </trkpt>
      <trkpt lat="48.94639" lon="7.85493">
        <ele>194.6</ele>
        <time>2021-06-26T12:18:48Z</time>
      </trkpt>
      <trkpt lat="48.94642" lon="7.8549">
        <ele>194.6</ele>
        <time>2021-06-26T12:18:49Z</time>
      </trkpt>
      <trkpt lat="48.94644" lon="7.85485">
        <ele>194.6</ele>
        <time>2021-06-26T12:18:50Z</time>
      </trkpt>
      <trkpt lat="48.9465" lon="7.85476">
        <ele>194.4</ele>
        <time>2021-06-26T12:18:52Z</time>
      </trkpt>
      <trkpt lat="48.94655" lon="7.85466">
        <ele>194.4</ele>
        <time>2021-06-26T12:18:54Z</time>
      </trkpt>
      <trkpt lat="48.94658" lon="7.85462">
        <ele>194.4</ele>
        <time>2021-06-26T12:18:55Z</time>
      </trkpt>
      <trkpt lat="48.9466" lon="7.85457">
        <ele>194.2</ele>
        <time>2021-06-26T12:18:56Z</time>
      </trkpt>
      <trkpt lat="48.94663" lon="7.85452">
        <ele>194</ele>
        <time>2021-06-26T12:18:57Z</time>
      </trkpt>
      <trkpt lat="48.94666" lon="7.85448">
        <ele>194</ele>
        <time>2021-06-26T12:18:58Z</time>
      </trkpt>
      <trkpt lat="48.94669" lon="7.85443">
        <ele>194</ele>
        <time>2021-06-26T12:18:59Z</time>
      </trkpt>
      <trkpt lat="48.94671" lon="7.85439">
        <ele>194</ele>
        <time>2021-06-26T12:19:00Z</time>
      </trkpt>
      <trkpt lat="48.94672" lon="7.85435">
        <ele>194</ele>
        <time>2021-06-26T12:19:01Z</time>
      </trkpt>
      <trkpt lat="48.94674" lon="7.85432">
        <ele>194</ele>
        <time>2021-06-26T12:19:02Z</time>
      </trkpt>
      <trkpt lat="48.94676" lon="7.85429">
        <ele>194</ele>
        <time>2021-06-26T12:19:03Z</time>
      </trkpt>
      <trkpt lat="48.94677" lon="7.85427">
        <ele>194</ele>
        <time>2021-06-26T12:19:04Z</time>
      </trkpt>
      <trkpt lat="48.94679" lon="7.85425">
        <ele>194</ele>
        <time>2021-06-26T12:19:05Z</time>
      </trkpt>
      <trkpt lat="48.9468" lon="7.85422">
        <ele>194</ele>
        <time>2021-06-26T12:19:06Z</time>
      </trkpt>
      <trkpt lat="48.94684" lon="7.85415">
        <ele>194</ele>
        <time>2021-06-26T12:19:08Z</time>
      </trkpt>
      <trkpt lat="48.94697" lon="7.85397">
        <ele>194</ele>
        <time>2021-06-26T12:19:13Z</time>
      </trkpt>
      <trkpt lat="48.947" lon="7.85394">
        <ele>194</ele>
        <time>2021-06-26T12:19:14Z</time>
      </trkpt>
      <trkpt lat="48.94703" lon="7.85389">
        <ele>194</ele>
        <time>2021-06-26T12:19:15Z</time>
      </trkpt>
      <trkpt lat="48.94714" lon="7.85373">
        <ele>193.6</ele>
        <time>2021-06-26T12:19:19Z</time>
      </trkpt>
      <trkpt lat="48.94723" lon="7.85358">
        <ele>193</ele>
        <time>2021-06-26T12:19:22Z</time>
      </trkpt>
      <trkpt lat="48.94735" lon="7.85337">
        <ele>192.4</ele>
        <time>2021-06-26T12:19:26Z</time>
      </trkpt>
      <trkpt lat="48.94738" lon="7.85331">
        <ele>192.4</ele>
        <time>2021-06-26T12:19:27Z</time>
      </trkpt>
      <trkpt lat="48.94755" lon="7.85306">
        <ele>191.4</ele>
        <time>2021-06-26T12:19:32Z</time>
      </trkpt>
      <trkpt lat="48.94758" lon="7.853">
        <ele>191.4</ele>
        <time>2021-06-26T12:19:33Z</time>
      </trkpt>
      <trkpt lat="48.9478" lon="7.8526">
        <ele>190.8</ele>
        <time>2021-06-26T12:19:40Z</time>
      </trkpt>
      <trkpt lat="48.94782" lon="7.85254">
        <ele>190.6</ele>
        <time>2021-06-26T12:19:41Z</time>
      </trkpt>
      <trkpt lat="48.94784" lon="7.85248">
        <ele>190.6</ele>
        <time>2021-06-26T12:19:42Z</time>
      </trkpt>
      <trkpt lat="48.94787" lon="7.85243">
        <ele>190.6</ele>
        <time>2021-06-26T12:19:43Z</time>
      </trkpt>
      <trkpt lat="48.9479" lon="7.85238">
        <ele>190.6</ele>
        <time>2021-06-26T12:19:44Z</time>
      </trkpt>
      <trkpt lat="48.94793" lon="7.85233">
        <ele>190.6</ele>
        <time>2021-06-26T12:19:45Z</time>
      </trkpt>
      <trkpt lat="48.94796" lon="7.85227">
        <ele>190.8</ele>
        <time>2021-06-26T12:19:46Z</time>
      </trkpt>
      <trkpt lat="48.94799" lon="7.85222">
        <ele>190.6</ele>
        <time>2021-06-26T12:19:47Z</time>
      </trkpt>
      <trkpt lat="48.94802" lon="7.85216">
        <ele>190.6</ele>
        <time>2021-06-26T12:19:48Z</time>
      </trkpt>
      <trkpt lat="48.94804" lon="7.85212">
        <ele>190.8</ele>
        <time>2021-06-26T12:19:49Z</time>
      </trkpt>
      <trkpt lat="48.94807" lon="7.85206">
        <ele>190.8</ele>
        <time>2021-06-26T12:19:50Z</time>
      </trkpt>
      <trkpt lat="48.94809" lon="7.85201">
        <ele>190.8</ele>
        <time>2021-06-26T12:19:51Z</time>
      </trkpt>
      <trkpt lat="48.94814" lon="7.8519">
        <ele>190.8</ele>
        <time>2021-06-26T12:19:53Z</time>
      </trkpt>
      <trkpt lat="48.94819" lon="7.8518">
        <ele>191.2</ele>
        <time>2021-06-26T12:19:55Z</time>
      </trkpt>
      <trkpt lat="48.94824" lon="7.8517">
        <ele>191.6</ele>
        <time>2021-06-26T12:19:57Z</time>
      </trkpt>
      <trkpt lat="48.94827" lon="7.85164">
        <ele>191.6</ele>
        <time>2021-06-26T12:19:58Z</time>
      </trkpt>
      <trkpt lat="48.94829" lon="7.85159">
        <ele>191.8</ele>
        <time>2021-06-26T12:19:59Z</time>
      </trkpt>
      <trkpt lat="48.94832" lon="7.85154">
        <ele>192</ele>
        <time>2021-06-26T12:20:00Z</time>
      </trkpt>
      <trkpt lat="48.94836" lon="7.85142">
        <ele>192.4</ele>
        <time>2021-06-26T12:20:02Z</time>
      </trkpt>
      <trkpt lat="48.94838" lon="7.85137">
        <ele>192.8</ele>
        <time>2021-06-26T12:20:03Z</time>
      </trkpt>
      <trkpt lat="48.94852" lon="7.85105">
        <ele>193.2</ele>
        <time>2021-06-26T12:20:09Z</time>
      </trkpt>
      <trkpt lat="48.94861" lon="7.85085">
        <ele>193.8</ele>
        <time>2021-06-26T12:20:13Z</time>
      </trkpt>
      <trkpt lat="48.94863" lon="7.8508">
        <ele>193.8</ele>
        <time>2021-06-26T12:20:14Z</time>
      </trkpt>
      <trkpt lat="48.94866" lon="7.85074">
        <ele>193.8</ele>
        <time>2021-06-26T12:20:15Z</time>
      </trkpt>
      <trkpt lat="48.94869" lon="7.85068">
        <ele>194</ele>
        <time>2021-06-26T12:20:16Z</time>
      </trkpt>
      <trkpt lat="48.94871" lon="7.85063">
        <ele>194</ele>
        <time>2021-06-26T12:20:17Z</time>
      </trkpt>
      <trkpt lat="48.94873" lon="7.8506">
        <ele>194.2</ele>
        <time>2021-06-26T12:20:18Z</time>
      </trkpt>
      <trkpt lat="48.94875" lon="7.85055">
        <ele>194.2</ele>
        <time>2021-06-26T12:20:19Z</time>
      </trkpt>
      <trkpt lat="48.94877" lon="7.85051">
        <ele>194.4</ele>
        <time>2021-06-26T12:20:20Z</time>
      </trkpt>
      <trkpt lat="48.9488" lon="7.85046">
        <ele>194.6</ele>
        <time>2021-06-26T12:20:21Z</time>
      </trkpt>
      <trkpt lat="48.94883" lon="7.85041">
        <ele>194.6</ele>
        <time>2021-06-26T12:20:22Z</time>
      </trkpt>
      <trkpt lat="48.94885" lon="7.85037">
        <ele>194.8</ele>
        <time>2021-06-26T12:20:23Z</time>
      </trkpt>
      <trkpt lat="48.94886" lon="7.85033">
        <ele>195</ele>
        <time>2021-06-26T12:20:24Z</time>
      </trkpt>
      <trkpt lat="48.94889" lon="7.85028">
        <ele>195.2</ele>
        <time>2021-06-26T12:20:25Z</time>
      </trkpt>
      <trkpt lat="48.94891" lon="7.85023">
        <ele>195.4</ele>
        <time>2021-06-26T12:20:26Z</time>
      </trkpt>
      <trkpt lat="48.94893" lon="7.85019">
        <ele>195.6</ele>
        <time>2021-06-26T12:20:27Z</time>
      </trkpt>
      <trkpt lat="48.94895" lon="7.85015">
        <ele>195.8</ele>
        <time>2021-06-26T12:20:28Z</time>
      </trkpt>
      <trkpt lat="48.94897" lon="7.8501">
        <ele>196.2</ele>
        <time>2021-06-26T12:20:29Z</time>
      </trkpt>
      <trkpt lat="48.94899" lon="7.85005">
        <ele>196.2</ele>
        <time>2021-06-26T12:20:30Z</time>
      </trkpt>
      <trkpt lat="48.94901" lon="7.85001">
        <ele>196.6</ele>
        <time>2021-06-26T12:20:31Z</time>
      </trkpt>
      <trkpt lat="48.94903" lon="7.84997">
        <ele>196.8</ele>
        <time>2021-06-26T12:20:32Z</time>
      </trkpt>
      <trkpt lat="48.94904" lon="7.84993">
        <ele>197</ele>
        <time>2021-06-26T12:20:33Z</time>
      </trkpt>
      <trkpt lat="48.94906" lon="7.84988">
        <ele>197</ele>
        <time>2021-06-26T12:20:34Z</time>
      </trkpt>
      <trkpt lat="48.94908" lon="7.84984">
        <ele>197</ele>
        <time>2021-06-26T12:20:35Z</time>
      </trkpt>
      <trkpt lat="48.9491" lon="7.8498">
        <ele>197.4</ele>
        <time>2021-06-26T12:20:36Z</time>
      </trkpt>
      <trkpt lat="48.94912" lon="7.84975">
        <ele>197.8</ele>
        <time>2021-06-26T12:20:37Z</time>
      </trkpt>
      <trkpt lat="48.94914" lon="7.84971">
        <ele>198</ele>
        <time>2021-06-26T12:20:38Z</time>
      </trkpt>
      <trkpt lat="48.94916" lon="7.84967">
        <ele>198.2</ele>
        <time>2021-06-26T12:20:39Z</time>
      </trkpt>
      <trkpt lat="48.94918" lon="7.84963">
        <ele>198.4</ele>
        <time>2021-06-26T12:20:40Z</time>
      </trkpt>
      <trkpt lat="48.9492" lon="7.84959">
        <ele>198.4</ele>
        <time>2021-06-26T12:20:41Z</time>
      </trkpt>
      <trkpt lat="48.94922" lon="7.84955">
        <ele>198.6</ele>
        <time>2021-06-26T12:20:42Z</time>
      </trkpt>
      <trkpt lat="48.94924" lon="7.84951">
        <ele>198.6</ele>
        <time>2021-06-26T12:20:43Z</time>
      </trkpt>
      <trkpt lat="48.94927" lon="7.84946">
        <ele>198.6</ele>
        <time>2021-06-26T12:20:44Z</time>
      </trkpt>
      <trkpt lat="48.94929" lon="7.84941">
        <ele>198.6</ele>
        <time>2021-06-26T12:20:45Z</time>
      </trkpt>
      <trkpt lat="48.94932" lon="7.84935">
        <ele>198.6</ele>
        <time>2021-06-26T12:20:46Z</time>
      </trkpt>
      <trkpt lat="48.94935" lon="7.84931">
        <ele>198.6</ele>
        <time>2021-06-26T12:20:47Z</time>
      </trkpt>
      <trkpt lat="48.94938" lon="7.84926">
        <ele>198.6</ele>
        <time>2021-06-26T12:20:48Z</time>
      </trkpt>
      <trkpt lat="48.94941" lon="7.84921">
        <ele>198.6</ele>
        <time>2021-06-26T12:20:49Z</time>
      </trkpt>
      <trkpt lat="48.94944" lon="7.84916">
        <ele>198.6</ele>
        <time>2021-06-26T12:20:50Z</time>
      </trkpt>
      <trkpt lat="48.94947" lon="7.84911">
        <ele>198.6</ele>
        <time>2021-06-26T12:20:51Z</time>
      </trkpt>
      <trkpt lat="48.9495" lon="7.84905">
        <ele>198.4</ele>
        <time>2021-06-26T12:20:52Z</time>
      </trkpt>
      <trkpt lat="48.94953" lon="7.84901">
        <ele>198.2</ele>
        <time>2021-06-26T12:20:53Z</time>
      </trkpt>
      <trkpt lat="48.94956" lon="7.84894">
        <ele>198.2</ele>
        <time>2021-06-26T12:20:54Z</time>
      </trkpt>
      <trkpt lat="48.94959" lon="7.84889">
        <ele>198</ele>
        <time>2021-06-26T12:20:55Z</time>
      </trkpt>
      <trkpt lat="48.94963" lon="7.84883">
        <ele>198</ele>
        <time>2021-06-26T12:20:56Z</time>
      </trkpt>
      <trkpt lat="48.9498" lon="7.84853">
        <ele>197.6</ele>
        <time>2021-06-26T12:21:01Z</time>
      </trkpt>
      <trkpt lat="48.94987" lon="7.84844">
        <ele>197.4</ele>
        <time>2021-06-26T12:21:03Z</time>
      </trkpt>
      <trkpt lat="48.9499" lon="7.84839">
        <ele>197.4</ele>
        <time>2021-06-26T12:21:04Z</time>
      </trkpt>
      <trkpt lat="48.94992" lon="7.84834">
        <ele>197.2</ele>
        <time>2021-06-26T12:21:05Z</time>
      </trkpt>
      <trkpt lat="48.94996" lon="7.84828">
        <ele>197.2</ele>
        <time>2021-06-26T12:21:06Z</time>
      </trkpt>
      <trkpt lat="48.94998" lon="7.84824">
        <ele>197.2</ele>
        <time>2021-06-26T12:21:07Z</time>
      </trkpt>
      <trkpt lat="48.95001" lon="7.8482">
        <ele>197.2</ele>
        <time>2021-06-26T12:21:08Z</time>
      </trkpt>
      <trkpt lat="48.95004" lon="7.84817">
        <ele>197.2</ele>
        <time>2021-06-26T12:21:09Z</time>
      </trkpt>
      <trkpt lat="48.95006" lon="7.84815">
        <ele>197</ele>
        <time>2021-06-26T12:21:10Z</time>
      </trkpt>
      <trkpt lat="48.95013" lon="7.84808">
        <ele>197</ele>
        <time>2021-06-26T12:21:12Z</time>
      </trkpt>
      <trkpt lat="48.95019" lon="7.848">
        <ele>197</ele>
        <time>2021-06-26T12:21:14Z</time>
      </trkpt>
      <trkpt lat="48.95031" lon="7.84787">
        <ele>197</ele>
        <time>2021-06-26T12:21:18Z</time>
      </trkpt>
      <trkpt lat="48.95053" lon="7.84766">
        <ele>197.2</ele>
        <time>2021-06-26T12:21:24Z</time>
      </trkpt>
      <trkpt lat="48.95072" lon="7.84741">
        <ele>197.2</ele>
        <time>2021-06-26T12:21:30Z</time>
      </trkpt>
      <trkpt lat="48.95075" lon="7.84737">
        <ele>197.4</ele>
        <time>2021-06-26T12:21:31Z</time>
      </trkpt>
      <trkpt lat="48.95078" lon="7.84733">
        <ele>197.4</ele>
        <time>2021-06-26T12:21:32Z</time>
      </trkpt>
      <trkpt lat="48.9508" lon="7.8473">
        <ele>197.6</ele>
        <time>2021-06-26T12:21:33Z</time>
      </trkpt>
      <trkpt lat="48.95083" lon="7.84727">
        <ele>197.6</ele>
        <time>2021-06-26T12:21:34Z</time>
      </trkpt>
      <trkpt lat="48.95085" lon="7.84724">
        <ele>197.6</ele>
        <time>2021-06-26T12:21:35Z</time>
      </trkpt>
      <trkpt lat="48.95087" lon="7.84721">
        <ele>198</ele>
        <time>2021-06-26T12:21:36Z</time>
      </trkpt>
      <trkpt lat="48.95096" lon="7.84706">
        <ele>198.4</ele>
        <time>2021-06-26T12:21:40Z</time>
      </trkpt>
      <trkpt lat="48.95098" lon="7.84702">
        <ele>198.6</ele>
        <time>2021-06-26T12:21:41Z</time>
      </trkpt>
      <trkpt lat="48.951" lon="7.84698">
        <ele>198.6</ele>
        <time>2021-06-26T12:21:42Z</time>
      </trkpt>
      <trkpt lat="48.95102" lon="7.84694">
        <ele>198.6</ele>
        <time>2021-06-26T12:21:43Z</time>
      </trkpt>
      <trkpt lat="48.95104" lon="7.8469">
        <ele>198.6</ele>
        <time>2021-06-26T12:21:44Z</time>
      </trkpt>
      <trkpt lat="48.95118" lon="7.84668">
        <ele>199</ele>
        <time>2021-06-26T12:21:50Z</time>
      </trkpt>
      <trkpt lat="48.95121" lon="7.84664">
        <ele>199</ele>
        <time>2021-06-26T12:21:51Z</time>
      </trkpt>
      <trkpt lat="48.95123" lon="7.84661">
        <ele>199.4</ele>
        <time>2021-06-26T12:21:52Z</time>
      </trkpt>
      <trkpt lat="48.95129" lon="7.8465">
        <ele>199.8</ele>
        <time>2021-06-26T12:21:55Z</time>
      </trkpt>
      <trkpt lat="48.95132" lon="7.84645">
        <ele>200</ele>
        <time>2021-06-26T12:21:56Z</time>
      </trkpt>
      <trkpt lat="48.9514" lon="7.84631">
        <ele>200.8</ele>
        <time>2021-06-26T12:22:00Z</time>
      </trkpt>
      <trkpt lat="48.95142" lon="7.84628">
        <ele>200.8</ele>
        <time>2021-06-26T12:22:01Z</time>
      </trkpt>
      <trkpt lat="48.95144" lon="7.84624">
        <ele>200.8</ele>
        <time>2021-06-26T12:22:02Z</time>
      </trkpt>
      <trkpt lat="48.95146" lon="7.84621">
        <ele>201</ele>
        <time>2021-06-26T12:22:03Z</time>
      </trkpt>
      <trkpt lat="48.95148" lon="7.84617">
        <ele>201.2</ele>
        <time>2021-06-26T12:22:04Z</time>
      </trkpt>
      <trkpt lat="48.9515" lon="7.84614">
        <ele>201.6</ele>
        <time>2021-06-26T12:22:05Z</time>
      </trkpt>
      <trkpt lat="48.95152" lon="7.8461">
        <ele>202</ele>
        <time>2021-06-26T12:22:06Z</time>
      </trkpt>
      <trkpt lat="48.95154" lon="7.84607">
        <ele>202.2</ele>
        <time>2021-06-26T12:22:07Z</time>
      </trkpt>
      <trkpt lat="48.95156" lon="7.84604">
        <ele>202.4</ele>
        <time>2021-06-26T12:22:08Z</time>
      </trkpt>
      <trkpt lat="48.95158" lon="7.84601">
        <ele>202.6</ele>
        <time>2021-06-26T12:22:09Z</time>
      </trkpt>
      <trkpt lat="48.95161" lon="7.84597">
        <ele>202.8</ele>
        <time>2021-06-26T12:22:10Z</time>
      </trkpt>
      <trkpt lat="48.95163" lon="7.84593">
        <ele>203</ele>
        <time>2021-06-26T12:22:11Z</time>
      </trkpt>
      <trkpt lat="48.95165" lon="7.84589">
        <ele>203.4</ele>
        <time>2021-06-26T12:22:12Z</time>
      </trkpt>
      <trkpt lat="48.95168" lon="7.84584">
        <ele>203.6</ele>
        <time>2021-06-26T12:22:13Z</time>
      </trkpt>
      <trkpt lat="48.95171" lon="7.84579">
        <ele>203.6</ele>
        <time>2021-06-26T12:22:14Z</time>
      </trkpt>
      <trkpt lat="48.95174" lon="7.84574">
        <ele>203.8</ele>
        <time>2021-06-26T12:22:15Z</time>
      </trkpt>
      <trkpt lat="48.95176" lon="7.84571">
        <ele>204</ele>
        <time>2021-06-26T12:22:16Z</time>
      </trkpt>
      <trkpt lat="48.95179" lon="7.84567">
        <ele>204.2</ele>
        <time>2021-06-26T12:22:17Z</time>
      </trkpt>
      <trkpt lat="48.95181" lon="7.84563">
        <ele>204.4</ele>
        <time>2021-06-26T12:22:18Z</time>
      </trkpt>
      <trkpt lat="48.95183" lon="7.8456">
        <ele>204.6</ele>
        <time>2021-06-26T12:22:19Z</time>
      </trkpt>
      <trkpt lat="48.95186" lon="7.84557">
        <ele>204.8</ele>
        <time>2021-06-26T12:22:20Z</time>
      </trkpt>
      <trkpt lat="48.95188" lon="7.84553">
        <ele>204.8</ele>
        <time>2021-06-26T12:22:21Z</time>
      </trkpt>
      <trkpt lat="48.9519" lon="7.84549">
        <ele>205</ele>
        <time>2021-06-26T12:22:22Z</time>
      </trkpt>
      <trkpt lat="48.95192" lon="7.84545">
        <ele>205.4</ele>
        <time>2021-06-26T12:22:23Z</time>
      </trkpt>
      <trkpt lat="48.95194" lon="7.84541">
        <ele>205.6</ele>
        <time>2021-06-26T12:22:24Z</time>
      </trkpt>
      <trkpt lat="48.95196" lon="7.84538">
        <ele>205.8</ele>
        <time>2021-06-26T12:22:25Z</time>
      </trkpt>
      <trkpt lat="48.95198" lon="7.84534">
        <ele>206</ele>
        <time>2021-06-26T12:22:26Z</time>
      </trkpt>
      <trkpt lat="48.952" lon="7.84529">
        <ele>206.2</ele>
        <time>2021-06-26T12:22:27Z</time>
      </trkpt>
      <trkpt lat="48.95203" lon="7.84525">
        <ele>206.4</ele>
        <time>2021-06-26T12:22:28Z</time>
      </trkpt>
      <trkpt lat="48.95205" lon="7.84521">
        <ele>206.6</ele>
        <time>2021-06-26T12:22:29Z</time>
      </trkpt>
      <trkpt lat="48.95207" lon="7.84516">
        <ele>206.8</ele>
        <time>2021-06-26T12:22:30Z</time>
      </trkpt>
      <trkpt lat="48.95208" lon="7.84512">
        <ele>207</ele>
        <time>2021-06-26T12:22:31Z</time>
      </trkpt>
      <trkpt lat="48.9521" lon="7.84508">
        <ele>207</ele>
        <time>2021-06-26T12:22:32Z</time>
      </trkpt>
      <trkpt lat="48.95212" lon="7.84504">
        <ele>207</ele>
        <time>2021-06-26T12:22:33Z</time>
      </trkpt>
      <trkpt lat="48.95214" lon="7.845">
        <ele>207.2</ele>
        <time>2021-06-26T12:22:34Z</time>
      </trkpt>
      <trkpt lat="48.95216" lon="7.84495">
        <ele>207.4</ele>
        <time>2021-06-26T12:22:35Z</time>
      </trkpt>
      <trkpt lat="48.95218" lon="7.84491">
        <ele>207.4</ele>
        <time>2021-06-26T12:22:36Z</time>
      </trkpt>
      <trkpt lat="48.9522" lon="7.84486">
        <ele>207.6</ele>
        <time>2021-06-26T12:22:37Z</time>
      </trkpt>
      <trkpt lat="48.95222" lon="7.84482">
        <ele>207.8</ele>
        <time>2021-06-26T12:22:38Z</time>
      </trkpt>
      <trkpt lat="48.95223" lon="7.84477">
        <ele>207.8</ele>
        <time>2021-06-26T12:22:39Z</time>
      </trkpt>
      <trkpt lat="48.95225" lon="7.84473">
        <ele>207.8</ele>
        <time>2021-06-26T12:22:40Z</time>
      </trkpt>
      <trkpt lat="48.95227" lon="7.84468">
        <ele>208</ele>
        <time>2021-06-26T12:22:41Z</time>
      </trkpt>
      <trkpt lat="48.95229" lon="7.84464">
        <ele>208</ele>
        <time>2021-06-26T12:22:42Z</time>
      </trkpt>
      <trkpt lat="48.9523" lon="7.84459">
        <ele>208.2</ele>
        <time>2021-06-26T12:22:43Z</time>
      </trkpt>
      <trkpt lat="48.95232" lon="7.84454">
        <ele>208.2</ele>
        <time>2021-06-26T12:22:44Z</time>
      </trkpt>
      <trkpt lat="48.95234" lon="7.8445">
        <ele>208.2</ele>
        <time>2021-06-26T12:22:45Z</time>
      </trkpt>
      <trkpt lat="48.95236" lon="7.84446">
        <ele>208.2</ele>
        <time>2021-06-26T12:22:46Z</time>
      </trkpt>
      <trkpt lat="48.95238" lon="7.84442">
        <ele>208.2</ele>
        <time>2021-06-26T12:22:47Z</time>
      </trkpt>
      <trkpt lat="48.9524" lon="7.84438">
        <ele>208.2</ele>
        <time>2021-06-26T12:22:48Z</time>
      </trkpt>
      <trkpt lat="48.95241" lon="7.84433">
        <ele>208.2</ele>
        <time>2021-06-26T12:22:49Z</time>
      </trkpt>
      <trkpt lat="48.95243" lon="7.84429">
        <ele>208.2</ele>
        <time>2021-06-26T12:22:50Z</time>
      </trkpt>
      <trkpt lat="48.95244" lon="7.84425">
        <ele>208.2</ele>
        <time>2021-06-26T12:22:51Z</time>
      </trkpt>
      <trkpt lat="48.95246" lon="7.8442">
        <ele>208.2</ele>
        <time>2021-06-26T12:22:52Z</time>
      </trkpt>
      <trkpt lat="48.95248" lon="7.84416">
        <ele>208.2</ele>
        <time>2021-06-26T12:22:53Z</time>
      </trkpt>
      <trkpt lat="48.9525" lon="7.84411">
        <ele>208.2</ele>
        <time>2021-06-26T12:22:54Z</time>
      </trkpt>
      <trkpt lat="48.95252" lon="7.84406">
        <ele>208.2</ele>
        <time>2021-06-26T12:22:55Z</time>
      </trkpt>
      <trkpt lat="48.95256" lon="7.84397">
        <ele>208.2</ele>
        <time>2021-06-26T12:22:57Z</time>
      </trkpt>
      <trkpt lat="48.95257" lon="7.84392">
        <ele>208.2</ele>
        <time>2021-06-26T12:22:58Z</time>
      </trkpt>
      <trkpt lat="48.95272" lon="7.8435">
        <ele>208.4</ele>
        <time>2021-06-26T12:23:07Z</time>
      </trkpt>
      <trkpt lat="48.95273" lon="7.84345">
        <ele>208.4</ele>
        <time>2021-06-26T12:23:08Z</time>
      </trkpt>
      <trkpt lat="48.95275" lon="7.84341">
        <ele>208.4</ele>
        <time>2021-06-26T12:23:09Z</time>
      </trkpt>
      <trkpt lat="48.95276" lon="7.84337">
        <ele>208.4</ele>
        <time>2021-06-26T12:23:10Z</time>
      </trkpt>
      <trkpt lat="48.95277" lon="7.84332">
        <ele>208.4</ele>
        <time>2021-06-26T12:23:11Z</time>
      </trkpt>
      <trkpt lat="48.95281" lon="7.84322">
        <ele>208.2</ele>
        <time>2021-06-26T12:23:13Z</time>
      </trkpt>
      <trkpt lat="48.95281" lon="7.84317">
        <ele>208.2</ele>
        <time>2021-06-26T12:23:14Z</time>
      </trkpt>
      <trkpt lat="48.95287" lon="7.84293">
        <ele>208</ele>
        <time>2021-06-26T12:23:19Z</time>
      </trkpt>
      <trkpt lat="48.95289" lon="7.84288">
        <ele>207.8</ele>
        <time>2021-06-26T12:23:20Z</time>
      </trkpt>
      <trkpt lat="48.95302" lon="7.84256">
        <ele>207</ele>
        <time>2021-06-26T12:23:26Z</time>
      </trkpt>
      <trkpt lat="48.95309" lon="7.84244">
        <ele>206.8</ele>
        <time>2021-06-26T12:23:28Z</time>
      </trkpt>
      <trkpt lat="48.95317" lon="7.84232">
        <ele>206.8</ele>
        <time>2021-06-26T12:23:30Z</time>
      </trkpt>
      <trkpt lat="48.95326" lon="7.8422">
        <ele>206.6</ele>
        <time>2021-06-26T12:23:32Z</time>
      </trkpt>
      <trkpt lat="48.95331" lon="7.84214">
        <ele>206.6</ele>
        <time>2021-06-26T12:23:33Z</time>
      </trkpt>
      <trkpt lat="48.95338" lon="7.84203">
        <ele>206.2</ele>
        <time>2021-06-26T12:23:35Z</time>
      </trkpt>
      <trkpt lat="48.95356" lon="7.8418">
        <ele>205.8</ele>
        <time>2021-06-26T12:23:39Z</time>
      </trkpt>
      <trkpt lat="48.95359" lon="7.84176">
        <ele>205.6</ele>
        <time>2021-06-26T12:23:40Z</time>
      </trkpt>
      <trkpt lat="48.95362" lon="7.84171">
        <ele>205.6</ele>
        <time>2021-06-26T12:23:41Z</time>
      </trkpt>
      <trkpt lat="48.95364" lon="7.84165">
        <ele>205.6</ele>
        <time>2021-06-26T12:23:42Z</time>
      </trkpt>
      <trkpt lat="48.95367" lon="7.8416">
        <ele>205.4</ele>
        <time>2021-06-26T12:23:43Z</time>
      </trkpt>
      <trkpt lat="48.9537" lon="7.84157">
        <ele>205.4</ele>
        <time>2021-06-26T12:23:44Z</time>
      </trkpt>
      <trkpt lat="48.95377" lon="7.8415">
        <ele>205.4</ele>
        <time>2021-06-26T12:23:46Z</time>
      </trkpt>
      <trkpt lat="48.9538" lon="7.84146">
        <ele>205.4</ele>
        <time>2021-06-26T12:23:47Z</time>
      </trkpt>
      <trkpt lat="48.95383" lon="7.84143">
        <ele>205.4</ele>
        <time>2021-06-26T12:23:48Z</time>
      </trkpt>
      <trkpt lat="48.95386" lon="7.8414">
        <ele>205.2</ele>
        <time>2021-06-26T12:23:49Z</time>
      </trkpt>
      <trkpt lat="48.95387" lon="7.84138">
        <ele>205.2</ele>
        <time>2021-06-26T12:23:50Z</time>
      </trkpt>
      <trkpt lat="48.95388" lon="7.84139">
        <ele>205.2</ele>
        <time>2021-06-26T12:23:51Z</time>
      </trkpt>
      <trkpt lat="48.9539" lon="7.8414">
        <ele>205.2</ele>
        <time>2021-06-26T12:23:52Z</time>
      </trkpt>
      <trkpt lat="48.95392" lon="7.84141">
        <ele>205</ele>
        <time>2021-06-26T12:23:53Z</time>
      </trkpt>
      <trkpt lat="48.95393" lon="7.84142">
        <ele>205</ele>
        <time>2021-06-26T12:23:54Z</time>
      </trkpt>
      <trkpt lat="48.95399" lon="7.84142">
        <ele>204.8</ele>
        <time>2021-06-26T12:23:56Z</time>
      </trkpt>
      <trkpt lat="48.95402" lon="7.84142">
        <ele>204.8</ele>
        <time>2021-06-26T12:23:57Z</time>
      </trkpt>
      <trkpt lat="48.95406" lon="7.84143">
        <ele>204.6</ele>
        <time>2021-06-26T12:23:58Z</time>
      </trkpt>
      <trkpt lat="48.95411" lon="7.84143">
        <ele>204.6</ele>
        <time>2021-06-26T12:23:59Z</time>
      </trkpt>
      <trkpt lat="48.95419" lon="7.84141">
        <ele>204.4</ele>
        <time>2021-06-26T12:24:01Z</time>
      </trkpt>
      <trkpt lat="48.95422" lon="7.84142">
        <ele>204.4</ele>
        <time>2021-06-26T12:24:02Z</time>
      </trkpt>
      <trkpt lat="48.95446" lon="7.84138">
        <ele>204</ele>
        <time>2021-06-26T12:24:07Z</time>
      </trkpt>
      <trkpt lat="48.9546" lon="7.84142">
        <ele>203.8</ele>
        <time>2021-06-26T12:24:10Z</time>
      </trkpt>
      <trkpt lat="48.95464" lon="7.84143">
        <ele>203.8</ele>
        <time>2021-06-26T12:24:11Z</time>
      </trkpt>
      <trkpt lat="48.95468" lon="7.84144">
        <ele>203.8</ele>
        <time>2021-06-26T12:24:12Z</time>
      </trkpt>
      <trkpt lat="48.95476" lon="7.84145">
        <ele>203.8</ele>
        <time>2021-06-26T12:24:14Z</time>
      </trkpt>
      <trkpt lat="48.9548" lon="7.84145">
        <ele>203.8</ele>
        <time>2021-06-26T12:24:15Z</time>
      </trkpt>
      <trkpt lat="48.95485" lon="7.84145">
        <ele>203.8</ele>
        <time>2021-06-26T12:24:16Z</time>
      </trkpt>
      <trkpt lat="48.95491" lon="7.84147">
        <ele>204</ele>
        <time>2021-06-26T12:24:17Z</time>
      </trkpt>
      <trkpt lat="48.95494" lon="7.84147">
        <ele>204.2</ele>
        <time>2021-06-26T12:24:18Z</time>
      </trkpt>
      <trkpt lat="48.95496" lon="7.8415">
        <ele>204.6</ele>
        <time>2021-06-26T12:24:19Z</time>
      </trkpt>
      <trkpt lat="48.95498" lon="7.84151">
        <ele>204.8</ele>
        <time>2021-06-26T12:24:20Z</time>
      </trkpt>
      <trkpt lat="48.955" lon="7.84151">
        <ele>205</ele>
        <time>2021-06-26T12:24:21Z</time>
      </trkpt>
      <trkpt lat="48.95507" lon="7.84152">
        <ele>205.4</ele>
        <time>2021-06-26T12:24:23Z</time>
      </trkpt>
      <trkpt lat="48.95512" lon="7.84153">
        <ele>205.6</ele>
        <time>2021-06-26T12:24:24Z</time>
      </trkpt>
      <trkpt lat="48.95523" lon="7.84157">
        <ele>206.4</ele>
        <time>2021-06-26T12:24:27Z</time>
      </trkpt>
      <trkpt lat="48.95526" lon="7.84157">
        <ele>206.6</ele>
        <time>2021-06-26T12:24:28Z</time>
      </trkpt>
      <trkpt lat="48.9553" lon="7.84158">
        <ele>206.8</ele>
        <time>2021-06-26T12:24:29Z</time>
      </trkpt>
      <trkpt lat="48.95552" lon="7.84168">
        <ele>207.6</ele>
        <time>2021-06-26T12:24:34Z</time>
      </trkpt>
      <trkpt lat="48.95557" lon="7.84169">
        <ele>207.6</ele>
        <time>2021-06-26T12:24:35Z</time>
      </trkpt>
      <trkpt lat="48.95558" lon="7.84168">
        <ele>207.6</ele>
        <time>2021-06-26T12:24:36Z</time>
      </trkpt>
      <trkpt lat="48.95562" lon="7.84169">
        <ele>207.8</ele>
        <time>2021-06-26T12:24:37Z</time>
      </trkpt>
      <trkpt lat="48.95569" lon="7.84168">
        <ele>208</ele>
        <time>2021-06-26T12:24:38Z</time>
      </trkpt>
      <trkpt lat="48.95573" lon="7.8417">
        <ele>208</ele>
        <time>2021-06-26T12:24:39Z</time>
      </trkpt>
      <trkpt lat="48.95578" lon="7.84173">
        <ele>208</ele>
        <time>2021-06-26T12:24:40Z</time>
      </trkpt>
      <trkpt lat="48.95582" lon="7.84178">
        <ele>208.2</ele>
        <time>2021-06-26T12:24:41Z</time>
      </trkpt>
      <trkpt lat="48.95585" lon="7.84182">
        <ele>208.2</ele>
        <time>2021-06-26T12:24:42Z</time>
      </trkpt>
      <trkpt lat="48.95588" lon="7.84185">
        <ele>208.2</ele>
        <time>2021-06-26T12:24:43Z</time>
      </trkpt>
      <trkpt lat="48.95591" lon="7.84188">
        <ele>208.2</ele>
        <time>2021-06-26T12:24:44Z</time>
      </trkpt>
      <trkpt lat="48.95593" lon="7.84192">
        <ele>208.2</ele>
        <time>2021-06-26T12:24:45Z</time>
      </trkpt>
      <trkpt lat="48.95595" lon="7.84195">
        <ele>208.2</ele>
        <time>2021-06-26T12:24:46Z</time>
      </trkpt>
      <trkpt lat="48.95598" lon="7.842">
        <ele>208.2</ele>
        <time>2021-06-26T12:24:47Z</time>
      </trkpt>
      <trkpt lat="48.95601" lon="7.84203">
        <ele>208.2</ele>
        <time>2021-06-26T12:24:48Z</time>
      </trkpt>
      <trkpt lat="48.95605" lon="7.84203">
        <ele>208.2</ele>
        <time>2021-06-26T12:24:49Z</time>
      </trkpt>
      <trkpt lat="48.9561" lon="7.84205">
        <ele>208.2</ele>
        <time>2021-06-26T12:24:50Z</time>
      </trkpt>
      <trkpt lat="48.95613" lon="7.84207">
        <ele>208</ele>
        <time>2021-06-26T12:24:51Z</time>
      </trkpt>
      <trkpt lat="48.95617" lon="7.84209">
        <ele>208</ele>
        <time>2021-06-26T12:24:52Z</time>
      </trkpt>
      <trkpt lat="48.95621" lon="7.84208">
        <ele>208</ele>
        <time>2021-06-26T12:24:53Z</time>
      </trkpt>
      <trkpt lat="48.95625" lon="7.84208">
        <ele>208</ele>
        <time>2021-06-26T12:24:54Z</time>
      </trkpt>
      <trkpt lat="48.95641" lon="7.84217">
        <ele>207.8</ele>
        <time>2021-06-26T12:24:57Z</time>
      </trkpt>
      <trkpt lat="48.95645" lon="7.8422">
        <ele>207.8</ele>
        <time>2021-06-26T12:24:58Z</time>
      </trkpt>
      <trkpt lat="48.95648" lon="7.84221">
        <ele>207.6</ele>
        <time>2021-06-26T12:24:59Z</time>
      </trkpt>
      <trkpt lat="48.95655" lon="7.8422">
        <ele>207.6</ele>
        <time>2021-06-26T12:25:01Z</time>
      </trkpt>
      <trkpt lat="48.95672" lon="7.84223">
        <ele>207.2</ele>
        <time>2021-06-26T12:25:06Z</time>
      </trkpt>
      <trkpt lat="48.95675" lon="7.84224">
        <ele>207</ele>
        <time>2021-06-26T12:25:07Z</time>
      </trkpt>
      <trkpt lat="48.95678" lon="7.84225">
        <ele>207</ele>
        <time>2021-06-26T12:25:08Z</time>
      </trkpt>
      <trkpt lat="48.95683" lon="7.84226">
        <ele>207</ele>
        <time>2021-06-26T12:25:09Z</time>
      </trkpt>
      <trkpt lat="48.95687" lon="7.84228">
        <ele>207</ele>
        <time>2021-06-26T12:25:10Z</time>
      </trkpt>
      <trkpt lat="48.95691" lon="7.84229">
        <ele>207</ele>
        <time>2021-06-26T12:25:11Z</time>
      </trkpt>
      <trkpt lat="48.95697" lon="7.8423">
        <ele>206.8</ele>
        <time>2021-06-26T12:25:13Z</time>
      </trkpt>
      <trkpt lat="48.95704" lon="7.84229">
        <ele>206.8</ele>
        <time>2021-06-26T12:25:15Z</time>
      </trkpt>
      <trkpt lat="48.95708" lon="7.84228">
        <ele>206.8</ele>
        <time>2021-06-26T12:25:16Z</time>
      </trkpt>
      <trkpt lat="48.95712" lon="7.84227">
        <ele>206.6</ele>
        <time>2021-06-26T12:25:17Z</time>
      </trkpt>
      <trkpt lat="48.9572" lon="7.84228">
        <ele>206.6</ele>
        <time>2021-06-26T12:25:19Z</time>
      </trkpt>
      <trkpt lat="48.95727" lon="7.8423">
        <ele>206.6</ele>
        <time>2021-06-26T12:25:20Z</time>
      </trkpt>
      <trkpt lat="48.95732" lon="7.84233">
        <ele>206.4</ele>
        <time>2021-06-26T12:25:21Z</time>
      </trkpt>
      <trkpt lat="48.95737" lon="7.84237">
        <ele>206.4</ele>
        <time>2021-06-26T12:25:22Z</time>
      </trkpt>
      <trkpt lat="48.9575" lon="7.84244">
        <ele>206</ele>
        <time>2021-06-26T12:25:25Z</time>
      </trkpt>
      <trkpt lat="48.9576" lon="7.84247">
        <ele>205.6</ele>
        <time>2021-06-26T12:25:27Z</time>
      </trkpt>
      <trkpt lat="48.95765" lon="7.8425">
        <ele>205.4</ele>
        <time>2021-06-26T12:25:28Z</time>
      </trkpt>
      <trkpt lat="48.9577" lon="7.84251">
        <ele>205.2</ele>
        <time>2021-06-26T12:25:29Z</time>
      </trkpt>
      <trkpt lat="48.95775" lon="7.84251">
        <ele>205</ele>
        <time>2021-06-26T12:25:30Z</time>
      </trkpt>
      <trkpt lat="48.9578" lon="7.84254">
        <ele>205</ele>
        <time>2021-06-26T12:25:31Z</time>
      </trkpt>
      <trkpt lat="48.95791" lon="7.84258">
        <ele>204.6</ele>
        <time>2021-06-26T12:25:33Z</time>
      </trkpt>
      <trkpt lat="48.95794" lon="7.8426">
        <ele>204.4</ele>
        <time>2021-06-26T12:25:34Z</time>
      </trkpt>
      <trkpt lat="48.95797" lon="7.84262">
        <ele>204</ele>
        <time>2021-06-26T12:25:35Z</time>
      </trkpt>
      <trkpt lat="48.958" lon="7.84262">
        <ele>203.8</ele>
        <time>2021-06-26T12:25:36Z</time>
      </trkpt>
      <trkpt lat="48.95801" lon="7.84262">
        <ele>203.8</ele>
        <time>2021-06-26T12:25:37Z</time>
      </trkpt>
      <trkpt lat="48.95802" lon="7.84262">
        <ele>203.8</ele>
        <time>2021-06-26T12:25:38Z</time>
      </trkpt>
      <trkpt lat="48.95802" lon="7.84262">
        <ele>203.6</ele>
        <time>2021-06-26T12:25:40Z</time>
      </trkpt>
      <trkpt lat="48.95803" lon="7.84261">
        <ele>203.6</ele>
        <time>2021-06-26T12:26:28Z</time>
      </trkpt>
      <trkpt lat="48.95803" lon="7.84261">
        <ele>203.6</ele>
        <time>2021-06-26T12:26:30Z</time>
      </trkpt>
      <trkpt lat="48.95807" lon="7.84261">
        <ele>203.6</ele>
        <time>2021-06-26T12:26:34Z</time>
      </trkpt>
      <trkpt lat="48.95811" lon="7.84262">
        <ele>203.6</ele>
        <time>2021-06-26T12:26:35Z</time>
      </trkpt>
      <trkpt lat="48.95826" lon="7.84262">
        <ele>203.4</ele>
        <time>2021-06-26T12:26:38Z</time>
      </trkpt>
      <trkpt lat="48.9583" lon="7.84262">
        <ele>203.4</ele>
        <time>2021-06-26T12:26:39Z</time>
      </trkpt>
      <trkpt lat="48.95839" lon="7.84261">
        <ele>203.2</ele>
        <time>2021-06-26T12:26:41Z</time>
      </trkpt>
      <trkpt lat="48.95873" lon="7.8426">
        <ele>203.2</ele>
        <time>2021-06-26T12:26:49Z</time>
      </trkpt>
      <trkpt lat="48.95898" lon="7.84272">
        <ele>203.2</ele>
        <time>2021-06-26T12:26:55Z</time>
      </trkpt>
      <trkpt lat="48.95901" lon="7.84275">
        <ele>203.2</ele>
        <time>2021-06-26T12:26:56Z</time>
      </trkpt>
      <trkpt lat="48.95911" lon="7.84285">
        <ele>203.2</ele>
        <time>2021-06-26T12:26:58Z</time>
      </trkpt>
      <trkpt lat="48.95924" lon="7.84302">
        <ele>203.2</ele>
        <time>2021-06-26T12:27:01Z</time>
      </trkpt>
      <trkpt lat="48.95928" lon="7.84308">
        <ele>203</ele>
        <time>2021-06-26T12:27:02Z</time>
      </trkpt>
      <trkpt lat="48.9593" lon="7.84313">
        <ele>202.8</ele>
        <time>2021-06-26T12:27:03Z</time>
      </trkpt>
      <trkpt lat="48.95932" lon="7.84317">
        <ele>202.6</ele>
        <time>2021-06-26T12:27:04Z</time>
      </trkpt>
      <trkpt lat="48.95933" lon="7.8432">
        <ele>202.2</ele>
        <time>2021-06-26T12:27:05Z</time>
      </trkpt>
      <trkpt lat="48.95934" lon="7.84321">
        <ele>202</ele>
        <time>2021-06-26T12:27:06Z</time>
      </trkpt>
      <trkpt lat="48.95935" lon="7.84322">
        <ele>201.8</ele>
        <time>2021-06-26T12:27:07Z</time>
      </trkpt>
      <trkpt lat="48.95937" lon="7.84322">
        <ele>201.6</ele>
        <time>2021-06-26T12:27:08Z</time>
      </trkpt>
      <trkpt lat="48.95939" lon="7.84322">
        <ele>201.2</ele>
        <time>2021-06-26T12:27:09Z</time>
      </trkpt>
      <trkpt lat="48.95941" lon="7.84322">
        <ele>201</ele>
        <time>2021-06-26T12:27:10Z</time>
      </trkpt>
      <trkpt lat="48.95942" lon="7.84322">
        <ele>201</ele>
        <time>2021-06-26T12:27:11Z</time>
      </trkpt>
      <trkpt lat="48.95944" lon="7.84321">
        <ele>200.8</ele>
        <time>2021-06-26T12:27:12Z</time>
      </trkpt>
      <trkpt lat="48.95951" lon="7.84316">
        <ele>200.8</ele>
        <time>2021-06-26T12:27:15Z</time>
      </trkpt>
      <trkpt lat="48.95971" lon="7.84304">
        <ele>200.8</ele>
        <time>2021-06-26T12:27:21Z</time>
      </trkpt>
      <trkpt lat="48.95983" lon="7.84295">
        <ele>200.8</ele>
        <time>2021-06-26T12:27:24Z</time>
      </trkpt>
      <trkpt lat="48.95987" lon="7.84293">
        <ele>201</ele>
        <time>2021-06-26T12:27:25Z</time>
      </trkpt>
      <trkpt lat="48.96" lon="7.84287">
        <ele>201.4</ele>
        <time>2021-06-26T12:27:28Z</time>
      </trkpt>
      <trkpt lat="48.96004" lon="7.84285">
        <ele>201.4</ele>
        <time>2021-06-26T12:27:29Z</time>
      </trkpt>
      <trkpt lat="48.96011" lon="7.84279">
        <ele>201.8</ele>
        <time>2021-06-26T12:27:31Z</time>
      </trkpt>
      <trkpt lat="48.96014" lon="7.84276">
        <ele>202</ele>
        <time>2021-06-26T12:27:32Z</time>
      </trkpt>
      <trkpt lat="48.96018" lon="7.84272">
        <ele>202.2</ele>
        <time>2021-06-26T12:27:33Z</time>
      </trkpt>
      <trkpt lat="48.96021" lon="7.84267">
        <ele>202.4</ele>
        <time>2021-06-26T12:27:34Z</time>
      </trkpt>
      <trkpt lat="48.96029" lon="7.84254">
        <ele>203.2</ele>
        <time>2021-06-26T12:27:37Z</time>
      </trkpt>
      <trkpt lat="48.96032" lon="7.84249">
        <ele>203.2</ele>
        <time>2021-06-26T12:27:38Z</time>
      </trkpt>
      <trkpt lat="48.96035" lon="7.84244">
        <ele>203.4</ele>
        <time>2021-06-26T12:27:39Z</time>
      </trkpt>
      <trkpt lat="48.96037" lon="7.84242">
        <ele>203.4</ele>
        <time>2021-06-26T12:27:40Z</time>
      </trkpt>
      <trkpt lat="48.96039" lon="7.84239">
        <ele>203.6</ele>
        <time>2021-06-26T12:27:41Z</time>
      </trkpt>
      <trkpt lat="48.96041" lon="7.84237">
        <ele>203.6</ele>
        <time>2021-06-26T12:27:42Z</time>
      </trkpt>
      <trkpt lat="48.96042" lon="7.84236">
        <ele>203.8</ele>
        <time>2021-06-26T12:27:43Z</time>
      </trkpt>
      <trkpt lat="48.96045" lon="7.84233">
        <ele>204.2</ele>
        <time>2021-06-26T12:27:44Z</time>
      </trkpt>
      <trkpt lat="48.9605" lon="7.84227">
        <ele>205</ele>
        <time>2021-06-26T12:27:46Z</time>
      </trkpt>
      <trkpt lat="48.96052" lon="7.84223">
        <ele>205.4</ele>
        <time>2021-06-26T12:27:47Z</time>
      </trkpt>
      <trkpt lat="48.96054" lon="7.8422">
        <ele>205.6</ele>
        <time>2021-06-26T12:27:48Z</time>
      </trkpt>
      <trkpt lat="48.96056" lon="7.84217">
        <ele>205.8</ele>
        <time>2021-06-26T12:27:49Z</time>
      </trkpt>
      <trkpt lat="48.96057" lon="7.84215">
        <ele>206</ele>
        <time>2021-06-26T12:27:50Z</time>
      </trkpt>
      <trkpt lat="48.96059" lon="7.84212">
        <ele>206</ele>
        <time>2021-06-26T12:27:51Z</time>
      </trkpt>
      <trkpt lat="48.96061" lon="7.84208">
        <ele>206.2</ele>
        <time>2021-06-26T12:27:52Z</time>
      </trkpt>
      <trkpt lat="48.96063" lon="7.84205">
        <ele>206.4</ele>
        <time>2021-06-26T12:27:53Z</time>
      </trkpt>
      <trkpt lat="48.96065" lon="7.84202">
        <ele>206.4</ele>
        <time>2021-06-26T12:27:54Z</time>
      </trkpt>
      <trkpt lat="48.96067" lon="7.84197">
        <ele>206.4</ele>
        <time>2021-06-26T12:27:55Z</time>
      </trkpt>
      <trkpt lat="48.96069" lon="7.84192">
        <ele>206.4</ele>
        <time>2021-06-26T12:27:56Z</time>
      </trkpt>
      <trkpt lat="48.96072" lon="7.84188">
        <ele>206.4</ele>
        <time>2021-06-26T12:27:57Z</time>
      </trkpt>
      <trkpt lat="48.96074" lon="7.84184">
        <ele>206.4</ele>
        <time>2021-06-26T12:27:58Z</time>
      </trkpt>
      <trkpt lat="48.96078" lon="7.84179">
        <ele>206.4</ele>
        <time>2021-06-26T12:27:59Z</time>
      </trkpt>
      <trkpt lat="48.96081" lon="7.84174">
        <ele>206.4</ele>
        <time>2021-06-26T12:28:00Z</time>
      </trkpt>
      <trkpt lat="48.96084" lon="7.8417">
        <ele>206.4</ele>
        <time>2021-06-26T12:28:01Z</time>
      </trkpt>
      <trkpt lat="48.96087" lon="7.84165">
        <ele>206.4</ele>
        <time>2021-06-26T12:28:02Z</time>
      </trkpt>
      <trkpt lat="48.9609" lon="7.84161">
        <ele>206.4</ele>
        <time>2021-06-26T12:28:03Z</time>
      </trkpt>
      <trkpt lat="48.96092" lon="7.84156">
        <ele>206.2</ele>
        <time>2021-06-26T12:28:04Z</time>
      </trkpt>
      <trkpt lat="48.96095" lon="7.84151">
        <ele>206</ele>
        <time>2021-06-26T12:28:05Z</time>
      </trkpt>
      <trkpt lat="48.96098" lon="7.84146">
        <ele>205.8</ele>
        <time>2021-06-26T12:28:06Z</time>
      </trkpt>
      <trkpt lat="48.96102" lon="7.84141">
        <ele>205.6</ele>
        <time>2021-06-26T12:28:07Z</time>
      </trkpt>
      <trkpt lat="48.96105" lon="7.84135">
        <ele>205.4</ele>
        <time>2021-06-26T12:28:08Z</time>
      </trkpt>
      <trkpt lat="48.96108" lon="7.84129">
        <ele>205</ele>
        <time>2021-06-26T12:28:09Z</time>
      </trkpt>
      <trkpt lat="48.96111" lon="7.84124">
        <ele>204.6</ele>
        <time>2021-06-26T12:28:10Z</time>
      </trkpt>
      <trkpt lat="48.96114" lon="7.84118">
        <ele>204.4</ele>
        <time>2021-06-26T12:28:11Z</time>
      </trkpt>
      <trkpt lat="48.96117" lon="7.84114">
        <ele>204.2</ele>
        <time>2021-06-26T12:28:12Z</time>
      </trkpt>
      <trkpt lat="48.96123" lon="7.84105">
        <ele>203.6</ele>
        <time>2021-06-26T12:28:14Z</time>
      </trkpt>
      <trkpt lat="48.96126" lon="7.841">
        <ele>203.4</ele>
        <time>2021-06-26T12:28:15Z</time>
      </trkpt>
      <trkpt lat="48.96128" lon="7.84096">
        <ele>203.4</ele>
        <time>2021-06-26T12:28:16Z</time>
      </trkpt>
      <trkpt lat="48.9613" lon="7.84092">
        <ele>203.2</ele>
        <time>2021-06-26T12:28:17Z</time>
      </trkpt>
      <trkpt lat="48.96133" lon="7.84087">
        <ele>203.2</ele>
        <time>2021-06-26T12:28:18Z</time>
      </trkpt>
      <trkpt lat="48.96135" lon="7.84083">
        <ele>203.2</ele>
        <time>2021-06-26T12:28:19Z</time>
      </trkpt>
      <trkpt lat="48.96137" lon="7.84079">
        <ele>203.2</ele>
        <time>2021-06-26T12:28:20Z</time>
      </trkpt>
      <trkpt lat="48.96139" lon="7.84076">
        <ele>203.2</ele>
        <time>2021-06-26T12:28:21Z</time>
      </trkpt>
      <trkpt lat="48.96142" lon="7.84072">
        <ele>203.2</ele>
        <time>2021-06-26T12:28:22Z</time>
      </trkpt>
      <trkpt lat="48.96144" lon="7.84068">
        <ele>203.4</ele>
        <time>2021-06-26T12:28:23Z</time>
      </trkpt>
      <trkpt lat="48.96146" lon="7.84064">
        <ele>203.4</ele>
        <time>2021-06-26T12:28:24Z</time>
      </trkpt>
      <trkpt lat="48.96164" lon="7.84037">
        <ele>204</ele>
        <time>2021-06-26T12:28:31Z</time>
      </trkpt>
      <trkpt lat="48.96175" lon="7.84024">
        <ele>204.4</ele>
        <time>2021-06-26T12:28:35Z</time>
      </trkpt>
      <trkpt lat="48.96181" lon="7.84018">
        <ele>205</ele>
        <time>2021-06-26T12:28:37Z</time>
      </trkpt>
      <trkpt lat="48.96183" lon="7.84014">
        <ele>205</ele>
        <time>2021-06-26T12:28:38Z</time>
      </trkpt>
      <trkpt lat="48.96192" lon="7.84003">
        <ele>205.2</ele>
        <time>2021-06-26T12:28:41Z</time>
      </trkpt>
      <trkpt lat="48.96208" lon="7.83981">
        <ele>205.2</ele>
        <time>2021-06-26T12:28:46Z</time>
      </trkpt>
      <trkpt lat="48.96211" lon="7.83977">
        <ele>205.2</ele>
        <time>2021-06-26T12:28:47Z</time>
      </trkpt>
      <trkpt lat="48.96214" lon="7.83972">
        <ele>205.2</ele>
        <time>2021-06-26T12:28:48Z</time>
      </trkpt>
      <trkpt lat="48.96226" lon="7.83949">
        <ele>204</ele>
        <time>2021-06-26T12:28:53Z</time>
      </trkpt>
      <trkpt lat="48.96228" lon="7.83945">
        <ele>204</ele>
        <time>2021-06-26T12:28:54Z</time>
      </trkpt>
      <trkpt lat="48.96231" lon="7.83941">
        <ele>204</ele>
        <time>2021-06-26T12:28:55Z</time>
      </trkpt>
      <trkpt lat="48.96234" lon="7.83937">
        <ele>203.8</ele>
        <time>2021-06-26T12:28:56Z</time>
      </trkpt>
      <trkpt lat="48.96236" lon="7.83933">
        <ele>203.8</ele>
        <time>2021-06-26T12:28:57Z</time>
      </trkpt>
      <trkpt lat="48.96243" lon="7.83927">
        <ele>203.8</ele>
        <time>2021-06-26T12:28:59Z</time>
      </trkpt>
      <trkpt lat="48.96245" lon="7.83924">
        <ele>203.8</ele>
        <time>2021-06-26T12:29:00Z</time>
      </trkpt>
      <trkpt lat="48.96248" lon="7.83921">
        <ele>203.8</ele>
        <time>2021-06-26T12:29:01Z</time>
      </trkpt>
      <trkpt lat="48.9625" lon="7.83917">
        <ele>203.8</ele>
        <time>2021-06-26T12:29:02Z</time>
      </trkpt>
      <trkpt lat="48.96252" lon="7.83914">
        <ele>203.8</ele>
        <time>2021-06-26T12:29:03Z</time>
      </trkpt>
      <trkpt lat="48.96252" lon="7.83911">
        <ele>203.8</ele>
        <time>2021-06-26T12:29:04Z</time>
      </trkpt>
      <trkpt lat="48.96252" lon="7.83908">
        <ele>204</ele>
        <time>2021-06-26T12:29:05Z</time>
      </trkpt>
      <trkpt lat="48.96251" lon="7.83905">
        <ele>204</ele>
        <time>2021-06-26T12:29:06Z</time>
      </trkpt>
      <trkpt lat="48.96251" lon="7.83902">
        <ele>204.2</ele>
        <time>2021-06-26T12:29:07Z</time>
      </trkpt>
      <trkpt lat="48.9625" lon="7.83899">
        <ele>204.4</ele>
        <time>2021-06-26T12:29:08Z</time>
      </trkpt>
      <trkpt lat="48.96249" lon="7.83889">
        <ele>204.6</ele>
        <time>2021-06-26T12:29:11Z</time>
      </trkpt>
      <trkpt lat="48.96248" lon="7.83887">
        <ele>204.6</ele>
        <time>2021-06-26T12:29:12Z</time>
      </trkpt>
      <trkpt lat="48.96247" lon="7.83887">
        <ele>204.6</ele>
        <time>2021-06-26T12:29:13Z</time>
      </trkpt>
      <trkpt lat="48.96247" lon="7.83887">
        <ele>205</ele>
        <time>2021-06-26T12:29:15Z</time>
      </trkpt>
      <trkpt lat="48.96248" lon="7.83893">
        <ele>206.2</ele>
        <time>2021-06-26T12:29:25Z</time>
      </trkpt>
      <trkpt lat="48.96249" lon="7.83896">
        <ele>206.2</ele>
        <time>2021-06-26T12:29:26Z</time>
      </trkpt>
      <trkpt lat="48.96251" lon="7.83899">
        <ele>206.2</ele>
        <time>2021-06-26T12:29:27Z</time>
      </trkpt>
      <trkpt lat="48.96252" lon="7.83901">
        <ele>206.2</ele>
        <time>2021-06-26T12:29:28Z</time>
      </trkpt>
      <trkpt lat="48.96253" lon="7.83902">
        <ele>206.2</ele>
        <time>2021-06-26T12:29:29Z</time>
      </trkpt>
      <trkpt lat="48.96255" lon="7.83902">
        <ele>206</ele>
        <time>2021-06-26T12:29:30Z</time>
      </trkpt>
      <trkpt lat="48.96256" lon="7.83902">
        <ele>206</ele>
        <time>2021-06-26T12:29:31Z</time>
      </trkpt>
      <trkpt lat="48.96258" lon="7.83902">
        <ele>206</ele>
        <time>2021-06-26T12:29:32Z</time>
      </trkpt>
      <trkpt lat="48.9626" lon="7.83901">
        <ele>205.8</ele>
        <time>2021-06-26T12:29:33Z</time>
      </trkpt>
      <trkpt lat="48.96262" lon="7.83899">
        <ele>205.4</ele>
        <time>2021-06-26T12:29:34Z</time>
      </trkpt>
      <trkpt lat="48.96264" lon="7.83896">
        <ele>205.2</ele>
        <time>2021-06-26T12:29:35Z</time>
      </trkpt>
      <trkpt lat="48.96267" lon="7.83894">
        <ele>205</ele>
        <time>2021-06-26T12:29:36Z</time>
      </trkpt>
      <trkpt lat="48.96278" lon="7.83883">
        <ele>204.8</ele>
        <time>2021-06-26T12:29:41Z</time>
      </trkpt>
      <trkpt lat="48.96296" lon="7.83865">
        <ele>204.8</ele>
        <time>2021-06-26T12:29:47Z</time>
      </trkpt>
      <trkpt lat="48.96299" lon="7.83862">
        <ele>205</ele>
        <time>2021-06-26T12:29:48Z</time>
      </trkpt>
      <trkpt lat="48.96302" lon="7.83859">
        <ele>205</ele>
        <time>2021-06-26T12:29:49Z</time>
      </trkpt>
      <trkpt lat="48.96315" lon="7.83846">
        <ele>205.2</ele>
        <time>2021-06-26T12:29:53Z</time>
      </trkpt>
      <trkpt lat="48.96318" lon="7.83843">
        <ele>205.2</ele>
        <time>2021-06-26T12:29:54Z</time>
      </trkpt>
      <trkpt lat="48.96335" lon="7.83826">
        <ele>205.4</ele>
        <time>2021-06-26T12:30:00Z</time>
      </trkpt>
      <trkpt lat="48.96337" lon="7.83824">
        <ele>205.8</ele>
        <time>2021-06-26T12:30:01Z</time>
      </trkpt>
      <trkpt lat="48.9634" lon="7.83821">
        <ele>205.8</ele>
        <time>2021-06-26T12:30:02Z</time>
      </trkpt>
      <trkpt lat="48.96343" lon="7.83818">
        <ele>205.8</ele>
        <time>2021-06-26T12:30:03Z</time>
      </trkpt>
      <trkpt lat="48.96346" lon="7.83815">
        <ele>206</ele>
        <time>2021-06-26T12:30:04Z</time>
      </trkpt>
      <trkpt lat="48.96349" lon="7.83812">
        <ele>206</ele>
        <time>2021-06-26T12:30:05Z</time>
      </trkpt>
      <trkpt lat="48.96359" lon="7.83802">
        <ele>206.2</ele>
        <time>2021-06-26T12:30:08Z</time>
      </trkpt>
      <trkpt lat="48.96381" lon="7.83781">
        <ele>206.6</ele>
        <time>2021-06-26T12:30:15Z</time>
      </trkpt>
      <trkpt lat="48.9639" lon="7.83772">
        <ele>207</ele>
        <time>2021-06-26T12:30:18Z</time>
      </trkpt>
      <trkpt lat="48.96393" lon="7.83769">
        <ele>207.2</ele>
        <time>2021-06-26T12:30:19Z</time>
      </trkpt>
      <trkpt lat="48.96396" lon="7.83766">
        <ele>207.4</ele>
        <time>2021-06-26T12:30:20Z</time>
      </trkpt>
      <trkpt lat="48.96398" lon="7.83764">
        <ele>207.6</ele>
        <time>2021-06-26T12:30:21Z</time>
      </trkpt>
      <trkpt lat="48.964" lon="7.83761">
        <ele>207.8</ele>
        <time>2021-06-26T12:30:22Z</time>
      </trkpt>
      <trkpt lat="48.96403" lon="7.83757">
        <ele>208.2</ele>
        <time>2021-06-26T12:30:23Z</time>
      </trkpt>
      <trkpt lat="48.96406" lon="7.83753">
        <ele>208.2</ele>
        <time>2021-06-26T12:30:24Z</time>
      </trkpt>
      <trkpt lat="48.96408" lon="7.8375">
        <ele>208.4</ele>
        <time>2021-06-26T12:30:25Z</time>
      </trkpt>
      <trkpt lat="48.9641" lon="7.83748">
        <ele>208.4</ele>
        <time>2021-06-26T12:30:26Z</time>
      </trkpt>
      <trkpt lat="48.96413" lon="7.83744">
        <ele>208.6</ele>
        <time>2021-06-26T12:30:27Z</time>
      </trkpt>
      <trkpt lat="48.96416" lon="7.8374">
        <ele>208.6</ele>
        <time>2021-06-26T12:30:28Z</time>
      </trkpt>
      <trkpt lat="48.96418" lon="7.83737">
        <ele>208.8</ele>
        <time>2021-06-26T12:30:29Z</time>
      </trkpt>
      <trkpt lat="48.9642" lon="7.83734">
        <ele>209</ele>
        <time>2021-06-26T12:30:30Z</time>
      </trkpt>
      <trkpt lat="48.96422" lon="7.83731">
        <ele>209</ele>
        <time>2021-06-26T12:30:31Z</time>
      </trkpt>
      <trkpt lat="48.96424" lon="7.83727">
        <ele>209.2</ele>
        <time>2021-06-26T12:30:32Z</time>
      </trkpt>
      <trkpt lat="48.96427" lon="7.83723">
        <ele>209.4</ele>
        <time>2021-06-26T12:30:33Z</time>
      </trkpt>
      <trkpt lat="48.96429" lon="7.8372">
        <ele>209.6</ele>
        <time>2021-06-26T12:30:34Z</time>
      </trkpt>
      <trkpt lat="48.96431" lon="7.83717">
        <ele>209.6</ele>
        <time>2021-06-26T12:30:35Z</time>
      </trkpt>
      <trkpt lat="48.96433" lon="7.83714">
        <ele>209.6</ele>
        <time>2021-06-26T12:30:36Z</time>
      </trkpt>
      <trkpt lat="48.96435" lon="7.83711">
        <ele>209.8</ele>
        <time>2021-06-26T12:30:37Z</time>
      </trkpt>
      <trkpt lat="48.96438" lon="7.83707">
        <ele>209.8</ele>
        <time>2021-06-26T12:30:38Z</time>
      </trkpt>
      <trkpt lat="48.9644" lon="7.83703">
        <ele>210</ele>
        <time>2021-06-26T12:30:39Z</time>
      </trkpt>
      <trkpt lat="48.96443" lon="7.83699">
        <ele>210</ele>
        <time>2021-06-26T12:30:40Z</time>
      </trkpt>
      <trkpt lat="48.96444" lon="7.83697">
        <ele>210</ele>
        <time>2021-06-26T12:30:41Z</time>
      </trkpt>
      <trkpt lat="48.96446" lon="7.83693">
        <ele>210.2</ele>
        <time>2021-06-26T12:30:42Z</time>
      </trkpt>
      <trkpt lat="48.96448" lon="7.83689">
        <ele>210.2</ele>
        <time>2021-06-26T12:30:43Z</time>
      </trkpt>
      <trkpt lat="48.9645" lon="7.83686">
        <ele>210.4</ele>
        <time>2021-06-26T12:30:44Z</time>
      </trkpt>
      <trkpt lat="48.96452" lon="7.83683">
        <ele>210.4</ele>
        <time>2021-06-26T12:30:45Z</time>
      </trkpt>
      <trkpt lat="48.96454" lon="7.83681">
        <ele>210.4</ele>
        <time>2021-06-26T12:30:46Z</time>
      </trkpt>
      <trkpt lat="48.96457" lon="7.83678">
        <ele>210.6</ele>
        <time>2021-06-26T12:30:47Z</time>
      </trkpt>
      <trkpt lat="48.96459" lon="7.83674">
        <ele>210.6</ele>
        <time>2021-06-26T12:30:48Z</time>
      </trkpt>
      <trkpt lat="48.96462" lon="7.83672">
        <ele>210.8</ele>
        <time>2021-06-26T12:30:49Z</time>
      </trkpt>
      <trkpt lat="48.96464" lon="7.83669">
        <ele>211</ele>
        <time>2021-06-26T12:30:50Z</time>
      </trkpt>
      <trkpt lat="48.96467" lon="7.83666">
        <ele>211.2</ele>
        <time>2021-06-26T12:30:51Z</time>
      </trkpt>
      <trkpt lat="48.96469" lon="7.83663">
        <ele>211.4</ele>
        <time>2021-06-26T12:30:52Z</time>
      </trkpt>
      <trkpt lat="48.96471" lon="7.83661">
        <ele>211.6</ele>
        <time>2021-06-26T12:30:53Z</time>
      </trkpt>
      <trkpt lat="48.96474" lon="7.83658">
        <ele>211.6</ele>
        <time>2021-06-26T12:30:54Z</time>
      </trkpt>
      <trkpt lat="48.96476" lon="7.83655">
        <ele>211.8</ele>
        <time>2021-06-26T12:30:55Z</time>
      </trkpt>
      <trkpt lat="48.96478" lon="7.83653">
        <ele>211.8</ele>
        <time>2021-06-26T12:30:56Z</time>
      </trkpt>
      <trkpt lat="48.96481" lon="7.83651">
        <ele>212</ele>
        <time>2021-06-26T12:30:57Z</time>
      </trkpt>
      <trkpt lat="48.96483" lon="7.83648">
        <ele>212</ele>
        <time>2021-06-26T12:30:58Z</time>
      </trkpt>
      <trkpt lat="48.96486" lon="7.83646">
        <ele>212.2</ele>
        <time>2021-06-26T12:30:59Z</time>
      </trkpt>
      <trkpt lat="48.96488" lon="7.83643">
        <ele>212.2</ele>
        <time>2021-06-26T12:31:00Z</time>
      </trkpt>
      <trkpt lat="48.96491" lon="7.83641">
        <ele>212.4</ele>
        <time>2021-06-26T12:31:01Z</time>
      </trkpt>
      <trkpt lat="48.96493" lon="7.83639">
        <ele>212.4</ele>
        <time>2021-06-26T12:31:02Z</time>
      </trkpt>
      <trkpt lat="48.96495" lon="7.83636">
        <ele>212.4</ele>
        <time>2021-06-26T12:31:03Z</time>
      </trkpt>
      <trkpt lat="48.96499" lon="7.83634">
        <ele>212.4</ele>
        <time>2021-06-26T12:31:04Z</time>
      </trkpt>
      <trkpt lat="48.96501" lon="7.83631">
        <ele>212.4</ele>
        <time>2021-06-26T12:31:05Z</time>
      </trkpt>
      <trkpt lat="48.96503" lon="7.83629">
        <ele>212.6</ele>
        <time>2021-06-26T12:31:06Z</time>
      </trkpt>
      <trkpt lat="48.96505" lon="7.83628">
        <ele>212.6</ele>
        <time>2021-06-26T12:31:07Z</time>
      </trkpt>
      <trkpt lat="48.96507" lon="7.83626">
        <ele>212.6</ele>
        <time>2021-06-26T12:31:08Z</time>
      </trkpt>
      <trkpt lat="48.96509" lon="7.83624">
        <ele>212.6</ele>
        <time>2021-06-26T12:31:09Z</time>
      </trkpt>
      <trkpt lat="48.96512" lon="7.83622">
        <ele>212.8</ele>
        <time>2021-06-26T12:31:10Z</time>
      </trkpt>
      <trkpt lat="48.96514" lon="7.8362">
        <ele>212.8</ele>
        <time>2021-06-26T12:31:11Z</time>
      </trkpt>
      <trkpt lat="48.96516" lon="7.83618">
        <ele>213</ele>
        <time>2021-06-26T12:31:12Z</time>
      </trkpt>
      <trkpt lat="48.96518" lon="7.83617">
        <ele>213.2</ele>
        <time>2021-06-26T12:31:13Z</time>
      </trkpt>
      <trkpt lat="48.96521" lon="7.83615">
        <ele>213.4</ele>
        <time>2021-06-26T12:31:14Z</time>
      </trkpt>
      <trkpt lat="48.96523" lon="7.83613">
        <ele>213.6</ele>
        <time>2021-06-26T12:31:15Z</time>
      </trkpt>
      <trkpt lat="48.96525" lon="7.83612">
        <ele>213.8</ele>
        <time>2021-06-26T12:31:16Z</time>
      </trkpt>
      <trkpt lat="48.96527" lon="7.83611">
        <ele>214</ele>
        <time>2021-06-26T12:31:17Z</time>
      </trkpt>
      <trkpt lat="48.96532" lon="7.83609">
        <ele>214.2</ele>
        <time>2021-06-26T12:31:19Z</time>
      </trkpt>
      <trkpt lat="48.96535" lon="7.83607">
        <ele>214.2</ele>
        <time>2021-06-26T12:31:20Z</time>
      </trkpt>
      <trkpt lat="48.96537" lon="7.83606">
        <ele>214.4</ele>
        <time>2021-06-26T12:31:21Z</time>
      </trkpt>
      <trkpt lat="48.96539" lon="7.83605">
        <ele>214.4</ele>
        <time>2021-06-26T12:31:22Z</time>
      </trkpt>
      <trkpt lat="48.96542" lon="7.83604">
        <ele>214.6</ele>
        <time>2021-06-26T12:31:23Z</time>
      </trkpt>
      <trkpt lat="48.96544" lon="7.83603">
        <ele>214.6</ele>
        <time>2021-06-26T12:31:24Z</time>
      </trkpt>
      <trkpt lat="48.96547" lon="7.83602">
        <ele>214.8</ele>
        <time>2021-06-26T12:31:25Z</time>
      </trkpt>
      <trkpt lat="48.96549" lon="7.836">
        <ele>214.8</ele>
        <time>2021-06-26T12:31:26Z</time>
      </trkpt>
      <trkpt lat="48.96551" lon="7.83598">
        <ele>215</ele>
        <time>2021-06-26T12:31:27Z</time>
      </trkpt>
      <trkpt lat="48.96554" lon="7.83596">
        <ele>215</ele>
        <time>2021-06-26T12:31:28Z</time>
      </trkpt>
      <trkpt lat="48.96557" lon="7.83594">
        <ele>215</ele>
        <time>2021-06-26T12:31:29Z</time>
      </trkpt>
      <trkpt lat="48.9656" lon="7.83593">
        <ele>215</ele>
        <time>2021-06-26T12:31:30Z</time>
      </trkpt>
      <trkpt lat="48.96562" lon="7.83591">
        <ele>215</ele>
        <time>2021-06-26T12:31:31Z</time>
      </trkpt>
      <trkpt lat="48.96565" lon="7.83589">
        <ele>215.2</ele>
        <time>2021-06-26T12:31:32Z</time>
      </trkpt>
      <trkpt lat="48.96567" lon="7.83588">
        <ele>215.2</ele>
        <time>2021-06-26T12:31:33Z</time>
      </trkpt>
      <trkpt lat="48.9657" lon="7.83586">
        <ele>215.4</ele>
        <time>2021-06-26T12:31:34Z</time>
      </trkpt>
      <trkpt lat="48.96582" lon="7.83577">
        <ele>215.4</ele>
        <time>2021-06-26T12:31:39Z</time>
      </trkpt>
      <trkpt lat="48.96587" lon="7.83572">
        <ele>215.6</ele>
        <time>2021-06-26T12:31:41Z</time>
      </trkpt>
      <trkpt lat="48.96589" lon="7.8357">
        <ele>215.6</ele>
        <time>2021-06-26T12:31:42Z</time>
      </trkpt>
      <trkpt lat="48.96591" lon="7.83569">
        <ele>215.8</ele>
        <time>2021-06-26T12:31:43Z</time>
      </trkpt>
      <trkpt lat="48.96593" lon="7.83567">
        <ele>215.8</ele>
        <time>2021-06-26T12:31:44Z</time>
      </trkpt>
      <trkpt lat="48.96596" lon="7.83564">
        <ele>215.8</ele>
        <time>2021-06-26T12:31:45Z</time>
      </trkpt>
      <trkpt lat="48.96598" lon="7.83563">
        <ele>216</ele>
        <time>2021-06-26T12:31:46Z</time>
      </trkpt>
      <trkpt lat="48.966" lon="7.83561">
        <ele>216.2</ele>
        <time>2021-06-26T12:31:47Z</time>
      </trkpt>
      <trkpt lat="48.96602" lon="7.8356">
        <ele>216.6</ele>
        <time>2021-06-26T12:31:48Z</time>
      </trkpt>
      <trkpt lat="48.96603" lon="7.83558">
        <ele>216.8</ele>
        <time>2021-06-26T12:31:49Z</time>
      </trkpt>
      <trkpt lat="48.96605" lon="7.83556">
        <ele>217</ele>
        <time>2021-06-26T12:31:50Z</time>
      </trkpt>
      <trkpt lat="48.96607" lon="7.83554">
        <ele>217.2</ele>
        <time>2021-06-26T12:31:51Z</time>
      </trkpt>
      <trkpt lat="48.96609" lon="7.83552">
        <ele>217.2</ele>
        <time>2021-06-26T12:31:52Z</time>
      </trkpt>
      <trkpt lat="48.9661" lon="7.8355">
        <ele>217.4</ele>
        <time>2021-06-26T12:31:53Z</time>
      </trkpt>
      <trkpt lat="48.96616" lon="7.83544">
        <ele>217.6</ele>
        <time>2021-06-26T12:31:56Z</time>
      </trkpt>
      <trkpt lat="48.96619" lon="7.83541">
        <ele>217.8</ele>
        <time>2021-06-26T12:31:57Z</time>
      </trkpt>
      <trkpt lat="48.9662" lon="7.83539">
        <ele>218</ele>
        <time>2021-06-26T12:31:58Z</time>
      </trkpt>
      <trkpt lat="48.96622" lon="7.83537">
        <ele>218.2</ele>
        <time>2021-06-26T12:31:59Z</time>
      </trkpt>
      <trkpt lat="48.96624" lon="7.83534">
        <ele>218.2</ele>
        <time>2021-06-26T12:32:00Z</time>
      </trkpt>
      <trkpt lat="48.96626" lon="7.83532">
        <ele>218.4</ele>
        <time>2021-06-26T12:32:01Z</time>
      </trkpt>
      <trkpt lat="48.96629" lon="7.83529">
        <ele>218.4</ele>
        <time>2021-06-26T12:32:02Z</time>
      </trkpt>
      <trkpt lat="48.9663" lon="7.83527">
        <ele>218.6</ele>
        <time>2021-06-26T12:32:03Z</time>
      </trkpt>
      <trkpt lat="48.96632" lon="7.83525">
        <ele>218.6</ele>
        <time>2021-06-26T12:32:04Z</time>
      </trkpt>
      <trkpt lat="48.96634" lon="7.83523">
        <ele>218.6</ele>
        <time>2021-06-26T12:32:05Z</time>
      </trkpt>
      <trkpt lat="48.96637" lon="7.8352">
        <ele>218.8</ele>
        <time>2021-06-26T12:32:06Z</time>
      </trkpt>
      <trkpt lat="48.96639" lon="7.83518">
        <ele>218.8</ele>
        <time>2021-06-26T12:32:07Z</time>
      </trkpt>
      <trkpt lat="48.96641" lon="7.83516">
        <ele>219</ele>
        <time>2021-06-26T12:32:08Z</time>
      </trkpt>
      <trkpt lat="48.96643" lon="7.83514">
        <ele>219</ele>
        <time>2021-06-26T12:32:09Z</time>
      </trkpt>
      <trkpt lat="48.96645" lon="7.83512">
        <ele>219.2</ele>
        <time>2021-06-26T12:32:10Z</time>
      </trkpt>
      <trkpt lat="48.96647" lon="7.83509">
        <ele>219.4</ele>
        <time>2021-06-26T12:32:11Z</time>
      </trkpt>
      <trkpt lat="48.96649" lon="7.83507">
        <ele>219.6</ele>
        <time>2021-06-26T12:32:12Z</time>
      </trkpt>
      <trkpt lat="48.96651" lon="7.83505">
        <ele>219.8</ele>
        <time>2021-06-26T12:32:13Z</time>
      </trkpt>
      <trkpt lat="48.96653" lon="7.83503">
        <ele>220</ele>
        <time>2021-06-26T12:32:14Z</time>
      </trkpt>
      <trkpt lat="48.96655" lon="7.83501">
        <ele>220.2</ele>
        <time>2021-06-26T12:32:15Z</time>
      </trkpt>
      <trkpt lat="48.96658" lon="7.83498">
        <ele>220.4</ele>
        <time>2021-06-26T12:32:16Z</time>
      </trkpt>
      <trkpt lat="48.9666" lon="7.83496">
        <ele>220.4</ele>
        <time>2021-06-26T12:32:17Z</time>
      </trkpt>
      <trkpt lat="48.96662" lon="7.83494">
        <ele>220.4</ele>
        <time>2021-06-26T12:32:18Z</time>
      </trkpt>
      <trkpt lat="48.96664" lon="7.83491">
        <ele>220.6</ele>
        <time>2021-06-26T12:32:19Z</time>
      </trkpt>
      <trkpt lat="48.96666" lon="7.83488">
        <ele>220.6</ele>
        <time>2021-06-26T12:32:20Z</time>
      </trkpt>
      <trkpt lat="48.96669" lon="7.83484">
        <ele>220.8</ele>
        <time>2021-06-26T12:32:21Z</time>
      </trkpt>
      <trkpt lat="48.96671" lon="7.83482">
        <ele>221</ele>
        <time>2021-06-26T12:32:22Z</time>
      </trkpt>
      <trkpt lat="48.96673" lon="7.8348">
        <ele>221</ele>
        <time>2021-06-26T12:32:23Z</time>
      </trkpt>
      <trkpt lat="48.96675" lon="7.83478">
        <ele>221</ele>
        <time>2021-06-26T12:32:24Z</time>
      </trkpt>
      <trkpt lat="48.96677" lon="7.83476">
        <ele>221</ele>
        <time>2021-06-26T12:32:25Z</time>
      </trkpt>
      <trkpt lat="48.96678" lon="7.83475">
        <ele>221.2</ele>
        <time>2021-06-26T12:32:26Z</time>
      </trkpt>
      <trkpt lat="48.9668" lon="7.83473">
        <ele>221.2</ele>
        <time>2021-06-26T12:32:27Z</time>
      </trkpt>
      <trkpt lat="48.9668" lon="7.83471">
        <ele>221.2</ele>
        <time>2021-06-26T12:32:28Z</time>
      </trkpt>
      <trkpt lat="48.96682" lon="7.8347">
        <ele>221.2</ele>
        <time>2021-06-26T12:32:29Z</time>
      </trkpt>
      <trkpt lat="48.96683" lon="7.83469">
        <ele>221.2</ele>
        <time>2021-06-26T12:32:30Z</time>
      </trkpt>
      <trkpt lat="48.96684" lon="7.83468">
        <ele>221.2</ele>
        <time>2021-06-26T12:32:31Z</time>
      </trkpt>
      <trkpt lat="48.96686" lon="7.83467">
        <ele>221.2</ele>
        <time>2021-06-26T12:32:32Z</time>
      </trkpt>
      <trkpt lat="48.96687" lon="7.83466">
        <ele>221.2</ele>
        <time>2021-06-26T12:32:33Z</time>
      </trkpt>
      <trkpt lat="48.96688" lon="7.83465">
        <ele>221.2</ele>
        <time>2021-06-26T12:32:34Z</time>
      </trkpt>
      <trkpt lat="48.9669" lon="7.83463">
        <ele>221.2</ele>
        <time>2021-06-26T12:32:35Z</time>
      </trkpt>
      <trkpt lat="48.96692" lon="7.83461">
        <ele>221.2</ele>
        <time>2021-06-26T12:32:36Z</time>
      </trkpt>
      <trkpt lat="48.96697" lon="7.83458">
        <ele>221.2</ele>
        <time>2021-06-26T12:32:39Z</time>
      </trkpt>
      <trkpt lat="48.96714" lon="7.83441">
        <ele>221.2</ele>
        <time>2021-06-26T12:32:47Z</time>
      </trkpt>
      <trkpt lat="48.9673" lon="7.83426">
        <ele>221.4</ele>
        <time>2021-06-26T12:32:55Z</time>
      </trkpt>
      <trkpt lat="48.96731" lon="7.83426">
        <ele>221.4</ele>
        <time>2021-06-26T12:32:56Z</time>
      </trkpt>
      <trkpt lat="48.96731" lon="7.83426">
        <ele>221.6</ele>
        <time>2021-06-26T12:32:58Z</time>
      </trkpt>
      <trkpt lat="48.96731" lon="7.83425">
        <ele>221.2</ele>
        <time>2021-06-26T12:36:26Z</time>
      </trkpt>
      <trkpt lat="48.96732" lon="7.83423">
        <ele>221.6</ele>
        <time>2021-06-26T12:36:27Z</time>
      </trkpt>
      <trkpt lat="48.96737" lon="7.83414">
        <ele>221.6</ele>
        <time>2021-06-26T12:36:31Z</time>
      </trkpt>
      <trkpt lat="48.9674" lon="7.83407">
        <ele>221.8</ele>
        <time>2021-06-26T12:36:33Z</time>
      </trkpt>
      <trkpt lat="48.96744" lon="7.83402">
        <ele>222</ele>
        <time>2021-06-26T12:36:35Z</time>
      </trkpt>
      <trkpt lat="48.96749" lon="7.83397">
        <ele>222</ele>
        <time>2021-06-26T12:36:37Z</time>
      </trkpt>
      <trkpt lat="48.96757" lon="7.8339">
        <ele>222.4</ele>
        <time>2021-06-26T12:36:41Z</time>
      </trkpt>
      <trkpt lat="48.96759" lon="7.83388">
        <ele>222.4</ele>
        <time>2021-06-26T12:36:42Z</time>
      </trkpt>
      <trkpt lat="48.9676" lon="7.83386">
        <ele>222.6</ele>
        <time>2021-06-26T12:36:43Z</time>
      </trkpt>
      <trkpt lat="48.9676" lon="7.83385">
        <ele>222.6</ele>
        <time>2021-06-26T12:36:44Z</time>
      </trkpt>
      <trkpt lat="48.96761" lon="7.83385">
        <ele>222.8</ele>
        <time>2021-06-26T12:36:45Z</time>
      </trkpt>
      <trkpt lat="48.96761" lon="7.83385">
        <ele>223</ele>
        <time>2021-06-26T12:36:46Z</time>
      </trkpt>
      <trkpt lat="48.96761" lon="7.83385">
        <ele>223</ele>
        <time>2021-06-26T12:36:47Z</time>
      </trkpt>
      <trkpt lat="48.96762" lon="7.83384">
        <ele>223.6</ele>
        <time>2021-06-26T12:37:04Z</time>
      </trkpt>
      <trkpt lat="48.96766" lon="7.8338">
        <ele>223.6</ele>
        <time>2021-06-26T12:37:08Z</time>
      </trkpt>
      <trkpt lat="48.96767" lon="7.83379">
        <ele>223.8</ele>
        <time>2021-06-26T12:37:09Z</time>
      </trkpt>
      <trkpt lat="48.96768" lon="7.83378">
        <ele>223.8</ele>
        <time>2021-06-26T12:37:10Z</time>
      </trkpt>
      <trkpt lat="48.96769" lon="7.83378">
        <ele>223.8</ele>
        <time>2021-06-26T12:37:11Z</time>
      </trkpt>
      <trkpt lat="48.9677" lon="7.83377">
        <ele>223.8</ele>
        <time>2021-06-26T12:37:12Z</time>
      </trkpt>
      <trkpt lat="48.96771" lon="7.83375">
        <ele>223.8</ele>
        <time>2021-06-26T12:37:13Z</time>
      </trkpt>
      <trkpt lat="48.96773" lon="7.83372">
        <ele>223.8</ele>
        <time>2021-06-26T12:37:15Z</time>
      </trkpt>
      <trkpt lat="48.96778" lon="7.83362">
        <ele>224</ele>
        <time>2021-06-26T12:37:21Z</time>
      </trkpt>
      <trkpt lat="48.96791" lon="7.83345">
        <ele>224.8</ele>
        <time>2021-06-26T12:37:30Z</time>
      </trkpt>
      <trkpt lat="48.96793" lon="7.83342">
        <ele>224.8</ele>
        <time>2021-06-26T12:37:31Z</time>
      </trkpt>
      <trkpt lat="48.96805" lon="7.83327">
        <ele>225.6</ele>
        <time>2021-06-26T12:37:38Z</time>
      </trkpt>
      <trkpt lat="48.9681" lon="7.8332">
        <ele>226</ele>
        <time>2021-06-26T12:37:41Z</time>
      </trkpt>
      <trkpt lat="48.96812" lon="7.83318">
        <ele>226</ele>
        <time>2021-06-26T12:37:42Z</time>
      </trkpt>
      <trkpt lat="48.96813" lon="7.83316">
        <ele>226</ele>
        <time>2021-06-26T12:37:43Z</time>
      </trkpt>
      <trkpt lat="48.96815" lon="7.83314">
        <ele>226.2</ele>
        <time>2021-06-26T12:37:44Z</time>
      </trkpt>
      <trkpt lat="48.96819" lon="7.83311">
        <ele>226.4</ele>
        <time>2021-06-26T12:37:46Z</time>
      </trkpt>
      <trkpt lat="48.9682" lon="7.83309">
        <ele>226.6</ele>
        <time>2021-06-26T12:37:47Z</time>
      </trkpt>
      <trkpt lat="48.96825" lon="7.83303">
        <ele>227</ele>
        <time>2021-06-26T12:37:50Z</time>
      </trkpt>
      <trkpt lat="48.96829" lon="7.833">
        <ele>227.4</ele>
        <time>2021-06-26T12:37:52Z</time>
      </trkpt>
      <trkpt lat="48.9683" lon="7.83298">
        <ele>227.6</ele>
        <time>2021-06-26T12:37:53Z</time>
      </trkpt>
      <trkpt lat="48.96832" lon="7.83296">
        <ele>227.8</ele>
        <time>2021-06-26T12:37:54Z</time>
      </trkpt>
      <trkpt lat="48.96834" lon="7.83294">
        <ele>227.8</ele>
        <time>2021-06-26T12:37:55Z</time>
      </trkpt>
      <trkpt lat="48.96835" lon="7.83292">
        <ele>228.2</ele>
        <time>2021-06-26T12:37:56Z</time>
      </trkpt>
      <trkpt lat="48.96837" lon="7.8329">
        <ele>228.2</ele>
        <time>2021-06-26T12:37:57Z</time>
      </trkpt>
      <trkpt lat="48.96839" lon="7.83288">
        <ele>228.4</ele>
        <time>2021-06-26T12:37:58Z</time>
      </trkpt>
      <trkpt lat="48.9684" lon="7.83286">
        <ele>228.6</ele>
        <time>2021-06-26T12:37:59Z</time>
      </trkpt>
      <trkpt lat="48.96842" lon="7.83284">
        <ele>228.8</ele>
        <time>2021-06-26T12:38:00Z</time>
      </trkpt>
      <trkpt lat="48.96844" lon="7.83282">
        <ele>229</ele>
        <time>2021-06-26T12:38:01Z</time>
      </trkpt>
      <trkpt lat="48.96845" lon="7.8328">
        <ele>229.2</ele>
        <time>2021-06-26T12:38:02Z</time>
      </trkpt>
      <trkpt lat="48.96847" lon="7.83279">
        <ele>229.2</ele>
        <time>2021-06-26T12:38:03Z</time>
      </trkpt>
      <trkpt lat="48.96849" lon="7.83277">
        <ele>229.4</ele>
        <time>2021-06-26T12:38:04Z</time>
      </trkpt>
      <trkpt lat="48.9685" lon="7.83274">
        <ele>229.6</ele>
        <time>2021-06-26T12:38:05Z</time>
      </trkpt>
      <trkpt lat="48.96852" lon="7.83272">
        <ele>229.6</ele>
        <time>2021-06-26T12:38:06Z</time>
      </trkpt>
      <trkpt lat="48.96853" lon="7.8327">
        <ele>229.8</ele>
        <time>2021-06-26T12:38:07Z</time>
      </trkpt>
      <trkpt lat="48.96854" lon="7.83267">
        <ele>229.8</ele>
        <time>2021-06-26T12:38:08Z</time>
      </trkpt>
      <trkpt lat="48.96855" lon="7.83265">
        <ele>230</ele>
        <time>2021-06-26T12:38:09Z</time>
      </trkpt>
      <trkpt lat="48.96857" lon="7.83262">
        <ele>230.4</ele>
        <time>2021-06-26T12:38:10Z</time>
      </trkpt>
      <trkpt lat="48.96859" lon="7.8326">
        <ele>230.6</ele>
        <time>2021-06-26T12:38:11Z</time>
      </trkpt>
      <trkpt lat="48.9686" lon="7.83257">
        <ele>230.6</ele>
        <time>2021-06-26T12:38:12Z</time>
      </trkpt>
      <trkpt lat="48.96862" lon="7.83255">
        <ele>230.6</ele>
        <time>2021-06-26T12:38:13Z</time>
      </trkpt>
      <trkpt lat="48.96863" lon="7.83253">
        <ele>230.8</ele>
        <time>2021-06-26T12:38:14Z</time>
      </trkpt>
      <trkpt lat="48.96864" lon="7.8325">
        <ele>230.8</ele>
        <time>2021-06-26T12:38:15Z</time>
      </trkpt>
      <trkpt lat="48.96866" lon="7.83247">
        <ele>230.8</ele>
        <time>2021-06-26T12:38:16Z</time>
      </trkpt>
      <trkpt lat="48.96867" lon="7.83244">
        <ele>231</ele>
        <time>2021-06-26T12:38:17Z</time>
      </trkpt>
      <trkpt lat="48.96869" lon="7.83241">
        <ele>231</ele>
        <time>2021-06-26T12:38:18Z</time>
      </trkpt>
      <trkpt lat="48.9687" lon="7.83239">
        <ele>231.2</ele>
        <time>2021-06-26T12:38:19Z</time>
      </trkpt>
      <trkpt lat="48.96872" lon="7.83236">
        <ele>231.2</ele>
        <time>2021-06-26T12:38:20Z</time>
      </trkpt>
      <trkpt lat="48.96873" lon="7.83233">
        <ele>231.4</ele>
        <time>2021-06-26T12:38:21Z</time>
      </trkpt>
      <trkpt lat="48.96875" lon="7.8323">
        <ele>231.4</ele>
        <time>2021-06-26T12:38:22Z</time>
      </trkpt>
      <trkpt lat="48.96876" lon="7.83227">
        <ele>231.4</ele>
        <time>2021-06-26T12:38:23Z</time>
      </trkpt>
      <trkpt lat="48.96877" lon="7.83225">
        <ele>231.4</ele>
        <time>2021-06-26T12:38:24Z</time>
      </trkpt>
      <trkpt lat="48.96879" lon="7.83222">
        <ele>231.6</ele>
        <time>2021-06-26T12:38:25Z</time>
      </trkpt>
      <trkpt lat="48.9688" lon="7.83219">
        <ele>231.6</ele>
        <time>2021-06-26T12:38:26Z</time>
      </trkpt>
      <trkpt lat="48.96881" lon="7.83216">
        <ele>231.6</ele>
        <time>2021-06-26T12:38:27Z</time>
      </trkpt>
      <trkpt lat="48.96883" lon="7.83214">
        <ele>231.6</ele>
        <time>2021-06-26T12:38:28Z</time>
      </trkpt>
      <trkpt lat="48.96884" lon="7.83212">
        <ele>231.8</ele>
        <time>2021-06-26T12:38:29Z</time>
      </trkpt>
      <trkpt lat="48.96886" lon="7.8321">
        <ele>231.8</ele>
        <time>2021-06-26T12:38:30Z</time>
      </trkpt>
      <trkpt lat="48.96888" lon="7.83206">
        <ele>231.8</ele>
        <time>2021-06-26T12:38:31Z</time>
      </trkpt>
      <trkpt lat="48.96889" lon="7.83203">
        <ele>231.8</ele>
        <time>2021-06-26T12:38:32Z</time>
      </trkpt>
      <trkpt lat="48.96903" lon="7.83175">
        <ele>232.2</ele>
        <time>2021-06-26T12:38:41Z</time>
      </trkpt>
      <trkpt lat="48.96911" lon="7.83159">
        <ele>232.4</ele>
        <time>2021-06-26T12:38:46Z</time>
      </trkpt>
      <trkpt lat="48.9692" lon="7.83138">
        <ele>232.6</ele>
        <time>2021-06-26T12:38:52Z</time>
      </trkpt>
      <trkpt lat="48.96924" lon="7.83128">
        <ele>232.8</ele>
        <time>2021-06-26T12:38:55Z</time>
      </trkpt>
      <trkpt lat="48.96928" lon="7.83117">
        <ele>233</ele>
        <time>2021-06-26T12:38:58Z</time>
      </trkpt>
      <trkpt lat="48.96931" lon="7.8311">
        <ele>233.2</ele>
        <time>2021-06-26T12:39:00Z</time>
      </trkpt>
      <trkpt lat="48.96933" lon="7.83107">
        <ele>233.2</ele>
        <time>2021-06-26T12:39:01Z</time>
      </trkpt>
      <trkpt lat="48.96934" lon="7.83104">
        <ele>233.2</ele>
        <time>2021-06-26T12:39:02Z</time>
      </trkpt>
      <trkpt lat="48.96936" lon="7.83101">
        <ele>233.4</ele>
        <time>2021-06-26T12:39:03Z</time>
      </trkpt>
      <trkpt lat="48.96937" lon="7.83098">
        <ele>233.4</ele>
        <time>2021-06-26T12:39:04Z</time>
      </trkpt>
      <trkpt lat="48.96939" lon="7.83091">
        <ele>233.6</ele>
        <time>2021-06-26T12:39:06Z</time>
      </trkpt>
      <trkpt lat="48.96942" lon="7.83085">
        <ele>233.8</ele>
        <time>2021-06-26T12:39:08Z</time>
      </trkpt>
      <trkpt lat="48.96944" lon="7.83082">
        <ele>233.8</ele>
        <time>2021-06-26T12:39:09Z</time>
      </trkpt>
      <trkpt lat="48.96945" lon="7.83079">
        <ele>233.8</ele>
        <time>2021-06-26T12:39:10Z</time>
      </trkpt>
      <trkpt lat="48.9695" lon="7.8307">
        <ele>234.2</ele>
        <time>2021-06-26T12:39:13Z</time>
      </trkpt>
      <trkpt lat="48.96951" lon="7.83067">
        <ele>234.2</ele>
        <time>2021-06-26T12:39:14Z</time>
      </trkpt>
      <trkpt lat="48.96952" lon="7.83064">
        <ele>234.4</ele>
        <time>2021-06-26T12:39:15Z</time>
      </trkpt>
      <trkpt lat="48.96961" lon="7.83045">
        <ele>235.4</ele>
        <time>2021-06-26T12:39:21Z</time>
      </trkpt>
      <trkpt lat="48.96962" lon="7.83042">
        <ele>235.6</ele>
        <time>2021-06-26T12:39:22Z</time>
      </trkpt>
      <trkpt lat="48.96968" lon="7.83026">
        <ele>236.2</ele>
        <time>2021-06-26T12:39:27Z</time>
      </trkpt>
      <trkpt lat="48.9697" lon="7.83023">
        <ele>236.2</ele>
        <time>2021-06-26T12:39:28Z</time>
      </trkpt>
      <trkpt lat="48.96971" lon="7.83019">
        <ele>236.4</ele>
        <time>2021-06-26T12:39:29Z</time>
      </trkpt>
      <trkpt lat="48.96972" lon="7.83016">
        <ele>236.4</ele>
        <time>2021-06-26T12:39:30Z</time>
      </trkpt>
      <trkpt lat="48.96974" lon="7.83013">
        <ele>236.4</ele>
        <time>2021-06-26T12:39:31Z</time>
      </trkpt>
      <trkpt lat="48.96975" lon="7.83009">
        <ele>236.4</ele>
        <time>2021-06-26T12:39:32Z</time>
      </trkpt>
      <trkpt lat="48.96976" lon="7.83006">
        <ele>236.4</ele>
        <time>2021-06-26T12:39:33Z</time>
      </trkpt>
      <trkpt lat="48.96977" lon="7.83002">
        <ele>236.4</ele>
        <time>2021-06-26T12:39:34Z</time>
      </trkpt>
      <trkpt lat="48.96978" lon="7.82998">
        <ele>236.4</ele>
        <time>2021-06-26T12:39:35Z</time>
      </trkpt>
      <trkpt lat="48.96979" lon="7.82995">
        <ele>236.6</ele>
        <time>2021-06-26T12:39:36Z</time>
      </trkpt>
      <trkpt lat="48.96981" lon="7.82992">
        <ele>236.6</ele>
        <time>2021-06-26T12:39:37Z</time>
      </trkpt>
      <trkpt lat="48.96981" lon="7.82989">
        <ele>236.6</ele>
        <time>2021-06-26T12:39:38Z</time>
      </trkpt>
      <trkpt lat="48.96982" lon="7.82986">
        <ele>236.8</ele>
        <time>2021-06-26T12:39:39Z</time>
      </trkpt>
      <trkpt lat="48.96984" lon="7.82983">
        <ele>236.8</ele>
        <time>2021-06-26T12:39:40Z</time>
      </trkpt>
      <trkpt lat="48.96985" lon="7.8298">
        <ele>237</ele>
        <time>2021-06-26T12:39:41Z</time>
      </trkpt>
      <trkpt lat="48.96985" lon="7.82977">
        <ele>237</ele>
        <time>2021-06-26T12:39:42Z</time>
      </trkpt>
      <trkpt lat="48.96986" lon="7.82973">
        <ele>237.2</ele>
        <time>2021-06-26T12:39:43Z</time>
      </trkpt>
      <trkpt lat="48.96986" lon="7.8297">
        <ele>237.2</ele>
        <time>2021-06-26T12:39:44Z</time>
      </trkpt>
      <trkpt lat="48.96986" lon="7.82966">
        <ele>237.4</ele>
        <time>2021-06-26T12:39:45Z</time>
      </trkpt>
      <trkpt lat="48.96987" lon="7.82963">
        <ele>237.6</ele>
        <time>2021-06-26T12:39:46Z</time>
      </trkpt>
      <trkpt lat="48.96987" lon="7.8296">
        <ele>237.6</ele>
        <time>2021-06-26T12:39:47Z</time>
      </trkpt>
      <trkpt lat="48.96988" lon="7.82957">
        <ele>237.8</ele>
        <time>2021-06-26T12:39:48Z</time>
      </trkpt>
      <trkpt lat="48.96987" lon="7.82954">
        <ele>237.8</ele>
        <time>2021-06-26T12:39:49Z</time>
      </trkpt>
      <trkpt lat="48.96984" lon="7.82951">
        <ele>238.2</ele>
        <time>2021-06-26T12:39:51Z</time>
      </trkpt>
      <trkpt lat="48.96982" lon="7.82951">
        <ele>238.4</ele>
        <time>2021-06-26T12:39:52Z</time>
      </trkpt>
      <trkpt lat="48.96979" lon="7.82948">
        <ele>238.6</ele>
        <time>2021-06-26T12:39:54Z</time>
      </trkpt>
      <trkpt lat="48.96978" lon="7.82946">
        <ele>238.8</ele>
        <time>2021-06-26T12:39:55Z</time>
      </trkpt>
      <trkpt lat="48.96976" lon="7.82943">
        <ele>239</ele>
        <time>2021-06-26T12:39:56Z</time>
      </trkpt>
      <trkpt lat="48.96975" lon="7.82941">
        <ele>239</ele>
        <time>2021-06-26T12:39:57Z</time>
      </trkpt>
      <trkpt lat="48.96974" lon="7.82939">
        <ele>239.2</ele>
        <time>2021-06-26T12:39:58Z</time>
      </trkpt>
      <trkpt lat="48.96972" lon="7.82938">
        <ele>239.2</ele>
        <time>2021-06-26T12:39:59Z</time>
      </trkpt>
      <trkpt lat="48.9697" lon="7.82937">
        <ele>239.4</ele>
        <time>2021-06-26T12:40:00Z</time>
      </trkpt>
      <trkpt lat="48.96968" lon="7.82935">
        <ele>239.4</ele>
        <time>2021-06-26T12:40:01Z</time>
      </trkpt>
      <trkpt lat="48.96965" lon="7.82935">
        <ele>239.4</ele>
        <time>2021-06-26T12:40:02Z</time>
      </trkpt>
      <trkpt lat="48.96963" lon="7.82934">
        <ele>239.6</ele>
        <time>2021-06-26T12:40:03Z</time>
      </trkpt>
      <trkpt lat="48.96961" lon="7.82934">
        <ele>239.6</ele>
        <time>2021-06-26T12:40:04Z</time>
      </trkpt>
      <trkpt lat="48.96959" lon="7.82934">
        <ele>239.8</ele>
        <time>2021-06-26T12:40:05Z</time>
      </trkpt>
      <trkpt lat="48.96957" lon="7.82934">
        <ele>239.8</ele>
        <time>2021-06-26T12:40:06Z</time>
      </trkpt>
      <trkpt lat="48.96955" lon="7.82935">
        <ele>240</ele>
        <time>2021-06-26T12:40:07Z</time>
      </trkpt>
      <trkpt lat="48.96953" lon="7.82935">
        <ele>240.2</ele>
        <time>2021-06-26T12:40:08Z</time>
      </trkpt>
      <trkpt lat="48.96951" lon="7.82936">
        <ele>240.2</ele>
        <time>2021-06-26T12:40:09Z</time>
      </trkpt>
      <trkpt lat="48.96949" lon="7.82936">
        <ele>240.2</ele>
        <time>2021-06-26T12:40:10Z</time>
      </trkpt>
      <trkpt lat="48.96946" lon="7.82937">
        <ele>240.4</ele>
        <time>2021-06-26T12:40:11Z</time>
      </trkpt>
      <trkpt lat="48.96944" lon="7.82937">
        <ele>240.6</ele>
        <time>2021-06-26T12:40:12Z</time>
      </trkpt>
      <trkpt lat="48.96942" lon="7.82938">
        <ele>240.6</ele>
        <time>2021-06-26T12:40:13Z</time>
      </trkpt>
      <trkpt lat="48.96939" lon="7.82938">
        <ele>240.8</ele>
        <time>2021-06-26T12:40:14Z</time>
      </trkpt>
      <trkpt lat="48.96938" lon="7.82938">
        <ele>240.8</ele>
        <time>2021-06-26T12:40:15Z</time>
      </trkpt>
      <trkpt lat="48.96936" lon="7.82938">
        <ele>241</ele>
        <time>2021-06-26T12:40:16Z</time>
      </trkpt>
      <trkpt lat="48.96933" lon="7.82938">
        <ele>241.2</ele>
        <time>2021-06-26T12:40:17Z</time>
      </trkpt>
      <trkpt lat="48.96931" lon="7.82938">
        <ele>241.2</ele>
        <time>2021-06-26T12:40:18Z</time>
      </trkpt>
      <trkpt lat="48.96929" lon="7.82938">
        <ele>241.4</ele>
        <time>2021-06-26T12:40:19Z</time>
      </trkpt>
      <trkpt lat="48.96927" lon="7.82939">
        <ele>241.4</ele>
        <time>2021-06-26T12:40:20Z</time>
      </trkpt>
      <trkpt lat="48.96924" lon="7.82939">
        <ele>241.6</ele>
        <time>2021-06-26T12:40:21Z</time>
      </trkpt>
      <trkpt lat="48.96923" lon="7.8294">
        <ele>241.6</ele>
        <time>2021-06-26T12:40:22Z</time>
      </trkpt>
      <trkpt lat="48.9692" lon="7.8294">
        <ele>241.8</ele>
        <time>2021-06-26T12:40:23Z</time>
      </trkpt>
      <trkpt lat="48.96918" lon="7.82941">
        <ele>241.8</ele>
        <time>2021-06-26T12:40:24Z</time>
      </trkpt>
      <trkpt lat="48.96916" lon="7.82942">
        <ele>241.8</ele>
        <time>2021-06-26T12:40:25Z</time>
      </trkpt>
      <trkpt lat="48.96913" lon="7.82942">
        <ele>242</ele>
        <time>2021-06-26T12:40:26Z</time>
      </trkpt>
      <trkpt lat="48.96911" lon="7.82943">
        <ele>242</ele>
        <time>2021-06-26T12:40:27Z</time>
      </trkpt>
      <trkpt lat="48.96909" lon="7.82944">
        <ele>242</ele>
        <time>2021-06-26T12:40:28Z</time>
      </trkpt>
      <trkpt lat="48.96907" lon="7.82945">
        <ele>242</ele>
        <time>2021-06-26T12:40:29Z</time>
      </trkpt>
      <trkpt lat="48.96904" lon="7.82946">
        <ele>242</ele>
        <time>2021-06-26T12:40:30Z</time>
      </trkpt>
      <trkpt lat="48.96902" lon="7.82947">
        <ele>242</ele>
        <time>2021-06-26T12:40:31Z</time>
      </trkpt>
      <trkpt lat="48.96897" lon="7.82949">
        <ele>242</ele>
        <time>2021-06-26T12:40:34Z</time>
      </trkpt>
      <trkpt lat="48.96893" lon="7.8295">
        <ele>242.2</ele>
        <time>2021-06-26T12:40:36Z</time>
      </trkpt>
      <trkpt lat="48.96891" lon="7.8295">
        <ele>242.2</ele>
        <time>2021-06-26T12:40:37Z</time>
      </trkpt>
      <trkpt lat="48.96889" lon="7.82951">
        <ele>242.2</ele>
        <time>2021-06-26T12:40:38Z</time>
      </trkpt>
      <trkpt lat="48.96887" lon="7.82952">
        <ele>242.2</ele>
        <time>2021-06-26T12:40:39Z</time>
      </trkpt>
      <trkpt lat="48.96885" lon="7.82953">
        <ele>242.2</ele>
        <time>2021-06-26T12:40:40Z</time>
      </trkpt>
      <trkpt lat="48.9688" lon="7.82955">
        <ele>242.2</ele>
        <time>2021-06-26T12:40:42Z</time>
      </trkpt>
      <trkpt lat="48.96854" lon="7.82963">
        <ele>242.8</ele>
        <time>2021-06-26T12:40:53Z</time>
      </trkpt>
      <trkpt lat="48.96844" lon="7.82967">
        <ele>242.8</ele>
        <time>2021-06-26T12:40:57Z</time>
      </trkpt>
      <trkpt lat="48.96829" lon="7.82972">
        <ele>243.4</ele>
        <time>2021-06-26T12:41:03Z</time>
      </trkpt>
      <trkpt lat="48.96824" lon="7.82973">
        <ele>243.6</ele>
        <time>2021-06-26T12:41:05Z</time>
      </trkpt>
      <trkpt lat="48.96821" lon="7.82973">
        <ele>243.8</ele>
        <time>2021-06-26T12:41:06Z</time>
      </trkpt>
      <trkpt lat="48.96816" lon="7.82974">
        <ele>244</ele>
        <time>2021-06-26T12:41:08Z</time>
      </trkpt>
      <trkpt lat="48.96814" lon="7.82975">
        <ele>244</ele>
        <time>2021-06-26T12:41:09Z</time>
      </trkpt>
      <trkpt lat="48.96812" lon="7.82976">
        <ele>244.2</ele>
        <time>2021-06-26T12:41:10Z</time>
      </trkpt>
      <trkpt lat="48.96802" lon="7.82978">
        <ele>244.6</ele>
        <time>2021-06-26T12:41:14Z</time>
      </trkpt>
      <trkpt lat="48.968" lon="7.82979">
        <ele>244.8</ele>
        <time>2021-06-26T12:41:15Z</time>
      </trkpt>
      <trkpt lat="48.96792" lon="7.8298">
        <ele>245</ele>
        <time>2021-06-26T12:41:18Z</time>
      </trkpt>
      <trkpt lat="48.96772" lon="7.82982">
        <ele>245.8</ele>
        <time>2021-06-26T12:41:26Z</time>
      </trkpt>
      <trkpt lat="48.96763" lon="7.82982">
        <ele>246</ele>
        <time>2021-06-26T12:41:29Z</time>
      </trkpt>
      <trkpt lat="48.96745" lon="7.82982">
        <ele>247</ele>
        <time>2021-06-26T12:41:36Z</time>
      </trkpt>
      <trkpt lat="48.96742" lon="7.82982">
        <ele>247.2</ele>
        <time>2021-06-26T12:41:37Z</time>
      </trkpt>
      <trkpt lat="48.96739" lon="7.82982">
        <ele>247.4</ele>
        <time>2021-06-26T12:41:38Z</time>
      </trkpt>
      <trkpt lat="48.96736" lon="7.82982">
        <ele>247.6</ele>
        <time>2021-06-26T12:41:39Z</time>
      </trkpt>
      <trkpt lat="48.96733" lon="7.82982">
        <ele>247.6</ele>
        <time>2021-06-26T12:41:40Z</time>
      </trkpt>
      <trkpt lat="48.9673" lon="7.82982">
        <ele>247.8</ele>
        <time>2021-06-26T12:41:41Z</time>
      </trkpt>
      <trkpt lat="48.96727" lon="7.82982">
        <ele>247.8</ele>
        <time>2021-06-26T12:41:42Z</time>
      </trkpt>
      <trkpt lat="48.96723" lon="7.82982">
        <ele>248</ele>
        <time>2021-06-26T12:41:43Z</time>
      </trkpt>
      <trkpt lat="48.9672" lon="7.82981">
        <ele>248</ele>
        <time>2021-06-26T12:41:44Z</time>
      </trkpt>
      <trkpt lat="48.96717" lon="7.82981">
        <ele>248</ele>
        <time>2021-06-26T12:41:45Z</time>
      </trkpt>
      <trkpt lat="48.96714" lon="7.82981">
        <ele>248</ele>
        <time>2021-06-26T12:41:46Z</time>
      </trkpt>
      <trkpt lat="48.96711" lon="7.82981">
        <ele>248</ele>
        <time>2021-06-26T12:41:47Z</time>
      </trkpt>
      <trkpt lat="48.96707" lon="7.8298">
        <ele>248</ele>
        <time>2021-06-26T12:41:48Z</time>
      </trkpt>
      <trkpt lat="48.96704" lon="7.8298">
        <ele>248</ele>
        <time>2021-06-26T12:41:49Z</time>
      </trkpt>
      <trkpt lat="48.96701" lon="7.82979">
        <ele>248</ele>
        <time>2021-06-26T12:41:50Z</time>
      </trkpt>
      <trkpt lat="48.96698" lon="7.82979">
        <ele>248</ele>
        <time>2021-06-26T12:41:51Z</time>
      </trkpt>
      <trkpt lat="48.96694" lon="7.82979">
        <ele>247.8</ele>
        <time>2021-06-26T12:41:52Z</time>
      </trkpt>
      <trkpt lat="48.96685" lon="7.82979">
        <ele>247.8</ele>
        <time>2021-06-26T12:41:55Z</time>
      </trkpt>
      <trkpt lat="48.9666" lon="7.82979">
        <ele>247.4</ele>
        <time>2021-06-26T12:42:03Z</time>
      </trkpt>
      <trkpt lat="48.96656" lon="7.82979">
        <ele>247.2</ele>
        <time>2021-06-26T12:42:04Z</time>
      </trkpt>
      <trkpt lat="48.96632" lon="7.82979">
        <ele>246.8</ele>
        <time>2021-06-26T12:42:11Z</time>
      </trkpt>
      <trkpt lat="48.96617" lon="7.82978">
        <ele>246.6</ele>
        <time>2021-06-26T12:42:16Z</time>
      </trkpt>
      <trkpt lat="48.96615" lon="7.82978">
        <ele>246.4</ele>
        <time>2021-06-26T12:42:17Z</time>
      </trkpt>
      <trkpt lat="48.96612" lon="7.82979">
        <ele>246.4</ele>
        <time>2021-06-26T12:42:18Z</time>
      </trkpt>
      <trkpt lat="48.96609" lon="7.82979">
        <ele>246.4</ele>
        <time>2021-06-26T12:42:19Z</time>
      </trkpt>
      <trkpt lat="48.96606" lon="7.82978">
        <ele>246.4</ele>
        <time>2021-06-26T12:42:20Z</time>
      </trkpt>
      <trkpt lat="48.96603" lon="7.82978">
        <ele>246.4</ele>
        <time>2021-06-26T12:42:21Z</time>
      </trkpt>
      <trkpt lat="48.966" lon="7.82977">
        <ele>246.4</ele>
        <time>2021-06-26T12:42:22Z</time>
      </trkpt>
      <trkpt lat="48.96597" lon="7.82975">
        <ele>246.4</ele>
        <time>2021-06-26T12:42:23Z</time>
      </trkpt>
      <trkpt lat="48.96595" lon="7.82973">
        <ele>246.4</ele>
        <time>2021-06-26T12:42:24Z</time>
      </trkpt>
      <trkpt lat="48.96594" lon="7.82971">
        <ele>246.2</ele>
        <time>2021-06-26T12:42:25Z</time>
      </trkpt>
      <trkpt lat="48.96593" lon="7.8297">
        <ele>246.2</ele>
        <time>2021-06-26T12:42:26Z</time>
      </trkpt>
      <trkpt lat="48.96593" lon="7.8297">
        <ele>246.2</ele>
        <time>2021-06-26T12:42:27Z</time>
      </trkpt>
      <trkpt lat="48.96593" lon="7.8297">
        <ele>246.2</ele>
        <time>2021-06-26T12:42:28Z</time>
      </trkpt>
      <trkpt lat="48.96592" lon="7.82968">
        <ele>245.8</ele>
        <time>2021-06-26T12:43:14Z</time>
      </trkpt>
      <trkpt lat="48.96588" lon="7.82958">
        <ele>245.8</ele>
        <time>2021-06-26T12:43:17Z</time>
      </trkpt>
      <trkpt lat="48.96577" lon="7.82938">
        <ele>245.8</ele>
        <time>2021-06-26T12:43:22Z</time>
      </trkpt>
      <trkpt lat="48.96565" lon="7.82923">
        <ele>245.8</ele>
        <time>2021-06-26T12:43:26Z</time>
      </trkpt>
      <trkpt lat="48.96562" lon="7.82918">
        <ele>246</ele>
        <time>2021-06-26T12:43:27Z</time>
      </trkpt>
      <trkpt lat="48.9656" lon="7.82915">
        <ele>246</ele>
        <time>2021-06-26T12:43:28Z</time>
      </trkpt>
      <trkpt lat="48.96558" lon="7.82911">
        <ele>246</ele>
        <time>2021-06-26T12:43:29Z</time>
      </trkpt>
      <trkpt lat="48.96556" lon="7.82907">
        <ele>246.2</ele>
        <time>2021-06-26T12:43:30Z</time>
      </trkpt>
      <trkpt lat="48.96551" lon="7.829">
        <ele>246.4</ele>
        <time>2021-06-26T12:43:32Z</time>
      </trkpt>
      <trkpt lat="48.9654" lon="7.82878">
        <ele>246.4</ele>
        <time>2021-06-26T12:43:37Z</time>
      </trkpt>
      <trkpt lat="48.96533" lon="7.82863">
        <ele>246.4</ele>
        <time>2021-06-26T12:43:40Z</time>
      </trkpt>
      <trkpt lat="48.96531" lon="7.82858">
        <ele>246.4</ele>
        <time>2021-06-26T12:43:41Z</time>
      </trkpt>
      <trkpt lat="48.96528" lon="7.82854">
        <ele>246.4</ele>
        <time>2021-06-26T12:43:42Z</time>
      </trkpt>
      <trkpt lat="48.96525" lon="7.8285">
        <ele>246.2</ele>
        <time>2021-06-26T12:43:43Z</time>
      </trkpt>
      <trkpt lat="48.96503" lon="7.82825">
        <ele>245.6</ele>
        <time>2021-06-26T12:43:49Z</time>
      </trkpt>
      <trkpt lat="48.96499" lon="7.82822">
        <ele>245.4</ele>
        <time>2021-06-26T12:43:50Z</time>
      </trkpt>
      <trkpt lat="48.96495" lon="7.82822">
        <ele>245.2</ele>
        <time>2021-06-26T12:43:51Z</time>
      </trkpt>
      <trkpt lat="48.96491" lon="7.82824">
        <ele>245</ele>
        <time>2021-06-26T12:43:52Z</time>
      </trkpt>
      <trkpt lat="48.96487" lon="7.82828">
        <ele>244.8</ele>
        <time>2021-06-26T12:43:53Z</time>
      </trkpt>
      <trkpt lat="48.96477" lon="7.82843">
        <ele>244.4</ele>
        <time>2021-06-26T12:43:56Z</time>
      </trkpt>
      <trkpt lat="48.9647" lon="7.82853">
        <ele>244</ele>
        <time>2021-06-26T12:43:58Z</time>
      </trkpt>
      <trkpt lat="48.96466" lon="7.82859">
        <ele>243.8</ele>
        <time>2021-06-26T12:43:59Z</time>
      </trkpt>
      <trkpt lat="48.9646" lon="7.82866">
        <ele>243.4</ele>
        <time>2021-06-26T12:44:01Z</time>
      </trkpt>
      <trkpt lat="48.96455" lon="7.82868">
        <ele>243.2</ele>
        <time>2021-06-26T12:44:02Z</time>
      </trkpt>
      <trkpt lat="48.96451" lon="7.82868">
        <ele>243.2</ele>
        <time>2021-06-26T12:44:03Z</time>
      </trkpt>
      <trkpt lat="48.96446" lon="7.82867">
        <ele>243</ele>
        <time>2021-06-26T12:44:04Z</time>
      </trkpt>
      <trkpt lat="48.96441" lon="7.82864">
        <ele>242.8</ele>
        <time>2021-06-26T12:44:05Z</time>
      </trkpt>
      <trkpt lat="48.96438" lon="7.82862">
        <ele>242.6</ele>
        <time>2021-06-26T12:44:06Z</time>
      </trkpt>
      <trkpt lat="48.96434" lon="7.82859">
        <ele>242.6</ele>
        <time>2021-06-26T12:44:07Z</time>
      </trkpt>
      <trkpt lat="48.9643" lon="7.82856">
        <ele>242.4</ele>
        <time>2021-06-26T12:44:08Z</time>
      </trkpt>
      <trkpt lat="48.96408" lon="7.8284">
        <ele>241.6</ele>
        <time>2021-06-26T12:44:13Z</time>
      </trkpt>
      <trkpt lat="48.96404" lon="7.82836">
        <ele>241.4</ele>
        <time>2021-06-26T12:44:14Z</time>
      </trkpt>
      <trkpt lat="48.96381" lon="7.82818">
        <ele>240.2</ele>
        <time>2021-06-26T12:44:19Z</time>
      </trkpt>
      <trkpt lat="48.96372" lon="7.82812">
        <ele>239.6</ele>
        <time>2021-06-26T12:44:21Z</time>
      </trkpt>
      <trkpt lat="48.96367" lon="7.82808">
        <ele>239.2</ele>
        <time>2021-06-26T12:44:22Z</time>
      </trkpt>
      <trkpt lat="48.96363" lon="7.82805">
        <ele>239</ele>
        <time>2021-06-26T12:44:23Z</time>
      </trkpt>
      <trkpt lat="48.96358" lon="7.82801">
        <ele>238.6</ele>
        <time>2021-06-26T12:44:24Z</time>
      </trkpt>
      <trkpt lat="48.96356" lon="7.82799">
        <ele>238.2</ele>
        <time>2021-06-26T12:44:25Z</time>
      </trkpt>
      <trkpt lat="48.96354" lon="7.82798">
        <ele>237.8</ele>
        <time>2021-06-26T12:44:26Z</time>
      </trkpt>
      <trkpt lat="48.96352" lon="7.82796">
        <ele>237.6</ele>
        <time>2021-06-26T12:44:27Z</time>
      </trkpt>
      <trkpt lat="48.9635" lon="7.82794">
        <ele>237.2</ele>
        <time>2021-06-26T12:44:28Z</time>
      </trkpt>
      <trkpt lat="48.96348" lon="7.82792">
        <ele>236.8</ele>
        <time>2021-06-26T12:44:29Z</time>
      </trkpt>
      <trkpt lat="48.96347" lon="7.8279">
        <ele>236.4</ele>
        <time>2021-06-26T12:44:30Z</time>
      </trkpt>
      <trkpt lat="48.96342" lon="7.82784">
        <ele>235.8</ele>
        <time>2021-06-26T12:44:32Z</time>
      </trkpt>
      <trkpt lat="48.96339" lon="7.8278">
        <ele>235.6</ele>
        <time>2021-06-26T12:44:33Z</time>
      </trkpt>
      <trkpt lat="48.96319" lon="7.82762">
        <ele>234.8</ele>
        <time>2021-06-26T12:44:38Z</time>
      </trkpt>
      <trkpt lat="48.96314" lon="7.82758">
        <ele>234.6</ele>
        <time>2021-06-26T12:44:39Z</time>
      </trkpt>
      <trkpt lat="48.96306" lon="7.8275">
        <ele>233.8</ele>
        <time>2021-06-26T12:44:41Z</time>
      </trkpt>
      <trkpt lat="48.963" lon="7.82746">
        <ele>233.6</ele>
        <time>2021-06-26T12:44:42Z</time>
      </trkpt>
      <trkpt lat="48.96294" lon="7.82741">
        <ele>233.6</ele>
        <time>2021-06-26T12:44:43Z</time>
      </trkpt>
      <trkpt lat="48.96284" lon="7.82733">
        <ele>233.2</ele>
        <time>2021-06-26T12:44:45Z</time>
      </trkpt>
      <trkpt lat="48.96271" lon="7.82725">
        <ele>232.4</ele>
        <time>2021-06-26T12:44:47Z</time>
      </trkpt>
      <trkpt lat="48.96258" lon="7.82716">
        <ele>231.8</ele>
        <time>2021-06-26T12:44:49Z</time>
      </trkpt>
      <trkpt lat="48.96253" lon="7.82711">
        <ele>231.4</ele>
        <time>2021-06-26T12:44:50Z</time>
      </trkpt>
      <trkpt lat="48.96247" lon="7.82703">
        <ele>231</ele>
        <time>2021-06-26T12:44:51Z</time>
      </trkpt>
      <trkpt lat="48.96242" lon="7.82694">
        <ele>230.2</ele>
        <time>2021-06-26T12:44:52Z</time>
      </trkpt>
      <trkpt lat="48.96239" lon="7.82687">
        <ele>229.6</ele>
        <time>2021-06-26T12:44:53Z</time>
      </trkpt>
      <trkpt lat="48.96235" lon="7.82676">
        <ele>229.2</ele>
        <time>2021-06-26T12:44:54Z</time>
      </trkpt>
      <trkpt lat="48.96231" lon="7.82668">
        <ele>228.8</ele>
        <time>2021-06-26T12:44:55Z</time>
      </trkpt>
      <trkpt lat="48.96228" lon="7.82659">
        <ele>228.2</ele>
        <time>2021-06-26T12:44:56Z</time>
      </trkpt>
      <trkpt lat="48.96225" lon="7.8265">
        <ele>227.6</ele>
        <time>2021-06-26T12:44:57Z</time>
      </trkpt>
      <trkpt lat="48.96221" lon="7.82629">
        <ele>227</ele>
        <time>2021-06-26T12:44:59Z</time>
      </trkpt>
      <trkpt lat="48.96219" lon="7.82621">
        <ele>226.6</ele>
        <time>2021-06-26T12:45:00Z</time>
      </trkpt>
      <trkpt lat="48.96217" lon="7.82612">
        <ele>226.2</ele>
        <time>2021-06-26T12:45:01Z</time>
      </trkpt>
      <trkpt lat="48.96215" lon="7.82604">
        <ele>226</ele>
        <time>2021-06-26T12:45:02Z</time>
      </trkpt>
      <trkpt lat="48.96213" lon="7.82595">
        <ele>225.8</ele>
        <time>2021-06-26T12:45:03Z</time>
      </trkpt>
      <trkpt lat="48.96209" lon="7.82586">
        <ele>225.6</ele>
        <time>2021-06-26T12:45:04Z</time>
      </trkpt>
      <trkpt lat="48.96206" lon="7.8258">
        <ele>225.6</ele>
        <time>2021-06-26T12:45:05Z</time>
      </trkpt>
      <trkpt lat="48.96203" lon="7.82573">
        <ele>225.4</ele>
        <time>2021-06-26T12:45:06Z</time>
      </trkpt>
      <trkpt lat="48.96199" lon="7.82564">
        <ele>225.2</ele>
        <time>2021-06-26T12:45:07Z</time>
      </trkpt>
      <trkpt lat="48.96196" lon="7.82559">
        <ele>225.2</ele>
        <time>2021-06-26T12:45:08Z</time>
      </trkpt>
      <trkpt lat="48.96189" lon="7.82545">
        <ele>225</ele>
        <time>2021-06-26T12:45:10Z</time>
      </trkpt>
      <trkpt lat="48.96185" lon="7.82539">
        <ele>225</ele>
        <time>2021-06-26T12:45:11Z</time>
      </trkpt>
      <trkpt lat="48.96181" lon="7.82533">
        <ele>225</ele>
        <time>2021-06-26T12:45:12Z</time>
      </trkpt>
      <trkpt lat="48.96177" lon="7.82526">
        <ele>225</ele>
        <time>2021-06-26T12:45:13Z</time>
      </trkpt>
      <trkpt lat="48.96173" lon="7.8252">
        <ele>225</ele>
        <time>2021-06-26T12:45:14Z</time>
      </trkpt>
      <trkpt lat="48.9616" lon="7.82492">
        <ele>224.6</ele>
        <time>2021-06-26T12:45:18Z</time>
      </trkpt>
      <trkpt lat="48.96154" lon="7.82479">
        <ele>224.6</ele>
        <time>2021-06-26T12:45:20Z</time>
      </trkpt>
      <trkpt lat="48.96151" lon="7.82472">
        <ele>224.4</ele>
        <time>2021-06-26T12:45:21Z</time>
      </trkpt>
      <trkpt lat="48.96145" lon="7.82458">
        <ele>224.4</ele>
        <time>2021-06-26T12:45:23Z</time>
      </trkpt>
      <trkpt lat="48.96142" lon="7.82451">
        <ele>224.4</ele>
        <time>2021-06-26T12:45:24Z</time>
      </trkpt>
      <trkpt lat="48.96121" lon="7.82406">
        <ele>223.8</ele>
        <time>2021-06-26T12:45:31Z</time>
      </trkpt>
      <trkpt lat="48.96118" lon="7.82398">
        <ele>223.8</ele>
        <time>2021-06-26T12:45:32Z</time>
      </trkpt>
      <trkpt lat="48.96116" lon="7.82391">
        <ele>223.6</ele>
        <time>2021-06-26T12:45:33Z</time>
      </trkpt>
      <trkpt lat="48.96113" lon="7.82385">
        <ele>223.6</ele>
        <time>2021-06-26T12:45:34Z</time>
      </trkpt>
      <trkpt lat="48.96111" lon="7.8238">
        <ele>223.6</ele>
        <time>2021-06-26T12:45:35Z</time>
      </trkpt>
      <trkpt lat="48.96108" lon="7.82374">
        <ele>223.6</ele>
        <time>2021-06-26T12:45:36Z</time>
      </trkpt>
      <trkpt lat="48.96105" lon="7.82367">
        <ele>223.6</ele>
        <time>2021-06-26T12:45:37Z</time>
      </trkpt>
      <trkpt lat="48.96102" lon="7.82362">
        <ele>223.6</ele>
        <time>2021-06-26T12:45:38Z</time>
      </trkpt>
      <trkpt lat="48.96099" lon="7.82354">
        <ele>223.6</ele>
        <time>2021-06-26T12:45:39Z</time>
      </trkpt>
      <trkpt lat="48.96096" lon="7.8235">
        <ele>223.6</ele>
        <time>2021-06-26T12:45:40Z</time>
      </trkpt>
      <trkpt lat="48.96086" lon="7.82333">
        <ele>223.6</ele>
        <time>2021-06-26T12:45:43Z</time>
      </trkpt>
      <trkpt lat="48.96083" lon="7.82328">
        <ele>223.6</ele>
        <time>2021-06-26T12:45:44Z</time>
      </trkpt>
      <trkpt lat="48.96078" lon="7.82318">
        <ele>223.8</ele>
        <time>2021-06-26T12:45:46Z</time>
      </trkpt>
      <trkpt lat="48.96076" lon="7.82314">
        <ele>223.8</ele>
        <time>2021-06-26T12:45:47Z</time>
      </trkpt>
      <trkpt lat="48.96074" lon="7.82311">
        <ele>223.8</ele>
        <time>2021-06-26T12:45:48Z</time>
      </trkpt>
      <trkpt lat="48.96072" lon="7.82309">
        <ele>224</ele>
        <time>2021-06-26T12:45:49Z</time>
      </trkpt>
      <trkpt lat="48.96071" lon="7.82307">
        <ele>224</ele>
        <time>2021-06-26T12:45:50Z</time>
      </trkpt>
      <trkpt lat="48.96071" lon="7.82306">
        <ele>224.2</ele>
        <time>2021-06-26T12:45:51Z</time>
      </trkpt>
      <trkpt lat="48.9607" lon="7.82306">
        <ele>224.2</ele>
        <time>2021-06-26T12:45:52Z</time>
      </trkpt>
      <trkpt lat="48.9607" lon="7.82306">
        <ele>224.4</ele>
        <time>2021-06-26T12:45:54Z</time>
      </trkpt>
      <trkpt lat="48.96071" lon="7.82304">
        <ele>225.4</ele>
        <time>2021-06-26T12:46:27Z</time>
      </trkpt>
      <trkpt lat="48.96072" lon="7.82301">
        <ele>225.4</ele>
        <time>2021-06-26T12:46:28Z</time>
      </trkpt>
      <trkpt lat="48.96074" lon="7.823">
        <ele>225.4</ele>
        <time>2021-06-26T12:46:30Z</time>
      </trkpt>
      <trkpt lat="48.96076" lon="7.823">
        <ele>225.4</ele>
        <time>2021-06-26T12:46:31Z</time>
      </trkpt>
      <trkpt lat="48.96078" lon="7.823">
        <ele>225.4</ele>
        <time>2021-06-26T12:46:32Z</time>
      </trkpt>
      <trkpt lat="48.9608" lon="7.823">
        <ele>225.4</ele>
        <time>2021-06-26T12:46:33Z</time>
      </trkpt>
      <trkpt lat="48.96094" lon="7.82299">
        <ele>225.4</ele>
        <time>2021-06-26T12:46:39Z</time>
      </trkpt>
      <trkpt lat="48.96101" lon="7.82298">
        <ele>225.6</ele>
        <time>2021-06-26T12:46:42Z</time>
      </trkpt>
      <trkpt lat="48.96111" lon="7.82298">
        <ele>226</ele>
        <time>2021-06-26T12:46:46Z</time>
      </trkpt>
      <trkpt lat="48.96134" lon="7.82295">
        <ele>226.8</ele>
        <time>2021-06-26T12:46:54Z</time>
      </trkpt>
      <trkpt lat="48.96136" lon="7.82295">
        <ele>227</ele>
        <time>2021-06-26T12:46:55Z</time>
      </trkpt>
      <trkpt lat="48.96147" lon="7.82294">
        <ele>227.6</ele>
        <time>2021-06-26T12:46:59Z</time>
      </trkpt>
      <trkpt lat="48.96149" lon="7.82293">
        <ele>227.8</ele>
        <time>2021-06-26T12:47:00Z</time>
      </trkpt>
      <trkpt lat="48.96152" lon="7.82293">
        <ele>228</ele>
        <time>2021-06-26T12:47:01Z</time>
      </trkpt>
      <trkpt lat="48.96154" lon="7.82293">
        <ele>228.2</ele>
        <time>2021-06-26T12:47:02Z</time>
      </trkpt>
      <trkpt lat="48.96168" lon="7.82295">
        <ele>229.2</ele>
        <time>2021-06-26T12:47:07Z</time>
      </trkpt>
      <trkpt lat="48.96171" lon="7.82295">
        <ele>229.2</ele>
        <time>2021-06-26T12:47:08Z</time>
      </trkpt>
      <trkpt lat="48.96174" lon="7.82295">
        <ele>229.4</ele>
        <time>2021-06-26T12:47:09Z</time>
      </trkpt>
      <trkpt lat="48.96176" lon="7.82295">
        <ele>229.6</ele>
        <time>2021-06-26T12:47:10Z</time>
      </trkpt>
      <trkpt lat="48.96178" lon="7.82295">
        <ele>229.8</ele>
        <time>2021-06-26T12:47:11Z</time>
      </trkpt>
      <trkpt lat="48.9618" lon="7.82295">
        <ele>230</ele>
        <time>2021-06-26T12:47:12Z</time>
      </trkpt>
      <trkpt lat="48.96183" lon="7.82295">
        <ele>230.2</ele>
        <time>2021-06-26T12:47:13Z</time>
      </trkpt>
      <trkpt lat="48.96185" lon="7.82295">
        <ele>230.4</ele>
        <time>2021-06-26T12:47:14Z</time>
      </trkpt>
      <trkpt lat="48.96187" lon="7.82295">
        <ele>230.6</ele>
        <time>2021-06-26T12:47:15Z</time>
      </trkpt>
      <trkpt lat="48.9619" lon="7.82295">
        <ele>230.8</ele>
        <time>2021-06-26T12:47:16Z</time>
      </trkpt>
      <trkpt lat="48.96192" lon="7.82295">
        <ele>231.2</ele>
        <time>2021-06-26T12:47:17Z</time>
      </trkpt>
      <trkpt lat="48.96195" lon="7.82295">
        <ele>231.4</ele>
        <time>2021-06-26T12:47:18Z</time>
      </trkpt>
      <trkpt lat="48.96197" lon="7.82295">
        <ele>231.4</ele>
        <time>2021-06-26T12:47:19Z</time>
      </trkpt>
      <trkpt lat="48.96199" lon="7.82296">
        <ele>231.8</ele>
        <time>2021-06-26T12:47:20Z</time>
      </trkpt>
      <trkpt lat="48.96201" lon="7.82296">
        <ele>232</ele>
        <time>2021-06-26T12:47:21Z</time>
      </trkpt>
      <trkpt lat="48.96204" lon="7.82296">
        <ele>232.2</ele>
        <time>2021-06-26T12:47:22Z</time>
      </trkpt>
      <trkpt lat="48.96206" lon="7.82296">
        <ele>232.6</ele>
        <time>2021-06-26T12:47:23Z</time>
      </trkpt>
      <trkpt lat="48.96209" lon="7.82296">
        <ele>232.8</ele>
        <time>2021-06-26T12:47:24Z</time>
      </trkpt>
      <trkpt lat="48.96211" lon="7.82297">
        <ele>232.8</ele>
        <time>2021-06-26T12:47:25Z</time>
      </trkpt>
      <trkpt lat="48.96214" lon="7.82297">
        <ele>233</ele>
        <time>2021-06-26T12:47:26Z</time>
      </trkpt>
      <trkpt lat="48.96216" lon="7.82297">
        <ele>233.2</ele>
        <time>2021-06-26T12:47:27Z</time>
      </trkpt>
      <trkpt lat="48.96219" lon="7.82297">
        <ele>233.4</ele>
        <time>2021-06-26T12:47:28Z</time>
      </trkpt>
      <trkpt lat="48.96222" lon="7.82297">
        <ele>233.4</ele>
        <time>2021-06-26T12:47:29Z</time>
      </trkpt>
      <trkpt lat="48.96224" lon="7.82297">
        <ele>233.6</ele>
        <time>2021-06-26T12:47:30Z</time>
      </trkpt>
      <trkpt lat="48.96226" lon="7.82296">
        <ele>233.8</ele>
        <time>2021-06-26T12:47:31Z</time>
      </trkpt>
      <trkpt lat="48.96228" lon="7.82294">
        <ele>234</ele>
        <time>2021-06-26T12:47:32Z</time>
      </trkpt>
      <trkpt lat="48.96229" lon="7.8229">
        <ele>234.2</ele>
        <time>2021-06-26T12:47:33Z</time>
      </trkpt>
      <trkpt lat="48.96231" lon="7.82285">
        <ele>234.4</ele>
        <time>2021-06-26T12:47:34Z</time>
      </trkpt>
      <trkpt lat="48.96233" lon="7.8228">
        <ele>234.4</ele>
        <time>2021-06-26T12:47:35Z</time>
      </trkpt>
      <trkpt lat="48.96234" lon="7.82276">
        <ele>234.6</ele>
        <time>2021-06-26T12:47:36Z</time>
      </trkpt>
      <trkpt lat="48.96237" lon="7.82272">
        <ele>234.6</ele>
        <time>2021-06-26T12:47:37Z</time>
      </trkpt>
      <trkpt lat="48.9624" lon="7.8227">
        <ele>234.8</ele>
        <time>2021-06-26T12:47:38Z</time>
      </trkpt>
      <trkpt lat="48.96242" lon="7.82267">
        <ele>235</ele>
        <time>2021-06-26T12:47:39Z</time>
      </trkpt>
      <trkpt lat="48.96244" lon="7.82263">
        <ele>235.2</ele>
        <time>2021-06-26T12:47:40Z</time>
      </trkpt>
      <trkpt lat="48.96245" lon="7.82259">
        <ele>235.4</ele>
        <time>2021-06-26T12:47:41Z</time>
      </trkpt>
      <trkpt lat="48.96247" lon="7.82255">
        <ele>235.4</ele>
        <time>2021-06-26T12:47:42Z</time>
      </trkpt>
      <trkpt lat="48.96249" lon="7.8225">
        <ele>235.6</ele>
        <time>2021-06-26T12:47:43Z</time>
      </trkpt>
      <trkpt lat="48.96251" lon="7.82247">
        <ele>235.6</ele>
        <time>2021-06-26T12:47:44Z</time>
      </trkpt>
      <trkpt lat="48.96253" lon="7.82244">
        <ele>235.6</ele>
        <time>2021-06-26T12:47:45Z</time>
      </trkpt>
      <trkpt lat="48.96254" lon="7.8224">
        <ele>235.8</ele>
        <time>2021-06-26T12:47:46Z</time>
      </trkpt>
      <trkpt lat="48.96257" lon="7.82235">
        <ele>235.8</ele>
        <time>2021-06-26T12:47:47Z</time>
      </trkpt>
      <trkpt lat="48.96259" lon="7.82231">
        <ele>235.8</ele>
        <time>2021-06-26T12:47:48Z</time>
      </trkpt>
      <trkpt lat="48.96261" lon="7.82227">
        <ele>235.8</ele>
        <time>2021-06-26T12:47:49Z</time>
      </trkpt>
      <trkpt lat="48.96263" lon="7.82223">
        <ele>235.8</ele>
        <time>2021-06-26T12:47:50Z</time>
      </trkpt>
      <trkpt lat="48.96266" lon="7.82219">
        <ele>235.8</ele>
        <time>2021-06-26T12:47:51Z</time>
      </trkpt>
      <trkpt lat="48.96268" lon="7.82216">
        <ele>235.8</ele>
        <time>2021-06-26T12:47:52Z</time>
      </trkpt>
      <trkpt lat="48.9627" lon="7.82212">
        <ele>235.8</ele>
        <time>2021-06-26T12:47:53Z</time>
      </trkpt>
      <trkpt lat="48.96272" lon="7.82209">
        <ele>235.8</ele>
        <time>2021-06-26T12:47:54Z</time>
      </trkpt>
      <trkpt lat="48.96274" lon="7.82206">
        <ele>235.8</ele>
        <time>2021-06-26T12:47:55Z</time>
      </trkpt>
      <trkpt lat="48.96276" lon="7.82203">
        <ele>235.8</ele>
        <time>2021-06-26T12:47:56Z</time>
      </trkpt>
      <trkpt lat="48.96279" lon="7.82199">
        <ele>235.8</ele>
        <time>2021-06-26T12:47:57Z</time>
      </trkpt>
      <trkpt lat="48.96281" lon="7.82196">
        <ele>235.8</ele>
        <time>2021-06-26T12:47:58Z</time>
      </trkpt>
      <trkpt lat="48.96284" lon="7.82192">
        <ele>235.8</ele>
        <time>2021-06-26T12:47:59Z</time>
      </trkpt>
      <trkpt lat="48.96286" lon="7.82188">
        <ele>235.8</ele>
        <time>2021-06-26T12:48:00Z</time>
      </trkpt>
      <trkpt lat="48.96288" lon="7.82185">
        <ele>235.8</ele>
        <time>2021-06-26T12:48:01Z</time>
      </trkpt>
      <trkpt lat="48.96298" lon="7.82165">
        <ele>235.8</ele>
        <time>2021-06-26T12:48:06Z</time>
      </trkpt>
      <trkpt lat="48.963" lon="7.82162">
        <ele>235.8</ele>
        <time>2021-06-26T12:48:07Z</time>
      </trkpt>
      <trkpt lat="48.96302" lon="7.82159">
        <ele>236</ele>
        <time>2021-06-26T12:48:08Z</time>
      </trkpt>
      <trkpt lat="48.96305" lon="7.82156">
        <ele>236</ele>
        <time>2021-06-26T12:48:09Z</time>
      </trkpt>
      <trkpt lat="48.9631" lon="7.8215">
        <ele>236.2</ele>
        <time>2021-06-26T12:48:11Z</time>
      </trkpt>
      <trkpt lat="48.96315" lon="7.82143">
        <ele>236.4</ele>
        <time>2021-06-26T12:48:13Z</time>
      </trkpt>
      <trkpt lat="48.96317" lon="7.8214">
        <ele>236.4</ele>
        <time>2021-06-26T12:48:14Z</time>
      </trkpt>
      <trkpt lat="48.9632" lon="7.82138">
        <ele>236.4</ele>
        <time>2021-06-26T12:48:15Z</time>
      </trkpt>
      <trkpt lat="48.96323" lon="7.82136">
        <ele>236.4</ele>
        <time>2021-06-26T12:48:16Z</time>
      </trkpt>
      <trkpt lat="48.96325" lon="7.82134">
        <ele>236.6</ele>
        <time>2021-06-26T12:48:17Z</time>
      </trkpt>
      <trkpt lat="48.96327" lon="7.82131">
        <ele>236.8</ele>
        <time>2021-06-26T12:48:18Z</time>
      </trkpt>
      <trkpt lat="48.96341" lon="7.82116">
        <ele>237.6</ele>
        <time>2021-06-26T12:48:23Z</time>
      </trkpt>
      <trkpt lat="48.96348" lon="7.82108">
        <ele>238</ele>
        <time>2021-06-26T12:48:25Z</time>
      </trkpt>
      <trkpt lat="48.96356" lon="7.82094">
        <ele>238.6</ele>
        <time>2021-06-26T12:48:29Z</time>
      </trkpt>
      <trkpt lat="48.96357" lon="7.82091">
        <ele>238.8</ele>
        <time>2021-06-26T12:48:30Z</time>
      </trkpt>
      <trkpt lat="48.96358" lon="7.82087">
        <ele>239</ele>
        <time>2021-06-26T12:48:31Z</time>
      </trkpt>
      <trkpt lat="48.96359" lon="7.82083">
        <ele>239.2</ele>
        <time>2021-06-26T12:48:32Z</time>
      </trkpt>
      <trkpt lat="48.96362" lon="7.8208">
        <ele>239.4</ele>
        <time>2021-06-26T12:48:33Z</time>
      </trkpt>
      <trkpt lat="48.96364" lon="7.82077">
        <ele>239.6</ele>
        <time>2021-06-26T12:48:34Z</time>
      </trkpt>
      <trkpt lat="48.96366" lon="7.82073">
        <ele>239.6</ele>
        <time>2021-06-26T12:48:35Z</time>
      </trkpt>
      <trkpt lat="48.96368" lon="7.82069">
        <ele>239.6</ele>
        <time>2021-06-26T12:48:36Z</time>
      </trkpt>
      <trkpt lat="48.9637" lon="7.82065">
        <ele>239.6</ele>
        <time>2021-06-26T12:48:37Z</time>
      </trkpt>
      <trkpt lat="48.96373" lon="7.82061">
        <ele>239.6</ele>
        <time>2021-06-26T12:48:38Z</time>
      </trkpt>
      <trkpt lat="48.96375" lon="7.82057">
        <ele>239.6</ele>
        <time>2021-06-26T12:48:39Z</time>
      </trkpt>
      <trkpt lat="48.96377" lon="7.82053">
        <ele>239.6</ele>
        <time>2021-06-26T12:48:40Z</time>
      </trkpt>
      <trkpt lat="48.9638" lon="7.82048">
        <ele>239.6</ele>
        <time>2021-06-26T12:48:41Z</time>
      </trkpt>
      <trkpt lat="48.96382" lon="7.82044">
        <ele>239.6</ele>
        <time>2021-06-26T12:48:42Z</time>
      </trkpt>
      <trkpt lat="48.96385" lon="7.82039">
        <ele>239.6</ele>
        <time>2021-06-26T12:48:43Z</time>
      </trkpt>
      <trkpt lat="48.96387" lon="7.82034">
        <ele>239.6</ele>
        <time>2021-06-26T12:48:44Z</time>
      </trkpt>
      <trkpt lat="48.9639" lon="7.82028">
        <ele>239.6</ele>
        <time>2021-06-26T12:48:45Z</time>
      </trkpt>
      <trkpt lat="48.96393" lon="7.82022">
        <ele>239.6</ele>
        <time>2021-06-26T12:48:46Z</time>
      </trkpt>
      <trkpt lat="48.96397" lon="7.82016">
        <ele>239.4</ele>
        <time>2021-06-26T12:48:47Z</time>
      </trkpt>
      <trkpt lat="48.964" lon="7.82009">
        <ele>239.4</ele>
        <time>2021-06-26T12:48:48Z</time>
      </trkpt>
      <trkpt lat="48.96403" lon="7.82002">
        <ele>239</ele>
        <time>2021-06-26T12:48:49Z</time>
      </trkpt>
      <trkpt lat="48.96407" lon="7.81997">
        <ele>238.6</ele>
        <time>2021-06-26T12:48:50Z</time>
      </trkpt>
      <trkpt lat="48.9641" lon="7.81993">
        <ele>238.6</ele>
        <time>2021-06-26T12:48:51Z</time>
      </trkpt>
      <trkpt lat="48.96412" lon="7.81989">
        <ele>238.2</ele>
        <time>2021-06-26T12:48:52Z</time>
      </trkpt>
      <trkpt lat="48.96414" lon="7.81986">
        <ele>237.8</ele>
        <time>2021-06-26T12:48:53Z</time>
      </trkpt>
      <trkpt lat="48.96416" lon="7.81982">
        <ele>237.6</ele>
        <time>2021-06-26T12:48:54Z</time>
      </trkpt>
      <trkpt lat="48.96422" lon="7.81975">
        <ele>236.6</ele>
        <time>2021-06-26T12:48:56Z</time>
      </trkpt>
      <trkpt lat="48.96432" lon="7.81956">
        <ele>235.6</ele>
        <time>2021-06-26T12:49:00Z</time>
      </trkpt>
      <trkpt lat="48.96443" lon="7.81932">
        <ele>234.8</ele>
        <time>2021-06-26T12:49:04Z</time>
      </trkpt>
      <trkpt lat="48.96445" lon="7.81925">
        <ele>234.4</ele>
        <time>2021-06-26T12:49:05Z</time>
      </trkpt>
      <trkpt lat="48.96445" lon="7.81919">
        <ele>234</ele>
        <time>2021-06-26T12:49:06Z</time>
      </trkpt>
      <trkpt lat="48.96444" lon="7.81914">
        <ele>233.4</ele>
        <time>2021-06-26T12:49:07Z</time>
      </trkpt>
      <trkpt lat="48.96442" lon="7.81909">
        <ele>233</ele>
        <time>2021-06-26T12:49:08Z</time>
      </trkpt>
      <trkpt lat="48.96441" lon="7.81904">
        <ele>232.8</ele>
        <time>2021-06-26T12:49:09Z</time>
      </trkpt>
      <trkpt lat="48.9644" lon="7.819">
        <ele>232.4</ele>
        <time>2021-06-26T12:49:10Z</time>
      </trkpt>
      <trkpt lat="48.96438" lon="7.81895">
        <ele>232.2</ele>
        <time>2021-06-26T12:49:11Z</time>
      </trkpt>
      <trkpt lat="48.96435" lon="7.81886">
        <ele>232</ele>
        <time>2021-06-26T12:49:13Z</time>
      </trkpt>
      <trkpt lat="48.96428" lon="7.81867">
        <ele>232</ele>
        <time>2021-06-26T12:49:17Z</time>
      </trkpt>
      <trkpt lat="48.96416" lon="7.81829">
        <ele>231.8</ele>
        <time>2021-06-26T12:49:24Z</time>
      </trkpt>
      <trkpt lat="48.96415" lon="7.81822">
        <ele>231.6</ele>
        <time>2021-06-26T12:49:25Z</time>
      </trkpt>
      <trkpt lat="48.96415" lon="7.81816">
        <ele>231.2</ele>
        <time>2021-06-26T12:49:26Z</time>
      </trkpt>
      <trkpt lat="48.96414" lon="7.8181">
        <ele>231</ele>
        <time>2021-06-26T12:49:27Z</time>
      </trkpt>
      <trkpt lat="48.96414" lon="7.81804">
        <ele>230.8</ele>
        <time>2021-06-26T12:49:28Z</time>
      </trkpt>
      <trkpt lat="48.96413" lon="7.81792">
        <ele>230.2</ele>
        <time>2021-06-26T12:49:30Z</time>
      </trkpt>
      <trkpt lat="48.96413" lon="7.8178">
        <ele>229.6</ele>
        <time>2021-06-26T12:49:32Z</time>
      </trkpt>
      <trkpt lat="48.96413" lon="7.81774">
        <ele>229.6</ele>
        <time>2021-06-26T12:49:33Z</time>
      </trkpt>
      <trkpt lat="48.96414" lon="7.81769">
        <ele>229.4</ele>
        <time>2021-06-26T12:49:34Z</time>
      </trkpt>
      <trkpt lat="48.96414" lon="7.81763">
        <ele>229</ele>
        <time>2021-06-26T12:49:35Z</time>
      </trkpt>
      <trkpt lat="48.96414" lon="7.81758">
        <ele>229</ele>
        <time>2021-06-26T12:49:36Z</time>
      </trkpt>
      <trkpt lat="48.96415" lon="7.81753">
        <ele>228.8</ele>
        <time>2021-06-26T12:49:37Z</time>
      </trkpt>
      <trkpt lat="48.96415" lon="7.81748">
        <ele>228.8</ele>
        <time>2021-06-26T12:49:38Z</time>
      </trkpt>
      <trkpt lat="48.96416" lon="7.81743">
        <ele>228.8</ele>
        <time>2021-06-26T12:49:39Z</time>
      </trkpt>
      <trkpt lat="48.96416" lon="7.81738">
        <ele>228.8</ele>
        <time>2021-06-26T12:49:40Z</time>
      </trkpt>
      <trkpt lat="48.96416" lon="7.81732">
        <ele>228.8</ele>
        <time>2021-06-26T12:49:41Z</time>
      </trkpt>
      <trkpt lat="48.96416" lon="7.81727">
        <ele>228.8</ele>
        <time>2021-06-26T12:49:42Z</time>
      </trkpt>
      <trkpt lat="48.96416" lon="7.81722">
        <ele>228.8</ele>
        <time>2021-06-26T12:49:43Z</time>
      </trkpt>
      <trkpt lat="48.96417" lon="7.81717">
        <ele>228.8</ele>
        <time>2021-06-26T12:49:44Z</time>
      </trkpt>
      <trkpt lat="48.96419" lon="7.81693">
        <ele>230.8</ele>
        <time>2021-06-26T12:49:49Z</time>
      </trkpt>
      <trkpt lat="48.96419" lon="7.81689">
        <ele>231.4</ele>
        <time>2021-06-26T12:49:50Z</time>
      </trkpt>
      <trkpt lat="48.96419" lon="7.81685">
        <ele>231.8</ele>
        <time>2021-06-26T12:49:51Z</time>
      </trkpt>
      <trkpt lat="48.96419" lon="7.81682">
        <ele>232</ele>
        <time>2021-06-26T12:49:52Z</time>
      </trkpt>
      <trkpt lat="48.96419" lon="7.8168">
        <ele>232.8</ele>
        <time>2021-06-26T12:49:53Z</time>
      </trkpt>
      <trkpt lat="48.96419" lon="7.81677">
        <ele>233.2</ele>
        <time>2021-06-26T12:49:54Z</time>
      </trkpt>
      <trkpt lat="48.96419" lon="7.81674">
        <ele>233.6</ele>
        <time>2021-06-26T12:49:55Z</time>
      </trkpt>
      <trkpt lat="48.96417" lon="7.81669">
        <ele>234.4</ele>
        <time>2021-06-26T12:49:57Z</time>
      </trkpt>
      <trkpt lat="48.96415" lon="7.81668">
        <ele>234.8</ele>
        <time>2021-06-26T12:49:58Z</time>
      </trkpt>
      <trkpt lat="48.96412" lon="7.81667">
        <ele>235.2</ele>
        <time>2021-06-26T12:49:59Z</time>
      </trkpt>
      <trkpt lat="48.9641" lon="7.81667">
        <ele>235.6</ele>
        <time>2021-06-26T12:50:00Z</time>
      </trkpt>
      <trkpt lat="48.96407" lon="7.81667">
        <ele>236</ele>
        <time>2021-06-26T12:50:01Z</time>
      </trkpt>
      <trkpt lat="48.96405" lon="7.81666">
        <ele>236.2</ele>
        <time>2021-06-26T12:50:02Z</time>
      </trkpt>
      <trkpt lat="48.96403" lon="7.81666">
        <ele>236.2</ele>
        <time>2021-06-26T12:50:03Z</time>
      </trkpt>
      <trkpt lat="48.96401" lon="7.81665">
        <ele>236.4</ele>
        <time>2021-06-26T12:50:04Z</time>
      </trkpt>
      <trkpt lat="48.96399" lon="7.81665">
        <ele>236.6</ele>
        <time>2021-06-26T12:50:05Z</time>
      </trkpt>
      <trkpt lat="48.96396" lon="7.81664">
        <ele>236.6</ele>
        <time>2021-06-26T12:50:06Z</time>
      </trkpt>
      <trkpt lat="48.96394" lon="7.81663">
        <ele>236.6</ele>
        <time>2021-06-26T12:50:07Z</time>
      </trkpt>
      <trkpt lat="48.96391" lon="7.81663">
        <ele>236.6</ele>
        <time>2021-06-26T12:50:08Z</time>
      </trkpt>
      <trkpt lat="48.96389" lon="7.81663">
        <ele>236.6</ele>
        <time>2021-06-26T12:50:09Z</time>
      </trkpt>
      <trkpt lat="48.96387" lon="7.81663">
        <ele>236.6</ele>
        <time>2021-06-26T12:50:10Z</time>
      </trkpt>
      <trkpt lat="48.96383" lon="7.81663">
        <ele>236.6</ele>
        <time>2021-06-26T12:50:11Z</time>
      </trkpt>
      <trkpt lat="48.96379" lon="7.81662">
        <ele>236.6</ele>
        <time>2021-06-26T12:50:12Z</time>
      </trkpt>
      <trkpt lat="48.96374" lon="7.81662">
        <ele>236.6</ele>
        <time>2021-06-26T12:50:13Z</time>
      </trkpt>
      <trkpt lat="48.96368" lon="7.81661">
        <ele>236.6</ele>
        <time>2021-06-26T12:50:14Z</time>
      </trkpt>
      <trkpt lat="48.96362" lon="7.81659">
        <ele>236.4</ele>
        <time>2021-06-26T12:50:15Z</time>
      </trkpt>
      <trkpt lat="48.96355" lon="7.81656">
        <ele>236.2</ele>
        <time>2021-06-26T12:50:16Z</time>
      </trkpt>
      <trkpt lat="48.96348" lon="7.81653">
        <ele>236</ele>
        <time>2021-06-26T12:50:17Z</time>
      </trkpt>
      <trkpt lat="48.96341" lon="7.81649">
        <ele>235.8</ele>
        <time>2021-06-26T12:50:18Z</time>
      </trkpt>
      <trkpt lat="48.96333" lon="7.81644">
        <ele>235.2</ele>
        <time>2021-06-26T12:50:19Z</time>
      </trkpt>
      <trkpt lat="48.96325" lon="7.81641">
        <ele>234.8</ele>
        <time>2021-06-26T12:50:20Z</time>
      </trkpt>
      <trkpt lat="48.96318" lon="7.81638">
        <ele>234</ele>
        <time>2021-06-26T12:50:21Z</time>
      </trkpt>
      <trkpt lat="48.96311" lon="7.81635">
        <ele>233.2</ele>
        <time>2021-06-26T12:50:22Z</time>
      </trkpt>
      <trkpt lat="48.96304" lon="7.81631">
        <ele>232.2</ele>
        <time>2021-06-26T12:50:23Z</time>
      </trkpt>
      <trkpt lat="48.96299" lon="7.81627">
        <ele>231</ele>
        <time>2021-06-26T12:50:24Z</time>
      </trkpt>
      <trkpt lat="48.96293" lon="7.81624">
        <ele>229.8</ele>
        <time>2021-06-26T12:50:25Z</time>
      </trkpt>
      <trkpt lat="48.96287" lon="7.81622">
        <ele>228.8</ele>
        <time>2021-06-26T12:50:26Z</time>
      </trkpt>
      <trkpt lat="48.96283" lon="7.81619">
        <ele>228.2</ele>
        <time>2021-06-26T12:50:27Z</time>
      </trkpt>
      <trkpt lat="48.9628" lon="7.81617">
        <ele>227.4</ele>
        <time>2021-06-26T12:50:28Z</time>
      </trkpt>
      <trkpt lat="48.96277" lon="7.81614">
        <ele>227</ele>
        <time>2021-06-26T12:50:29Z</time>
      </trkpt>
      <trkpt lat="48.96274" lon="7.81612">
        <ele>226.8</ele>
        <time>2021-06-26T12:50:30Z</time>
      </trkpt>
      <trkpt lat="48.9627" lon="7.81611">
        <ele>226.8</ele>
        <time>2021-06-26T12:50:31Z</time>
      </trkpt>
      <trkpt lat="48.96267" lon="7.81611">
        <ele>226.8</ele>
        <time>2021-06-26T12:50:32Z</time>
      </trkpt>
      <trkpt lat="48.96263" lon="7.8161">
        <ele>226.8</ele>
        <time>2021-06-26T12:50:33Z</time>
      </trkpt>
      <trkpt lat="48.96259" lon="7.81609">
        <ele>226.8</ele>
        <time>2021-06-26T12:50:34Z</time>
      </trkpt>
      <trkpt lat="48.96253" lon="7.81608">
        <ele>226.8</ele>
        <time>2021-06-26T12:50:36Z</time>
      </trkpt>
      <trkpt lat="48.96248" lon="7.81608">
        <ele>226.8</ele>
        <time>2021-06-26T12:50:37Z</time>
      </trkpt>
      <trkpt lat="48.96245" lon="7.81607">
        <ele>226.8</ele>
        <time>2021-06-26T12:50:38Z</time>
      </trkpt>
      <trkpt lat="48.96241" lon="7.81607">
        <ele>227</ele>
        <time>2021-06-26T12:50:39Z</time>
      </trkpt>
      <trkpt lat="48.96223" lon="7.81608">
        <ele>228.6</ele>
        <time>2021-06-26T12:50:45Z</time>
      </trkpt>
      <trkpt lat="48.96215" lon="7.81611">
        <ele>228.8</ele>
        <time>2021-06-26T12:50:48Z</time>
      </trkpt>
      <trkpt lat="48.96197" lon="7.81613">
        <ele>229</ele>
        <time>2021-06-26T12:50:53Z</time>
      </trkpt>
      <trkpt lat="48.96187" lon="7.81613">
        <ele>229</ele>
        <time>2021-06-26T12:50:55Z</time>
      </trkpt>
      <trkpt lat="48.96178" lon="7.81611">
        <ele>228.8</ele>
        <time>2021-06-26T12:50:57Z</time>
      </trkpt>
      <trkpt lat="48.96174" lon="7.81611">
        <ele>228.4</ele>
        <time>2021-06-26T12:50:58Z</time>
      </trkpt>
      <trkpt lat="48.9617" lon="7.81609">
        <ele>228.2</ele>
        <time>2021-06-26T12:50:59Z</time>
      </trkpt>
      <trkpt lat="48.96158" lon="7.81605">
        <ele>227.4</ele>
        <time>2021-06-26T12:51:02Z</time>
      </trkpt>
      <trkpt lat="48.96131" lon="7.81593">
        <ele>226.4</ele>
        <time>2021-06-26T12:51:08Z</time>
      </trkpt>
      <trkpt lat="48.96102" lon="7.81577">
        <ele>225.2</ele>
        <time>2021-06-26T12:51:14Z</time>
      </trkpt>
      <trkpt lat="48.96097" lon="7.81574">
        <ele>225</ele>
        <time>2021-06-26T12:51:15Z</time>
      </trkpt>
      <trkpt lat="48.96082" lon="7.81563">
        <ele>224.4</ele>
        <time>2021-06-26T12:51:18Z</time>
      </trkpt>
      <trkpt lat="48.96066" lon="7.81553">
        <ele>223</ele>
        <time>2021-06-26T12:51:21Z</time>
      </trkpt>
      <trkpt lat="48.96057" lon="7.81546">
        <ele>222.6</ele>
        <time>2021-06-26T12:51:23Z</time>
      </trkpt>
      <trkpt lat="48.96048" lon="7.81539">
        <ele>222</ele>
        <time>2021-06-26T12:51:25Z</time>
      </trkpt>
      <trkpt lat="48.96044" lon="7.81536">
        <ele>221.4</ele>
        <time>2021-06-26T12:51:26Z</time>
      </trkpt>
      <trkpt lat="48.9604" lon="7.81533">
        <ele>221.2</ele>
        <time>2021-06-26T12:51:27Z</time>
      </trkpt>
      <trkpt lat="48.96036" lon="7.8153">
        <ele>221</ele>
        <time>2021-06-26T12:51:28Z</time>
      </trkpt>
      <trkpt lat="48.96032" lon="7.81527">
        <ele>221</ele>
        <time>2021-06-26T12:51:29Z</time>
      </trkpt>
      <trkpt lat="48.96029" lon="7.81524">
        <ele>220.8</ele>
        <time>2021-06-26T12:51:30Z</time>
      </trkpt>
      <trkpt lat="48.96025" lon="7.81521">
        <ele>220.8</ele>
        <time>2021-06-26T12:51:31Z</time>
      </trkpt>
      <trkpt lat="48.96022" lon="7.81518">
        <ele>220.8</ele>
        <time>2021-06-26T12:51:32Z</time>
      </trkpt>
      <trkpt lat="48.9602" lon="7.81515">
        <ele>220.8</ele>
        <time>2021-06-26T12:51:33Z</time>
      </trkpt>
      <trkpt lat="48.96019" lon="7.81512">
        <ele>220.6</ele>
        <time>2021-06-26T12:51:34Z</time>
      </trkpt>
      <trkpt lat="48.96018" lon="7.81509">
        <ele>220.6</ele>
        <time>2021-06-26T12:51:35Z</time>
      </trkpt>
      <trkpt lat="48.96018" lon="7.81507">
        <ele>220.4</ele>
        <time>2021-06-26T12:51:36Z</time>
      </trkpt>
      <trkpt lat="48.96018" lon="7.81507">
        <ele>220.4</ele>
        <time>2021-06-26T12:51:38Z</time>
      </trkpt>
      <trkpt lat="48.9602" lon="7.81505">
        <ele>218.8</ele>
        <time>2021-06-26T13:00:19Z</time>
      </trkpt>
      <trkpt lat="48.9602" lon="7.81505">
        <ele>218.8</ele>
        <time>2021-06-26T13:00:21Z</time>
      </trkpt>
      <trkpt lat="48.96021" lon="7.81504">
        <ele>218.8</ele>
        <time>2021-06-26T13:00:24Z</time>
      </trkpt>
      <trkpt lat="48.96025" lon="7.81503">
        <ele>218.8</ele>
        <time>2021-06-26T13:00:26Z</time>
      </trkpt>
      <trkpt lat="48.96028" lon="7.81502">
        <ele>219</ele>
        <time>2021-06-26T13:00:27Z</time>
      </trkpt>
      <trkpt lat="48.96035" lon="7.81499">
        <ele>219.2</ele>
        <time>2021-06-26T13:00:30Z</time>
      </trkpt>
      <trkpt lat="48.96042" lon="7.81495">
        <ele>219.4</ele>
        <time>2021-06-26T13:00:33Z</time>
      </trkpt>
      <trkpt lat="48.9605" lon="7.81489">
        <ele>219.8</ele>
        <time>2021-06-26T13:00:36Z</time>
      </trkpt>
      <trkpt lat="48.96053" lon="7.81487">
        <ele>220</ele>
        <time>2021-06-26T13:00:37Z</time>
      </trkpt>
      <trkpt lat="48.96065" lon="7.81471">
        <ele>220.6</ele>
        <time>2021-06-26T13:00:43Z</time>
      </trkpt>
      <trkpt lat="48.96067" lon="7.81469">
        <ele>220.6</ele>
        <time>2021-06-26T13:00:44Z</time>
      </trkpt>
      <trkpt lat="48.96068" lon="7.81466">
        <ele>220.8</ele>
        <time>2021-06-26T13:00:45Z</time>
      </trkpt>
      <trkpt lat="48.96069" lon="7.81463">
        <ele>220.8</ele>
        <time>2021-06-26T13:00:46Z</time>
      </trkpt>
      <trkpt lat="48.96071" lon="7.81461">
        <ele>221</ele>
        <time>2021-06-26T13:00:47Z</time>
      </trkpt>
      <trkpt lat="48.96073" lon="7.81458">
        <ele>221</ele>
        <time>2021-06-26T13:00:48Z</time>
      </trkpt>
      <trkpt lat="48.96075" lon="7.81455">
        <ele>221</ele>
        <time>2021-06-26T13:00:49Z</time>
      </trkpt>
      <trkpt lat="48.9609" lon="7.8144">
        <ele>222</ele>
        <time>2021-06-26T13:00:55Z</time>
      </trkpt>
      <trkpt lat="48.96097" lon="7.81434">
        <ele>222.6</ele>
        <time>2021-06-26T13:00:58Z</time>
      </trkpt>
      <trkpt lat="48.961" lon="7.81433">
        <ele>222.8</ele>
        <time>2021-06-26T13:00:59Z</time>
      </trkpt>
      <trkpt lat="48.96104" lon="7.81432">
        <ele>223</ele>
        <time>2021-06-26T13:01:00Z</time>
      </trkpt>
      <trkpt lat="48.96109" lon="7.81432">
        <ele>223.4</ele>
        <time>2021-06-26T13:01:01Z</time>
      </trkpt>
      <trkpt lat="48.96112" lon="7.81433">
        <ele>223.6</ele>
        <time>2021-06-26T13:01:02Z</time>
      </trkpt>
      <trkpt lat="48.96116" lon="7.81433">
        <ele>223.8</ele>
        <time>2021-06-26T13:01:03Z</time>
      </trkpt>
      <trkpt lat="48.96118" lon="7.81433">
        <ele>224.2</ele>
        <time>2021-06-26T13:01:04Z</time>
      </trkpt>
      <trkpt lat="48.96122" lon="7.81434">
        <ele>224.2</ele>
        <time>2021-06-26T13:01:05Z</time>
      </trkpt>
      <trkpt lat="48.96126" lon="7.81435">
        <ele>224.4</ele>
        <time>2021-06-26T13:01:06Z</time>
      </trkpt>
      <trkpt lat="48.96131" lon="7.81436">
        <ele>224.4</ele>
        <time>2021-06-26T13:01:07Z</time>
      </trkpt>
      <trkpt lat="48.96133" lon="7.81437">
        <ele>224.6</ele>
        <time>2021-06-26T13:01:08Z</time>
      </trkpt>
      <trkpt lat="48.96136" lon="7.81437">
        <ele>224.6</ele>
        <time>2021-06-26T13:01:09Z</time>
      </trkpt>
      <trkpt lat="48.9614" lon="7.81439">
        <ele>224.8</ele>
        <time>2021-06-26T13:01:10Z</time>
      </trkpt>
      <trkpt lat="48.96142" lon="7.81437">
        <ele>225</ele>
        <time>2021-06-26T13:01:11Z</time>
      </trkpt>
      <trkpt lat="48.96144" lon="7.81438">
        <ele>225</ele>
        <time>2021-06-26T13:01:12Z</time>
      </trkpt>
      <trkpt lat="48.96147" lon="7.81439">
        <ele>225.2</ele>
        <time>2021-06-26T13:01:13Z</time>
      </trkpt>
      <trkpt lat="48.9615" lon="7.81439">
        <ele>225.4</ele>
        <time>2021-06-26T13:01:14Z</time>
      </trkpt>
      <trkpt lat="48.96153" lon="7.81439">
        <ele>225.8</ele>
        <time>2021-06-26T13:01:15Z</time>
      </trkpt>
      <trkpt lat="48.96155" lon="7.81438">
        <ele>226</ele>
        <time>2021-06-26T13:01:16Z</time>
      </trkpt>
      <trkpt lat="48.96158" lon="7.81438">
        <ele>226.2</ele>
        <time>2021-06-26T13:01:17Z</time>
      </trkpt>
      <trkpt lat="48.96161" lon="7.81439">
        <ele>226.6</ele>
        <time>2021-06-26T13:01:18Z</time>
      </trkpt>
      <trkpt lat="48.96164" lon="7.81438">
        <ele>226.6</ele>
        <time>2021-06-26T13:01:19Z</time>
      </trkpt>
      <trkpt lat="48.96167" lon="7.81438">
        <ele>226.8</ele>
        <time>2021-06-26T13:01:20Z</time>
      </trkpt>
      <trkpt lat="48.9617" lon="7.81437">
        <ele>227.2</ele>
        <time>2021-06-26T13:01:21Z</time>
      </trkpt>
      <trkpt lat="48.96173" lon="7.81436">
        <ele>227.4</ele>
        <time>2021-06-26T13:01:22Z</time>
      </trkpt>
      <trkpt lat="48.96175" lon="7.81435">
        <ele>227.6</ele>
        <time>2021-06-26T13:01:23Z</time>
      </trkpt>
      <trkpt lat="48.96177" lon="7.81434">
        <ele>227.8</ele>
        <time>2021-06-26T13:01:24Z</time>
      </trkpt>
      <trkpt lat="48.96179" lon="7.81433">
        <ele>228</ele>
        <time>2021-06-26T13:01:25Z</time>
      </trkpt>
      <trkpt lat="48.96182" lon="7.81431">
        <ele>228.2</ele>
        <time>2021-06-26T13:01:26Z</time>
      </trkpt>
      <trkpt lat="48.96184" lon="7.8143">
        <ele>228.4</ele>
        <time>2021-06-26T13:01:27Z</time>
      </trkpt>
      <trkpt lat="48.96187" lon="7.81429">
        <ele>228.6</ele>
        <time>2021-06-26T13:01:28Z</time>
      </trkpt>
      <trkpt lat="48.96188" lon="7.81428">
        <ele>228.6</ele>
        <time>2021-06-26T13:01:29Z</time>
      </trkpt>
      <trkpt lat="48.96191" lon="7.81427">
        <ele>228.8</ele>
        <time>2021-06-26T13:01:30Z</time>
      </trkpt>
      <trkpt lat="48.96193" lon="7.81425">
        <ele>229</ele>
        <time>2021-06-26T13:01:31Z</time>
      </trkpt>
      <trkpt lat="48.96195" lon="7.81423">
        <ele>229.4</ele>
        <time>2021-06-26T13:01:32Z</time>
      </trkpt>
      <trkpt lat="48.96197" lon="7.81422">
        <ele>229.6</ele>
        <time>2021-06-26T13:01:33Z</time>
      </trkpt>
      <trkpt lat="48.962" lon="7.8142">
        <ele>229.8</ele>
        <time>2021-06-26T13:01:34Z</time>
      </trkpt>
      <trkpt lat="48.96202" lon="7.81418">
        <ele>230</ele>
        <time>2021-06-26T13:01:35Z</time>
      </trkpt>
      <trkpt lat="48.96204" lon="7.81416">
        <ele>230.2</ele>
        <time>2021-06-26T13:01:36Z</time>
      </trkpt>
      <trkpt lat="48.96205" lon="7.81414">
        <ele>230.6</ele>
        <time>2021-06-26T13:01:37Z</time>
      </trkpt>
      <trkpt lat="48.96207" lon="7.81412">
        <ele>230.6</ele>
        <time>2021-06-26T13:01:38Z</time>
      </trkpt>
      <trkpt lat="48.96208" lon="7.8141">
        <ele>230.8</ele>
        <time>2021-06-26T13:01:39Z</time>
      </trkpt>
      <trkpt lat="48.96211" lon="7.81409">
        <ele>231</ele>
        <time>2021-06-26T13:01:40Z</time>
      </trkpt>
      <trkpt lat="48.96212" lon="7.81408">
        <ele>231.6</ele>
        <time>2021-06-26T13:01:41Z</time>
      </trkpt>
      <trkpt lat="48.96214" lon="7.81406">
        <ele>231.8</ele>
        <time>2021-06-26T13:01:42Z</time>
      </trkpt>
      <trkpt lat="48.96216" lon="7.81404">
        <ele>232.4</ele>
        <time>2021-06-26T13:01:43Z</time>
      </trkpt>
      <trkpt lat="48.96218" lon="7.81402">
        <ele>232.6</ele>
        <time>2021-06-26T13:01:44Z</time>
      </trkpt>
      <trkpt lat="48.9622" lon="7.81401">
        <ele>232.8</ele>
        <time>2021-06-26T13:01:45Z</time>
      </trkpt>
      <trkpt lat="48.96222" lon="7.81399">
        <ele>233</ele>
        <time>2021-06-26T13:01:46Z</time>
      </trkpt>
      <trkpt lat="48.96223" lon="7.81399">
        <ele>233.4</ele>
        <time>2021-06-26T13:01:47Z</time>
      </trkpt>
      <trkpt lat="48.96226" lon="7.81398">
        <ele>233.6</ele>
        <time>2021-06-26T13:01:48Z</time>
      </trkpt>
      <trkpt lat="48.96227" lon="7.81396">
        <ele>233.8</ele>
        <time>2021-06-26T13:01:49Z</time>
      </trkpt>
      <trkpt lat="48.96229" lon="7.81393">
        <ele>234.2</ele>
        <time>2021-06-26T13:01:50Z</time>
      </trkpt>
      <trkpt lat="48.96231" lon="7.8139">
        <ele>234.4</ele>
        <time>2021-06-26T13:01:51Z</time>
      </trkpt>
      <trkpt lat="48.96233" lon="7.81389">
        <ele>234.6</ele>
        <time>2021-06-26T13:01:52Z</time>
      </trkpt>
      <trkpt lat="48.96235" lon="7.81387">
        <ele>234.8</ele>
        <time>2021-06-26T13:01:53Z</time>
      </trkpt>
      <trkpt lat="48.96237" lon="7.81385">
        <ele>235</ele>
        <time>2021-06-26T13:01:54Z</time>
      </trkpt>
      <trkpt lat="48.9624" lon="7.81384">
        <ele>235.2</ele>
        <time>2021-06-26T13:01:55Z</time>
      </trkpt>
      <trkpt lat="48.96242" lon="7.81383">
        <ele>235.6</ele>
        <time>2021-06-26T13:01:56Z</time>
      </trkpt>
      <trkpt lat="48.96244" lon="7.81383">
        <ele>235.8</ele>
        <time>2021-06-26T13:01:57Z</time>
      </trkpt>
      <trkpt lat="48.96246" lon="7.81382">
        <ele>236</ele>
        <time>2021-06-26T13:01:58Z</time>
      </trkpt>
      <trkpt lat="48.96248" lon="7.81381">
        <ele>236.2</ele>
        <time>2021-06-26T13:01:59Z</time>
      </trkpt>
      <trkpt lat="48.96251" lon="7.81381">
        <ele>236.4</ele>
        <time>2021-06-26T13:02:00Z</time>
      </trkpt>
      <trkpt lat="48.96253" lon="7.81381">
        <ele>236.6</ele>
        <time>2021-06-26T13:02:01Z</time>
      </trkpt>
      <trkpt lat="48.96256" lon="7.8138">
        <ele>236.8</ele>
        <time>2021-06-26T13:02:02Z</time>
      </trkpt>
      <trkpt lat="48.96259" lon="7.8138">
        <ele>237</ele>
        <time>2021-06-26T13:02:03Z</time>
      </trkpt>
      <trkpt lat="48.96262" lon="7.81379">
        <ele>237.4</ele>
        <time>2021-06-26T13:02:04Z</time>
      </trkpt>
      <trkpt lat="48.96266" lon="7.8138">
        <ele>237.6</ele>
        <time>2021-06-26T13:02:05Z</time>
      </trkpt>
      <trkpt lat="48.96269" lon="7.81382">
        <ele>237.6</ele>
        <time>2021-06-26T13:02:06Z</time>
      </trkpt>
      <trkpt lat="48.96271" lon="7.81385">
        <ele>237.8</ele>
        <time>2021-06-26T13:02:07Z</time>
      </trkpt>
      <trkpt lat="48.96273" lon="7.81388">
        <ele>238</ele>
        <time>2021-06-26T13:02:08Z</time>
      </trkpt>
      <trkpt lat="48.96276" lon="7.8139">
        <ele>238.2</ele>
        <time>2021-06-26T13:02:09Z</time>
      </trkpt>
      <trkpt lat="48.96279" lon="7.81391">
        <ele>238.4</ele>
        <time>2021-06-26T13:02:10Z</time>
      </trkpt>
      <trkpt lat="48.96281" lon="7.81393">
        <ele>238.4</ele>
        <time>2021-06-26T13:02:11Z</time>
      </trkpt>
      <trkpt lat="48.96283" lon="7.81396">
        <ele>238.6</ele>
        <time>2021-06-26T13:02:12Z</time>
      </trkpt>
      <trkpt lat="48.96285" lon="7.81398">
        <ele>238.8</ele>
        <time>2021-06-26T13:02:13Z</time>
      </trkpt>
      <trkpt lat="48.96287" lon="7.814">
        <ele>238.8</ele>
        <time>2021-06-26T13:02:14Z</time>
      </trkpt>
      <trkpt lat="48.96289" lon="7.81401">
        <ele>239</ele>
        <time>2021-06-26T13:02:15Z</time>
      </trkpt>
      <trkpt lat="48.96291" lon="7.81403">
        <ele>239.2</ele>
        <time>2021-06-26T13:02:16Z</time>
      </trkpt>
      <trkpt lat="48.96293" lon="7.81405">
        <ele>239.2</ele>
        <time>2021-06-26T13:02:17Z</time>
      </trkpt>
      <trkpt lat="48.96294" lon="7.81407">
        <ele>239.2</ele>
        <time>2021-06-26T13:02:18Z</time>
      </trkpt>
      <trkpt lat="48.96296" lon="7.81409">
        <ele>239.4</ele>
        <time>2021-06-26T13:02:19Z</time>
      </trkpt>
      <trkpt lat="48.96298" lon="7.8141">
        <ele>239.4</ele>
        <time>2021-06-26T13:02:20Z</time>
      </trkpt>
      <trkpt lat="48.96299" lon="7.81411">
        <ele>239.4</ele>
        <time>2021-06-26T13:02:21Z</time>
      </trkpt>
      <trkpt lat="48.96301" lon="7.81412">
        <ele>239.6</ele>
        <time>2021-06-26T13:02:22Z</time>
      </trkpt>
      <trkpt lat="48.96303" lon="7.81414">
        <ele>239.6</ele>
        <time>2021-06-26T13:02:23Z</time>
      </trkpt>
      <trkpt lat="48.96305" lon="7.81415">
        <ele>239.6</ele>
        <time>2021-06-26T13:02:24Z</time>
      </trkpt>
      <trkpt lat="48.96306" lon="7.81417">
        <ele>239.6</ele>
        <time>2021-06-26T13:02:25Z</time>
      </trkpt>
      <trkpt lat="48.96308" lon="7.81417">
        <ele>239.6</ele>
        <time>2021-06-26T13:02:26Z</time>
      </trkpt>
      <trkpt lat="48.96309" lon="7.81418">
        <ele>239.8</ele>
        <time>2021-06-26T13:02:27Z</time>
      </trkpt>
      <trkpt lat="48.9631" lon="7.81419">
        <ele>239.8</ele>
        <time>2021-06-26T13:02:28Z</time>
      </trkpt>
      <trkpt lat="48.96311" lon="7.81419">
        <ele>239.8</ele>
        <time>2021-06-26T13:02:29Z</time>
      </trkpt>
      <trkpt lat="48.96311" lon="7.81419">
        <ele>239.8</ele>
        <time>2021-06-26T13:02:30Z</time>
      </trkpt>
      <trkpt lat="48.96311" lon="7.81419">
        <ele>239.8</ele>
        <time>2021-06-26T13:02:31Z</time>
      </trkpt>
      <trkpt lat="48.96311" lon="7.81419">
        <ele>239.8</ele>
        <time>2021-06-26T13:02:32Z</time>
      </trkpt>
      <trkpt lat="48.96311" lon="7.81419">
        <ele>239.8</ele>
        <time>2021-06-26T13:02:33Z</time>
      </trkpt>
      <trkpt lat="48.9631" lon="7.81418">
        <ele>240</ele>
        <time>2021-06-26T13:02:47Z</time>
      </trkpt>
      <trkpt lat="48.96306" lon="7.81413">
        <ele>240</ele>
        <time>2021-06-26T13:02:50Z</time>
      </trkpt>
      <trkpt lat="48.96303" lon="7.8141">
        <ele>240</ele>
        <time>2021-06-26T13:02:52Z</time>
      </trkpt>
      <trkpt lat="48.96302" lon="7.81408">
        <ele>239.8</ele>
        <time>2021-06-26T13:02:53Z</time>
      </trkpt>
      <trkpt lat="48.96301" lon="7.81406">
        <ele>239.8</ele>
        <time>2021-06-26T13:02:54Z</time>
      </trkpt>
      <trkpt lat="48.96301" lon="7.81404">
        <ele>239.8</ele>
        <time>2021-06-26T13:02:55Z</time>
      </trkpt>
      <trkpt lat="48.96301" lon="7.81402">
        <ele>239.8</ele>
        <time>2021-06-26T13:02:56Z</time>
      </trkpt>
      <trkpt lat="48.96302" lon="7.81401">
        <ele>239.8</ele>
        <time>2021-06-26T13:02:57Z</time>
      </trkpt>
      <trkpt lat="48.96303" lon="7.814">
        <ele>239.8</ele>
        <time>2021-06-26T13:02:58Z</time>
      </trkpt>
      <trkpt lat="48.96304" lon="7.81399">
        <ele>239.8</ele>
        <time>2021-06-26T13:02:59Z</time>
      </trkpt>
      <trkpt lat="48.96306" lon="7.81397">
        <ele>239.8</ele>
        <time>2021-06-26T13:03:00Z</time>
      </trkpt>
      <trkpt lat="48.96315" lon="7.8139">
        <ele>240</ele>
        <time>2021-06-26T13:03:07Z</time>
      </trkpt>
      <trkpt lat="48.9632" lon="7.81386">
        <ele>240.4</ele>
        <time>2021-06-26T13:03:11Z</time>
      </trkpt>
      <trkpt lat="48.96321" lon="7.81384">
        <ele>240.6</ele>
        <time>2021-06-26T13:03:12Z</time>
      </trkpt>
      <trkpt lat="48.96322" lon="7.81383">
        <ele>240.8</ele>
        <time>2021-06-26T13:03:13Z</time>
      </trkpt>
      <trkpt lat="48.96324" lon="7.8138">
        <ele>240.8</ele>
        <time>2021-06-26T13:03:14Z</time>
      </trkpt>
      <trkpt lat="48.96326" lon="7.81377">
        <ele>241.4</ele>
        <time>2021-06-26T13:03:16Z</time>
      </trkpt>
      <trkpt lat="48.96327" lon="7.81375">
        <ele>241.6</ele>
        <time>2021-06-26T13:03:17Z</time>
      </trkpt>
      <trkpt lat="48.96328" lon="7.81374">
        <ele>241.6</ele>
        <time>2021-06-26T13:03:18Z</time>
      </trkpt>
      <trkpt lat="48.9633" lon="7.81372">
        <ele>241.8</ele>
        <time>2021-06-26T13:03:19Z</time>
      </trkpt>
      <trkpt lat="48.96336" lon="7.81369">
        <ele>242.4</ele>
        <time>2021-06-26T13:03:22Z</time>
      </trkpt>
      <trkpt lat="48.9634" lon="7.81365">
        <ele>242.6</ele>
        <time>2021-06-26T13:03:24Z</time>
      </trkpt>
      <trkpt lat="48.96348" lon="7.81358">
        <ele>243</ele>
        <time>2021-06-26T13:03:27Z</time>
      </trkpt>
      <trkpt lat="48.9635" lon="7.81356">
        <ele>243.2</ele>
        <time>2021-06-26T13:03:28Z</time>
      </trkpt>
      <trkpt lat="48.96351" lon="7.81355">
        <ele>243.4</ele>
        <time>2021-06-26T13:03:29Z</time>
      </trkpt>
      <trkpt lat="48.96353" lon="7.81354">
        <ele>243.4</ele>
        <time>2021-06-26T13:03:30Z</time>
      </trkpt>
      <trkpt lat="48.96355" lon="7.81352">
        <ele>243.6</ele>
        <time>2021-06-26T13:03:31Z</time>
      </trkpt>
      <trkpt lat="48.96357" lon="7.81351">
        <ele>243.6</ele>
        <time>2021-06-26T13:03:32Z</time>
      </trkpt>
      <trkpt lat="48.96359" lon="7.8135">
        <ele>243.8</ele>
        <time>2021-06-26T13:03:33Z</time>
      </trkpt>
      <trkpt lat="48.96361" lon="7.81348">
        <ele>243.8</ele>
        <time>2021-06-26T13:03:34Z</time>
      </trkpt>
      <trkpt lat="48.96364" lon="7.81346">
        <ele>244</ele>
        <time>2021-06-26T13:03:35Z</time>
      </trkpt>
      <trkpt lat="48.96367" lon="7.81343">
        <ele>244.2</ele>
        <time>2021-06-26T13:03:36Z</time>
      </trkpt>
      <trkpt lat="48.96369" lon="7.81342">
        <ele>244.4</ele>
        <time>2021-06-26T13:03:37Z</time>
      </trkpt>
      <trkpt lat="48.9637" lon="7.81341">
        <ele>244.4</ele>
        <time>2021-06-26T13:03:38Z</time>
      </trkpt>
      <trkpt lat="48.96372" lon="7.81337">
        <ele>244.6</ele>
        <time>2021-06-26T13:03:39Z</time>
      </trkpt>
      <trkpt lat="48.96376" lon="7.81334">
        <ele>244.8</ele>
        <time>2021-06-26T13:03:40Z</time>
      </trkpt>
      <trkpt lat="48.96376" lon="7.81333">
        <ele>245</ele>
        <time>2021-06-26T13:03:41Z</time>
      </trkpt>
      <trkpt lat="48.96376" lon="7.8133">
        <ele>245.4</ele>
        <time>2021-06-26T13:03:42Z</time>
      </trkpt>
      <trkpt lat="48.96377" lon="7.81327">
        <ele>245.4</ele>
        <time>2021-06-26T13:03:43Z</time>
      </trkpt>
      <trkpt lat="48.96379" lon="7.81326">
        <ele>245.6</ele>
        <time>2021-06-26T13:03:44Z</time>
      </trkpt>
      <trkpt lat="48.9638" lon="7.81324">
        <ele>245.6</ele>
        <time>2021-06-26T13:03:45Z</time>
      </trkpt>
      <trkpt lat="48.96382" lon="7.81323">
        <ele>245.8</ele>
        <time>2021-06-26T13:03:46Z</time>
      </trkpt>
      <trkpt lat="48.96383" lon="7.81322">
        <ele>246</ele>
        <time>2021-06-26T13:03:47Z</time>
      </trkpt>
      <trkpt lat="48.96385" lon="7.8132">
        <ele>246.2</ele>
        <time>2021-06-26T13:03:48Z</time>
      </trkpt>
      <trkpt lat="48.96387" lon="7.81319">
        <ele>246.4</ele>
        <time>2021-06-26T13:03:49Z</time>
      </trkpt>
      <trkpt lat="48.96388" lon="7.81317">
        <ele>246.4</ele>
        <time>2021-06-26T13:03:50Z</time>
      </trkpt>
      <trkpt lat="48.96389" lon="7.81315">
        <ele>246.6</ele>
        <time>2021-06-26T13:03:51Z</time>
      </trkpt>
      <trkpt lat="48.9639" lon="7.81313">
        <ele>246.8</ele>
        <time>2021-06-26T13:03:52Z</time>
      </trkpt>
      <trkpt lat="48.96391" lon="7.81311">
        <ele>247</ele>
        <time>2021-06-26T13:03:53Z</time>
      </trkpt>
      <trkpt lat="48.96392" lon="7.81309">
        <ele>247.2</ele>
        <time>2021-06-26T13:03:54Z</time>
      </trkpt>
      <trkpt lat="48.96394" lon="7.81306">
        <ele>247.2</ele>
        <time>2021-06-26T13:03:55Z</time>
      </trkpt>
      <trkpt lat="48.96395" lon="7.81304">
        <ele>247.4</ele>
        <time>2021-06-26T13:03:56Z</time>
      </trkpt>
      <trkpt lat="48.96396" lon="7.81301">
        <ele>247.6</ele>
        <time>2021-06-26T13:03:57Z</time>
      </trkpt>
      <trkpt lat="48.96397" lon="7.81299">
        <ele>247.6</ele>
        <time>2021-06-26T13:03:58Z</time>
      </trkpt>
      <trkpt lat="48.96399" lon="7.81296">
        <ele>247.8</ele>
        <time>2021-06-26T13:03:59Z</time>
      </trkpt>
      <trkpt lat="48.96399" lon="7.81293">
        <ele>248</ele>
        <time>2021-06-26T13:04:00Z</time>
      </trkpt>
      <trkpt lat="48.964" lon="7.81292">
        <ele>248</ele>
        <time>2021-06-26T13:04:01Z</time>
      </trkpt>
      <trkpt lat="48.96401" lon="7.8129">
        <ele>248.4</ele>
        <time>2021-06-26T13:04:02Z</time>
      </trkpt>
      <trkpt lat="48.96402" lon="7.81288">
        <ele>248.6</ele>
        <time>2021-06-26T13:04:03Z</time>
      </trkpt>
      <trkpt lat="48.96403" lon="7.81285">
        <ele>248.6</ele>
        <time>2021-06-26T13:04:04Z</time>
      </trkpt>
      <trkpt lat="48.96405" lon="7.81282">
        <ele>248.8</ele>
        <time>2021-06-26T13:04:05Z</time>
      </trkpt>
      <trkpt lat="48.96406" lon="7.8128">
        <ele>249</ele>
        <time>2021-06-26T13:04:06Z</time>
      </trkpt>
      <trkpt lat="48.96407" lon="7.81277">
        <ele>249.2</ele>
        <time>2021-06-26T13:04:07Z</time>
      </trkpt>
      <trkpt lat="48.96408" lon="7.81275">
        <ele>249.4</ele>
        <time>2021-06-26T13:04:08Z</time>
      </trkpt>
      <trkpt lat="48.96409" lon="7.81272">
        <ele>249.6</ele>
        <time>2021-06-26T13:04:09Z</time>
      </trkpt>
      <trkpt lat="48.96409" lon="7.8127">
        <ele>249.8</ele>
        <time>2021-06-26T13:04:10Z</time>
      </trkpt>
      <trkpt lat="48.9641" lon="7.81267">
        <ele>250.2</ele>
        <time>2021-06-26T13:04:11Z</time>
      </trkpt>
      <trkpt lat="48.96411" lon="7.81265">
        <ele>250.2</ele>
        <time>2021-06-26T13:04:12Z</time>
      </trkpt>
      <trkpt lat="48.96413" lon="7.81262">
        <ele>250.4</ele>
        <time>2021-06-26T13:04:13Z</time>
      </trkpt>
      <trkpt lat="48.96415" lon="7.81258">
        <ele>250.4</ele>
        <time>2021-06-26T13:04:14Z</time>
      </trkpt>
      <trkpt lat="48.96417" lon="7.81256">
        <ele>250.6</ele>
        <time>2021-06-26T13:04:15Z</time>
      </trkpt>
      <trkpt lat="48.96418" lon="7.81254">
        <ele>250.8</ele>
        <time>2021-06-26T13:04:16Z</time>
      </trkpt>
      <trkpt lat="48.96418" lon="7.81251">
        <ele>251</ele>
        <time>2021-06-26T13:04:17Z</time>
      </trkpt>
      <trkpt lat="48.96419" lon="7.81248">
        <ele>251</ele>
        <time>2021-06-26T13:04:18Z</time>
      </trkpt>
      <trkpt lat="48.9642" lon="7.81246">
        <ele>251.2</ele>
        <time>2021-06-26T13:04:19Z</time>
      </trkpt>
      <trkpt lat="48.96421" lon="7.81244">
        <ele>251.4</ele>
        <time>2021-06-26T13:04:20Z</time>
      </trkpt>
      <trkpt lat="48.96422" lon="7.81241">
        <ele>251.6</ele>
        <time>2021-06-26T13:04:21Z</time>
      </trkpt>
      <trkpt lat="48.96423" lon="7.81239">
        <ele>251.8</ele>
        <time>2021-06-26T13:04:22Z</time>
      </trkpt>
      <trkpt lat="48.96424" lon="7.81235">
        <ele>252</ele>
        <time>2021-06-26T13:04:23Z</time>
      </trkpt>
      <trkpt lat="48.96425" lon="7.81232">
        <ele>252.2</ele>
        <time>2021-06-26T13:04:24Z</time>
      </trkpt>
      <trkpt lat="48.96425" lon="7.81229">
        <ele>252.4</ele>
        <time>2021-06-26T13:04:25Z</time>
      </trkpt>
      <trkpt lat="48.96426" lon="7.81227">
        <ele>252.4</ele>
        <time>2021-06-26T13:04:26Z</time>
      </trkpt>
      <trkpt lat="48.96427" lon="7.81225">
        <ele>252.6</ele>
        <time>2021-06-26T13:04:27Z</time>
      </trkpt>
      <trkpt lat="48.96427" lon="7.81223">
        <ele>252.8</ele>
        <time>2021-06-26T13:04:28Z</time>
      </trkpt>
      <trkpt lat="48.96428" lon="7.81221">
        <ele>252.8</ele>
        <time>2021-06-26T13:04:29Z</time>
      </trkpt>
      <trkpt lat="48.96428" lon="7.81219">
        <ele>252.8</ele>
        <time>2021-06-26T13:04:30Z</time>
      </trkpt>
      <trkpt lat="48.96429" lon="7.81216">
        <ele>253</ele>
        <time>2021-06-26T13:04:31Z</time>
      </trkpt>
      <trkpt lat="48.9643" lon="7.81213">
        <ele>253.2</ele>
        <time>2021-06-26T13:04:32Z</time>
      </trkpt>
      <trkpt lat="48.9643" lon="7.8121">
        <ele>253.2</ele>
        <time>2021-06-26T13:04:33Z</time>
      </trkpt>
      <trkpt lat="48.96431" lon="7.81206">
        <ele>253.4</ele>
        <time>2021-06-26T13:04:34Z</time>
      </trkpt>
      <trkpt lat="48.96432" lon="7.81203">
        <ele>253.6</ele>
        <time>2021-06-26T13:04:35Z</time>
      </trkpt>
      <trkpt lat="48.96432" lon="7.812">
        <ele>253.8</ele>
        <time>2021-06-26T13:04:36Z</time>
      </trkpt>
      <trkpt lat="48.96433" lon="7.81197">
        <ele>254</ele>
        <time>2021-06-26T13:04:37Z</time>
      </trkpt>
      <trkpt lat="48.96434" lon="7.81194">
        <ele>254.2</ele>
        <time>2021-06-26T13:04:38Z</time>
      </trkpt>
      <trkpt lat="48.96435" lon="7.81191">
        <ele>254.2</ele>
        <time>2021-06-26T13:04:39Z</time>
      </trkpt>
      <trkpt lat="48.96436" lon="7.81188">
        <ele>254.4</ele>
        <time>2021-06-26T13:04:40Z</time>
      </trkpt>
      <trkpt lat="48.96437" lon="7.81185">
        <ele>254.6</ele>
        <time>2021-06-26T13:04:41Z</time>
      </trkpt>
      <trkpt lat="48.96438" lon="7.81183">
        <ele>254.6</ele>
        <time>2021-06-26T13:04:42Z</time>
      </trkpt>
      <trkpt lat="48.96439" lon="7.8118">
        <ele>254.8</ele>
        <time>2021-06-26T13:04:43Z</time>
      </trkpt>
      <trkpt lat="48.9644" lon="7.81177">
        <ele>254.8</ele>
        <time>2021-06-26T13:04:44Z</time>
      </trkpt>
      <trkpt lat="48.96441" lon="7.81174">
        <ele>255</ele>
        <time>2021-06-26T13:04:45Z</time>
      </trkpt>
      <trkpt lat="48.96442" lon="7.81171">
        <ele>255</ele>
        <time>2021-06-26T13:04:46Z</time>
      </trkpt>
      <trkpt lat="48.96443" lon="7.81167">
        <ele>255</ele>
        <time>2021-06-26T13:04:47Z</time>
      </trkpt>
      <trkpt lat="48.96444" lon="7.81164">
        <ele>255.4</ele>
        <time>2021-06-26T13:04:48Z</time>
      </trkpt>
      <trkpt lat="48.96445" lon="7.81161">
        <ele>255.6</ele>
        <time>2021-06-26T13:04:49Z</time>
      </trkpt>
      <trkpt lat="48.96445" lon="7.8116">
        <ele>255.6</ele>
        <time>2021-06-26T13:04:50Z</time>
      </trkpt>
      <trkpt lat="48.96446" lon="7.81157">
        <ele>256</ele>
        <time>2021-06-26T13:04:51Z</time>
      </trkpt>
      <trkpt lat="48.96447" lon="7.81153">
        <ele>256.2</ele>
        <time>2021-06-26T13:04:52Z</time>
      </trkpt>
      <trkpt lat="48.96448" lon="7.81149">
        <ele>256.4</ele>
        <time>2021-06-26T13:04:53Z</time>
      </trkpt>
      <trkpt lat="48.96449" lon="7.81145">
        <ele>256.6</ele>
        <time>2021-06-26T13:04:54Z</time>
      </trkpt>
      <trkpt lat="48.9645" lon="7.81142">
        <ele>256.8</ele>
        <time>2021-06-26T13:04:55Z</time>
      </trkpt>
      <trkpt lat="48.96451" lon="7.8114">
        <ele>257</ele>
        <time>2021-06-26T13:04:56Z</time>
      </trkpt>
      <trkpt lat="48.96452" lon="7.81137">
        <ele>257.2</ele>
        <time>2021-06-26T13:04:57Z</time>
      </trkpt>
      <trkpt lat="48.96453" lon="7.81133">
        <ele>257.2</ele>
        <time>2021-06-26T13:04:58Z</time>
      </trkpt>
      <trkpt lat="48.96452" lon="7.8113">
        <ele>257.2</ele>
        <time>2021-06-26T13:04:59Z</time>
      </trkpt>
      <trkpt lat="48.96452" lon="7.81127">
        <ele>257.2</ele>
        <time>2021-06-26T13:05:00Z</time>
      </trkpt>
      <trkpt lat="48.96452" lon="7.81124">
        <ele>257.2</ele>
        <time>2021-06-26T13:05:01Z</time>
      </trkpt>
      <trkpt lat="48.96453" lon="7.81121">
        <ele>257.4</ele>
        <time>2021-06-26T13:05:02Z</time>
      </trkpt>
      <trkpt lat="48.96454" lon="7.81119">
        <ele>257.6</ele>
        <time>2021-06-26T13:05:03Z</time>
      </trkpt>
      <trkpt lat="48.96456" lon="7.81117">
        <ele>257.6</ele>
        <time>2021-06-26T13:05:04Z</time>
      </trkpt>
      <trkpt lat="48.96457" lon="7.81115">
        <ele>257.6</ele>
        <time>2021-06-26T13:05:05Z</time>
      </trkpt>
      <trkpt lat="48.96458" lon="7.81113">
        <ele>257.8</ele>
        <time>2021-06-26T13:05:06Z</time>
      </trkpt>
      <trkpt lat="48.96459" lon="7.81111">
        <ele>257.8</ele>
        <time>2021-06-26T13:05:07Z</time>
      </trkpt>
      <trkpt lat="48.96461" lon="7.81109">
        <ele>257.8</ele>
        <time>2021-06-26T13:05:08Z</time>
      </trkpt>
      <trkpt lat="48.96462" lon="7.81108">
        <ele>258</ele>
        <time>2021-06-26T13:05:09Z</time>
      </trkpt>
      <trkpt lat="48.96463" lon="7.81106">
        <ele>258.2</ele>
        <time>2021-06-26T13:05:10Z</time>
      </trkpt>
      <trkpt lat="48.96464" lon="7.81104">
        <ele>258.2</ele>
        <time>2021-06-26T13:05:11Z</time>
      </trkpt>
      <trkpt lat="48.96465" lon="7.81102">
        <ele>258.4</ele>
        <time>2021-06-26T13:05:12Z</time>
      </trkpt>
      <trkpt lat="48.96466" lon="7.81099">
        <ele>258.6</ele>
        <time>2021-06-26T13:05:13Z</time>
      </trkpt>
      <trkpt lat="48.96467" lon="7.81097">
        <ele>258.8</ele>
        <time>2021-06-26T13:05:14Z</time>
      </trkpt>
      <trkpt lat="48.96469" lon="7.81096">
        <ele>259</ele>
        <time>2021-06-26T13:05:15Z</time>
      </trkpt>
      <trkpt lat="48.96471" lon="7.81094">
        <ele>259</ele>
        <time>2021-06-26T13:05:16Z</time>
      </trkpt>
      <trkpt lat="48.96472" lon="7.81092">
        <ele>259.4</ele>
        <time>2021-06-26T13:05:17Z</time>
      </trkpt>
      <trkpt lat="48.96474" lon="7.81091">
        <ele>259.6</ele>
        <time>2021-06-26T13:05:18Z</time>
      </trkpt>
      <trkpt lat="48.96475" lon="7.81089">
        <ele>259.6</ele>
        <time>2021-06-26T13:05:19Z</time>
      </trkpt>
      <trkpt lat="48.96477" lon="7.81088">
        <ele>259.8</ele>
        <time>2021-06-26T13:05:20Z</time>
      </trkpt>
      <trkpt lat="48.96479" lon="7.81087">
        <ele>260</ele>
        <time>2021-06-26T13:05:21Z</time>
      </trkpt>
      <trkpt lat="48.9648" lon="7.81086">
        <ele>260</ele>
        <time>2021-06-26T13:05:22Z</time>
      </trkpt>
      <trkpt lat="48.96481" lon="7.81085">
        <ele>260.2</ele>
        <time>2021-06-26T13:05:23Z</time>
      </trkpt>
      <trkpt lat="48.96482" lon="7.81084">
        <ele>260.2</ele>
        <time>2021-06-26T13:05:24Z</time>
      </trkpt>
      <trkpt lat="48.96484" lon="7.81083">
        <ele>260.2</ele>
        <time>2021-06-26T13:05:25Z</time>
      </trkpt>
      <trkpt lat="48.96486" lon="7.81083">
        <ele>260.4</ele>
        <time>2021-06-26T13:05:26Z</time>
      </trkpt>
      <trkpt lat="48.96487" lon="7.81082">
        <ele>260.4</ele>
        <time>2021-06-26T13:05:27Z</time>
      </trkpt>
      <trkpt lat="48.96488" lon="7.81081">
        <ele>260.4</ele>
        <time>2021-06-26T13:05:28Z</time>
      </trkpt>
      <trkpt lat="48.9649" lon="7.81079">
        <ele>260.4</ele>
        <time>2021-06-26T13:05:29Z</time>
      </trkpt>
      <trkpt lat="48.96491" lon="7.81077">
        <ele>260.6</ele>
        <time>2021-06-26T13:05:30Z</time>
      </trkpt>
      <trkpt lat="48.96491" lon="7.81074">
        <ele>260.6</ele>
        <time>2021-06-26T13:05:31Z</time>
      </trkpt>
      <trkpt lat="48.96492" lon="7.81072">
        <ele>260.8</ele>
        <time>2021-06-26T13:05:32Z</time>
      </trkpt>
      <trkpt lat="48.96492" lon="7.81069">
        <ele>261</ele>
        <time>2021-06-26T13:05:33Z</time>
      </trkpt>
      <trkpt lat="48.96492" lon="7.81067">
        <ele>261</ele>
        <time>2021-06-26T13:05:34Z</time>
      </trkpt>
      <trkpt lat="48.96492" lon="7.81064">
        <ele>261.2</ele>
        <time>2021-06-26T13:05:35Z</time>
      </trkpt>
      <trkpt lat="48.96491" lon="7.81062">
        <ele>261.4</ele>
        <time>2021-06-26T13:05:36Z</time>
      </trkpt>
      <trkpt lat="48.96491" lon="7.81059">
        <ele>261.6</ele>
        <time>2021-06-26T13:05:37Z</time>
      </trkpt>
      <trkpt lat="48.96491" lon="7.81057">
        <ele>261.6</ele>
        <time>2021-06-26T13:05:38Z</time>
      </trkpt>
      <trkpt lat="48.9649" lon="7.81055">
        <ele>261.8</ele>
        <time>2021-06-26T13:05:39Z</time>
      </trkpt>
      <trkpt lat="48.9649" lon="7.81053">
        <ele>262</ele>
        <time>2021-06-26T13:05:40Z</time>
      </trkpt>
      <trkpt lat="48.9649" lon="7.8105">
        <ele>262.2</ele>
        <time>2021-06-26T13:05:41Z</time>
      </trkpt>
      <trkpt lat="48.9649" lon="7.81048">
        <ele>262.4</ele>
        <time>2021-06-26T13:05:42Z</time>
      </trkpt>
      <trkpt lat="48.96491" lon="7.81045">
        <ele>262.4</ele>
        <time>2021-06-26T13:05:43Z</time>
      </trkpt>
      <trkpt lat="48.9649" lon="7.81042">
        <ele>262.4</ele>
        <time>2021-06-26T13:05:44Z</time>
      </trkpt>
      <trkpt lat="48.9649" lon="7.81039">
        <ele>262.4</ele>
        <time>2021-06-26T13:05:45Z</time>
      </trkpt>
      <trkpt lat="48.96491" lon="7.81037">
        <ele>262.6</ele>
        <time>2021-06-26T13:05:46Z</time>
      </trkpt>
      <trkpt lat="48.96491" lon="7.81034">
        <ele>262.6</ele>
        <time>2021-06-26T13:05:47Z</time>
      </trkpt>
      <trkpt lat="48.96491" lon="7.81032">
        <ele>262.6</ele>
        <time>2021-06-26T13:05:48Z</time>
      </trkpt>
      <trkpt lat="48.96491" lon="7.81028">
        <ele>262.6</ele>
        <time>2021-06-26T13:05:49Z</time>
      </trkpt>
      <trkpt lat="48.96492" lon="7.81025">
        <ele>262.8</ele>
        <time>2021-06-26T13:05:50Z</time>
      </trkpt>
      <trkpt lat="48.96492" lon="7.81023">
        <ele>262.8</ele>
        <time>2021-06-26T13:05:51Z</time>
      </trkpt>
      <trkpt lat="48.96492" lon="7.8102">
        <ele>262.8</ele>
        <time>2021-06-26T13:05:52Z</time>
      </trkpt>
      <trkpt lat="48.96492" lon="7.81018">
        <ele>262.8</ele>
        <time>2021-06-26T13:05:53Z</time>
      </trkpt>
      <trkpt lat="48.96492" lon="7.81015">
        <ele>262.8</ele>
        <time>2021-06-26T13:05:54Z</time>
      </trkpt>
      <trkpt lat="48.96493" lon="7.81012">
        <ele>263</ele>
        <time>2021-06-26T13:05:55Z</time>
      </trkpt>
      <trkpt lat="48.96492" lon="7.81004">
        <ele>263.2</ele>
        <time>2021-06-26T13:05:58Z</time>
      </trkpt>
      <trkpt lat="48.96492" lon="7.81001">
        <ele>263.2</ele>
        <time>2021-06-26T13:05:59Z</time>
      </trkpt>
      <trkpt lat="48.96493" lon="7.80995">
        <ele>263.4</ele>
        <time>2021-06-26T13:06:01Z</time>
      </trkpt>
      <trkpt lat="48.96493" lon="7.80992">
        <ele>263.6</ele>
        <time>2021-06-26T13:06:02Z</time>
      </trkpt>
      <trkpt lat="48.96493" lon="7.80991">
        <ele>263.8</ele>
        <time>2021-06-26T13:06:03Z</time>
      </trkpt>
      <trkpt lat="48.96493" lon="7.80973">
        <ele>264.4</ele>
        <time>2021-06-26T13:06:09Z</time>
      </trkpt>
      <trkpt lat="48.96494" lon="7.80942">
        <ele>264.6</ele>
        <time>2021-06-26T13:06:18Z</time>
      </trkpt>
      <trkpt lat="48.96495" lon="7.80919">
        <ele>264.4</ele>
        <time>2021-06-26T13:06:24Z</time>
      </trkpt>
      <trkpt lat="48.96496" lon="7.80898">
        <ele>264.4</ele>
        <time>2021-06-26T13:06:29Z</time>
      </trkpt>
      <trkpt lat="48.96497" lon="7.80895">
        <ele>264.4</ele>
        <time>2021-06-26T13:06:30Z</time>
      </trkpt>
      <trkpt lat="48.96498" lon="7.80893">
        <ele>264.4</ele>
        <time>2021-06-26T13:06:31Z</time>
      </trkpt>
      <trkpt lat="48.965" lon="7.80892">
        <ele>264.2</ele>
        <time>2021-06-26T13:06:32Z</time>
      </trkpt>
      <trkpt lat="48.96501" lon="7.80892">
        <ele>264.2</ele>
        <time>2021-06-26T13:06:33Z</time>
      </trkpt>
      <trkpt lat="48.96502" lon="7.80892">
        <ele>264.2</ele>
        <time>2021-06-26T13:06:34Z</time>
      </trkpt>
      <trkpt lat="48.96503" lon="7.80893">
        <ele>264.2</ele>
        <time>2021-06-26T13:06:35Z</time>
      </trkpt>
      <trkpt lat="48.96504" lon="7.80893">
        <ele>264.2</ele>
        <time>2021-06-26T13:06:36Z</time>
      </trkpt>
      <trkpt lat="48.96505" lon="7.80893">
        <ele>264.2</ele>
        <time>2021-06-26T13:06:37Z</time>
      </trkpt>
      <trkpt lat="48.96507" lon="7.80893">
        <ele>264.2</ele>
        <time>2021-06-26T13:06:38Z</time>
      </trkpt>
      <trkpt lat="48.96509" lon="7.80893">
        <ele>264.2</ele>
        <time>2021-06-26T13:06:40Z</time>
      </trkpt>
      <trkpt lat="48.96509" lon="7.80893">
        <ele>264.2</ele>
        <time>2021-06-26T13:06:41Z</time>
      </trkpt>
      <trkpt lat="48.9651" lon="7.80894">
        <ele>264.2</ele>
        <time>2021-06-26T13:06:42Z</time>
      </trkpt>
      <trkpt lat="48.96512" lon="7.80894">
        <ele>264.4</ele>
        <time>2021-06-26T13:06:43Z</time>
      </trkpt>
      <trkpt lat="48.96513" lon="7.80894">
        <ele>264.4</ele>
        <time>2021-06-26T13:06:44Z</time>
      </trkpt>
      <trkpt lat="48.96514" lon="7.80894">
        <ele>264.6</ele>
        <time>2021-06-26T13:06:45Z</time>
      </trkpt>
      <trkpt lat="48.96515" lon="7.80894">
        <ele>264.8</ele>
        <time>2021-06-26T13:06:46Z</time>
      </trkpt>
      <trkpt lat="48.96517" lon="7.80894">
        <ele>265</ele>
        <time>2021-06-26T13:06:47Z</time>
      </trkpt>
      <trkpt lat="48.96518" lon="7.80893">
        <ele>265.2</ele>
        <time>2021-06-26T13:06:48Z</time>
      </trkpt>
      <trkpt lat="48.96519" lon="7.80893">
        <ele>265.4</ele>
        <time>2021-06-26T13:06:49Z</time>
      </trkpt>
      <trkpt lat="48.96523" lon="7.80892">
        <ele>265.8</ele>
        <time>2021-06-26T13:06:52Z</time>
      </trkpt>
      <trkpt lat="48.96524" lon="7.80892">
        <ele>266</ele>
        <time>2021-06-26T13:06:53Z</time>
      </trkpt>
      <trkpt lat="48.96524" lon="7.80892">
        <ele>266.2</ele>
        <time>2021-06-26T13:06:55Z</time>
      </trkpt>
      <trkpt lat="48.96526" lon="7.80891">
        <ele>266.8</ele>
        <time>2021-06-26T13:06:57Z</time>
      </trkpt>
      <trkpt lat="48.96526" lon="7.80891">
        <ele>267</ele>
        <time>2021-06-26T13:06:58Z</time>
      </trkpt>
      <trkpt lat="48.96528" lon="7.80891">
        <ele>267</ele>
        <time>2021-06-26T13:06:59Z</time>
      </trkpt>
      <trkpt lat="48.96529" lon="7.80892">
        <ele>267</ele>
        <time>2021-06-26T13:07:00Z</time>
      </trkpt>
      <trkpt lat="48.9653" lon="7.80892">
        <ele>267.2</ele>
        <time>2021-06-26T13:07:01Z</time>
      </trkpt>
      <trkpt lat="48.96531" lon="7.80892">
        <ele>267.4</ele>
        <time>2021-06-26T13:07:02Z</time>
      </trkpt>
      <trkpt lat="48.96532" lon="7.80893">
        <ele>267.6</ele>
        <time>2021-06-26T13:07:03Z</time>
      </trkpt>
      <trkpt lat="48.96533" lon="7.80893">
        <ele>267.8</ele>
        <time>2021-06-26T13:07:04Z</time>
      </trkpt>
      <trkpt lat="48.96535" lon="7.80892">
        <ele>267.8</ele>
        <time>2021-06-26T13:07:05Z</time>
      </trkpt>
      <trkpt lat="48.96536" lon="7.80892">
        <ele>268</ele>
        <time>2021-06-26T13:07:06Z</time>
      </trkpt>
      <trkpt lat="48.96537" lon="7.80892">
        <ele>268.2</ele>
        <time>2021-06-26T13:07:07Z</time>
      </trkpt>
      <trkpt lat="48.96538" lon="7.80891">
        <ele>268.2</ele>
        <time>2021-06-26T13:07:08Z</time>
      </trkpt>
      <trkpt lat="48.96539" lon="7.80891">
        <ele>268.4</ele>
        <time>2021-06-26T13:07:09Z</time>
      </trkpt>
      <trkpt lat="48.9654" lon="7.8089">
        <ele>268.6</ele>
        <time>2021-06-26T13:07:10Z</time>
      </trkpt>
      <trkpt lat="48.96542" lon="7.8089">
        <ele>268.6</ele>
        <time>2021-06-26T13:07:11Z</time>
      </trkpt>
      <trkpt lat="48.96544" lon="7.8089">
        <ele>268.8</ele>
        <time>2021-06-26T13:07:12Z</time>
      </trkpt>
      <trkpt lat="48.96545" lon="7.8089">
        <ele>269</ele>
        <time>2021-06-26T13:07:13Z</time>
      </trkpt>
      <trkpt lat="48.96546" lon="7.8089">
        <ele>269.2</ele>
        <time>2021-06-26T13:07:14Z</time>
      </trkpt>
      <trkpt lat="48.96547" lon="7.80891">
        <ele>269.4</ele>
        <time>2021-06-26T13:07:15Z</time>
      </trkpt>
      <trkpt lat="48.96548" lon="7.80892">
        <ele>269.4</ele>
        <time>2021-06-26T13:07:16Z</time>
      </trkpt>
      <trkpt lat="48.9655" lon="7.80892">
        <ele>269.6</ele>
        <time>2021-06-26T13:07:17Z</time>
      </trkpt>
      <trkpt lat="48.96552" lon="7.80893">
        <ele>269.8</ele>
        <time>2021-06-26T13:07:18Z</time>
      </trkpt>
      <trkpt lat="48.96554" lon="7.80893">
        <ele>270</ele>
        <time>2021-06-26T13:07:19Z</time>
      </trkpt>
      <trkpt lat="48.96555" lon="7.80894">
        <ele>270</ele>
        <time>2021-06-26T13:07:20Z</time>
      </trkpt>
      <trkpt lat="48.96557" lon="7.80895">
        <ele>270.2</ele>
        <time>2021-06-26T13:07:21Z</time>
      </trkpt>
      <trkpt lat="48.96558" lon="7.80894">
        <ele>270.4</ele>
        <time>2021-06-26T13:07:22Z</time>
      </trkpt>
      <trkpt lat="48.96559" lon="7.80894">
        <ele>270.6</ele>
        <time>2021-06-26T13:07:23Z</time>
      </trkpt>
      <trkpt lat="48.9656" lon="7.80894">
        <ele>270.6</ele>
        <time>2021-06-26T13:07:24Z</time>
      </trkpt>
      <trkpt lat="48.96563" lon="7.80893">
        <ele>270.8</ele>
        <time>2021-06-26T13:07:25Z</time>
      </trkpt>
      <trkpt lat="48.96564" lon="7.80894">
        <ele>271</ele>
        <time>2021-06-26T13:07:26Z</time>
      </trkpt>
      <trkpt lat="48.96566" lon="7.80893">
        <ele>271.2</ele>
        <time>2021-06-26T13:07:27Z</time>
      </trkpt>
      <trkpt lat="48.96568" lon="7.80894">
        <ele>271.4</ele>
        <time>2021-06-26T13:07:28Z</time>
      </trkpt>
      <trkpt lat="48.96569" lon="7.80894">
        <ele>271.6</ele>
        <time>2021-06-26T13:07:29Z</time>
      </trkpt>
      <trkpt lat="48.96571" lon="7.80892">
        <ele>271.8</ele>
        <time>2021-06-26T13:07:30Z</time>
      </trkpt>
      <trkpt lat="48.96572" lon="7.80891">
        <ele>271.8</ele>
        <time>2021-06-26T13:07:31Z</time>
      </trkpt>
      <trkpt lat="48.96572" lon="7.80892">
        <ele>271.8</ele>
        <time>2021-06-26T13:07:32Z</time>
      </trkpt>
      <trkpt lat="48.96574" lon="7.8089">
        <ele>272</ele>
        <time>2021-06-26T13:07:33Z</time>
      </trkpt>
      <trkpt lat="48.96575" lon="7.8089">
        <ele>272.2</ele>
        <time>2021-06-26T13:07:34Z</time>
      </trkpt>
      <trkpt lat="48.96577" lon="7.8089">
        <ele>272.4</ele>
        <time>2021-06-26T13:07:35Z</time>
      </trkpt>
      <trkpt lat="48.96579" lon="7.8089">
        <ele>272.6</ele>
        <time>2021-06-26T13:07:36Z</time>
      </trkpt>
      <trkpt lat="48.96581" lon="7.80891">
        <ele>272.8</ele>
        <time>2021-06-26T13:07:37Z</time>
      </trkpt>
      <trkpt lat="48.96583" lon="7.80891">
        <ele>273</ele>
        <time>2021-06-26T13:07:38Z</time>
      </trkpt>
      <trkpt lat="48.96585" lon="7.80891">
        <ele>273</ele>
        <time>2021-06-26T13:07:39Z</time>
      </trkpt>
      <trkpt lat="48.96586" lon="7.80891">
        <ele>273.2</ele>
        <time>2021-06-26T13:07:40Z</time>
      </trkpt>
      <trkpt lat="48.96588" lon="7.80891">
        <ele>273.4</ele>
        <time>2021-06-26T13:07:41Z</time>
      </trkpt>
      <trkpt lat="48.96589" lon="7.80891">
        <ele>273.6</ele>
        <time>2021-06-26T13:07:42Z</time>
      </trkpt>
      <trkpt lat="48.96591" lon="7.80892">
        <ele>273.8</ele>
        <time>2021-06-26T13:07:43Z</time>
      </trkpt>
      <trkpt lat="48.96592" lon="7.80892">
        <ele>274</ele>
        <time>2021-06-26T13:07:44Z</time>
      </trkpt>
      <trkpt lat="48.96593" lon="7.80892">
        <ele>274.2</ele>
        <time>2021-06-26T13:07:45Z</time>
      </trkpt>
      <trkpt lat="48.96594" lon="7.8089">
        <ele>274.4</ele>
        <time>2021-06-26T13:07:46Z</time>
      </trkpt>
      <trkpt lat="48.96595" lon="7.8089">
        <ele>274.6</ele>
        <time>2021-06-26T13:07:47Z</time>
      </trkpt>
      <trkpt lat="48.96597" lon="7.80889">
        <ele>274.8</ele>
        <time>2021-06-26T13:07:48Z</time>
      </trkpt>
      <trkpt lat="48.96598" lon="7.80889">
        <ele>275</ele>
        <time>2021-06-26T13:07:49Z</time>
      </trkpt>
      <trkpt lat="48.966" lon="7.80889">
        <ele>275.2</ele>
        <time>2021-06-26T13:07:50Z</time>
      </trkpt>
      <trkpt lat="48.96601" lon="7.80889">
        <ele>275.4</ele>
        <time>2021-06-26T13:07:51Z</time>
      </trkpt>
      <trkpt lat="48.96603" lon="7.80889">
        <ele>275.6</ele>
        <time>2021-06-26T13:07:52Z</time>
      </trkpt>
      <trkpt lat="48.96605" lon="7.8089">
        <ele>275.8</ele>
        <time>2021-06-26T13:07:53Z</time>
      </trkpt>
      <trkpt lat="48.96606" lon="7.8089">
        <ele>276</ele>
        <time>2021-06-26T13:07:54Z</time>
      </trkpt>
      <trkpt lat="48.96607" lon="7.80889">
        <ele>276.2</ele>
        <time>2021-06-26T13:07:55Z</time>
      </trkpt>
      <trkpt lat="48.96609" lon="7.80889">
        <ele>276.4</ele>
        <time>2021-06-26T13:07:56Z</time>
      </trkpt>
      <trkpt lat="48.9661" lon="7.80889">
        <ele>276.6</ele>
        <time>2021-06-26T13:07:57Z</time>
      </trkpt>
      <trkpt lat="48.9661" lon="7.80889">
        <ele>276.8</ele>
        <time>2021-06-26T13:07:58Z</time>
      </trkpt>
      <trkpt lat="48.96612" lon="7.80889">
        <ele>277</ele>
        <time>2021-06-26T13:07:59Z</time>
      </trkpt>
      <trkpt lat="48.96613" lon="7.80889">
        <ele>277</ele>
        <time>2021-06-26T13:08:00Z</time>
      </trkpt>
      <trkpt lat="48.96614" lon="7.8089">
        <ele>277</ele>
        <time>2021-06-26T13:08:01Z</time>
      </trkpt>
      <trkpt lat="48.96615" lon="7.8089">
        <ele>277.2</ele>
        <time>2021-06-26T13:08:02Z</time>
      </trkpt>
      <trkpt lat="48.96616" lon="7.8089">
        <ele>277.4</ele>
        <time>2021-06-26T13:08:03Z</time>
      </trkpt>
      <trkpt lat="48.96617" lon="7.8089">
        <ele>277.6</ele>
        <time>2021-06-26T13:08:04Z</time>
      </trkpt>
      <trkpt lat="48.96618" lon="7.8089">
        <ele>277.8</ele>
        <time>2021-06-26T13:08:05Z</time>
      </trkpt>
      <trkpt lat="48.96619" lon="7.8089">
        <ele>278</ele>
        <time>2021-06-26T13:08:06Z</time>
      </trkpt>
      <trkpt lat="48.96621" lon="7.80891">
        <ele>278.2</ele>
        <time>2021-06-26T13:08:07Z</time>
      </trkpt>
      <trkpt lat="48.96622" lon="7.8089">
        <ele>278.4</ele>
        <time>2021-06-26T13:08:08Z</time>
      </trkpt>
      <trkpt lat="48.96623" lon="7.8089">
        <ele>278.6</ele>
        <time>2021-06-26T13:08:09Z</time>
      </trkpt>
      <trkpt lat="48.96623" lon="7.8089">
        <ele>278.8</ele>
        <time>2021-06-26T13:08:10Z</time>
      </trkpt>
      <trkpt lat="48.96623" lon="7.80889">
        <ele>279</ele>
        <time>2021-06-26T13:08:11Z</time>
      </trkpt>
      <trkpt lat="48.96624" lon="7.80889">
        <ele>279.2</ele>
        <time>2021-06-26T13:08:12Z</time>
      </trkpt>
      <trkpt lat="48.96625" lon="7.8089">
        <ele>279.2</ele>
        <time>2021-06-26T13:08:13Z</time>
      </trkpt>
      <trkpt lat="48.96625" lon="7.8089">
        <ele>279.4</ele>
        <time>2021-06-26T13:08:14Z</time>
      </trkpt>
      <trkpt lat="48.96626" lon="7.8089">
        <ele>279.8</ele>
        <time>2021-06-26T13:08:15Z</time>
      </trkpt>
      <trkpt lat="48.96626" lon="7.8089">
        <ele>279.8</ele>
        <time>2021-06-26T13:08:16Z</time>
      </trkpt>
      <trkpt lat="48.96626" lon="7.8089">
        <ele>280</ele>
        <time>2021-06-26T13:08:17Z</time>
      </trkpt>
      <trkpt lat="48.96626" lon="7.80891">
        <ele>280</ele>
        <time>2021-06-26T13:08:18Z</time>
      </trkpt>
      <trkpt lat="48.96627" lon="7.8089">
        <ele>280.2</ele>
        <time>2021-06-26T13:08:19Z</time>
      </trkpt>
      <trkpt lat="48.96628" lon="7.8089">
        <ele>280.4</ele>
        <time>2021-06-26T13:08:20Z</time>
      </trkpt>
      <trkpt lat="48.96629" lon="7.80891">
        <ele>280.6</ele>
        <time>2021-06-26T13:08:21Z</time>
      </trkpt>
      <trkpt lat="48.9663" lon="7.80892">
        <ele>280.6</ele>
        <time>2021-06-26T13:08:22Z</time>
      </trkpt>
      <trkpt lat="48.96632" lon="7.80893">
        <ele>280.8</ele>
        <time>2021-06-26T13:08:23Z</time>
      </trkpt>
      <trkpt lat="48.96635" lon="7.80894">
        <ele>281</ele>
        <time>2021-06-26T13:08:24Z</time>
      </trkpt>
      <trkpt lat="48.96636" lon="7.80895">
        <ele>281</ele>
        <time>2021-06-26T13:08:25Z</time>
      </trkpt>
      <trkpt lat="48.96638" lon="7.80896">
        <ele>281.2</ele>
        <time>2021-06-26T13:08:26Z</time>
      </trkpt>
      <trkpt lat="48.96639" lon="7.80897">
        <ele>281.2</ele>
        <time>2021-06-26T13:08:27Z</time>
      </trkpt>
      <trkpt lat="48.96641" lon="7.80898">
        <ele>281.2</ele>
        <time>2021-06-26T13:08:28Z</time>
      </trkpt>
      <trkpt lat="48.96642" lon="7.80899">
        <ele>281.4</ele>
        <time>2021-06-26T13:08:29Z</time>
      </trkpt>
      <trkpt lat="48.96643" lon="7.80901">
        <ele>281.4</ele>
        <time>2021-06-26T13:08:30Z</time>
      </trkpt>
      <trkpt lat="48.96645" lon="7.80901">
        <ele>281.4</ele>
        <time>2021-06-26T13:08:31Z</time>
      </trkpt>
      <trkpt lat="48.96646" lon="7.80902">
        <ele>281.4</ele>
        <time>2021-06-26T13:08:32Z</time>
      </trkpt>
      <trkpt lat="48.96647" lon="7.80903">
        <ele>281.4</ele>
        <time>2021-06-26T13:08:33Z</time>
      </trkpt>
      <trkpt lat="48.96647" lon="7.80905">
        <ele>281.6</ele>
        <time>2021-06-26T13:08:34Z</time>
      </trkpt>
      <trkpt lat="48.96648" lon="7.80906">
        <ele>281.6</ele>
        <time>2021-06-26T13:08:35Z</time>
      </trkpt>
      <trkpt lat="48.96649" lon="7.80906">
        <ele>281.8</ele>
        <time>2021-06-26T13:08:36Z</time>
      </trkpt>
      <trkpt lat="48.9665" lon="7.80908">
        <ele>281.8</ele>
        <time>2021-06-26T13:08:37Z</time>
      </trkpt>
      <trkpt lat="48.96651" lon="7.8091">
        <ele>281.8</ele>
        <time>2021-06-26T13:08:38Z</time>
      </trkpt>
      <trkpt lat="48.96652" lon="7.80912">
        <ele>282</ele>
        <time>2021-06-26T13:08:39Z</time>
      </trkpt>
      <trkpt lat="48.96653" lon="7.80914">
        <ele>282</ele>
        <time>2021-06-26T13:08:40Z</time>
      </trkpt>
      <trkpt lat="48.96656" lon="7.80914">
        <ele>282.2</ele>
        <time>2021-06-26T13:08:41Z</time>
      </trkpt>
      <trkpt lat="48.96657" lon="7.80916">
        <ele>282.2</ele>
        <time>2021-06-26T13:08:42Z</time>
      </trkpt>
      <trkpt lat="48.96658" lon="7.80915">
        <ele>282.4</ele>
        <time>2021-06-26T13:08:43Z</time>
      </trkpt>
      <trkpt lat="48.96661" lon="7.80915">
        <ele>282.6</ele>
        <time>2021-06-26T13:08:44Z</time>
      </trkpt>
      <trkpt lat="48.96663" lon="7.80916">
        <ele>282.8</ele>
        <time>2021-06-26T13:08:45Z</time>
      </trkpt>
      <trkpt lat="48.96663" lon="7.80916">
        <ele>283</ele>
        <time>2021-06-26T13:08:46Z</time>
      </trkpt>
      <trkpt lat="48.96664" lon="7.80917">
        <ele>283.2</ele>
        <time>2021-06-26T13:08:47Z</time>
      </trkpt>
      <trkpt lat="48.96665" lon="7.80919">
        <ele>283.2</ele>
        <time>2021-06-26T13:08:48Z</time>
      </trkpt>
      <trkpt lat="48.96667" lon="7.8092">
        <ele>283.2</ele>
        <time>2021-06-26T13:08:49Z</time>
      </trkpt>
      <trkpt lat="48.9667" lon="7.80921">
        <ele>283.4</ele>
        <time>2021-06-26T13:08:50Z</time>
      </trkpt>
      <trkpt lat="48.96671" lon="7.80922">
        <ele>283.4</ele>
        <time>2021-06-26T13:08:51Z</time>
      </trkpt>
      <trkpt lat="48.96672" lon="7.80924">
        <ele>283.6</ele>
        <time>2021-06-26T13:08:52Z</time>
      </trkpt>
      <trkpt lat="48.96672" lon="7.80926">
        <ele>283.8</ele>
        <time>2021-06-26T13:08:53Z</time>
      </trkpt>
      <trkpt lat="48.96673" lon="7.80928">
        <ele>283.8</ele>
        <time>2021-06-26T13:08:54Z</time>
      </trkpt>
      <trkpt lat="48.96674" lon="7.80929">
        <ele>284</ele>
        <time>2021-06-26T13:08:55Z</time>
      </trkpt>
      <trkpt lat="48.96675" lon="7.8093">
        <ele>284</ele>
        <time>2021-06-26T13:08:56Z</time>
      </trkpt>
      <trkpt lat="48.96676" lon="7.80931">
        <ele>284.2</ele>
        <time>2021-06-26T13:08:57Z</time>
      </trkpt>
      <trkpt lat="48.96677" lon="7.80932">
        <ele>284.4</ele>
        <time>2021-06-26T13:08:58Z</time>
      </trkpt>
      <trkpt lat="48.96678" lon="7.80934">
        <ele>284.6</ele>
        <time>2021-06-26T13:08:59Z</time>
      </trkpt>
      <trkpt lat="48.96678" lon="7.80935">
        <ele>284.6</ele>
        <time>2021-06-26T13:09:00Z</time>
      </trkpt>
      <trkpt lat="48.96679" lon="7.80936">
        <ele>285</ele>
        <time>2021-06-26T13:09:01Z</time>
      </trkpt>
      <trkpt lat="48.96681" lon="7.80936">
        <ele>285</ele>
        <time>2021-06-26T13:09:02Z</time>
      </trkpt>
      <trkpt lat="48.96682" lon="7.80937">
        <ele>285</ele>
        <time>2021-06-26T13:09:03Z</time>
      </trkpt>
      <trkpt lat="48.96684" lon="7.80938">
        <ele>285.2</ele>
        <time>2021-06-26T13:09:04Z</time>
      </trkpt>
      <trkpt lat="48.96686" lon="7.80938">
        <ele>285.4</ele>
        <time>2021-06-26T13:09:05Z</time>
      </trkpt>
      <trkpt lat="48.96687" lon="7.80939">
        <ele>285.2</ele>
        <time>2021-06-26T13:09:06Z</time>
      </trkpt>
      <trkpt lat="48.96689" lon="7.8094">
        <ele>285.4</ele>
        <time>2021-06-26T13:09:07Z</time>
      </trkpt>
      <trkpt lat="48.9669" lon="7.80941">
        <ele>285.4</ele>
        <time>2021-06-26T13:09:08Z</time>
      </trkpt>
      <trkpt lat="48.96691" lon="7.80942">
        <ele>285.6</ele>
        <time>2021-06-26T13:09:09Z</time>
      </trkpt>
      <trkpt lat="48.96693" lon="7.80944">
        <ele>285.6</ele>
        <time>2021-06-26T13:09:10Z</time>
      </trkpt>
      <trkpt lat="48.96694" lon="7.80945">
        <ele>285.8</ele>
        <time>2021-06-26T13:09:11Z</time>
      </trkpt>
      <trkpt lat="48.96696" lon="7.80946">
        <ele>285.8</ele>
        <time>2021-06-26T13:09:12Z</time>
      </trkpt>
      <trkpt lat="48.96697" lon="7.80948">
        <ele>286</ele>
        <time>2021-06-26T13:09:13Z</time>
      </trkpt>
      <trkpt lat="48.96699" lon="7.8095">
        <ele>286</ele>
        <time>2021-06-26T13:09:14Z</time>
      </trkpt>
      <trkpt lat="48.967" lon="7.80951">
        <ele>286.2</ele>
        <time>2021-06-26T13:09:15Z</time>
      </trkpt>
      <trkpt lat="48.967" lon="7.80953">
        <ele>286.2</ele>
        <time>2021-06-26T13:09:16Z</time>
      </trkpt>
      <trkpt lat="48.96702" lon="7.80954">
        <ele>286.4</ele>
        <time>2021-06-26T13:09:17Z</time>
      </trkpt>
      <trkpt lat="48.96704" lon="7.80956">
        <ele>286.4</ele>
        <time>2021-06-26T13:09:18Z</time>
      </trkpt>
      <trkpt lat="48.96705" lon="7.80958">
        <ele>286.6</ele>
        <time>2021-06-26T13:09:19Z</time>
      </trkpt>
      <trkpt lat="48.96707" lon="7.80959">
        <ele>286.8</ele>
        <time>2021-06-26T13:09:20Z</time>
      </trkpt>
      <trkpt lat="48.96708" lon="7.8096">
        <ele>286.8</ele>
        <time>2021-06-26T13:09:21Z</time>
      </trkpt>
      <trkpt lat="48.9671" lon="7.80961">
        <ele>287</ele>
        <time>2021-06-26T13:09:22Z</time>
      </trkpt>
      <trkpt lat="48.96711" lon="7.80962">
        <ele>287</ele>
        <time>2021-06-26T13:09:23Z</time>
      </trkpt>
      <trkpt lat="48.96713" lon="7.80964">
        <ele>287.2</ele>
        <time>2021-06-26T13:09:24Z</time>
      </trkpt>
      <trkpt lat="48.96715" lon="7.80965">
        <ele>287.2</ele>
        <time>2021-06-26T13:09:25Z</time>
      </trkpt>
      <trkpt lat="48.96717" lon="7.80966">
        <ele>287.4</ele>
        <time>2021-06-26T13:09:26Z</time>
      </trkpt>
      <trkpt lat="48.96719" lon="7.80968">
        <ele>287.6</ele>
        <time>2021-06-26T13:09:27Z</time>
      </trkpt>
      <trkpt lat="48.9672" lon="7.80969">
        <ele>287.6</ele>
        <time>2021-06-26T13:09:28Z</time>
      </trkpt>
      <trkpt lat="48.96721" lon="7.80971">
        <ele>287.8</ele>
        <time>2021-06-26T13:09:29Z</time>
      </trkpt>
      <trkpt lat="48.96723" lon="7.80972">
        <ele>287.8</ele>
        <time>2021-06-26T13:09:30Z</time>
      </trkpt>
      <trkpt lat="48.96725" lon="7.80974">
        <ele>288</ele>
        <time>2021-06-26T13:09:31Z</time>
      </trkpt>
      <trkpt lat="48.96726" lon="7.80975">
        <ele>288</ele>
        <time>2021-06-26T13:09:32Z</time>
      </trkpt>
      <trkpt lat="48.96728" lon="7.80976">
        <ele>288.2</ele>
        <time>2021-06-26T13:09:33Z</time>
      </trkpt>
      <trkpt lat="48.9673" lon="7.80977">
        <ele>288.2</ele>
        <time>2021-06-26T13:09:34Z</time>
      </trkpt>
      <trkpt lat="48.96731" lon="7.80978">
        <ele>288.2</ele>
        <time>2021-06-26T13:09:35Z</time>
      </trkpt>
      <trkpt lat="48.96733" lon="7.80979">
        <ele>288.4</ele>
        <time>2021-06-26T13:09:36Z</time>
      </trkpt>
      <trkpt lat="48.96734" lon="7.80981">
        <ele>288.4</ele>
        <time>2021-06-26T13:09:37Z</time>
      </trkpt>
      <trkpt lat="48.96735" lon="7.80982">
        <ele>288.6</ele>
        <time>2021-06-26T13:09:38Z</time>
      </trkpt>
      <trkpt lat="48.96737" lon="7.80983">
        <ele>288.6</ele>
        <time>2021-06-26T13:09:39Z</time>
      </trkpt>
      <trkpt lat="48.96738" lon="7.80984">
        <ele>288.8</ele>
        <time>2021-06-26T13:09:40Z</time>
      </trkpt>
      <trkpt lat="48.9674" lon="7.80986">
        <ele>288.8</ele>
        <time>2021-06-26T13:09:41Z</time>
      </trkpt>
      <trkpt lat="48.96741" lon="7.80987">
        <ele>289</ele>
        <time>2021-06-26T13:09:42Z</time>
      </trkpt>
      <trkpt lat="48.96743" lon="7.80988">
        <ele>289</ele>
        <time>2021-06-26T13:09:43Z</time>
      </trkpt>
      <trkpt lat="48.96745" lon="7.80989">
        <ele>289.2</ele>
        <time>2021-06-26T13:09:44Z</time>
      </trkpt>
      <trkpt lat="48.96746" lon="7.80991">
        <ele>289.4</ele>
        <time>2021-06-26T13:09:45Z</time>
      </trkpt>
      <trkpt lat="48.96748" lon="7.80992">
        <ele>289.4</ele>
        <time>2021-06-26T13:09:46Z</time>
      </trkpt>
      <trkpt lat="48.96749" lon="7.80994">
        <ele>289.6</ele>
        <time>2021-06-26T13:09:47Z</time>
      </trkpt>
      <trkpt lat="48.96751" lon="7.80995">
        <ele>289.6</ele>
        <time>2021-06-26T13:09:48Z</time>
      </trkpt>
      <trkpt lat="48.96752" lon="7.80997">
        <ele>289.8</ele>
        <time>2021-06-26T13:09:49Z</time>
      </trkpt>
      <trkpt lat="48.96754" lon="7.80998">
        <ele>289.8</ele>
        <time>2021-06-26T13:09:50Z</time>
      </trkpt>
      <trkpt lat="48.96755" lon="7.81">
        <ele>290</ele>
        <time>2021-06-26T13:09:51Z</time>
      </trkpt>
      <trkpt lat="48.96756" lon="7.81002">
        <ele>290</ele>
        <time>2021-06-26T13:09:52Z</time>
      </trkpt>
      <trkpt lat="48.96757" lon="7.81004">
        <ele>290.2</ele>
        <time>2021-06-26T13:09:53Z</time>
      </trkpt>
      <trkpt lat="48.96758" lon="7.81005">
        <ele>290.4</ele>
        <time>2021-06-26T13:09:54Z</time>
      </trkpt>
      <trkpt lat="48.9676" lon="7.81007">
        <ele>290.6</ele>
        <time>2021-06-26T13:09:55Z</time>
      </trkpt>
      <trkpt lat="48.96761" lon="7.81008">
        <ele>290.8</ele>
        <time>2021-06-26T13:09:56Z</time>
      </trkpt>
      <trkpt lat="48.96762" lon="7.81009">
        <ele>291</ele>
        <time>2021-06-26T13:09:57Z</time>
      </trkpt>
      <trkpt lat="48.96764" lon="7.81011">
        <ele>291</ele>
        <time>2021-06-26T13:09:58Z</time>
      </trkpt>
      <trkpt lat="48.96765" lon="7.81012">
        <ele>291.2</ele>
        <time>2021-06-26T13:09:59Z</time>
      </trkpt>
      <trkpt lat="48.96767" lon="7.81013">
        <ele>291.2</ele>
        <time>2021-06-26T13:10:00Z</time>
      </trkpt>
      <trkpt lat="48.96769" lon="7.81014">
        <ele>291.4</ele>
        <time>2021-06-26T13:10:01Z</time>
      </trkpt>
      <trkpt lat="48.9677" lon="7.81016">
        <ele>291.6</ele>
        <time>2021-06-26T13:10:02Z</time>
      </trkpt>
      <trkpt lat="48.96772" lon="7.81017">
        <ele>291.8</ele>
        <time>2021-06-26T13:10:03Z</time>
      </trkpt>
      <trkpt lat="48.96774" lon="7.81018">
        <ele>291.8</ele>
        <time>2021-06-26T13:10:04Z</time>
      </trkpt>
      <trkpt lat="48.96776" lon="7.8102">
        <ele>292</ele>
        <time>2021-06-26T13:10:05Z</time>
      </trkpt>
      <trkpt lat="48.96778" lon="7.81021">
        <ele>292</ele>
        <time>2021-06-26T13:10:06Z</time>
      </trkpt>
      <trkpt lat="48.96779" lon="7.81022">
        <ele>292</ele>
        <time>2021-06-26T13:10:07Z</time>
      </trkpt>
      <trkpt lat="48.96781" lon="7.81023">
        <ele>292.2</ele>
        <time>2021-06-26T13:10:08Z</time>
      </trkpt>
      <trkpt lat="48.96783" lon="7.81025">
        <ele>292.2</ele>
        <time>2021-06-26T13:10:09Z</time>
      </trkpt>
      <trkpt lat="48.96784" lon="7.81026">
        <ele>292.4</ele>
        <time>2021-06-26T13:10:10Z</time>
      </trkpt>
      <trkpt lat="48.96785" lon="7.81027">
        <ele>292.6</ele>
        <time>2021-06-26T13:10:11Z</time>
      </trkpt>
      <trkpt lat="48.96787" lon="7.81028">
        <ele>292.6</ele>
        <time>2021-06-26T13:10:12Z</time>
      </trkpt>
      <trkpt lat="48.96788" lon="7.81029">
        <ele>292.8</ele>
        <time>2021-06-26T13:10:13Z</time>
      </trkpt>
      <trkpt lat="48.96789" lon="7.81031">
        <ele>292.8</ele>
        <time>2021-06-26T13:10:14Z</time>
      </trkpt>
      <trkpt lat="48.96791" lon="7.81032">
        <ele>292.8</ele>
        <time>2021-06-26T13:10:15Z</time>
      </trkpt>
      <trkpt lat="48.96792" lon="7.81033">
        <ele>292.8</ele>
        <time>2021-06-26T13:10:16Z</time>
      </trkpt>
      <trkpt lat="48.96793" lon="7.81033">
        <ele>293</ele>
        <time>2021-06-26T13:10:17Z</time>
      </trkpt>
      <trkpt lat="48.96794" lon="7.81032">
        <ele>293</ele>
        <time>2021-06-26T13:10:18Z</time>
      </trkpt>
      <trkpt lat="48.96795" lon="7.81033">
        <ele>293</ele>
        <time>2021-06-26T13:10:19Z</time>
      </trkpt>
      <trkpt lat="48.96797" lon="7.81032">
        <ele>293</ele>
        <time>2021-06-26T13:10:20Z</time>
      </trkpt>
      <trkpt lat="48.96797" lon="7.81033">
        <ele>293.2</ele>
        <time>2021-06-26T13:10:21Z</time>
      </trkpt>
      <trkpt lat="48.96797" lon="7.81033">
        <ele>293.2</ele>
        <time>2021-06-26T13:10:22Z</time>
      </trkpt>
      <trkpt lat="48.96797" lon="7.81033">
        <ele>293.4</ele>
        <time>2021-06-26T13:10:24Z</time>
      </trkpt>
      <trkpt lat="48.96798" lon="7.81034">
        <ele>293.8</ele>
        <time>2021-06-26T13:12:40Z</time>
      </trkpt>
      <trkpt lat="48.968" lon="7.81034">
        <ele>293.8</ele>
        <time>2021-06-26T13:12:41Z</time>
      </trkpt>
      <trkpt lat="48.96809" lon="7.81034">
        <ele>294</ele>
        <time>2021-06-26T13:12:45Z</time>
      </trkpt>
      <trkpt lat="48.96811" lon="7.81033">
        <ele>294</ele>
        <time>2021-06-26T13:12:46Z</time>
      </trkpt>
      <trkpt lat="48.96817" lon="7.81031">
        <ele>294</ele>
        <time>2021-06-26T13:12:49Z</time>
      </trkpt>
      <trkpt lat="48.96818" lon="7.8103">
        <ele>294.2</ele>
        <time>2021-06-26T13:12:50Z</time>
      </trkpt>
      <trkpt lat="48.9682" lon="7.81029">
        <ele>294.4</ele>
        <time>2021-06-26T13:12:51Z</time>
      </trkpt>
      <trkpt lat="48.96821" lon="7.81028">
        <ele>294.6</ele>
        <time>2021-06-26T13:12:52Z</time>
      </trkpt>
      <trkpt lat="48.96827" lon="7.81026">
        <ele>295.2</ele>
        <time>2021-06-26T13:12:55Z</time>
      </trkpt>
      <trkpt lat="48.9683" lon="7.81026">
        <ele>295.6</ele>
        <time>2021-06-26T13:12:57Z</time>
      </trkpt>
      <trkpt lat="48.96832" lon="7.81026">
        <ele>295.8</ele>
        <time>2021-06-26T13:12:58Z</time>
      </trkpt>
      <trkpt lat="48.96834" lon="7.81026">
        <ele>296</ele>
        <time>2021-06-26T13:12:59Z</time>
      </trkpt>
      <trkpt lat="48.96836" lon="7.81026">
        <ele>296.2</ele>
        <time>2021-06-26T13:13:00Z</time>
      </trkpt>
      <trkpt lat="48.9684" lon="7.81025">
        <ele>296.6</ele>
        <time>2021-06-26T13:13:02Z</time>
      </trkpt>
      <trkpt lat="48.96841" lon="7.81024">
        <ele>296.8</ele>
        <time>2021-06-26T13:13:03Z</time>
      </trkpt>
      <trkpt lat="48.96843" lon="7.81024">
        <ele>297</ele>
        <time>2021-06-26T13:13:04Z</time>
      </trkpt>
      <trkpt lat="48.96844" lon="7.81023">
        <ele>297.4</ele>
        <time>2021-06-26T13:13:05Z</time>
      </trkpt>
      <trkpt lat="48.96846" lon="7.81022">
        <ele>297.6</ele>
        <time>2021-06-26T13:13:06Z</time>
      </trkpt>
      <trkpt lat="48.96847" lon="7.81022">
        <ele>297.8</ele>
        <time>2021-06-26T13:13:07Z</time>
      </trkpt>
      <trkpt lat="48.96849" lon="7.81022">
        <ele>298</ele>
        <time>2021-06-26T13:13:08Z</time>
      </trkpt>
      <trkpt lat="48.96851" lon="7.81023">
        <ele>298.2</ele>
        <time>2021-06-26T13:13:09Z</time>
      </trkpt>
      <trkpt lat="48.96852" lon="7.81023">
        <ele>298.6</ele>
        <time>2021-06-26T13:13:10Z</time>
      </trkpt>
      <trkpt lat="48.96854" lon="7.81023">
        <ele>298.8</ele>
        <time>2021-06-26T13:13:11Z</time>
      </trkpt>
      <trkpt lat="48.96856" lon="7.81023">
        <ele>299</ele>
        <time>2021-06-26T13:13:12Z</time>
      </trkpt>
      <trkpt lat="48.96859" lon="7.81022">
        <ele>299</ele>
        <time>2021-06-26T13:13:13Z</time>
      </trkpt>
      <trkpt lat="48.96861" lon="7.8102">
        <ele>299.2</ele>
        <time>2021-06-26T13:13:14Z</time>
      </trkpt>
      <trkpt lat="48.96862" lon="7.81021">
        <ele>299.4</ele>
        <time>2021-06-26T13:13:15Z</time>
      </trkpt>
      <trkpt lat="48.96863" lon="7.8102">
        <ele>299.4</ele>
        <time>2021-06-26T13:13:16Z</time>
      </trkpt>
      <trkpt lat="48.96864" lon="7.8102">
        <ele>299.6</ele>
        <time>2021-06-26T13:13:17Z</time>
      </trkpt>
      <trkpt lat="48.96865" lon="7.8102">
        <ele>299.8</ele>
        <time>2021-06-26T13:13:18Z</time>
      </trkpt>
      <trkpt lat="48.96867" lon="7.81021">
        <ele>300</ele>
        <time>2021-06-26T13:13:19Z</time>
      </trkpt>
      <trkpt lat="48.96869" lon="7.81023">
        <ele>300.4</ele>
        <time>2021-06-26T13:13:20Z</time>
      </trkpt>
      <trkpt lat="48.9687" lon="7.81025">
        <ele>300.6</ele>
        <time>2021-06-26T13:13:21Z</time>
      </trkpt>
      <trkpt lat="48.96871" lon="7.81026">
        <ele>300.8</ele>
        <time>2021-06-26T13:13:22Z</time>
      </trkpt>
      <trkpt lat="48.96873" lon="7.81027">
        <ele>301</ele>
        <time>2021-06-26T13:13:23Z</time>
      </trkpt>
      <trkpt lat="48.96874" lon="7.81028">
        <ele>301.4</ele>
        <time>2021-06-26T13:13:24Z</time>
      </trkpt>
      <trkpt lat="48.96876" lon="7.8103">
        <ele>301.6</ele>
        <time>2021-06-26T13:13:25Z</time>
      </trkpt>
      <trkpt lat="48.96878" lon="7.81031">
        <ele>301.8</ele>
        <time>2021-06-26T13:13:26Z</time>
      </trkpt>
      <trkpt lat="48.96879" lon="7.81032">
        <ele>301.8</ele>
        <time>2021-06-26T13:13:27Z</time>
      </trkpt>
      <trkpt lat="48.96881" lon="7.81033">
        <ele>302</ele>
        <time>2021-06-26T13:13:28Z</time>
      </trkpt>
      <trkpt lat="48.96883" lon="7.81034">
        <ele>302.2</ele>
        <time>2021-06-26T13:13:29Z</time>
      </trkpt>
      <trkpt lat="48.96885" lon="7.81035">
        <ele>302.4</ele>
        <time>2021-06-26T13:13:30Z</time>
      </trkpt>
      <trkpt lat="48.96888" lon="7.81036">
        <ele>302.6</ele>
        <time>2021-06-26T13:13:31Z</time>
      </trkpt>
      <trkpt lat="48.9689" lon="7.81036">
        <ele>302.8</ele>
        <time>2021-06-26T13:13:32Z</time>
      </trkpt>
      <trkpt lat="48.96892" lon="7.81038">
        <ele>303</ele>
        <time>2021-06-26T13:13:33Z</time>
      </trkpt>
      <trkpt lat="48.96894" lon="7.81039">
        <ele>303.2</ele>
        <time>2021-06-26T13:13:34Z</time>
      </trkpt>
      <trkpt lat="48.96896" lon="7.8104">
        <ele>303.4</ele>
        <time>2021-06-26T13:13:35Z</time>
      </trkpt>
      <trkpt lat="48.96897" lon="7.81042">
        <ele>303.4</ele>
        <time>2021-06-26T13:13:36Z</time>
      </trkpt>
      <trkpt lat="48.96898" lon="7.81042">
        <ele>303.8</ele>
        <time>2021-06-26T13:13:37Z</time>
      </trkpt>
      <trkpt lat="48.96899" lon="7.81043">
        <ele>304</ele>
        <time>2021-06-26T13:13:38Z</time>
      </trkpt>
      <trkpt lat="48.969" lon="7.81044">
        <ele>304</ele>
        <time>2021-06-26T13:13:39Z</time>
      </trkpt>
      <trkpt lat="48.96902" lon="7.81046">
        <ele>304.2</ele>
        <time>2021-06-26T13:13:40Z</time>
      </trkpt>
      <trkpt lat="48.96904" lon="7.81046">
        <ele>304.2</ele>
        <time>2021-06-26T13:13:41Z</time>
      </trkpt>
      <trkpt lat="48.96906" lon="7.81048">
        <ele>304.4</ele>
        <time>2021-06-26T13:13:42Z</time>
      </trkpt>
      <trkpt lat="48.96907" lon="7.8105">
        <ele>304.6</ele>
        <time>2021-06-26T13:13:43Z</time>
      </trkpt>
      <trkpt lat="48.96907" lon="7.81051">
        <ele>304.8</ele>
        <time>2021-06-26T13:13:44Z</time>
      </trkpt>
      <trkpt lat="48.96908" lon="7.81052">
        <ele>305</ele>
        <time>2021-06-26T13:13:45Z</time>
      </trkpt>
      <trkpt lat="48.96911" lon="7.81053">
        <ele>305</ele>
        <time>2021-06-26T13:13:46Z</time>
      </trkpt>
      <trkpt lat="48.96912" lon="7.81055">
        <ele>305.4</ele>
        <time>2021-06-26T13:13:47Z</time>
      </trkpt>
      <trkpt lat="48.96913" lon="7.81058">
        <ele>305.4</ele>
        <time>2021-06-26T13:13:48Z</time>
      </trkpt>
      <trkpt lat="48.96914" lon="7.81057">
        <ele>305.6</ele>
        <time>2021-06-26T13:13:49Z</time>
      </trkpt>
      <trkpt lat="48.96915" lon="7.81058">
        <ele>305.8</ele>
        <time>2021-06-26T13:13:50Z</time>
      </trkpt>
      <trkpt lat="48.96917" lon="7.81059">
        <ele>306</ele>
        <time>2021-06-26T13:13:51Z</time>
      </trkpt>
      <trkpt lat="48.96918" lon="7.8106">
        <ele>306.2</ele>
        <time>2021-06-26T13:13:52Z</time>
      </trkpt>
      <trkpt lat="48.96919" lon="7.81061">
        <ele>306.4</ele>
        <time>2021-06-26T13:13:53Z</time>
      </trkpt>
      <trkpt lat="48.9692" lon="7.81062">
        <ele>306.6</ele>
        <time>2021-06-26T13:13:54Z</time>
      </trkpt>
      <trkpt lat="48.96921" lon="7.81063">
        <ele>306.8</ele>
        <time>2021-06-26T13:13:55Z</time>
      </trkpt>
      <trkpt lat="48.96921" lon="7.81064">
        <ele>307</ele>
        <time>2021-06-26T13:13:56Z</time>
      </trkpt>
      <trkpt lat="48.96922" lon="7.81065">
        <ele>307.2</ele>
        <time>2021-06-26T13:13:57Z</time>
      </trkpt>
      <trkpt lat="48.96923" lon="7.81066">
        <ele>307.4</ele>
        <time>2021-06-26T13:13:58Z</time>
      </trkpt>
      <trkpt lat="48.96924" lon="7.81067">
        <ele>307.6</ele>
        <time>2021-06-26T13:13:59Z</time>
      </trkpt>
      <trkpt lat="48.96925" lon="7.81068">
        <ele>307.8</ele>
        <time>2021-06-26T13:14:00Z</time>
      </trkpt>
      <trkpt lat="48.96927" lon="7.8107">
        <ele>307.8</ele>
        <time>2021-06-26T13:14:01Z</time>
      </trkpt>
      <trkpt lat="48.96928" lon="7.81071">
        <ele>308</ele>
        <time>2021-06-26T13:14:02Z</time>
      </trkpt>
      <trkpt lat="48.96929" lon="7.81073">
        <ele>308.2</ele>
        <time>2021-06-26T13:14:03Z</time>
      </trkpt>
      <trkpt lat="48.96931" lon="7.81074">
        <ele>308.4</ele>
        <time>2021-06-26T13:14:04Z</time>
      </trkpt>
      <trkpt lat="48.96933" lon="7.81076">
        <ele>308.8</ele>
        <time>2021-06-26T13:14:05Z</time>
      </trkpt>
      <trkpt lat="48.96934" lon="7.81077">
        <ele>309</ele>
        <time>2021-06-26T13:14:06Z</time>
      </trkpt>
      <trkpt lat="48.96936" lon="7.81078">
        <ele>309.2</ele>
        <time>2021-06-26T13:14:07Z</time>
      </trkpt>
      <trkpt lat="48.96938" lon="7.8108">
        <ele>309.6</ele>
        <time>2021-06-26T13:14:08Z</time>
      </trkpt>
      <trkpt lat="48.9694" lon="7.81081">
        <ele>309.8</ele>
        <time>2021-06-26T13:14:09Z</time>
      </trkpt>
      <trkpt lat="48.96942" lon="7.81082">
        <ele>310</ele>
        <time>2021-06-26T13:14:10Z</time>
      </trkpt>
      <trkpt lat="48.96944" lon="7.81084">
        <ele>310.2</ele>
        <time>2021-06-26T13:14:11Z</time>
      </trkpt>
      <trkpt lat="48.96945" lon="7.81085">
        <ele>310.4</ele>
        <time>2021-06-26T13:14:12Z</time>
      </trkpt>
      <trkpt lat="48.96947" lon="7.81087">
        <ele>310.4</ele>
        <time>2021-06-26T13:14:13Z</time>
      </trkpt>
      <trkpt lat="48.96949" lon="7.81088">
        <ele>310.6</ele>
        <time>2021-06-26T13:14:14Z</time>
      </trkpt>
      <trkpt lat="48.9695" lon="7.81089">
        <ele>310.8</ele>
        <time>2021-06-26T13:14:15Z</time>
      </trkpt>
      <trkpt lat="48.96951" lon="7.8109">
        <ele>310.8</ele>
        <time>2021-06-26T13:14:16Z</time>
      </trkpt>
      <trkpt lat="48.96952" lon="7.81091">
        <ele>311</ele>
        <time>2021-06-26T13:14:17Z</time>
      </trkpt>
      <trkpt lat="48.96953" lon="7.81092">
        <ele>311.2</ele>
        <time>2021-06-26T13:14:18Z</time>
      </trkpt>
      <trkpt lat="48.96955" lon="7.81095">
        <ele>311.4</ele>
        <time>2021-06-26T13:14:19Z</time>
      </trkpt>
      <trkpt lat="48.96956" lon="7.81097">
        <ele>311.4</ele>
        <time>2021-06-26T13:14:20Z</time>
      </trkpt>
      <trkpt lat="48.96958" lon="7.81098">
        <ele>311.4</ele>
        <time>2021-06-26T13:14:21Z</time>
      </trkpt>
      <trkpt lat="48.9696" lon="7.811">
        <ele>311.6</ele>
        <time>2021-06-26T13:14:22Z</time>
      </trkpt>
      <trkpt lat="48.96961" lon="7.81103">
        <ele>311.6</ele>
        <time>2021-06-26T13:14:23Z</time>
      </trkpt>
      <trkpt lat="48.96962" lon="7.81105">
        <ele>311.8</ele>
        <time>2021-06-26T13:14:24Z</time>
      </trkpt>
      <trkpt lat="48.96963" lon="7.81107">
        <ele>311.8</ele>
        <time>2021-06-26T13:14:25Z</time>
      </trkpt>
      <trkpt lat="48.96965" lon="7.81109">
        <ele>312</ele>
        <time>2021-06-26T13:14:26Z</time>
      </trkpt>
      <trkpt lat="48.96966" lon="7.81111">
        <ele>312.2</ele>
        <time>2021-06-26T13:14:27Z</time>
      </trkpt>
      <trkpt lat="48.96967" lon="7.81114">
        <ele>312.2</ele>
        <time>2021-06-26T13:14:28Z</time>
      </trkpt>
      <trkpt lat="48.96967" lon="7.81117">
        <ele>312.4</ele>
        <time>2021-06-26T13:14:29Z</time>
      </trkpt>
      <trkpt lat="48.96969" lon="7.81119">
        <ele>312.4</ele>
        <time>2021-06-26T13:14:30Z</time>
      </trkpt>
      <trkpt lat="48.96971" lon="7.8112">
        <ele>312.6</ele>
        <time>2021-06-26T13:14:31Z</time>
      </trkpt>
      <trkpt lat="48.96973" lon="7.81122">
        <ele>312.8</ele>
        <time>2021-06-26T13:14:32Z</time>
      </trkpt>
      <trkpt lat="48.96974" lon="7.81125">
        <ele>313</ele>
        <time>2021-06-26T13:14:33Z</time>
      </trkpt>
      <trkpt lat="48.96975" lon="7.81127">
        <ele>313</ele>
        <time>2021-06-26T13:14:34Z</time>
      </trkpt>
      <trkpt lat="48.96975" lon="7.81128">
        <ele>313.2</ele>
        <time>2021-06-26T13:14:35Z</time>
      </trkpt>
      <trkpt lat="48.96975" lon="7.81129">
        <ele>313.4</ele>
        <time>2021-06-26T13:14:36Z</time>
      </trkpt>
      <trkpt lat="48.96975" lon="7.81132">
        <ele>313.6</ele>
        <time>2021-06-26T13:14:37Z</time>
      </trkpt>
      <trkpt lat="48.96976" lon="7.81134">
        <ele>313.8</ele>
        <time>2021-06-26T13:14:38Z</time>
      </trkpt>
      <trkpt lat="48.96977" lon="7.81136">
        <ele>314</ele>
        <time>2021-06-26T13:14:39Z</time>
      </trkpt>
      <trkpt lat="48.96978" lon="7.81138">
        <ele>314.2</ele>
        <time>2021-06-26T13:14:40Z</time>
      </trkpt>
      <trkpt lat="48.96979" lon="7.8114">
        <ele>314.2</ele>
        <time>2021-06-26T13:14:41Z</time>
      </trkpt>
      <trkpt lat="48.9698" lon="7.81142">
        <ele>314.4</ele>
        <time>2021-06-26T13:14:42Z</time>
      </trkpt>
      <trkpt lat="48.96981" lon="7.81144">
        <ele>314.4</ele>
        <time>2021-06-26T13:14:43Z</time>
      </trkpt>
      <trkpt lat="48.96982" lon="7.81146">
        <ele>314.6</ele>
        <time>2021-06-26T13:14:44Z</time>
      </trkpt>
      <trkpt lat="48.96983" lon="7.81148">
        <ele>314.6</ele>
        <time>2021-06-26T13:14:45Z</time>
      </trkpt>
      <trkpt lat="48.96983" lon="7.81151">
        <ele>314.8</ele>
        <time>2021-06-26T13:14:46Z</time>
      </trkpt>
      <trkpt lat="48.96984" lon="7.81153">
        <ele>314.8</ele>
        <time>2021-06-26T13:14:47Z</time>
      </trkpt>
      <trkpt lat="48.96986" lon="7.81155">
        <ele>314.8</ele>
        <time>2021-06-26T13:14:48Z</time>
      </trkpt>
      <trkpt lat="48.96987" lon="7.81157">
        <ele>314.8</ele>
        <time>2021-06-26T13:14:49Z</time>
      </trkpt>
      <trkpt lat="48.96988" lon="7.81159">
        <ele>315</ele>
        <time>2021-06-26T13:14:50Z</time>
      </trkpt>
      <trkpt lat="48.9699" lon="7.81161">
        <ele>315</ele>
        <time>2021-06-26T13:14:51Z</time>
      </trkpt>
      <trkpt lat="48.96991" lon="7.81163">
        <ele>315</ele>
        <time>2021-06-26T13:14:52Z</time>
      </trkpt>
      <trkpt lat="48.96992" lon="7.81166">
        <ele>315</ele>
        <time>2021-06-26T13:14:53Z</time>
      </trkpt>
      <trkpt lat="48.96993" lon="7.81168">
        <ele>315.2</ele>
        <time>2021-06-26T13:14:54Z</time>
      </trkpt>
      <trkpt lat="48.96993" lon="7.8117">
        <ele>315.2</ele>
        <time>2021-06-26T13:14:55Z</time>
      </trkpt>
      <trkpt lat="48.96995" lon="7.81172">
        <ele>315.4</ele>
        <time>2021-06-26T13:14:56Z</time>
      </trkpt>
      <trkpt lat="48.96995" lon="7.81174">
        <ele>315.6</ele>
        <time>2021-06-26T13:14:57Z</time>
      </trkpt>
      <trkpt lat="48.96996" lon="7.81176">
        <ele>315.6</ele>
        <time>2021-06-26T13:14:58Z</time>
      </trkpt>
      <trkpt lat="48.96997" lon="7.81178">
        <ele>315.8</ele>
        <time>2021-06-26T13:14:59Z</time>
      </trkpt>
      <trkpt lat="48.96997" lon="7.8118">
        <ele>316</ele>
        <time>2021-06-26T13:15:00Z</time>
      </trkpt>
      <trkpt lat="48.96997" lon="7.81182">
        <ele>316</ele>
        <time>2021-06-26T13:15:01Z</time>
      </trkpt>
      <trkpt lat="48.96997" lon="7.81185">
        <ele>316.2</ele>
        <time>2021-06-26T13:15:02Z</time>
      </trkpt>
      <trkpt lat="48.96999" lon="7.81188">
        <ele>316.2</ele>
        <time>2021-06-26T13:15:03Z</time>
      </trkpt>
      <trkpt lat="48.96999" lon="7.81192">
        <ele>316.4</ele>
        <time>2021-06-26T13:15:04Z</time>
      </trkpt>
      <trkpt lat="48.97" lon="7.81194">
        <ele>316.6</ele>
        <time>2021-06-26T13:15:05Z</time>
      </trkpt>
      <trkpt lat="48.97001" lon="7.81195">
        <ele>316.8</ele>
        <time>2021-06-26T13:15:06Z</time>
      </trkpt>
      <trkpt lat="48.97002" lon="7.81196">
        <ele>317</ele>
        <time>2021-06-26T13:15:07Z</time>
      </trkpt>
      <trkpt lat="48.97004" lon="7.81198">
        <ele>317</ele>
        <time>2021-06-26T13:15:08Z</time>
      </trkpt>
      <trkpt lat="48.97003" lon="7.812">
        <ele>317.2</ele>
        <time>2021-06-26T13:15:09Z</time>
      </trkpt>
      <trkpt lat="48.97004" lon="7.81202">
        <ele>317.4</ele>
        <time>2021-06-26T13:15:10Z</time>
      </trkpt>
      <trkpt lat="48.97005" lon="7.81204">
        <ele>317.4</ele>
        <time>2021-06-26T13:15:11Z</time>
      </trkpt>
      <trkpt lat="48.97006" lon="7.81207">
        <ele>317.6</ele>
        <time>2021-06-26T13:15:12Z</time>
      </trkpt>
      <trkpt lat="48.97007" lon="7.81208">
        <ele>317.6</ele>
        <time>2021-06-26T13:15:13Z</time>
      </trkpt>
      <trkpt lat="48.97009" lon="7.81208">
        <ele>317.8</ele>
        <time>2021-06-26T13:15:14Z</time>
      </trkpt>
      <trkpt lat="48.97011" lon="7.81211">
        <ele>317.8</ele>
        <time>2021-06-26T13:15:15Z</time>
      </trkpt>
      <trkpt lat="48.97012" lon="7.81214">
        <ele>318</ele>
        <time>2021-06-26T13:15:16Z</time>
      </trkpt>
      <trkpt lat="48.97014" lon="7.81215">
        <ele>318</ele>
        <time>2021-06-26T13:15:17Z</time>
      </trkpt>
      <trkpt lat="48.97015" lon="7.81218">
        <ele>318.2</ele>
        <time>2021-06-26T13:15:18Z</time>
      </trkpt>
      <trkpt lat="48.97016" lon="7.81222">
        <ele>318.2</ele>
        <time>2021-06-26T13:15:19Z</time>
      </trkpt>
      <trkpt lat="48.97016" lon="7.81227">
        <ele>318.2</ele>
        <time>2021-06-26T13:15:20Z</time>
      </trkpt>
      <trkpt lat="48.97016" lon="7.81229">
        <ele>318.4</ele>
        <time>2021-06-26T13:15:21Z</time>
      </trkpt>
      <trkpt lat="48.97018" lon="7.8123">
        <ele>318.4</ele>
        <time>2021-06-26T13:15:22Z</time>
      </trkpt>
      <trkpt lat="48.97018" lon="7.81231">
        <ele>318.6</ele>
        <time>2021-06-26T13:15:23Z</time>
      </trkpt>
      <trkpt lat="48.97019" lon="7.81233">
        <ele>318.6</ele>
        <time>2021-06-26T13:15:24Z</time>
      </trkpt>
      <trkpt lat="48.9702" lon="7.81233">
        <ele>318.8</ele>
        <time>2021-06-26T13:15:25Z</time>
      </trkpt>
      <trkpt lat="48.97022" lon="7.81235">
        <ele>318.8</ele>
        <time>2021-06-26T13:15:26Z</time>
      </trkpt>
      <trkpt lat="48.97023" lon="7.81237">
        <ele>319</ele>
        <time>2021-06-26T13:15:27Z</time>
      </trkpt>
      <trkpt lat="48.97024" lon="7.81238">
        <ele>319</ele>
        <time>2021-06-26T13:15:28Z</time>
      </trkpt>
      <trkpt lat="48.97025" lon="7.8124">
        <ele>319.2</ele>
        <time>2021-06-26T13:15:29Z</time>
      </trkpt>
      <trkpt lat="48.97026" lon="7.81242">
        <ele>319.2</ele>
        <time>2021-06-26T13:15:30Z</time>
      </trkpt>
      <trkpt lat="48.97026" lon="7.81244">
        <ele>319.4</ele>
        <time>2021-06-26T13:15:31Z</time>
      </trkpt>
      <trkpt lat="48.97027" lon="7.81245">
        <ele>319.6</ele>
        <time>2021-06-26T13:15:32Z</time>
      </trkpt>
      <trkpt lat="48.97028" lon="7.81247">
        <ele>319.8</ele>
        <time>2021-06-26T13:15:33Z</time>
      </trkpt>
      <trkpt lat="48.97029" lon="7.81249">
        <ele>319.8</ele>
        <time>2021-06-26T13:15:34Z</time>
      </trkpt>
      <trkpt lat="48.97029" lon="7.81252">
        <ele>320</ele>
        <time>2021-06-26T13:15:35Z</time>
      </trkpt>
      <trkpt lat="48.97031" lon="7.81254">
        <ele>320</ele>
        <time>2021-06-26T13:15:36Z</time>
      </trkpt>
      <trkpt lat="48.97032" lon="7.81256">
        <ele>320.2</ele>
        <time>2021-06-26T13:15:37Z</time>
      </trkpt>
      <trkpt lat="48.97033" lon="7.81258">
        <ele>320.4</ele>
        <time>2021-06-26T13:15:38Z</time>
      </trkpt>
      <trkpt lat="48.97034" lon="7.8126">
        <ele>320.4</ele>
        <time>2021-06-26T13:15:39Z</time>
      </trkpt>
      <trkpt lat="48.97035" lon="7.81262">
        <ele>320.6</ele>
        <time>2021-06-26T13:15:40Z</time>
      </trkpt>
      <trkpt lat="48.97037" lon="7.81264">
        <ele>320.8</ele>
        <time>2021-06-26T13:15:41Z</time>
      </trkpt>
      <trkpt lat="48.97038" lon="7.81266">
        <ele>320.8</ele>
        <time>2021-06-26T13:15:42Z</time>
      </trkpt>
      <trkpt lat="48.97039" lon="7.81267">
        <ele>321</ele>
        <time>2021-06-26T13:15:43Z</time>
      </trkpt>
      <trkpt lat="48.97041" lon="7.81269">
        <ele>321.2</ele>
        <time>2021-06-26T13:15:44Z</time>
      </trkpt>
      <trkpt lat="48.97042" lon="7.81271">
        <ele>321.2</ele>
        <time>2021-06-26T13:15:45Z</time>
      </trkpt>
      <trkpt lat="48.97043" lon="7.81273">
        <ele>321.2</ele>
        <time>2021-06-26T13:15:46Z</time>
      </trkpt>
      <trkpt lat="48.97044" lon="7.81276">
        <ele>321.2</ele>
        <time>2021-06-26T13:15:47Z</time>
      </trkpt>
      <trkpt lat="48.97045" lon="7.81278">
        <ele>321.4</ele>
        <time>2021-06-26T13:15:48Z</time>
      </trkpt>
      <trkpt lat="48.97047" lon="7.8128">
        <ele>321.4</ele>
        <time>2021-06-26T13:15:49Z</time>
      </trkpt>
      <trkpt lat="48.97048" lon="7.81282">
        <ele>321.4</ele>
        <time>2021-06-26T13:15:50Z</time>
      </trkpt>
      <trkpt lat="48.97049" lon="7.81284">
        <ele>321.6</ele>
        <time>2021-06-26T13:15:51Z</time>
      </trkpt>
      <trkpt lat="48.9705" lon="7.81286">
        <ele>321.6</ele>
        <time>2021-06-26T13:15:52Z</time>
      </trkpt>
      <trkpt lat="48.97052" lon="7.81288">
        <ele>321.8</ele>
        <time>2021-06-26T13:15:53Z</time>
      </trkpt>
      <trkpt lat="48.97053" lon="7.8129">
        <ele>321.8</ele>
        <time>2021-06-26T13:15:54Z</time>
      </trkpt>
      <trkpt lat="48.97054" lon="7.81291">
        <ele>321.8</ele>
        <time>2021-06-26T13:15:55Z</time>
      </trkpt>
      <trkpt lat="48.97055" lon="7.81293">
        <ele>321.8</ele>
        <time>2021-06-26T13:15:56Z</time>
      </trkpt>
      <trkpt lat="48.97058" lon="7.81297">
        <ele>322.2</ele>
        <time>2021-06-26T13:15:58Z</time>
      </trkpt>
      <trkpt lat="48.97059" lon="7.81299">
        <ele>322.2</ele>
        <time>2021-06-26T13:15:59Z</time>
      </trkpt>
      <trkpt lat="48.9706" lon="7.81302">
        <ele>322.4</ele>
        <time>2021-06-26T13:16:00Z</time>
      </trkpt>
      <trkpt lat="48.97065" lon="7.81313">
        <ele>322.8</ele>
        <time>2021-06-26T13:16:04Z</time>
      </trkpt>
      <trkpt lat="48.97068" lon="7.81317">
        <ele>323</ele>
        <time>2021-06-26T13:16:06Z</time>
      </trkpt>
      <trkpt lat="48.9707" lon="7.81322">
        <ele>323.4</ele>
        <time>2021-06-26T13:16:08Z</time>
      </trkpt>
      <trkpt lat="48.97071" lon="7.81324">
        <ele>323.4</ele>
        <time>2021-06-26T13:16:09Z</time>
      </trkpt>
      <trkpt lat="48.97072" lon="7.81326">
        <ele>323.6</ele>
        <time>2021-06-26T13:16:10Z</time>
      </trkpt>
      <trkpt lat="48.97073" lon="7.81327">
        <ele>323.6</ele>
        <time>2021-06-26T13:16:11Z</time>
      </trkpt>
      <trkpt lat="48.97073" lon="7.81329">
        <ele>323.8</ele>
        <time>2021-06-26T13:16:12Z</time>
      </trkpt>
      <trkpt lat="48.97074" lon="7.81331">
        <ele>323.8</ele>
        <time>2021-06-26T13:16:13Z</time>
      </trkpt>
      <trkpt lat="48.97075" lon="7.81334">
        <ele>324</ele>
        <time>2021-06-26T13:16:14Z</time>
      </trkpt>
      <trkpt lat="48.97076" lon="7.81337">
        <ele>323.8</ele>
        <time>2021-06-26T13:16:15Z</time>
      </trkpt>
      <trkpt lat="48.97078" lon="7.81341">
        <ele>323.8</ele>
        <time>2021-06-26T13:16:16Z</time>
      </trkpt>
      <trkpt lat="48.9708" lon="7.81343">
        <ele>324</ele>
        <time>2021-06-26T13:16:17Z</time>
      </trkpt>
      <trkpt lat="48.9708" lon="7.81345">
        <ele>324</ele>
        <time>2021-06-26T13:16:18Z</time>
      </trkpt>
      <trkpt lat="48.97081" lon="7.81348">
        <ele>324</ele>
        <time>2021-06-26T13:16:19Z</time>
      </trkpt>
      <trkpt lat="48.97082" lon="7.81351">
        <ele>324.2</ele>
        <time>2021-06-26T13:16:20Z</time>
      </trkpt>
      <trkpt lat="48.97082" lon="7.81354">
        <ele>324.4</ele>
        <time>2021-06-26T13:16:21Z</time>
      </trkpt>
      <trkpt lat="48.97083" lon="7.81356">
        <ele>324.4</ele>
        <time>2021-06-26T13:16:22Z</time>
      </trkpt>
      <trkpt lat="48.97085" lon="7.8136">
        <ele>324.4</ele>
        <time>2021-06-26T13:16:23Z</time>
      </trkpt>
      <trkpt lat="48.97086" lon="7.81363">
        <ele>324.6</ele>
        <time>2021-06-26T13:16:24Z</time>
      </trkpt>
      <trkpt lat="48.97089" lon="7.81365">
        <ele>324.8</ele>
        <time>2021-06-26T13:16:25Z</time>
      </trkpt>
      <trkpt lat="48.97094" lon="7.81375">
        <ele>325.2</ele>
        <time>2021-06-26T13:16:28Z</time>
      </trkpt>
      <trkpt lat="48.97096" lon="7.8138">
        <ele>325.2</ele>
        <time>2021-06-26T13:16:30Z</time>
      </trkpt>
      <trkpt lat="48.97097" lon="7.81383">
        <ele>325.4</ele>
        <time>2021-06-26T13:16:31Z</time>
      </trkpt>
      <trkpt lat="48.97097" lon="7.81386">
        <ele>325.4</ele>
        <time>2021-06-26T13:16:32Z</time>
      </trkpt>
      <trkpt lat="48.97098" lon="7.8139">
        <ele>325.6</ele>
        <time>2021-06-26T13:16:33Z</time>
      </trkpt>
      <trkpt lat="48.97105" lon="7.81395">
        <ele>325.8</ele>
        <time>2021-06-26T13:16:37Z</time>
      </trkpt>
      <trkpt lat="48.97111" lon="7.81406">
        <ele>326.2</ele>
        <time>2021-06-26T13:16:42Z</time>
      </trkpt>
      <trkpt lat="48.9712" lon="7.81425">
        <ele>326.8</ele>
        <time>2021-06-26T13:16:49Z</time>
      </trkpt>
      <trkpt lat="48.97125" lon="7.81433">
        <ele>326.8</ele>
        <time>2021-06-26T13:16:52Z</time>
      </trkpt>
      <trkpt lat="48.97128" lon="7.8144">
        <ele>327</ele>
        <time>2021-06-26T13:16:55Z</time>
      </trkpt>
      <trkpt lat="48.97136" lon="7.81458">
        <ele>327.4</ele>
        <time>2021-06-26T13:17:01Z</time>
      </trkpt>
      <trkpt lat="48.97138" lon="7.81463">
        <ele>327.6</ele>
        <time>2021-06-26T13:17:03Z</time>
      </trkpt>
      <trkpt lat="48.9714" lon="7.81469">
        <ele>327.6</ele>
        <time>2021-06-26T13:17:05Z</time>
      </trkpt>
      <trkpt lat="48.97141" lon="7.81472">
        <ele>327.8</ele>
        <time>2021-06-26T13:17:06Z</time>
      </trkpt>
      <trkpt lat="48.97142" lon="7.81475">
        <ele>327.8</ele>
        <time>2021-06-26T13:17:07Z</time>
      </trkpt>
      <trkpt lat="48.97146" lon="7.8148">
        <ele>327.8</ele>
        <time>2021-06-26T13:17:09Z</time>
      </trkpt>
      <trkpt lat="48.97148" lon="7.81488">
        <ele>328</ele>
        <time>2021-06-26T13:17:11Z</time>
      </trkpt>
      <trkpt lat="48.97152" lon="7.81496">
        <ele>328.4</ele>
        <time>2021-06-26T13:17:14Z</time>
      </trkpt>
      <trkpt lat="48.97154" lon="7.81497">
        <ele>328.4</ele>
        <time>2021-06-26T13:17:15Z</time>
      </trkpt>
      <trkpt lat="48.97156" lon="7.81499">
        <ele>328.4</ele>
        <time>2021-06-26T13:17:16Z</time>
      </trkpt>
      <trkpt lat="48.97157" lon="7.81503">
        <ele>328.6</ele>
        <time>2021-06-26T13:17:17Z</time>
      </trkpt>
      <trkpt lat="48.97159" lon="7.81507">
        <ele>328.6</ele>
        <time>2021-06-26T13:17:18Z</time>
      </trkpt>
      <trkpt lat="48.9716" lon="7.81509">
        <ele>328.8</ele>
        <time>2021-06-26T13:17:19Z</time>
      </trkpt>
      <trkpt lat="48.97163" lon="7.81513">
        <ele>329</ele>
        <time>2021-06-26T13:17:21Z</time>
      </trkpt>
      <trkpt lat="48.97169" lon="7.81526">
        <ele>329.2</ele>
        <time>2021-06-26T13:17:26Z</time>
      </trkpt>
      <trkpt lat="48.97175" lon="7.81542">
        <ele>329.4</ele>
        <time>2021-06-26T13:17:31Z</time>
      </trkpt>
      <trkpt lat="48.97183" lon="7.81559">
        <ele>330</ele>
        <time>2021-06-26T13:17:37Z</time>
      </trkpt>
      <trkpt lat="48.97184" lon="7.81561">
        <ele>330.2</ele>
        <time>2021-06-26T13:17:38Z</time>
      </trkpt>
      <trkpt lat="48.97184" lon="7.81562">
        <ele>330.2</ele>
        <time>2021-06-26T13:17:39Z</time>
      </trkpt>
      <trkpt lat="48.97184" lon="7.81562">
        <ele>330.4</ele>
        <time>2021-06-26T13:17:41Z</time>
      </trkpt>
      <trkpt lat="48.97184" lon="7.81564">
        <ele>330.8</ele>
        <time>2021-06-26T13:17:46Z</time>
      </trkpt>
      <trkpt lat="48.97183" lon="7.81569">
        <ele>331</ele>
        <time>2021-06-26T13:17:48Z</time>
      </trkpt>
      <trkpt lat="48.97184" lon="7.81571">
        <ele>331</ele>
        <time>2021-06-26T13:17:49Z</time>
      </trkpt>
      <trkpt lat="48.97189" lon="7.81577">
        <ele>331</ele>
        <time>2021-06-26T13:17:52Z</time>
      </trkpt>
      <trkpt lat="48.97191" lon="7.8158">
        <ele>331</ele>
        <time>2021-06-26T13:17:53Z</time>
      </trkpt>
      <trkpt lat="48.97192" lon="7.81583">
        <ele>331</ele>
        <time>2021-06-26T13:17:54Z</time>
      </trkpt>
      <trkpt lat="48.97194" lon="7.81586">
        <ele>331</ele>
        <time>2021-06-26T13:17:55Z</time>
      </trkpt>
      <trkpt lat="48.97195" lon="7.8159">
        <ele>331</ele>
        <time>2021-06-26T13:17:56Z</time>
      </trkpt>
      <trkpt lat="48.97197" lon="7.81592">
        <ele>331</ele>
        <time>2021-06-26T13:17:57Z</time>
      </trkpt>
      <trkpt lat="48.972" lon="7.81597">
        <ele>331.2</ele>
        <time>2021-06-26T13:17:59Z</time>
      </trkpt>
      <trkpt lat="48.97205" lon="7.81606">
        <ele>331.2</ele>
        <time>2021-06-26T13:18:03Z</time>
      </trkpt>
      <trkpt lat="48.97208" lon="7.81611">
        <ele>331.4</ele>
        <time>2021-06-26T13:18:05Z</time>
      </trkpt>
      <trkpt lat="48.97213" lon="7.81618">
        <ele>331.4</ele>
        <time>2021-06-26T13:18:07Z</time>
      </trkpt>
      <trkpt lat="48.97227" lon="7.81634">
        <ele>331.8</ele>
        <time>2021-06-26T13:18:11Z</time>
      </trkpt>
      <trkpt lat="48.9723" lon="7.81639">
        <ele>332.2</ele>
        <time>2021-06-26T13:18:12Z</time>
      </trkpt>
      <trkpt lat="48.97245" lon="7.81664">
        <ele>332.8</ele>
        <time>2021-06-26T13:18:16Z</time>
      </trkpt>
      <trkpt lat="48.97248" lon="7.81672">
        <ele>333</ele>
        <time>2021-06-26T13:18:17Z</time>
      </trkpt>
      <trkpt lat="48.97251" lon="7.81678">
        <ele>333.4</ele>
        <time>2021-06-26T13:18:18Z</time>
      </trkpt>
      <trkpt lat="48.97254" lon="7.81685">
        <ele>333.8</ele>
        <time>2021-06-26T13:18:19Z</time>
      </trkpt>
      <trkpt lat="48.97254" lon="7.8169">
        <ele>334</ele>
        <time>2021-06-26T13:18:20Z</time>
      </trkpt>
      <trkpt lat="48.97255" lon="7.81696">
        <ele>334.2</ele>
        <time>2021-06-26T13:18:21Z</time>
      </trkpt>
      <trkpt lat="48.97257" lon="7.81701">
        <ele>334.4</ele>
        <time>2021-06-26T13:18:22Z</time>
      </trkpt>
      <trkpt lat="48.97258" lon="7.81704">
        <ele>334.6</ele>
        <time>2021-06-26T13:18:23Z</time>
      </trkpt>
      <trkpt lat="48.97258" lon="7.81707">
        <ele>334.8</ele>
        <time>2021-06-26T13:18:24Z</time>
      </trkpt>
      <trkpt lat="48.9726" lon="7.8171">
        <ele>335.2</ele>
        <time>2021-06-26T13:18:25Z</time>
      </trkpt>
      <trkpt lat="48.97261" lon="7.81712">
        <ele>335.6</ele>
        <time>2021-06-26T13:18:26Z</time>
      </trkpt>
      <trkpt lat="48.97262" lon="7.81715">
        <ele>336</ele>
        <time>2021-06-26T13:18:27Z</time>
      </trkpt>
      <trkpt lat="48.97263" lon="7.81718">
        <ele>336.6</ele>
        <time>2021-06-26T13:18:28Z</time>
      </trkpt>
      <trkpt lat="48.97264" lon="7.81721">
        <ele>337</ele>
        <time>2021-06-26T13:18:29Z</time>
      </trkpt>
      <trkpt lat="48.97264" lon="7.81723">
        <ele>337.6</ele>
        <time>2021-06-26T13:18:30Z</time>
      </trkpt>
      <trkpt lat="48.97266" lon="7.81726">
        <ele>338.4</ele>
        <time>2021-06-26T13:18:31Z</time>
      </trkpt>
      <trkpt lat="48.97267" lon="7.81729">
        <ele>338.8</ele>
        <time>2021-06-26T13:18:32Z</time>
      </trkpt>
      <trkpt lat="48.97269" lon="7.81731">
        <ele>339.4</ele>
        <time>2021-06-26T13:18:33Z</time>
      </trkpt>
      <trkpt lat="48.9727" lon="7.81734">
        <ele>339.6</ele>
        <time>2021-06-26T13:18:34Z</time>
      </trkpt>
      <trkpt lat="48.97271" lon="7.81736">
        <ele>339.8</ele>
        <time>2021-06-26T13:18:35Z</time>
      </trkpt>
      <trkpt lat="48.97273" lon="7.81738">
        <ele>340</ele>
        <time>2021-06-26T13:18:36Z</time>
      </trkpt>
      <trkpt lat="48.97273" lon="7.81741">
        <ele>340</ele>
        <time>2021-06-26T13:18:37Z</time>
      </trkpt>
      <trkpt lat="48.97275" lon="7.81743">
        <ele>340</ele>
        <time>2021-06-26T13:18:38Z</time>
      </trkpt>
      <trkpt lat="48.97276" lon="7.81746">
        <ele>340.2</ele>
        <time>2021-06-26T13:18:39Z</time>
      </trkpt>
      <trkpt lat="48.97276" lon="7.81748">
        <ele>340.4</ele>
        <time>2021-06-26T13:18:40Z</time>
      </trkpt>
      <trkpt lat="48.97277" lon="7.8175">
        <ele>340.4</ele>
        <time>2021-06-26T13:18:41Z</time>
      </trkpt>
      <trkpt lat="48.97278" lon="7.81753">
        <ele>340.4</ele>
        <time>2021-06-26T13:18:42Z</time>
      </trkpt>
      <trkpt lat="48.9728" lon="7.81756">
        <ele>340.6</ele>
        <time>2021-06-26T13:18:43Z</time>
      </trkpt>
      <trkpt lat="48.97281" lon="7.81759">
        <ele>340.6</ele>
        <time>2021-06-26T13:18:44Z</time>
      </trkpt>
      <trkpt lat="48.97284" lon="7.81762">
        <ele>340.8</ele>
        <time>2021-06-26T13:18:45Z</time>
      </trkpt>
      <trkpt lat="48.97285" lon="7.81765">
        <ele>341</ele>
        <time>2021-06-26T13:18:46Z</time>
      </trkpt>
      <trkpt lat="48.97285" lon="7.81765">
        <ele>341</ele>
        <time>2021-06-26T13:18:47Z</time>
      </trkpt>
      <trkpt lat="48.97286" lon="7.81768">
        <ele>341.2</ele>
        <time>2021-06-26T13:18:48Z</time>
      </trkpt>
      <trkpt lat="48.97288" lon="7.81771">
        <ele>341.4</ele>
        <time>2021-06-26T13:18:49Z</time>
      </trkpt>
      <trkpt lat="48.97289" lon="7.81773">
        <ele>341.4</ele>
        <time>2021-06-26T13:18:50Z</time>
      </trkpt>
      <trkpt lat="48.97291" lon="7.81776">
        <ele>341.6</ele>
        <time>2021-06-26T13:18:51Z</time>
      </trkpt>
      <trkpt lat="48.97293" lon="7.81778">
        <ele>341.8</ele>
        <time>2021-06-26T13:18:52Z</time>
      </trkpt>
      <trkpt lat="48.97295" lon="7.81779">
        <ele>342</ele>
        <time>2021-06-26T13:18:53Z</time>
      </trkpt>
      <trkpt lat="48.97297" lon="7.81782">
        <ele>342</ele>
        <time>2021-06-26T13:18:54Z</time>
      </trkpt>
      <trkpt lat="48.973" lon="7.81784">
        <ele>342</ele>
        <time>2021-06-26T13:18:55Z</time>
      </trkpt>
      <trkpt lat="48.973" lon="7.81786">
        <ele>342.2</ele>
        <time>2021-06-26T13:18:56Z</time>
      </trkpt>
      <trkpt lat="48.973" lon="7.81789">
        <ele>342.4</ele>
        <time>2021-06-26T13:18:57Z</time>
      </trkpt>
      <trkpt lat="48.973" lon="7.81791">
        <ele>342.4</ele>
        <time>2021-06-26T13:18:58Z</time>
      </trkpt>
      <trkpt lat="48.97301" lon="7.81793">
        <ele>342.6</ele>
        <time>2021-06-26T13:18:59Z</time>
      </trkpt>
      <trkpt lat="48.97302" lon="7.81795">
        <ele>342.6</ele>
        <time>2021-06-26T13:19:00Z</time>
      </trkpt>
      <trkpt lat="48.97304" lon="7.81798">
        <ele>342.8</ele>
        <time>2021-06-26T13:19:01Z</time>
      </trkpt>
      <trkpt lat="48.97306" lon="7.818">
        <ele>342.8</ele>
        <time>2021-06-26T13:19:02Z</time>
      </trkpt>
      <trkpt lat="48.97308" lon="7.81804">
        <ele>342.8</ele>
        <time>2021-06-26T13:19:03Z</time>
      </trkpt>
      <trkpt lat="48.9731" lon="7.81806">
        <ele>343</ele>
        <time>2021-06-26T13:19:04Z</time>
      </trkpt>
      <trkpt lat="48.97311" lon="7.81808">
        <ele>343.2</ele>
        <time>2021-06-26T13:19:05Z</time>
      </trkpt>
      <trkpt lat="48.97312" lon="7.8181">
        <ele>343.2</ele>
        <time>2021-06-26T13:19:06Z</time>
      </trkpt>
      <trkpt lat="48.97313" lon="7.81813">
        <ele>343.4</ele>
        <time>2021-06-26T13:19:07Z</time>
      </trkpt>
      <trkpt lat="48.97314" lon="7.81817">
        <ele>343.6</ele>
        <time>2021-06-26T13:19:08Z</time>
      </trkpt>
      <trkpt lat="48.97316" lon="7.81819">
        <ele>343.8</ele>
        <time>2021-06-26T13:19:09Z</time>
      </trkpt>
      <trkpt lat="48.97317" lon="7.81821">
        <ele>344</ele>
        <time>2021-06-26T13:19:10Z</time>
      </trkpt>
      <trkpt lat="48.97318" lon="7.81824">
        <ele>344</ele>
        <time>2021-06-26T13:19:11Z</time>
      </trkpt>
      <trkpt lat="48.97319" lon="7.81825">
        <ele>344.2</ele>
        <time>2021-06-26T13:19:12Z</time>
      </trkpt>
      <trkpt lat="48.9732" lon="7.81827">
        <ele>344.4</ele>
        <time>2021-06-26T13:19:13Z</time>
      </trkpt>
      <trkpt lat="48.97322" lon="7.81829">
        <ele>344.4</ele>
        <time>2021-06-26T13:19:14Z</time>
      </trkpt>
      <trkpt lat="48.97323" lon="7.8183">
        <ele>344.4</ele>
        <time>2021-06-26T13:19:15Z</time>
      </trkpt>
      <trkpt lat="48.97323" lon="7.81831">
        <ele>344.6</ele>
        <time>2021-06-26T13:19:16Z</time>
      </trkpt>
      <trkpt lat="48.97324" lon="7.81833">
        <ele>344.8</ele>
        <time>2021-06-26T13:19:17Z</time>
      </trkpt>
      <trkpt lat="48.97325" lon="7.81835">
        <ele>345</ele>
        <time>2021-06-26T13:19:18Z</time>
      </trkpt>
      <trkpt lat="48.97327" lon="7.81836">
        <ele>345</ele>
        <time>2021-06-26T13:19:19Z</time>
      </trkpt>
      <trkpt lat="48.97329" lon="7.81837">
        <ele>345.4</ele>
        <time>2021-06-26T13:19:20Z</time>
      </trkpt>
      <trkpt lat="48.9733" lon="7.81839">
        <ele>345.4</ele>
        <time>2021-06-26T13:19:21Z</time>
      </trkpt>
      <trkpt lat="48.97331" lon="7.8184">
        <ele>345.6</ele>
        <time>2021-06-26T13:19:22Z</time>
      </trkpt>
      <trkpt lat="48.97333" lon="7.81841">
        <ele>345.8</ele>
        <time>2021-06-26T13:19:23Z</time>
      </trkpt>
      <trkpt lat="48.97334" lon="7.81843">
        <ele>346</ele>
        <time>2021-06-26T13:19:24Z</time>
      </trkpt>
      <trkpt lat="48.97335" lon="7.81844">
        <ele>346.2</ele>
        <time>2021-06-26T13:19:25Z</time>
      </trkpt>
      <trkpt lat="48.97337" lon="7.81846">
        <ele>346.4</ele>
        <time>2021-06-26T13:19:26Z</time>
      </trkpt>
      <trkpt lat="48.97338" lon="7.81847">
        <ele>346.4</ele>
        <time>2021-06-26T13:19:27Z</time>
      </trkpt>
      <trkpt lat="48.9734" lon="7.81848">
        <ele>346.6</ele>
        <time>2021-06-26T13:19:28Z</time>
      </trkpt>
      <trkpt lat="48.97341" lon="7.81849">
        <ele>346.6</ele>
        <time>2021-06-26T13:19:29Z</time>
      </trkpt>
      <trkpt lat="48.97343" lon="7.8185">
        <ele>346.8</ele>
        <time>2021-06-26T13:19:30Z</time>
      </trkpt>
      <trkpt lat="48.97345" lon="7.81851">
        <ele>346.8</ele>
        <time>2021-06-26T13:19:31Z</time>
      </trkpt>
      <trkpt lat="48.97346" lon="7.81851">
        <ele>347</ele>
        <time>2021-06-26T13:19:32Z</time>
      </trkpt>
      <trkpt lat="48.97348" lon="7.81852">
        <ele>347</ele>
        <time>2021-06-26T13:19:33Z</time>
      </trkpt>
      <trkpt lat="48.9735" lon="7.81854">
        <ele>347.2</ele>
        <time>2021-06-26T13:19:34Z</time>
      </trkpt>
      <trkpt lat="48.97351" lon="7.81855">
        <ele>347.4</ele>
        <time>2021-06-26T13:19:35Z</time>
      </trkpt>
      <trkpt lat="48.97352" lon="7.81857">
        <ele>347.6</ele>
        <time>2021-06-26T13:19:36Z</time>
      </trkpt>
      <trkpt lat="48.97353" lon="7.81858">
        <ele>348</ele>
        <time>2021-06-26T13:19:37Z</time>
      </trkpt>
      <trkpt lat="48.97355" lon="7.81858">
        <ele>347.8</ele>
        <time>2021-06-26T13:19:38Z</time>
      </trkpt>
      <trkpt lat="48.97357" lon="7.8186">
        <ele>348.2</ele>
        <time>2021-06-26T13:19:39Z</time>
      </trkpt>
      <trkpt lat="48.97359" lon="7.8186">
        <ele>348.4</ele>
        <time>2021-06-26T13:19:40Z</time>
      </trkpt>
      <trkpt lat="48.97361" lon="7.81861">
        <ele>348.4</ele>
        <time>2021-06-26T13:19:41Z</time>
      </trkpt>
      <trkpt lat="48.97363" lon="7.81861">
        <ele>348.6</ele>
        <time>2021-06-26T13:19:42Z</time>
      </trkpt>
      <trkpt lat="48.97365" lon="7.81861">
        <ele>348.6</ele>
        <time>2021-06-26T13:19:43Z</time>
      </trkpt>
      <trkpt lat="48.97366" lon="7.81863">
        <ele>348.8</ele>
        <time>2021-06-26T13:19:44Z</time>
      </trkpt>
      <trkpt lat="48.97369" lon="7.81864">
        <ele>348.8</ele>
        <time>2021-06-26T13:19:45Z</time>
      </trkpt>
      <trkpt lat="48.97371" lon="7.81866">
        <ele>348.8</ele>
        <time>2021-06-26T13:19:46Z</time>
      </trkpt>
      <trkpt lat="48.97374" lon="7.81868">
        <ele>349</ele>
        <time>2021-06-26T13:19:47Z</time>
      </trkpt>
      <trkpt lat="48.97376" lon="7.8187">
        <ele>349.2</ele>
        <time>2021-06-26T13:19:48Z</time>
      </trkpt>
      <trkpt lat="48.97377" lon="7.81872">
        <ele>349.4</ele>
        <time>2021-06-26T13:19:49Z</time>
      </trkpt>
      <trkpt lat="48.97379" lon="7.81873">
        <ele>349.6</ele>
        <time>2021-06-26T13:19:50Z</time>
      </trkpt>
      <trkpt lat="48.9738" lon="7.81874">
        <ele>349.8</ele>
        <time>2021-06-26T13:19:51Z</time>
      </trkpt>
      <trkpt lat="48.97382" lon="7.81874">
        <ele>350.2</ele>
        <time>2021-06-26T13:19:52Z</time>
      </trkpt>
      <trkpt lat="48.97384" lon="7.81874">
        <ele>350.4</ele>
        <time>2021-06-26T13:19:53Z</time>
      </trkpt>
      <trkpt lat="48.97386" lon="7.81875">
        <ele>350.6</ele>
        <time>2021-06-26T13:19:54Z</time>
      </trkpt>
      <trkpt lat="48.97387" lon="7.81876">
        <ele>350.8</ele>
        <time>2021-06-26T13:19:55Z</time>
      </trkpt>
      <trkpt lat="48.97389" lon="7.81877">
        <ele>350.8</ele>
        <time>2021-06-26T13:19:56Z</time>
      </trkpt>
      <trkpt lat="48.97392" lon="7.81878">
        <ele>351</ele>
        <time>2021-06-26T13:19:57Z</time>
      </trkpt>
      <trkpt lat="48.97394" lon="7.81878">
        <ele>351.2</ele>
        <time>2021-06-26T13:19:58Z</time>
      </trkpt>
      <trkpt lat="48.97396" lon="7.81878">
        <ele>351.2</ele>
        <time>2021-06-26T13:19:59Z</time>
      </trkpt>
      <trkpt lat="48.97398" lon="7.81879">
        <ele>351.4</ele>
        <time>2021-06-26T13:20:00Z</time>
      </trkpt>
      <trkpt lat="48.97399" lon="7.81879">
        <ele>351.6</ele>
        <time>2021-06-26T13:20:01Z</time>
      </trkpt>
      <trkpt lat="48.97401" lon="7.81879">
        <ele>351.8</ele>
        <time>2021-06-26T13:20:02Z</time>
      </trkpt>
      <trkpt lat="48.97403" lon="7.81878">
        <ele>352</ele>
        <time>2021-06-26T13:20:03Z</time>
      </trkpt>
      <trkpt lat="48.97405" lon="7.81878">
        <ele>352</ele>
        <time>2021-06-26T13:20:04Z</time>
      </trkpt>
      <trkpt lat="48.97407" lon="7.81879">
        <ele>352.2</ele>
        <time>2021-06-26T13:20:05Z</time>
      </trkpt>
      <trkpt lat="48.97408" lon="7.81879">
        <ele>352.4</ele>
        <time>2021-06-26T13:20:06Z</time>
      </trkpt>
      <trkpt lat="48.9741" lon="7.8188">
        <ele>352.6</ele>
        <time>2021-06-26T13:20:07Z</time>
      </trkpt>
      <trkpt lat="48.97412" lon="7.8188">
        <ele>352.6</ele>
        <time>2021-06-26T13:20:08Z</time>
      </trkpt>
      <trkpt lat="48.97414" lon="7.81879">
        <ele>352.8</ele>
        <time>2021-06-26T13:20:09Z</time>
      </trkpt>
      <trkpt lat="48.97415" lon="7.81878">
        <ele>353</ele>
        <time>2021-06-26T13:20:10Z</time>
      </trkpt>
      <trkpt lat="48.97417" lon="7.81877">
        <ele>353.2</ele>
        <time>2021-06-26T13:20:11Z</time>
      </trkpt>
      <trkpt lat="48.97418" lon="7.81876">
        <ele>353.4</ele>
        <time>2021-06-26T13:20:12Z</time>
      </trkpt>
      <trkpt lat="48.9742" lon="7.81874">
        <ele>353.4</ele>
        <time>2021-06-26T13:20:13Z</time>
      </trkpt>
      <trkpt lat="48.97422" lon="7.81873">
        <ele>353.6</ele>
        <time>2021-06-26T13:20:14Z</time>
      </trkpt>
      <trkpt lat="48.97423" lon="7.81873">
        <ele>353.6</ele>
        <time>2021-06-26T13:20:15Z</time>
      </trkpt>
      <trkpt lat="48.97425" lon="7.81873">
        <ele>353.8</ele>
        <time>2021-06-26T13:20:16Z</time>
      </trkpt>
      <trkpt lat="48.97427" lon="7.81872">
        <ele>354</ele>
        <time>2021-06-26T13:20:17Z</time>
      </trkpt>
      <trkpt lat="48.97428" lon="7.81871">
        <ele>354</ele>
        <time>2021-06-26T13:20:18Z</time>
      </trkpt>
      <trkpt lat="48.97429" lon="7.81869">
        <ele>354</ele>
        <time>2021-06-26T13:20:19Z</time>
      </trkpt>
      <trkpt lat="48.9743" lon="7.81869">
        <ele>354.2</ele>
        <time>2021-06-26T13:20:20Z</time>
      </trkpt>
      <trkpt lat="48.97431" lon="7.81867">
        <ele>354.4</ele>
        <time>2021-06-26T13:20:21Z</time>
      </trkpt>
      <trkpt lat="48.97433" lon="7.81865">
        <ele>354.6</ele>
        <time>2021-06-26T13:20:22Z</time>
      </trkpt>
      <trkpt lat="48.97434" lon="7.81864">
        <ele>354.6</ele>
        <time>2021-06-26T13:20:23Z</time>
      </trkpt>
      <trkpt lat="48.97436" lon="7.81863">
        <ele>354.8</ele>
        <time>2021-06-26T13:20:24Z</time>
      </trkpt>
      <trkpt lat="48.97437" lon="7.81861">
        <ele>354.8</ele>
        <time>2021-06-26T13:20:25Z</time>
      </trkpt>
      <trkpt lat="48.97438" lon="7.81861">
        <ele>355</ele>
        <time>2021-06-26T13:20:26Z</time>
      </trkpt>
      <trkpt lat="48.97438" lon="7.8186">
        <ele>355.2</ele>
        <time>2021-06-26T13:20:27Z</time>
      </trkpt>
      <trkpt lat="48.97439" lon="7.81858">
        <ele>355.4</ele>
        <time>2021-06-26T13:20:28Z</time>
      </trkpt>
      <trkpt lat="48.9744" lon="7.81857">
        <ele>355.4</ele>
        <time>2021-06-26T13:20:29Z</time>
      </trkpt>
      <trkpt lat="48.97441" lon="7.81855">
        <ele>355.6</ele>
        <time>2021-06-26T13:20:30Z</time>
      </trkpt>
      <trkpt lat="48.97442" lon="7.81853">
        <ele>355.8</ele>
        <time>2021-06-26T13:20:31Z</time>
      </trkpt>
      <trkpt lat="48.97444" lon="7.81852">
        <ele>356</ele>
        <time>2021-06-26T13:20:32Z</time>
      </trkpt>
      <trkpt lat="48.97447" lon="7.8185">
        <ele>356.2</ele>
        <time>2021-06-26T13:20:33Z</time>
      </trkpt>
      <trkpt lat="48.9745" lon="7.81848">
        <ele>356.4</ele>
        <time>2021-06-26T13:20:34Z</time>
      </trkpt>
      <trkpt lat="48.97452" lon="7.81846">
        <ele>356.6</ele>
        <time>2021-06-26T13:20:35Z</time>
      </trkpt>
      <trkpt lat="48.97453" lon="7.81845">
        <ele>356.8</ele>
        <time>2021-06-26T13:20:36Z</time>
      </trkpt>
      <trkpt lat="48.97455" lon="7.81842">
        <ele>357</ele>
        <time>2021-06-26T13:20:37Z</time>
      </trkpt>
      <trkpt lat="48.97458" lon="7.81838">
        <ele>357.2</ele>
        <time>2021-06-26T13:20:38Z</time>
      </trkpt>
      <trkpt lat="48.97459" lon="7.81836">
        <ele>357.2</ele>
        <time>2021-06-26T13:20:39Z</time>
      </trkpt>
      <trkpt lat="48.97461" lon="7.81833">
        <ele>357.4</ele>
        <time>2021-06-26T13:20:40Z</time>
      </trkpt>
      <trkpt lat="48.97463" lon="7.81831">
        <ele>357.6</ele>
        <time>2021-06-26T13:20:41Z</time>
      </trkpt>
      <trkpt lat="48.97464" lon="7.81829">
        <ele>357.6</ele>
        <time>2021-06-26T13:20:42Z</time>
      </trkpt>
      <trkpt lat="48.97466" lon="7.81828">
        <ele>357.8</ele>
        <time>2021-06-26T13:20:43Z</time>
      </trkpt>
      <trkpt lat="48.97468" lon="7.81828">
        <ele>358</ele>
        <time>2021-06-26T13:20:44Z</time>
      </trkpt>
      <trkpt lat="48.9747" lon="7.81827">
        <ele>358.2</ele>
        <time>2021-06-26T13:20:45Z</time>
      </trkpt>
      <trkpt lat="48.97472" lon="7.81826">
        <ele>358.4</ele>
        <time>2021-06-26T13:20:46Z</time>
      </trkpt>
      <trkpt lat="48.97473" lon="7.81824">
        <ele>358.8</ele>
        <time>2021-06-26T13:20:47Z</time>
      </trkpt>
      <trkpt lat="48.97475" lon="7.81822">
        <ele>359</ele>
        <time>2021-06-26T13:20:48Z</time>
      </trkpt>
      <trkpt lat="48.97476" lon="7.81821">
        <ele>359.4</ele>
        <time>2021-06-26T13:20:49Z</time>
      </trkpt>
      <trkpt lat="48.97478" lon="7.81819">
        <ele>359.8</ele>
        <time>2021-06-26T13:20:50Z</time>
      </trkpt>
      <trkpt lat="48.97479" lon="7.81818">
        <ele>359.8</ele>
        <time>2021-06-26T13:20:51Z</time>
      </trkpt>
      <trkpt lat="48.9748" lon="7.81818">
        <ele>359.8</ele>
        <time>2021-06-26T13:20:52Z</time>
      </trkpt>
      <trkpt lat="48.97482" lon="7.81817">
        <ele>360</ele>
        <time>2021-06-26T13:20:53Z</time>
      </trkpt>
      <trkpt lat="48.97483" lon="7.81816">
        <ele>360.4</ele>
        <time>2021-06-26T13:20:54Z</time>
      </trkpt>
      <trkpt lat="48.97485" lon="7.81815">
        <ele>360.6</ele>
        <time>2021-06-26T13:20:55Z</time>
      </trkpt>
      <trkpt lat="48.97487" lon="7.81815">
        <ele>361</ele>
        <time>2021-06-26T13:20:56Z</time>
      </trkpt>
      <trkpt lat="48.97489" lon="7.81814">
        <ele>361.2</ele>
        <time>2021-06-26T13:20:57Z</time>
      </trkpt>
      <trkpt lat="48.97491" lon="7.81813">
        <ele>361.2</ele>
        <time>2021-06-26T13:20:58Z</time>
      </trkpt>
      <trkpt lat="48.97493" lon="7.81812">
        <ele>361.4</ele>
        <time>2021-06-26T13:20:59Z</time>
      </trkpt>
      <trkpt lat="48.97494" lon="7.81811">
        <ele>361.6</ele>
        <time>2021-06-26T13:21:00Z</time>
      </trkpt>
      <trkpt lat="48.97497" lon="7.81811">
        <ele>361.6</ele>
        <time>2021-06-26T13:21:01Z</time>
      </trkpt>
      <trkpt lat="48.97499" lon="7.8181">
        <ele>362</ele>
        <time>2021-06-26T13:21:02Z</time>
      </trkpt>
      <trkpt lat="48.97502" lon="7.81809">
        <ele>362</ele>
        <time>2021-06-26T13:21:03Z</time>
      </trkpt>
      <trkpt lat="48.97504" lon="7.81809">
        <ele>362.2</ele>
        <time>2021-06-26T13:21:04Z</time>
      </trkpt>
      <trkpt lat="48.97506" lon="7.81809">
        <ele>362.4</ele>
        <time>2021-06-26T13:21:05Z</time>
      </trkpt>
      <trkpt lat="48.97508" lon="7.81807">
        <ele>362.6</ele>
        <time>2021-06-26T13:21:06Z</time>
      </trkpt>
      <trkpt lat="48.97509" lon="7.81805">
        <ele>362.8</ele>
        <time>2021-06-26T13:21:07Z</time>
      </trkpt>
      <trkpt lat="48.97511" lon="7.81804">
        <ele>363</ele>
        <time>2021-06-26T13:21:08Z</time>
      </trkpt>
      <trkpt lat="48.97514" lon="7.81803">
        <ele>363</ele>
        <time>2021-06-26T13:21:09Z</time>
      </trkpt>
      <trkpt lat="48.97516" lon="7.81801">
        <ele>363.2</ele>
        <time>2021-06-26T13:21:10Z</time>
      </trkpt>
      <trkpt lat="48.97518" lon="7.818">
        <ele>363.4</ele>
        <time>2021-06-26T13:21:11Z</time>
      </trkpt>
      <trkpt lat="48.9752" lon="7.818">
        <ele>363.6</ele>
        <time>2021-06-26T13:21:12Z</time>
      </trkpt>
      <trkpt lat="48.97522" lon="7.818">
        <ele>363.6</ele>
        <time>2021-06-26T13:21:13Z</time>
      </trkpt>
      <trkpt lat="48.97524" lon="7.81799">
        <ele>363.8</ele>
        <time>2021-06-26T13:21:14Z</time>
      </trkpt>
      <trkpt lat="48.97526" lon="7.81799">
        <ele>364</ele>
        <time>2021-06-26T13:21:15Z</time>
      </trkpt>
      <trkpt lat="48.97528" lon="7.81798">
        <ele>364.2</ele>
        <time>2021-06-26T13:21:16Z</time>
      </trkpt>
      <trkpt lat="48.97529" lon="7.81797">
        <ele>364.2</ele>
        <time>2021-06-26T13:21:17Z</time>
      </trkpt>
      <trkpt lat="48.9753" lon="7.81797">
        <ele>364.4</ele>
        <time>2021-06-26T13:21:18Z</time>
      </trkpt>
      <trkpt lat="48.97532" lon="7.81797">
        <ele>364.4</ele>
        <time>2021-06-26T13:21:19Z</time>
      </trkpt>
      <trkpt lat="48.97533" lon="7.81797">
        <ele>364.4</ele>
        <time>2021-06-26T13:21:20Z</time>
      </trkpt>
      <trkpt lat="48.97535" lon="7.81797">
        <ele>364.6</ele>
        <time>2021-06-26T13:21:21Z</time>
      </trkpt>
      <trkpt lat="48.97537" lon="7.81796">
        <ele>364.8</ele>
        <time>2021-06-26T13:21:22Z</time>
      </trkpt>
      <trkpt lat="48.97539" lon="7.81794">
        <ele>364.8</ele>
        <time>2021-06-26T13:21:23Z</time>
      </trkpt>
      <trkpt lat="48.97541" lon="7.81794">
        <ele>364.8</ele>
        <time>2021-06-26T13:21:24Z</time>
      </trkpt>
      <trkpt lat="48.97543" lon="7.81794">
        <ele>365</ele>
        <time>2021-06-26T13:21:25Z</time>
      </trkpt>
      <trkpt lat="48.97544" lon="7.81794">
        <ele>365.2</ele>
        <time>2021-06-26T13:21:26Z</time>
      </trkpt>
      <trkpt lat="48.97546" lon="7.81793">
        <ele>365.4</ele>
        <time>2021-06-26T13:21:27Z</time>
      </trkpt>
      <trkpt lat="48.97548" lon="7.81793">
        <ele>365.6</ele>
        <time>2021-06-26T13:21:28Z</time>
      </trkpt>
      <trkpt lat="48.9755" lon="7.81792">
        <ele>365.6</ele>
        <time>2021-06-26T13:21:29Z</time>
      </trkpt>
      <trkpt lat="48.97552" lon="7.81791">
        <ele>365.8</ele>
        <time>2021-06-26T13:21:30Z</time>
      </trkpt>
      <trkpt lat="48.97554" lon="7.81791">
        <ele>366</ele>
        <time>2021-06-26T13:21:31Z</time>
      </trkpt>
      <trkpt lat="48.97556" lon="7.8179">
        <ele>366</ele>
        <time>2021-06-26T13:21:32Z</time>
      </trkpt>
      <trkpt lat="48.97558" lon="7.81789">
        <ele>366.2</ele>
        <time>2021-06-26T13:21:33Z</time>
      </trkpt>
      <trkpt lat="48.9756" lon="7.81788">
        <ele>366.6</ele>
        <time>2021-06-26T13:21:34Z</time>
      </trkpt>
      <trkpt lat="48.97563" lon="7.81788">
        <ele>366.8</ele>
        <time>2021-06-26T13:21:35Z</time>
      </trkpt>
      <trkpt lat="48.97565" lon="7.81786">
        <ele>367</ele>
        <time>2021-06-26T13:21:36Z</time>
      </trkpt>
      <trkpt lat="48.97568" lon="7.81785">
        <ele>367.2</ele>
        <time>2021-06-26T13:21:37Z</time>
      </trkpt>
      <trkpt lat="48.97571" lon="7.81785">
        <ele>367.2</ele>
        <time>2021-06-26T13:21:38Z</time>
      </trkpt>
      <trkpt lat="48.97573" lon="7.81784">
        <ele>367.4</ele>
        <time>2021-06-26T13:21:39Z</time>
      </trkpt>
      <trkpt lat="48.97575" lon="7.81783">
        <ele>367.6</ele>
        <time>2021-06-26T13:21:40Z</time>
      </trkpt>
      <trkpt lat="48.97576" lon="7.81782">
        <ele>367.8</ele>
        <time>2021-06-26T13:21:41Z</time>
      </trkpt>
      <trkpt lat="48.97578" lon="7.8178">
        <ele>367.8</ele>
        <time>2021-06-26T13:21:42Z</time>
      </trkpt>
      <trkpt lat="48.9758" lon="7.8178">
        <ele>368</ele>
        <time>2021-06-26T13:21:43Z</time>
      </trkpt>
      <trkpt lat="48.97582" lon="7.8178">
        <ele>368.2</ele>
        <time>2021-06-26T13:21:44Z</time>
      </trkpt>
      <trkpt lat="48.97584" lon="7.8178">
        <ele>368.2</ele>
        <time>2021-06-26T13:21:45Z</time>
      </trkpt>
      <trkpt lat="48.97585" lon="7.8178">
        <ele>368.4</ele>
        <time>2021-06-26T13:21:46Z</time>
      </trkpt>
      <trkpt lat="48.97587" lon="7.8178">
        <ele>368.6</ele>
        <time>2021-06-26T13:21:47Z</time>
      </trkpt>
      <trkpt lat="48.9759" lon="7.8178">
        <ele>368.8</ele>
        <time>2021-06-26T13:21:48Z</time>
      </trkpt>
      <trkpt lat="48.97592" lon="7.8178">
        <ele>368.8</ele>
        <time>2021-06-26T13:21:49Z</time>
      </trkpt>
      <trkpt lat="48.97594" lon="7.8178">
        <ele>369</ele>
        <time>2021-06-26T13:21:50Z</time>
      </trkpt>
      <trkpt lat="48.97596" lon="7.81779">
        <ele>369</ele>
        <time>2021-06-26T13:21:51Z</time>
      </trkpt>
      <trkpt lat="48.97598" lon="7.81779">
        <ele>369.2</ele>
        <time>2021-06-26T13:21:52Z</time>
      </trkpt>
      <trkpt lat="48.976" lon="7.81779">
        <ele>369.4</ele>
        <time>2021-06-26T13:21:53Z</time>
      </trkpt>
      <trkpt lat="48.97602" lon="7.81779">
        <ele>369.4</ele>
        <time>2021-06-26T13:21:54Z</time>
      </trkpt>
      <trkpt lat="48.97603" lon="7.81779">
        <ele>369.6</ele>
        <time>2021-06-26T13:21:55Z</time>
      </trkpt>
      <trkpt lat="48.97605" lon="7.81778">
        <ele>369.8</ele>
        <time>2021-06-26T13:21:56Z</time>
      </trkpt>
      <trkpt lat="48.97607" lon="7.81778">
        <ele>370</ele>
        <time>2021-06-26T13:21:57Z</time>
      </trkpt>
      <trkpt lat="48.97608" lon="7.81779">
        <ele>370</ele>
        <time>2021-06-26T13:21:58Z</time>
      </trkpt>
      <trkpt lat="48.9761" lon="7.81779">
        <ele>370</ele>
        <time>2021-06-26T13:21:59Z</time>
      </trkpt>
      <trkpt lat="48.97612" lon="7.81779">
        <ele>370.2</ele>
        <time>2021-06-26T13:22:00Z</time>
      </trkpt>
      <trkpt lat="48.97614" lon="7.8178">
        <ele>370.4</ele>
        <time>2021-06-26T13:22:01Z</time>
      </trkpt>
      <trkpt lat="48.97615" lon="7.8178">
        <ele>370.4</ele>
        <time>2021-06-26T13:22:02Z</time>
      </trkpt>
      <trkpt lat="48.97617" lon="7.81781">
        <ele>370.6</ele>
        <time>2021-06-26T13:22:03Z</time>
      </trkpt>
      <trkpt lat="48.97618" lon="7.81781">
        <ele>370.6</ele>
        <time>2021-06-26T13:22:04Z</time>
      </trkpt>
      <trkpt lat="48.97619" lon="7.81782">
        <ele>370.8</ele>
        <time>2021-06-26T13:22:05Z</time>
      </trkpt>
      <trkpt lat="48.97619" lon="7.81782">
        <ele>371</ele>
        <time>2021-06-26T13:22:06Z</time>
      </trkpt>
      <trkpt lat="48.97619" lon="7.81782">
        <ele>371</ele>
        <time>2021-06-26T13:22:07Z</time>
      </trkpt>
      <trkpt lat="48.97619" lon="7.81782">
        <ele>371.2</ele>
        <time>2021-06-26T13:22:08Z</time>
      </trkpt>
      <trkpt lat="48.97619" lon="7.81782">
        <ele>371.6</ele>
        <time>2021-06-26T13:22:10Z</time>
      </trkpt>
      <trkpt lat="48.97618" lon="7.81781">
        <ele>372.4</ele>
        <time>2021-06-26T13:23:14Z</time>
      </trkpt>
      <trkpt lat="48.97615" lon="7.8178">
        <ele>372.4</ele>
        <time>2021-06-26T13:23:15Z</time>
      </trkpt>
      <trkpt lat="48.97596" lon="7.81779">
        <ele>372</ele>
        <time>2021-06-26T13:23:20Z</time>
      </trkpt>
      <trkpt lat="48.97591" lon="7.8178">
        <ele>371.8</ele>
        <time>2021-06-26T13:23:21Z</time>
      </trkpt>
      <trkpt lat="48.97586" lon="7.81781">
        <ele>371.2</ele>
        <time>2021-06-26T13:23:22Z</time>
      </trkpt>
      <trkpt lat="48.97574" lon="7.81785">
        <ele>370.4</ele>
        <time>2021-06-26T13:23:24Z</time>
      </trkpt>
      <trkpt lat="48.97568" lon="7.81788">
        <ele>370.2</ele>
        <time>2021-06-26T13:23:25Z</time>
      </trkpt>
      <trkpt lat="48.97562" lon="7.81791">
        <ele>369.6</ele>
        <time>2021-06-26T13:23:26Z</time>
      </trkpt>
      <trkpt lat="48.97549" lon="7.81796">
        <ele>368.4</ele>
        <time>2021-06-26T13:23:28Z</time>
      </trkpt>
      <trkpt lat="48.9754" lon="7.818">
        <ele>367.8</ele>
        <time>2021-06-26T13:23:29Z</time>
      </trkpt>
      <trkpt lat="48.97533" lon="7.81803">
        <ele>367</ele>
        <time>2021-06-26T13:23:30Z</time>
      </trkpt>
      <trkpt lat="48.97511" lon="7.81814">
        <ele>365.4</ele>
        <time>2021-06-26T13:23:33Z</time>
      </trkpt>
      <trkpt lat="48.97502" lon="7.81818">
        <ele>364.8</ele>
        <time>2021-06-26T13:23:34Z</time>
      </trkpt>
      <trkpt lat="48.97495" lon="7.81822">
        <ele>363.8</ele>
        <time>2021-06-26T13:23:35Z</time>
      </trkpt>
      <trkpt lat="48.9749" lon="7.81826">
        <ele>363.4</ele>
        <time>2021-06-26T13:23:36Z</time>
      </trkpt>
      <trkpt lat="48.97486" lon="7.81829">
        <ele>362.6</ele>
        <time>2021-06-26T13:23:37Z</time>
      </trkpt>
      <trkpt lat="48.97483" lon="7.8183">
        <ele>362.4</ele>
        <time>2021-06-26T13:23:38Z</time>
      </trkpt>
      <trkpt lat="48.9748" lon="7.81831">
        <ele>362.4</ele>
        <time>2021-06-26T13:23:39Z</time>
      </trkpt>
      <trkpt lat="48.97479" lon="7.81831">
        <ele>362</ele>
        <time>2021-06-26T13:23:40Z</time>
      </trkpt>
      <trkpt lat="48.97479" lon="7.81832">
        <ele>361</ele>
        <time>2021-06-26T13:23:41Z</time>
      </trkpt>
      <trkpt lat="48.97479" lon="7.81832">
        <ele>360.4</ele>
        <time>2021-06-26T13:23:42Z</time>
      </trkpt>
      <trkpt lat="48.97478" lon="7.81831">
        <ele>359.4</ele>
        <time>2021-06-26T13:23:46Z</time>
      </trkpt>
      <trkpt lat="48.97478" lon="7.81831">
        <ele>359.2</ele>
        <time>2021-06-26T13:23:47Z</time>
      </trkpt>
      <trkpt lat="48.97478" lon="7.81831">
        <ele>359.2</ele>
        <time>2021-06-26T13:23:48Z</time>
      </trkpt>
      <trkpt lat="48.97479" lon="7.81831">
        <ele>359.2</ele>
        <time>2021-06-26T13:23:49Z</time>
      </trkpt>
      <trkpt lat="48.97479" lon="7.81831">
        <ele>359.2</ele>
        <time>2021-06-26T13:23:51Z</time>
      </trkpt>
      <trkpt lat="48.97481" lon="7.81829">
        <ele>359.8</ele>
        <time>2021-06-26T13:26:17Z</time>
      </trkpt>
      <trkpt lat="48.97484" lon="7.81827">
        <ele>359.8</ele>
        <time>2021-06-26T13:26:18Z</time>
      </trkpt>
      <trkpt lat="48.9749" lon="7.81819">
        <ele>360</ele>
        <time>2021-06-26T13:26:22Z</time>
      </trkpt>
      <trkpt lat="48.97494" lon="7.81816">
        <ele>360.2</ele>
        <time>2021-06-26T13:26:24Z</time>
      </trkpt>
      <trkpt lat="48.97497" lon="7.81815">
        <ele>360.2</ele>
        <time>2021-06-26T13:26:25Z</time>
      </trkpt>
      <trkpt lat="48.97503" lon="7.8181">
        <ele>360.4</ele>
        <time>2021-06-26T13:26:28Z</time>
      </trkpt>
      <trkpt lat="48.97509" lon="7.81807">
        <ele>360.8</ele>
        <time>2021-06-26T13:26:30Z</time>
      </trkpt>
      <trkpt lat="48.97518" lon="7.818">
        <ele>361.6</ele>
        <time>2021-06-26T13:26:34Z</time>
      </trkpt>
      <trkpt lat="48.97523" lon="7.81798">
        <ele>362.2</ele>
        <time>2021-06-26T13:26:36Z</time>
      </trkpt>
      <trkpt lat="48.97527" lon="7.81796">
        <ele>362.8</ele>
        <time>2021-06-26T13:26:38Z</time>
      </trkpt>
      <trkpt lat="48.9753" lon="7.81795">
        <ele>363</ele>
        <time>2021-06-26T13:26:39Z</time>
      </trkpt>
      <trkpt lat="48.97533" lon="7.81795">
        <ele>363.2</ele>
        <time>2021-06-26T13:26:40Z</time>
      </trkpt>
      <trkpt lat="48.97535" lon="7.81794">
        <ele>363.4</ele>
        <time>2021-06-26T13:26:41Z</time>
      </trkpt>
      <trkpt lat="48.97538" lon="7.81792">
        <ele>363.6</ele>
        <time>2021-06-26T13:26:42Z</time>
      </trkpt>
      <trkpt lat="48.9754" lon="7.81791">
        <ele>363.8</ele>
        <time>2021-06-26T13:26:43Z</time>
      </trkpt>
      <trkpt lat="48.97542" lon="7.81789">
        <ele>364.2</ele>
        <time>2021-06-26T13:26:44Z</time>
      </trkpt>
      <trkpt lat="48.97544" lon="7.81789">
        <ele>364.4</ele>
        <time>2021-06-26T13:26:45Z</time>
      </trkpt>
      <trkpt lat="48.97546" lon="7.81788">
        <ele>364.4</ele>
        <time>2021-06-26T13:26:46Z</time>
      </trkpt>
      <trkpt lat="48.97548" lon="7.81787">
        <ele>364.6</ele>
        <time>2021-06-26T13:26:47Z</time>
      </trkpt>
      <trkpt lat="48.9755" lon="7.81786">
        <ele>364.8</ele>
        <time>2021-06-26T13:26:48Z</time>
      </trkpt>
      <trkpt lat="48.97551" lon="7.81785">
        <ele>365</ele>
        <time>2021-06-26T13:26:49Z</time>
      </trkpt>
      <trkpt lat="48.97553" lon="7.81784">
        <ele>365.4</ele>
        <time>2021-06-26T13:26:50Z</time>
      </trkpt>
      <trkpt lat="48.97555" lon="7.81783">
        <ele>365.6</ele>
        <time>2021-06-26T13:26:51Z</time>
      </trkpt>
      <trkpt lat="48.97556" lon="7.81782">
        <ele>365.8</ele>
        <time>2021-06-26T13:26:52Z</time>
      </trkpt>
      <trkpt lat="48.97558" lon="7.81781">
        <ele>366.2</ele>
        <time>2021-06-26T13:26:53Z</time>
      </trkpt>
      <trkpt lat="48.97559" lon="7.81781">
        <ele>366.6</ele>
        <time>2021-06-26T13:26:54Z</time>
      </trkpt>
      <trkpt lat="48.97561" lon="7.81781">
        <ele>366.6</ele>
        <time>2021-06-26T13:26:55Z</time>
      </trkpt>
      <trkpt lat="48.97562" lon="7.8178">
        <ele>366.8</ele>
        <time>2021-06-26T13:26:56Z</time>
      </trkpt>
      <trkpt lat="48.97564" lon="7.8178">
        <ele>366.8</ele>
        <time>2021-06-26T13:26:57Z</time>
      </trkpt>
      <trkpt lat="48.97566" lon="7.81778">
        <ele>367</ele>
        <time>2021-06-26T13:26:58Z</time>
      </trkpt>
      <trkpt lat="48.97567" lon="7.81777">
        <ele>367.2</ele>
        <time>2021-06-26T13:26:59Z</time>
      </trkpt>
      <trkpt lat="48.97569" lon="7.81776">
        <ele>367.2</ele>
        <time>2021-06-26T13:27:00Z</time>
      </trkpt>
      <trkpt lat="48.97571" lon="7.81776">
        <ele>367.4</ele>
        <time>2021-06-26T13:27:01Z</time>
      </trkpt>
      <trkpt lat="48.97572" lon="7.81775">
        <ele>367.8</ele>
        <time>2021-06-26T13:27:02Z</time>
      </trkpt>
      <trkpt lat="48.97574" lon="7.81775">
        <ele>367.8</ele>
        <time>2021-06-26T13:27:03Z</time>
      </trkpt>
      <trkpt lat="48.97575" lon="7.81775">
        <ele>368</ele>
        <time>2021-06-26T13:27:04Z</time>
      </trkpt>
      <trkpt lat="48.97576" lon="7.81776">
        <ele>368.4</ele>
        <time>2021-06-26T13:27:05Z</time>
      </trkpt>
      <trkpt lat="48.97577" lon="7.81776">
        <ele>368.2</ele>
        <time>2021-06-26T13:27:06Z</time>
      </trkpt>
      <trkpt lat="48.97579" lon="7.81775">
        <ele>368.4</ele>
        <time>2021-06-26T13:27:07Z</time>
      </trkpt>
      <trkpt lat="48.97581" lon="7.81776">
        <ele>368.8</ele>
        <time>2021-06-26T13:27:08Z</time>
      </trkpt>
      <trkpt lat="48.97582" lon="7.81776">
        <ele>368.8</ele>
        <time>2021-06-26T13:27:09Z</time>
      </trkpt>
      <trkpt lat="48.97583" lon="7.81776">
        <ele>368.8</ele>
        <time>2021-06-26T13:27:10Z</time>
      </trkpt>
      <trkpt lat="48.97585" lon="7.81775">
        <ele>369</ele>
        <time>2021-06-26T13:27:11Z</time>
      </trkpt>
      <trkpt lat="48.97587" lon="7.81775">
        <ele>369</ele>
        <time>2021-06-26T13:27:12Z</time>
      </trkpt>
      <trkpt lat="48.9759" lon="7.81776">
        <ele>369.4</ele>
        <time>2021-06-26T13:27:13Z</time>
      </trkpt>
      <trkpt lat="48.97592" lon="7.81776">
        <ele>369.4</ele>
        <time>2021-06-26T13:27:14Z</time>
      </trkpt>
      <trkpt lat="48.97593" lon="7.81777">
        <ele>369.4</ele>
        <time>2021-06-26T13:27:15Z</time>
      </trkpt>
      <trkpt lat="48.97594" lon="7.81777">
        <ele>369.6</ele>
        <time>2021-06-26T13:27:16Z</time>
      </trkpt>
      <trkpt lat="48.97596" lon="7.81777">
        <ele>369.6</ele>
        <time>2021-06-26T13:27:17Z</time>
      </trkpt>
      <trkpt lat="48.97598" lon="7.81777">
        <ele>369.8</ele>
        <time>2021-06-26T13:27:18Z</time>
      </trkpt>
      <trkpt lat="48.976" lon="7.81777">
        <ele>370</ele>
        <time>2021-06-26T13:27:19Z</time>
      </trkpt>
      <trkpt lat="48.97601" lon="7.81778">
        <ele>370</ele>
        <time>2021-06-26T13:27:20Z</time>
      </trkpt>
      <trkpt lat="48.97603" lon="7.81778">
        <ele>370.2</ele>
        <time>2021-06-26T13:27:21Z</time>
      </trkpt>
      <trkpt lat="48.97605" lon="7.81778">
        <ele>370.2</ele>
        <time>2021-06-26T13:27:22Z</time>
      </trkpt>
      <trkpt lat="48.97606" lon="7.81778">
        <ele>370.4</ele>
        <time>2021-06-26T13:27:23Z</time>
      </trkpt>
      <trkpt lat="48.97607" lon="7.81778">
        <ele>370.4</ele>
        <time>2021-06-26T13:27:24Z</time>
      </trkpt>
      <trkpt lat="48.97609" lon="7.81777">
        <ele>370.6</ele>
        <time>2021-06-26T13:27:25Z</time>
      </trkpt>
      <trkpt lat="48.9761" lon="7.81777">
        <ele>370.8</ele>
        <time>2021-06-26T13:27:26Z</time>
      </trkpt>
      <trkpt lat="48.97611" lon="7.81778">
        <ele>371</ele>
        <time>2021-06-26T13:27:27Z</time>
      </trkpt>
      <trkpt lat="48.97613" lon="7.81778">
        <ele>371</ele>
        <time>2021-06-26T13:27:28Z</time>
      </trkpt>
      <trkpt lat="48.97615" lon="7.81778">
        <ele>371.2</ele>
        <time>2021-06-26T13:27:29Z</time>
      </trkpt>
      <trkpt lat="48.97616" lon="7.81779">
        <ele>371.4</ele>
        <time>2021-06-26T13:27:30Z</time>
      </trkpt>
      <trkpt lat="48.97618" lon="7.81781">
        <ele>371.6</ele>
        <time>2021-06-26T13:27:31Z</time>
      </trkpt>
      <trkpt lat="48.97619" lon="7.81782">
        <ele>371.6</ele>
        <time>2021-06-26T13:27:32Z</time>
      </trkpt>
      <trkpt lat="48.9762" lon="7.81782">
        <ele>371.8</ele>
        <time>2021-06-26T13:27:33Z</time>
      </trkpt>
      <trkpt lat="48.9762" lon="7.81782">
        <ele>372</ele>
        <time>2021-06-26T13:27:34Z</time>
      </trkpt>
      <trkpt lat="48.97621" lon="7.81782">
        <ele>372</ele>
        <time>2021-06-26T13:27:35Z</time>
      </trkpt>
      <trkpt lat="48.97621" lon="7.81782">
        <ele>372.4</ele>
        <time>2021-06-26T13:27:37Z</time>
      </trkpt>
      <trkpt lat="48.9762" lon="7.81781">
        <ele>373.4</ele>
        <time>2021-06-26T13:28:17Z</time>
      </trkpt>
      <trkpt lat="48.97619" lon="7.81781">
        <ele>373.4</ele>
        <time>2021-06-26T13:28:18Z</time>
      </trkpt>
      <trkpt lat="48.97619" lon="7.81781">
        <ele>373.4</ele>
        <time>2021-06-26T13:28:20Z</time>
      </trkpt>
      <trkpt lat="48.97618" lon="7.81781">
        <ele>373.2</ele>
        <time>2021-06-26T13:29:49Z</time>
      </trkpt>
      <trkpt lat="48.97618" lon="7.81781">
        <ele>373.2</ele>
        <time>2021-06-26T13:29:50Z</time>
      </trkpt>
      <trkpt lat="48.97618" lon="7.8178">
        <ele>373.2</ele>
        <time>2021-06-26T13:29:54Z</time>
      </trkpt>
      <trkpt lat="48.97619" lon="7.81774">
        <ele>373.4</ele>
        <time>2021-06-26T13:29:57Z</time>
      </trkpt>
      <trkpt lat="48.97618" lon="7.81772">
        <ele>373.4</ele>
        <time>2021-06-26T13:29:58Z</time>
      </trkpt>
      <trkpt lat="48.97617" lon="7.8177">
        <ele>373.4</ele>
        <time>2021-06-26T13:29:59Z</time>
      </trkpt>
      <trkpt lat="48.9761" lon="7.81757">
        <ele>374.2</ele>
        <time>2021-06-26T13:30:07Z</time>
      </trkpt>
      <trkpt lat="48.97607" lon="7.81755">
        <ele>374.6</ele>
        <time>2021-06-26T13:30:09Z</time>
      </trkpt>
      <trkpt lat="48.97604" lon="7.81753">
        <ele>375.2</ele>
        <time>2021-06-26T13:30:12Z</time>
      </trkpt>
      <trkpt lat="48.97603" lon="7.81753">
        <ele>375.4</ele>
        <time>2021-06-26T13:30:13Z</time>
      </trkpt>
      <trkpt lat="48.97602" lon="7.81753">
        <ele>375.6</ele>
        <time>2021-06-26T13:30:14Z</time>
      </trkpt>
      <trkpt lat="48.97601" lon="7.81752">
        <ele>375.8</ele>
        <time>2021-06-26T13:30:15Z</time>
      </trkpt>
      <trkpt lat="48.97599" lon="7.81752">
        <ele>375.8</ele>
        <time>2021-06-26T13:30:16Z</time>
      </trkpt>
      <trkpt lat="48.97598" lon="7.81752">
        <ele>376</ele>
        <time>2021-06-26T13:30:17Z</time>
      </trkpt>
      <trkpt lat="48.97596" lon="7.81751">
        <ele>376.2</ele>
        <time>2021-06-26T13:30:18Z</time>
      </trkpt>
      <trkpt lat="48.97593" lon="7.81748">
        <ele>376.4</ele>
        <time>2021-06-26T13:30:20Z</time>
      </trkpt>
      <trkpt lat="48.97592" lon="7.81748">
        <ele>376.6</ele>
        <time>2021-06-26T13:30:21Z</time>
      </trkpt>
      <trkpt lat="48.9759" lon="7.81747">
        <ele>376.8</ele>
        <time>2021-06-26T13:30:22Z</time>
      </trkpt>
      <trkpt lat="48.97589" lon="7.81747">
        <ele>377</ele>
        <time>2021-06-26T13:30:23Z</time>
      </trkpt>
      <trkpt lat="48.97587" lon="7.81747">
        <ele>377</ele>
        <time>2021-06-26T13:30:24Z</time>
      </trkpt>
      <trkpt lat="48.97586" lon="7.81746">
        <ele>377.2</ele>
        <time>2021-06-26T13:30:25Z</time>
      </trkpt>
      <trkpt lat="48.97584" lon="7.81746">
        <ele>377.2</ele>
        <time>2021-06-26T13:30:26Z</time>
      </trkpt>
      <trkpt lat="48.97583" lon="7.81746">
        <ele>377.4</ele>
        <time>2021-06-26T13:30:27Z</time>
      </trkpt>
      <trkpt lat="48.97581" lon="7.81746">
        <ele>377.6</ele>
        <time>2021-06-26T13:30:28Z</time>
      </trkpt>
      <trkpt lat="48.9758" lon="7.81745">
        <ele>377.8</ele>
        <time>2021-06-26T13:30:29Z</time>
      </trkpt>
      <trkpt lat="48.97578" lon="7.81744">
        <ele>378</ele>
        <time>2021-06-26T13:30:30Z</time>
      </trkpt>
      <trkpt lat="48.97577" lon="7.81744">
        <ele>378.4</ele>
        <time>2021-06-26T13:30:31Z</time>
      </trkpt>
      <trkpt lat="48.97575" lon="7.81743">
        <ele>378.4</ele>
        <time>2021-06-26T13:30:32Z</time>
      </trkpt>
      <trkpt lat="48.97573" lon="7.81742">
        <ele>378.6</ele>
        <time>2021-06-26T13:30:33Z</time>
      </trkpt>
      <trkpt lat="48.97572" lon="7.81741">
        <ele>379</ele>
        <time>2021-06-26T13:30:34Z</time>
      </trkpt>
      <trkpt lat="48.97571" lon="7.81741">
        <ele>379</ele>
        <time>2021-06-26T13:30:35Z</time>
      </trkpt>
      <trkpt lat="48.97569" lon="7.81741">
        <ele>379.2</ele>
        <time>2021-06-26T13:30:36Z</time>
      </trkpt>
      <trkpt lat="48.97567" lon="7.8174">
        <ele>379.4</ele>
        <time>2021-06-26T13:30:37Z</time>
      </trkpt>
      <trkpt lat="48.97565" lon="7.81741">
        <ele>379.4</ele>
        <time>2021-06-26T13:30:38Z</time>
      </trkpt>
      <trkpt lat="48.97563" lon="7.81741">
        <ele>379.6</ele>
        <time>2021-06-26T13:30:39Z</time>
      </trkpt>
      <trkpt lat="48.97562" lon="7.81741">
        <ele>379.6</ele>
        <time>2021-06-26T13:30:40Z</time>
      </trkpt>
      <trkpt lat="48.9756" lon="7.81741">
        <ele>379.8</ele>
        <time>2021-06-26T13:30:41Z</time>
      </trkpt>
      <trkpt lat="48.97559" lon="7.8174">
        <ele>380</ele>
        <time>2021-06-26T13:30:42Z</time>
      </trkpt>
      <trkpt lat="48.97558" lon="7.8174">
        <ele>380.2</ele>
        <time>2021-06-26T13:30:43Z</time>
      </trkpt>
      <trkpt lat="48.97556" lon="7.8174">
        <ele>380.2</ele>
        <time>2021-06-26T13:30:44Z</time>
      </trkpt>
      <trkpt lat="48.97554" lon="7.8174">
        <ele>380.4</ele>
        <time>2021-06-26T13:30:45Z</time>
      </trkpt>
      <trkpt lat="48.97552" lon="7.8174">
        <ele>380.4</ele>
        <time>2021-06-26T13:30:46Z</time>
      </trkpt>
      <trkpt lat="48.97551" lon="7.8174">
        <ele>380.6</ele>
        <time>2021-06-26T13:30:47Z</time>
      </trkpt>
      <trkpt lat="48.97549" lon="7.81739">
        <ele>380.8</ele>
        <time>2021-06-26T13:30:48Z</time>
      </trkpt>
      <trkpt lat="48.97548" lon="7.81739">
        <ele>381</ele>
        <time>2021-06-26T13:30:49Z</time>
      </trkpt>
      <trkpt lat="48.97546" lon="7.81738">
        <ele>381</ele>
        <time>2021-06-26T13:30:50Z</time>
      </trkpt>
      <trkpt lat="48.97544" lon="7.81738">
        <ele>381.2</ele>
        <time>2021-06-26T13:30:51Z</time>
      </trkpt>
      <trkpt lat="48.97542" lon="7.81738">
        <ele>381.2</ele>
        <time>2021-06-26T13:30:52Z</time>
      </trkpt>
      <trkpt lat="48.97541" lon="7.81737">
        <ele>381.4</ele>
        <time>2021-06-26T13:30:53Z</time>
      </trkpt>
      <trkpt lat="48.97539" lon="7.81737">
        <ele>381.6</ele>
        <time>2021-06-26T13:30:54Z</time>
      </trkpt>
      <trkpt lat="48.97537" lon="7.81737">
        <ele>381.6</ele>
        <time>2021-06-26T13:30:55Z</time>
      </trkpt>
      <trkpt lat="48.97535" lon="7.81737">
        <ele>381.8</ele>
        <time>2021-06-26T13:30:56Z</time>
      </trkpt>
      <trkpt lat="48.97533" lon="7.81738">
        <ele>381.8</ele>
        <time>2021-06-26T13:30:57Z</time>
      </trkpt>
      <trkpt lat="48.97531" lon="7.81738">
        <ele>381.8</ele>
        <time>2021-06-26T13:30:58Z</time>
      </trkpt>
      <trkpt lat="48.9753" lon="7.8174">
        <ele>382</ele>
        <time>2021-06-26T13:30:59Z</time>
      </trkpt>
      <trkpt lat="48.97528" lon="7.81741">
        <ele>382.2</ele>
        <time>2021-06-26T13:31:00Z</time>
      </trkpt>
      <trkpt lat="48.97526" lon="7.81742">
        <ele>382.2</ele>
        <time>2021-06-26T13:31:01Z</time>
      </trkpt>
      <trkpt lat="48.97524" lon="7.81743">
        <ele>382.2</ele>
        <time>2021-06-26T13:31:02Z</time>
      </trkpt>
      <trkpt lat="48.97522" lon="7.81743">
        <ele>382.4</ele>
        <time>2021-06-26T13:31:03Z</time>
      </trkpt>
      <trkpt lat="48.9752" lon="7.81743">
        <ele>382.6</ele>
        <time>2021-06-26T13:31:04Z</time>
      </trkpt>
      <trkpt lat="48.97518" lon="7.81743">
        <ele>382.6</ele>
        <time>2021-06-26T13:31:05Z</time>
      </trkpt>
      <trkpt lat="48.97516" lon="7.81744">
        <ele>382.8</ele>
        <time>2021-06-26T13:31:06Z</time>
      </trkpt>
      <trkpt lat="48.97515" lon="7.81744">
        <ele>383</ele>
        <time>2021-06-26T13:31:07Z</time>
      </trkpt>
      <trkpt lat="48.97513" lon="7.81745">
        <ele>383.2</ele>
        <time>2021-06-26T13:31:08Z</time>
      </trkpt>
      <trkpt lat="48.97511" lon="7.81744">
        <ele>383.4</ele>
        <time>2021-06-26T13:31:09Z</time>
      </trkpt>
      <trkpt lat="48.97509" lon="7.81744">
        <ele>383.6</ele>
        <time>2021-06-26T13:31:10Z</time>
      </trkpt>
      <trkpt lat="48.97507" lon="7.81745">
        <ele>383.8</ele>
        <time>2021-06-26T13:31:11Z</time>
      </trkpt>
      <trkpt lat="48.97506" lon="7.81745">
        <ele>384</ele>
        <time>2021-06-26T13:31:12Z</time>
      </trkpt>
      <trkpt lat="48.97504" lon="7.81745">
        <ele>384</ele>
        <time>2021-06-26T13:31:13Z</time>
      </trkpt>
      <trkpt lat="48.97502" lon="7.81745">
        <ele>384.2</ele>
        <time>2021-06-26T13:31:14Z</time>
      </trkpt>
      <trkpt lat="48.97501" lon="7.81743">
        <ele>384.4</ele>
        <time>2021-06-26T13:31:15Z</time>
      </trkpt>
      <trkpt lat="48.975" lon="7.81743">
        <ele>384.6</ele>
        <time>2021-06-26T13:31:16Z</time>
      </trkpt>
      <trkpt lat="48.97498" lon="7.81743">
        <ele>384.6</ele>
        <time>2021-06-26T13:31:17Z</time>
      </trkpt>
      <trkpt lat="48.97496" lon="7.81744">
        <ele>384.8</ele>
        <time>2021-06-26T13:31:18Z</time>
      </trkpt>
      <trkpt lat="48.97495" lon="7.81744">
        <ele>385</ele>
        <time>2021-06-26T13:31:19Z</time>
      </trkpt>
      <trkpt lat="48.97493" lon="7.81744">
        <ele>385</ele>
        <time>2021-06-26T13:31:20Z</time>
      </trkpt>
      <trkpt lat="48.97491" lon="7.81744">
        <ele>385.2</ele>
        <time>2021-06-26T13:31:21Z</time>
      </trkpt>
      <trkpt lat="48.97489" lon="7.81744">
        <ele>385.2</ele>
        <time>2021-06-26T13:31:22Z</time>
      </trkpt>
      <trkpt lat="48.97488" lon="7.81744">
        <ele>385.2</ele>
        <time>2021-06-26T13:31:23Z</time>
      </trkpt>
      <trkpt lat="48.97487" lon="7.81744">
        <ele>385.4</ele>
        <time>2021-06-26T13:31:24Z</time>
      </trkpt>
      <trkpt lat="48.97485" lon="7.81744">
        <ele>385.6</ele>
        <time>2021-06-26T13:31:25Z</time>
      </trkpt>
      <trkpt lat="48.97484" lon="7.81744">
        <ele>385.6</ele>
        <time>2021-06-26T13:31:26Z</time>
      </trkpt>
      <trkpt lat="48.97482" lon="7.81744">
        <ele>385.8</ele>
        <time>2021-06-26T13:31:27Z</time>
      </trkpt>
      <trkpt lat="48.9748" lon="7.81744">
        <ele>385.8</ele>
        <time>2021-06-26T13:31:28Z</time>
      </trkpt>
      <trkpt lat="48.97478" lon="7.81745">
        <ele>386</ele>
        <time>2021-06-26T13:31:29Z</time>
      </trkpt>
      <trkpt lat="48.97476" lon="7.81745">
        <ele>386</ele>
        <time>2021-06-26T13:31:30Z</time>
      </trkpt>
      <trkpt lat="48.97475" lon="7.81745">
        <ele>386.4</ele>
        <time>2021-06-26T13:31:31Z</time>
      </trkpt>
      <trkpt lat="48.97473" lon="7.81745">
        <ele>386.4</ele>
        <time>2021-06-26T13:31:32Z</time>
      </trkpt>
      <trkpt lat="48.97472" lon="7.81745">
        <ele>386.8</ele>
        <time>2021-06-26T13:31:33Z</time>
      </trkpt>
      <trkpt lat="48.9747" lon="7.81745">
        <ele>386.8</ele>
        <time>2021-06-26T13:31:34Z</time>
      </trkpt>
      <trkpt lat="48.97468" lon="7.81744">
        <ele>387</ele>
        <time>2021-06-26T13:31:35Z</time>
      </trkpt>
      <trkpt lat="48.97466" lon="7.81744">
        <ele>387.2</ele>
        <time>2021-06-26T13:31:36Z</time>
      </trkpt>
      <trkpt lat="48.97465" lon="7.81744">
        <ele>387.2</ele>
        <time>2021-06-26T13:31:37Z</time>
      </trkpt>
      <trkpt lat="48.97464" lon="7.81744">
        <ele>387.4</ele>
        <time>2021-06-26T13:31:38Z</time>
      </trkpt>
      <trkpt lat="48.97462" lon="7.81744">
        <ele>387.6</ele>
        <time>2021-06-26T13:31:39Z</time>
      </trkpt>
      <trkpt lat="48.97461" lon="7.81744">
        <ele>387.8</ele>
        <time>2021-06-26T13:31:40Z</time>
      </trkpt>
      <trkpt lat="48.97459" lon="7.81745">
        <ele>387.8</ele>
        <time>2021-06-26T13:31:41Z</time>
      </trkpt>
      <trkpt lat="48.97457" lon="7.81745">
        <ele>388</ele>
        <time>2021-06-26T13:31:42Z</time>
      </trkpt>
      <trkpt lat="48.97456" lon="7.81745">
        <ele>388</ele>
        <time>2021-06-26T13:31:43Z</time>
      </trkpt>
      <trkpt lat="48.97454" lon="7.81745">
        <ele>388.2</ele>
        <time>2021-06-26T13:31:44Z</time>
      </trkpt>
      <trkpt lat="48.97452" lon="7.81745">
        <ele>388.4</ele>
        <time>2021-06-26T13:31:45Z</time>
      </trkpt>
      <trkpt lat="48.9745" lon="7.81745">
        <ele>388.6</ele>
        <time>2021-06-26T13:31:46Z</time>
      </trkpt>
      <trkpt lat="48.97448" lon="7.81745">
        <ele>388.6</ele>
        <time>2021-06-26T13:31:47Z</time>
      </trkpt>
      <trkpt lat="48.97446" lon="7.81745">
        <ele>388.8</ele>
        <time>2021-06-26T13:31:48Z</time>
      </trkpt>
      <trkpt lat="48.97444" lon="7.81745">
        <ele>389</ele>
        <time>2021-06-26T13:31:49Z</time>
      </trkpt>
      <trkpt lat="48.97443" lon="7.81745">
        <ele>389</ele>
        <time>2021-06-26T13:31:50Z</time>
      </trkpt>
      <trkpt lat="48.97442" lon="7.81746">
        <ele>389.2</ele>
        <time>2021-06-26T13:31:51Z</time>
      </trkpt>
      <trkpt lat="48.9744" lon="7.81747">
        <ele>389.6</ele>
        <time>2021-06-26T13:31:52Z</time>
      </trkpt>
      <trkpt lat="48.97438" lon="7.81747">
        <ele>389.8</ele>
        <time>2021-06-26T13:31:53Z</time>
      </trkpt>
      <trkpt lat="48.97436" lon="7.81746">
        <ele>390</ele>
        <time>2021-06-26T13:31:54Z</time>
      </trkpt>
      <trkpt lat="48.97434" lon="7.81746">
        <ele>390</ele>
        <time>2021-06-26T13:31:55Z</time>
      </trkpt>
      <trkpt lat="48.97433" lon="7.81746">
        <ele>390.2</ele>
        <time>2021-06-26T13:31:56Z</time>
      </trkpt>
      <trkpt lat="48.97431" lon="7.81746">
        <ele>390.2</ele>
        <time>2021-06-26T13:31:57Z</time>
      </trkpt>
      <trkpt lat="48.9743" lon="7.81746">
        <ele>390.4</ele>
        <time>2021-06-26T13:31:58Z</time>
      </trkpt>
      <trkpt lat="48.97428" lon="7.81746">
        <ele>390.4</ele>
        <time>2021-06-26T13:31:59Z</time>
      </trkpt>
      <trkpt lat="48.97426" lon="7.81747">
        <ele>390.6</ele>
        <time>2021-06-26T13:32:00Z</time>
      </trkpt>
      <trkpt lat="48.97425" lon="7.81747">
        <ele>390.8</ele>
        <time>2021-06-26T13:32:01Z</time>
      </trkpt>
      <trkpt lat="48.97423" lon="7.81746">
        <ele>391</ele>
        <time>2021-06-26T13:32:02Z</time>
      </trkpt>
      <trkpt lat="48.97422" lon="7.81745">
        <ele>391</ele>
        <time>2021-06-26T13:32:03Z</time>
      </trkpt>
      <trkpt lat="48.9742" lon="7.81745">
        <ele>391</ele>
        <time>2021-06-26T13:32:04Z</time>
      </trkpt>
      <trkpt lat="48.97419" lon="7.81744">
        <ele>391.2</ele>
        <time>2021-06-26T13:32:05Z</time>
      </trkpt>
      <trkpt lat="48.97418" lon="7.81744">
        <ele>391.4</ele>
        <time>2021-06-26T13:32:06Z</time>
      </trkpt>
      <trkpt lat="48.97417" lon="7.81743">
        <ele>391.4</ele>
        <time>2021-06-26T13:32:07Z</time>
      </trkpt>
      <trkpt lat="48.97416" lon="7.81743">
        <ele>391.6</ele>
        <time>2021-06-26T13:32:08Z</time>
      </trkpt>
      <trkpt lat="48.97415" lon="7.81742">
        <ele>391.8</ele>
        <time>2021-06-26T13:32:09Z</time>
      </trkpt>
      <trkpt lat="48.97414" lon="7.81741">
        <ele>392</ele>
        <time>2021-06-26T13:32:10Z</time>
      </trkpt>
      <trkpt lat="48.97413" lon="7.8174">
        <ele>392.2</ele>
        <time>2021-06-26T13:32:11Z</time>
      </trkpt>
      <trkpt lat="48.97412" lon="7.8174">
        <ele>392.4</ele>
        <time>2021-06-26T13:32:12Z</time>
      </trkpt>
      <trkpt lat="48.97411" lon="7.81739">
        <ele>392.4</ele>
        <time>2021-06-26T13:32:13Z</time>
      </trkpt>
      <trkpt lat="48.9741" lon="7.81739">
        <ele>392.6</ele>
        <time>2021-06-26T13:32:14Z</time>
      </trkpt>
      <trkpt lat="48.9741" lon="7.81738">
        <ele>392.8</ele>
        <time>2021-06-26T13:32:15Z</time>
      </trkpt>
      <trkpt lat="48.9741" lon="7.81737">
        <ele>392.8</ele>
        <time>2021-06-26T13:32:16Z</time>
      </trkpt>
      <trkpt lat="48.97409" lon="7.81736">
        <ele>393</ele>
        <time>2021-06-26T13:32:17Z</time>
      </trkpt>
      <trkpt lat="48.97408" lon="7.81735">
        <ele>393</ele>
        <time>2021-06-26T13:32:18Z</time>
      </trkpt>
      <trkpt lat="48.97408" lon="7.81733">
        <ele>393.2</ele>
        <time>2021-06-26T13:32:19Z</time>
      </trkpt>
      <trkpt lat="48.97408" lon="7.81732">
        <ele>393.2</ele>
        <time>2021-06-26T13:32:20Z</time>
      </trkpt>
      <trkpt lat="48.97408" lon="7.8173">
        <ele>393.4</ele>
        <time>2021-06-26T13:32:21Z</time>
      </trkpt>
      <trkpt lat="48.97409" lon="7.81729">
        <ele>393.4</ele>
        <time>2021-06-26T13:32:22Z</time>
      </trkpt>
      <trkpt lat="48.9741" lon="7.81729">
        <ele>393.4</ele>
        <time>2021-06-26T13:32:23Z</time>
      </trkpt>
      <trkpt lat="48.9741" lon="7.8173">
        <ele>393.4</ele>
        <time>2021-06-26T13:32:24Z</time>
      </trkpt>
      <trkpt lat="48.97411" lon="7.81731">
        <ele>393.6</ele>
        <time>2021-06-26T13:32:25Z</time>
      </trkpt>
      <trkpt lat="48.97412" lon="7.81732">
        <ele>393.6</ele>
        <time>2021-06-26T13:32:26Z</time>
      </trkpt>
      <trkpt lat="48.97412" lon="7.81732">
        <ele>393.6</ele>
        <time>2021-06-26T13:32:27Z</time>
      </trkpt>
      <trkpt lat="48.97413" lon="7.81733">
        <ele>393.8</ele>
        <time>2021-06-26T13:32:28Z</time>
      </trkpt>
      <trkpt lat="48.97413" lon="7.81733">
        <ele>394</ele>
        <time>2021-06-26T13:32:29Z</time>
      </trkpt>
      <trkpt lat="48.97413" lon="7.81733">
        <ele>394.2</ele>
        <time>2021-06-26T13:32:30Z</time>
      </trkpt>
      <trkpt lat="48.97414" lon="7.81732">
        <ele>394.4</ele>
        <time>2021-06-26T13:32:31Z</time>
      </trkpt>
      <trkpt lat="48.97414" lon="7.81732">
        <ele>394.4</ele>
        <time>2021-06-26T13:32:32Z</time>
      </trkpt>
      <trkpt lat="48.97415" lon="7.81732">
        <ele>394.6</ele>
        <time>2021-06-26T13:32:33Z</time>
      </trkpt>
      <trkpt lat="48.97416" lon="7.81732">
        <ele>394.8</ele>
        <time>2021-06-26T13:32:34Z</time>
      </trkpt>
      <trkpt lat="48.97416" lon="7.81732">
        <ele>394.8</ele>
        <time>2021-06-26T13:32:35Z</time>
      </trkpt>
      <trkpt lat="48.97416" lon="7.81732">
        <ele>395</ele>
        <time>2021-06-26T13:32:37Z</time>
      </trkpt>
      <trkpt lat="48.97417" lon="7.81732">
        <ele>395.2</ele>
        <time>2021-06-26T13:32:39Z</time>
      </trkpt>
      <trkpt lat="48.97417" lon="7.81732">
        <ele>395.4</ele>
        <time>2021-06-26T13:32:40Z</time>
      </trkpt>
      <trkpt lat="48.97418" lon="7.81732">
        <ele>395.6</ele>
        <time>2021-06-26T13:32:41Z</time>
      </trkpt>
      <trkpt lat="48.9742" lon="7.81731">
        <ele>396.4</ele>
        <time>2021-06-26T13:33:00Z</time>
      </trkpt>
      <trkpt lat="48.97423" lon="7.8173">
        <ele>396.4</ele>
        <time>2021-06-26T13:33:03Z</time>
      </trkpt>
      <trkpt lat="48.97427" lon="7.8173">
        <ele>396.4</ele>
        <time>2021-06-26T13:33:06Z</time>
      </trkpt>
      <trkpt lat="48.97428" lon="7.81729">
        <ele>396.6</ele>
        <time>2021-06-26T13:33:07Z</time>
      </trkpt>
      <trkpt lat="48.97429" lon="7.81729">
        <ele>396.6</ele>
        <time>2021-06-26T13:33:08Z</time>
      </trkpt>
      <trkpt lat="48.97432" lon="7.81728">
        <ele>396.8</ele>
        <time>2021-06-26T13:33:10Z</time>
      </trkpt>
      <trkpt lat="48.97434" lon="7.81726">
        <ele>397</ele>
        <time>2021-06-26T13:33:12Z</time>
      </trkpt>
      <trkpt lat="48.97435" lon="7.81725">
        <ele>397</ele>
        <time>2021-06-26T13:33:13Z</time>
      </trkpt>
      <trkpt lat="48.97436" lon="7.81725">
        <ele>397.2</ele>
        <time>2021-06-26T13:33:14Z</time>
      </trkpt>
      <trkpt lat="48.97438" lon="7.81723">
        <ele>397.4</ele>
        <time>2021-06-26T13:33:16Z</time>
      </trkpt>
      <trkpt lat="48.97439" lon="7.81723">
        <ele>397.4</ele>
        <time>2021-06-26T13:33:17Z</time>
      </trkpt>
      <trkpt lat="48.97441" lon="7.81722">
        <ele>397.6</ele>
        <time>2021-06-26T13:33:19Z</time>
      </trkpt>
      <trkpt lat="48.97445" lon="7.8172">
        <ele>397.8</ele>
        <time>2021-06-26T13:33:22Z</time>
      </trkpt>
      <trkpt lat="48.97448" lon="7.81719">
        <ele>398.2</ele>
        <time>2021-06-26T13:33:25Z</time>
      </trkpt>
      <trkpt lat="48.97449" lon="7.81718">
        <ele>398.4</ele>
        <time>2021-06-26T13:33:26Z</time>
      </trkpt>
      <trkpt lat="48.97456" lon="7.81713">
        <ele>398.8</ele>
        <time>2021-06-26T13:33:32Z</time>
      </trkpt>
      <trkpt lat="48.97458" lon="7.81712">
        <ele>398.8</ele>
        <time>2021-06-26T13:33:33Z</time>
      </trkpt>
      <trkpt lat="48.97463" lon="7.81705">
        <ele>399.4</ele>
        <time>2021-06-26T13:33:37Z</time>
      </trkpt>
      <trkpt lat="48.97463" lon="7.81704">
        <ele>399.6</ele>
        <time>2021-06-26T13:33:38Z</time>
      </trkpt>
      <trkpt lat="48.97464" lon="7.81703">
        <ele>399.6</ele>
        <time>2021-06-26T13:33:39Z</time>
      </trkpt>
      <trkpt lat="48.97464" lon="7.81701">
        <ele>399.8</ele>
        <time>2021-06-26T13:33:40Z</time>
      </trkpt>
      <trkpt lat="48.97465" lon="7.817">
        <ele>399.8</ele>
        <time>2021-06-26T13:33:41Z</time>
      </trkpt>
      <trkpt lat="48.97466" lon="7.817">
        <ele>399.8</ele>
        <time>2021-06-26T13:33:42Z</time>
      </trkpt>
      <trkpt lat="48.97467" lon="7.81699">
        <ele>400</ele>
        <time>2021-06-26T13:33:43Z</time>
      </trkpt>
      <trkpt lat="48.97469" lon="7.81697">
        <ele>400</ele>
        <time>2021-06-26T13:33:44Z</time>
      </trkpt>
      <trkpt lat="48.97469" lon="7.81696">
        <ele>400.2</ele>
        <time>2021-06-26T13:33:45Z</time>
      </trkpt>
      <trkpt lat="48.97471" lon="7.81696">
        <ele>400.4</ele>
        <time>2021-06-26T13:33:46Z</time>
      </trkpt>
      <trkpt lat="48.97472" lon="7.81696">
        <ele>400.6</ele>
        <time>2021-06-26T13:33:47Z</time>
      </trkpt>
      <trkpt lat="48.97474" lon="7.81695">
        <ele>400.6</ele>
        <time>2021-06-26T13:33:48Z</time>
      </trkpt>
      <trkpt lat="48.97475" lon="7.81695">
        <ele>400.8</ele>
        <time>2021-06-26T13:33:49Z</time>
      </trkpt>
      <trkpt lat="48.97477" lon="7.81693">
        <ele>400.8</ele>
        <time>2021-06-26T13:33:51Z</time>
      </trkpt>
      <trkpt lat="48.97478" lon="7.81693">
        <ele>401</ele>
        <time>2021-06-26T13:33:52Z</time>
      </trkpt>
      <trkpt lat="48.9748" lon="7.81693">
        <ele>401</ele>
        <time>2021-06-26T13:33:53Z</time>
      </trkpt>
      <trkpt lat="48.97482" lon="7.81692">
        <ele>401.2</ele>
        <time>2021-06-26T13:33:54Z</time>
      </trkpt>
      <trkpt lat="48.97483" lon="7.81692">
        <ele>401.2</ele>
        <time>2021-06-26T13:33:55Z</time>
      </trkpt>
      <trkpt lat="48.97485" lon="7.81692">
        <ele>401.4</ele>
        <time>2021-06-26T13:33:56Z</time>
      </trkpt>
      <trkpt lat="48.97486" lon="7.81691">
        <ele>401.4</ele>
        <time>2021-06-26T13:33:57Z</time>
      </trkpt>
      <trkpt lat="48.97487" lon="7.81691">
        <ele>401.6</ele>
        <time>2021-06-26T13:33:58Z</time>
      </trkpt>
      <trkpt lat="48.97489" lon="7.8169">
        <ele>401.6</ele>
        <time>2021-06-26T13:33:59Z</time>
      </trkpt>
      <trkpt lat="48.9749" lon="7.8169">
        <ele>401.8</ele>
        <time>2021-06-26T13:34:00Z</time>
      </trkpt>
      <trkpt lat="48.97492" lon="7.81689">
        <ele>402</ele>
        <time>2021-06-26T13:34:01Z</time>
      </trkpt>
      <trkpt lat="48.97493" lon="7.81689">
        <ele>402</ele>
        <time>2021-06-26T13:34:02Z</time>
      </trkpt>
      <trkpt lat="48.97495" lon="7.81688">
        <ele>402.2</ele>
        <time>2021-06-26T13:34:03Z</time>
      </trkpt>
      <trkpt lat="48.97497" lon="7.81688">
        <ele>402.4</ele>
        <time>2021-06-26T13:34:04Z</time>
      </trkpt>
      <trkpt lat="48.97498" lon="7.81686">
        <ele>402.4</ele>
        <time>2021-06-26T13:34:05Z</time>
      </trkpt>
      <trkpt lat="48.975" lon="7.81685">
        <ele>402.6</ele>
        <time>2021-06-26T13:34:06Z</time>
      </trkpt>
      <trkpt lat="48.97502" lon="7.81684">
        <ele>402.8</ele>
        <time>2021-06-26T13:34:07Z</time>
      </trkpt>
      <trkpt lat="48.97504" lon="7.81682">
        <ele>402.8</ele>
        <time>2021-06-26T13:34:08Z</time>
      </trkpt>
      <trkpt lat="48.97506" lon="7.8168">
        <ele>402.8</ele>
        <time>2021-06-26T13:34:09Z</time>
      </trkpt>
      <trkpt lat="48.97508" lon="7.81679">
        <ele>403</ele>
        <time>2021-06-26T13:34:10Z</time>
      </trkpt>
      <trkpt lat="48.97509" lon="7.81677">
        <ele>403.2</ele>
        <time>2021-06-26T13:34:11Z</time>
      </trkpt>
      <trkpt lat="48.9751" lon="7.81676">
        <ele>403.2</ele>
        <time>2021-06-26T13:34:12Z</time>
      </trkpt>
      <trkpt lat="48.97512" lon="7.81674">
        <ele>403.4</ele>
        <time>2021-06-26T13:34:13Z</time>
      </trkpt>
      <trkpt lat="48.97513" lon="7.81673">
        <ele>403.4</ele>
        <time>2021-06-26T13:34:14Z</time>
      </trkpt>
      <trkpt lat="48.97515" lon="7.81672">
        <ele>403.4</ele>
        <time>2021-06-26T13:34:15Z</time>
      </trkpt>
      <trkpt lat="48.97517" lon="7.8167">
        <ele>403.6</ele>
        <time>2021-06-26T13:34:16Z</time>
      </trkpt>
      <trkpt lat="48.97518" lon="7.81669">
        <ele>403.8</ele>
        <time>2021-06-26T13:34:17Z</time>
      </trkpt>
      <trkpt lat="48.97521" lon="7.81667">
        <ele>404</ele>
        <time>2021-06-26T13:34:18Z</time>
      </trkpt>
      <trkpt lat="48.97523" lon="7.81666">
        <ele>404</ele>
        <time>2021-06-26T13:34:19Z</time>
      </trkpt>
      <trkpt lat="48.97525" lon="7.81665">
        <ele>404.2</ele>
        <time>2021-06-26T13:34:20Z</time>
      </trkpt>
      <trkpt lat="48.97526" lon="7.81665">
        <ele>404.6</ele>
        <time>2021-06-26T13:34:21Z</time>
      </trkpt>
      <trkpt lat="48.97528" lon="7.81664">
        <ele>404.8</ele>
        <time>2021-06-26T13:34:22Z</time>
      </trkpt>
      <trkpt lat="48.9753" lon="7.81662">
        <ele>404.8</ele>
        <time>2021-06-26T13:34:23Z</time>
      </trkpt>
      <trkpt lat="48.97532" lon="7.81661">
        <ele>404.8</ele>
        <time>2021-06-26T13:34:24Z</time>
      </trkpt>
      <trkpt lat="48.97535" lon="7.81659">
        <ele>405</ele>
        <time>2021-06-26T13:34:25Z</time>
      </trkpt>
      <trkpt lat="48.97536" lon="7.81657">
        <ele>405.2</ele>
        <time>2021-06-26T13:34:26Z</time>
      </trkpt>
      <trkpt lat="48.97538" lon="7.81655">
        <ele>405.2</ele>
        <time>2021-06-26T13:34:27Z</time>
      </trkpt>
      <trkpt lat="48.9754" lon="7.81654">
        <ele>405.2</ele>
        <time>2021-06-26T13:34:28Z</time>
      </trkpt>
      <trkpt lat="48.97542" lon="7.81653">
        <ele>405.4</ele>
        <time>2021-06-26T13:34:29Z</time>
      </trkpt>
      <trkpt lat="48.97543" lon="7.81652">
        <ele>405.4</ele>
        <time>2021-06-26T13:34:30Z</time>
      </trkpt>
      <trkpt lat="48.97545" lon="7.81651">
        <ele>405.4</ele>
        <time>2021-06-26T13:34:31Z</time>
      </trkpt>
      <trkpt lat="48.97547" lon="7.81649">
        <ele>405.6</ele>
        <time>2021-06-26T13:34:32Z</time>
      </trkpt>
      <trkpt lat="48.97547" lon="7.81649">
        <ele>405.8</ele>
        <time>2021-06-26T13:34:33Z</time>
      </trkpt>
      <trkpt lat="48.97548" lon="7.81648">
        <ele>405.8</ele>
        <time>2021-06-26T13:34:34Z</time>
      </trkpt>
      <trkpt lat="48.97549" lon="7.81647">
        <ele>406</ele>
        <time>2021-06-26T13:34:35Z</time>
      </trkpt>
      <trkpt lat="48.97551" lon="7.81646">
        <ele>406</ele>
        <time>2021-06-26T13:34:36Z</time>
      </trkpt>
      <trkpt lat="48.97552" lon="7.81644">
        <ele>406.2</ele>
        <time>2021-06-26T13:34:37Z</time>
      </trkpt>
      <trkpt lat="48.97554" lon="7.81643">
        <ele>406.4</ele>
        <time>2021-06-26T13:34:38Z</time>
      </trkpt>
      <trkpt lat="48.97554" lon="7.81642">
        <ele>406.4</ele>
        <time>2021-06-26T13:34:39Z</time>
      </trkpt>
      <trkpt lat="48.97556" lon="7.81639">
        <ele>406.6</ele>
        <time>2021-06-26T13:34:40Z</time>
      </trkpt>
      <trkpt lat="48.97558" lon="7.81637">
        <ele>406.8</ele>
        <time>2021-06-26T13:34:41Z</time>
      </trkpt>
      <trkpt lat="48.9756" lon="7.81635">
        <ele>407</ele>
        <time>2021-06-26T13:34:42Z</time>
      </trkpt>
      <trkpt lat="48.97562" lon="7.81631">
        <ele>407.2</ele>
        <time>2021-06-26T13:34:43Z</time>
      </trkpt>
      <trkpt lat="48.97563" lon="7.8163">
        <ele>407.4</ele>
        <time>2021-06-26T13:34:44Z</time>
      </trkpt>
      <trkpt lat="48.97565" lon="7.81629">
        <ele>407.6</ele>
        <time>2021-06-26T13:34:45Z</time>
      </trkpt>
      <trkpt lat="48.97566" lon="7.81629">
        <ele>407.8</ele>
        <time>2021-06-26T13:34:46Z</time>
      </trkpt>
      <trkpt lat="48.97568" lon="7.8163">
        <ele>408.2</ele>
        <time>2021-06-26T13:34:47Z</time>
      </trkpt>
      <trkpt lat="48.97571" lon="7.81632">
        <ele>408.6</ele>
        <time>2021-06-26T13:34:48Z</time>
      </trkpt>
      <trkpt lat="48.97573" lon="7.81634">
        <ele>408.6</ele>
        <time>2021-06-26T13:34:49Z</time>
      </trkpt>
      <trkpt lat="48.97575" lon="7.81635">
        <ele>408.8</ele>
        <time>2021-06-26T13:34:50Z</time>
      </trkpt>
      <trkpt lat="48.97577" lon="7.81635">
        <ele>409.2</ele>
        <time>2021-06-26T13:34:51Z</time>
      </trkpt>
      <trkpt lat="48.97578" lon="7.81633">
        <ele>409.6</ele>
        <time>2021-06-26T13:34:52Z</time>
      </trkpt>
      <trkpt lat="48.97579" lon="7.81632">
        <ele>410</ele>
        <time>2021-06-26T13:34:53Z</time>
      </trkpt>
      <trkpt lat="48.97581" lon="7.8163">
        <ele>410.4</ele>
        <time>2021-06-26T13:34:54Z</time>
      </trkpt>
      <trkpt lat="48.97582" lon="7.81628">
        <ele>410.6</ele>
        <time>2021-06-26T13:34:55Z</time>
      </trkpt>
      <trkpt lat="48.97583" lon="7.81627">
        <ele>410.8</ele>
        <time>2021-06-26T13:34:56Z</time>
      </trkpt>
      <trkpt lat="48.97585" lon="7.81626">
        <ele>411</ele>
        <time>2021-06-26T13:34:57Z</time>
      </trkpt>
      <trkpt lat="48.97586" lon="7.81625">
        <ele>411</ele>
        <time>2021-06-26T13:34:58Z</time>
      </trkpt>
      <trkpt lat="48.97588" lon="7.81623">
        <ele>411</ele>
        <time>2021-06-26T13:34:59Z</time>
      </trkpt>
      <trkpt lat="48.97589" lon="7.81623">
        <ele>411.2</ele>
        <time>2021-06-26T13:35:00Z</time>
      </trkpt>
      <trkpt lat="48.9759" lon="7.81622">
        <ele>411.2</ele>
        <time>2021-06-26T13:35:01Z</time>
      </trkpt>
      <trkpt lat="48.97592" lon="7.81621">
        <ele>411.2</ele>
        <time>2021-06-26T13:35:02Z</time>
      </trkpt>
      <trkpt lat="48.97593" lon="7.81621">
        <ele>411.4</ele>
        <time>2021-06-26T13:35:03Z</time>
      </trkpt>
      <trkpt lat="48.97595" lon="7.8162">
        <ele>411.4</ele>
        <time>2021-06-26T13:35:04Z</time>
      </trkpt>
      <trkpt lat="48.97596" lon="7.8162">
        <ele>411.6</ele>
        <time>2021-06-26T13:35:05Z</time>
      </trkpt>
      <trkpt lat="48.97598" lon="7.81619">
        <ele>411.6</ele>
        <time>2021-06-26T13:35:06Z</time>
      </trkpt>
      <trkpt lat="48.97599" lon="7.81619">
        <ele>411.8</ele>
        <time>2021-06-26T13:35:07Z</time>
      </trkpt>
      <trkpt lat="48.97601" lon="7.81618">
        <ele>412</ele>
        <time>2021-06-26T13:35:08Z</time>
      </trkpt>
      <trkpt lat="48.97602" lon="7.81617">
        <ele>412</ele>
        <time>2021-06-26T13:35:09Z</time>
      </trkpt>
      <trkpt lat="48.97604" lon="7.81616">
        <ele>412.2</ele>
        <time>2021-06-26T13:35:10Z</time>
      </trkpt>
      <trkpt lat="48.97606" lon="7.81616">
        <ele>412.2</ele>
        <time>2021-06-26T13:35:11Z</time>
      </trkpt>
      <trkpt lat="48.97608" lon="7.81615">
        <ele>412.4</ele>
        <time>2021-06-26T13:35:12Z</time>
      </trkpt>
      <trkpt lat="48.97609" lon="7.81614">
        <ele>412.4</ele>
        <time>2021-06-26T13:35:13Z</time>
      </trkpt>
      <trkpt lat="48.97609" lon="7.81614">
        <ele>412.4</ele>
        <time>2021-06-26T13:35:14Z</time>
      </trkpt>
      <trkpt lat="48.9761" lon="7.81614">
        <ele>412.6</ele>
        <time>2021-06-26T13:35:15Z</time>
      </trkpt>
      <trkpt lat="48.97612" lon="7.81614">
        <ele>412.6</ele>
        <time>2021-06-26T13:35:16Z</time>
      </trkpt>
      <trkpt lat="48.97614" lon="7.81613">
        <ele>412.8</ele>
        <time>2021-06-26T13:35:17Z</time>
      </trkpt>
      <trkpt lat="48.97615" lon="7.81612">
        <ele>412.8</ele>
        <time>2021-06-26T13:35:18Z</time>
      </trkpt>
      <trkpt lat="48.97616" lon="7.81612">
        <ele>413</ele>
        <time>2021-06-26T13:35:19Z</time>
      </trkpt>
      <trkpt lat="48.97617" lon="7.81611">
        <ele>413</ele>
        <time>2021-06-26T13:35:20Z</time>
      </trkpt>
      <trkpt lat="48.97618" lon="7.81609">
        <ele>413</ele>
        <time>2021-06-26T13:35:21Z</time>
      </trkpt>
      <trkpt lat="48.9762" lon="7.81608">
        <ele>413.2</ele>
        <time>2021-06-26T13:35:22Z</time>
      </trkpt>
      <trkpt lat="48.97621" lon="7.81607">
        <ele>413.2</ele>
        <time>2021-06-26T13:35:23Z</time>
      </trkpt>
      <trkpt lat="48.97623" lon="7.81607">
        <ele>413.2</ele>
        <time>2021-06-26T13:35:24Z</time>
      </trkpt>
      <trkpt lat="48.97625" lon="7.81607">
        <ele>413.4</ele>
        <time>2021-06-26T13:35:25Z</time>
      </trkpt>
      <trkpt lat="48.97627" lon="7.81607">
        <ele>413.6</ele>
        <time>2021-06-26T13:35:26Z</time>
      </trkpt>
      <trkpt lat="48.97628" lon="7.81607">
        <ele>413.6</ele>
        <time>2021-06-26T13:35:27Z</time>
      </trkpt>
      <trkpt lat="48.97628" lon="7.81606">
        <ele>413.8</ele>
        <time>2021-06-26T13:35:28Z</time>
      </trkpt>
      <trkpt lat="48.9763" lon="7.81606">
        <ele>414</ele>
        <time>2021-06-26T13:35:29Z</time>
      </trkpt>
      <trkpt lat="48.97632" lon="7.81606">
        <ele>414</ele>
        <time>2021-06-26T13:35:30Z</time>
      </trkpt>
      <trkpt lat="48.97634" lon="7.81605">
        <ele>414.2</ele>
        <time>2021-06-26T13:35:31Z</time>
      </trkpt>
      <trkpt lat="48.97636" lon="7.81604">
        <ele>414.2</ele>
        <time>2021-06-26T13:35:32Z</time>
      </trkpt>
      <trkpt lat="48.97637" lon="7.81603">
        <ele>414.4</ele>
        <time>2021-06-26T13:35:33Z</time>
      </trkpt>
      <trkpt lat="48.97639" lon="7.81602">
        <ele>414.6</ele>
        <time>2021-06-26T13:35:34Z</time>
      </trkpt>
      <trkpt lat="48.97642" lon="7.81602">
        <ele>414.6</ele>
        <time>2021-06-26T13:35:35Z</time>
      </trkpt>
      <trkpt lat="48.97643" lon="7.81601">
        <ele>414.8</ele>
        <time>2021-06-26T13:35:36Z</time>
      </trkpt>
      <trkpt lat="48.97644" lon="7.81601">
        <ele>415</ele>
        <time>2021-06-26T13:35:37Z</time>
      </trkpt>
      <trkpt lat="48.97645" lon="7.81601">
        <ele>415.2</ele>
        <time>2021-06-26T13:35:38Z</time>
      </trkpt>
      <trkpt lat="48.97647" lon="7.81601">
        <ele>415.4</ele>
        <time>2021-06-26T13:35:39Z</time>
      </trkpt>
      <trkpt lat="48.97649" lon="7.81602">
        <ele>415.4</ele>
        <time>2021-06-26T13:35:40Z</time>
      </trkpt>
      <trkpt lat="48.9765" lon="7.81602">
        <ele>415.6</ele>
        <time>2021-06-26T13:35:41Z</time>
      </trkpt>
      <trkpt lat="48.97652" lon="7.81602">
        <ele>415.8</ele>
        <time>2021-06-26T13:35:42Z</time>
      </trkpt>
      <trkpt lat="48.97654" lon="7.81602">
        <ele>416</ele>
        <time>2021-06-26T13:35:43Z</time>
      </trkpt>
      <trkpt lat="48.97655" lon="7.81601">
        <ele>416.2</ele>
        <time>2021-06-26T13:35:44Z</time>
      </trkpt>
      <trkpt lat="48.97656" lon="7.81601">
        <ele>416.4</ele>
        <time>2021-06-26T13:35:45Z</time>
      </trkpt>
      <trkpt lat="48.97658" lon="7.81601">
        <ele>416.6</ele>
        <time>2021-06-26T13:35:46Z</time>
      </trkpt>
      <trkpt lat="48.97659" lon="7.816">
        <ele>416.8</ele>
        <time>2021-06-26T13:35:47Z</time>
      </trkpt>
      <trkpt lat="48.97661" lon="7.816">
        <ele>417</ele>
        <time>2021-06-26T13:35:48Z</time>
      </trkpt>
      <trkpt lat="48.97662" lon="7.81599">
        <ele>417.2</ele>
        <time>2021-06-26T13:35:49Z</time>
      </trkpt>
      <trkpt lat="48.97662" lon="7.81599">
        <ele>417.6</ele>
        <time>2021-06-26T13:35:50Z</time>
      </trkpt>
      <trkpt lat="48.97662" lon="7.81599">
        <ele>417.8</ele>
        <time>2021-06-26T13:35:51Z</time>
      </trkpt>
      <trkpt lat="48.97662" lon="7.81599">
        <ele>417.8</ele>
        <time>2021-06-26T13:35:52Z</time>
      </trkpt>
      <trkpt lat="48.97664" lon="7.81599">
        <ele>418</ele>
        <time>2021-06-26T13:35:53Z</time>
      </trkpt>
      <trkpt lat="48.97665" lon="7.81598">
        <ele>418.2</ele>
        <time>2021-06-26T13:35:54Z</time>
      </trkpt>
      <trkpt lat="48.97666" lon="7.81598">
        <ele>418.4</ele>
        <time>2021-06-26T13:35:55Z</time>
      </trkpt>
      <trkpt lat="48.97667" lon="7.81597">
        <ele>418.4</ele>
        <time>2021-06-26T13:35:56Z</time>
      </trkpt>
      <trkpt lat="48.97669" lon="7.81596">
        <ele>418.4</ele>
        <time>2021-06-26T13:35:57Z</time>
      </trkpt>
      <trkpt lat="48.9767" lon="7.81595">
        <ele>418.6</ele>
        <time>2021-06-26T13:35:58Z</time>
      </trkpt>
      <trkpt lat="48.97671" lon="7.81595">
        <ele>418.6</ele>
        <time>2021-06-26T13:35:59Z</time>
      </trkpt>
      <trkpt lat="48.97672" lon="7.81595">
        <ele>418.8</ele>
        <time>2021-06-26T13:36:00Z</time>
      </trkpt>
      <trkpt lat="48.97674" lon="7.81595">
        <ele>419</ele>
        <time>2021-06-26T13:36:01Z</time>
      </trkpt>
      <trkpt lat="48.97675" lon="7.81594">
        <ele>419.2</ele>
        <time>2021-06-26T13:36:02Z</time>
      </trkpt>
      <trkpt lat="48.97676" lon="7.81594">
        <ele>419.2</ele>
        <time>2021-06-26T13:36:03Z</time>
      </trkpt>
      <trkpt lat="48.97679" lon="7.81594">
        <ele>419.4</ele>
        <time>2021-06-26T13:36:04Z</time>
      </trkpt>
      <trkpt lat="48.9768" lon="7.81595">
        <ele>419.6</ele>
        <time>2021-06-26T13:36:05Z</time>
      </trkpt>
      <trkpt lat="48.97682" lon="7.81595">
        <ele>419.8</ele>
        <time>2021-06-26T13:36:06Z</time>
      </trkpt>
      <trkpt lat="48.97684" lon="7.81594">
        <ele>419.8</ele>
        <time>2021-06-26T13:36:07Z</time>
      </trkpt>
      <trkpt lat="48.97686" lon="7.81594">
        <ele>419.8</ele>
        <time>2021-06-26T13:36:08Z</time>
      </trkpt>
      <trkpt lat="48.97687" lon="7.81593">
        <ele>420</ele>
        <time>2021-06-26T13:36:09Z</time>
      </trkpt>
      <trkpt lat="48.97689" lon="7.81593">
        <ele>420.2</ele>
        <time>2021-06-26T13:36:10Z</time>
      </trkpt>
      <trkpt lat="48.9769" lon="7.81592">
        <ele>420.4</ele>
        <time>2021-06-26T13:36:11Z</time>
      </trkpt>
      <trkpt lat="48.97691" lon="7.81592">
        <ele>420.6</ele>
        <time>2021-06-26T13:36:12Z</time>
      </trkpt>
      <trkpt lat="48.97693" lon="7.81591">
        <ele>420.6</ele>
        <time>2021-06-26T13:36:13Z</time>
      </trkpt>
      <trkpt lat="48.97695" lon="7.81591">
        <ele>420.8</ele>
        <time>2021-06-26T13:36:14Z</time>
      </trkpt>
      <trkpt lat="48.97697" lon="7.81592">
        <ele>421</ele>
        <time>2021-06-26T13:36:15Z</time>
      </trkpt>
      <trkpt lat="48.977" lon="7.81592">
        <ele>421.2</ele>
        <time>2021-06-26T13:36:16Z</time>
      </trkpt>
      <trkpt lat="48.97703" lon="7.81593">
        <ele>421.2</ele>
        <time>2021-06-26T13:36:17Z</time>
      </trkpt>
      <trkpt lat="48.97706" lon="7.81594">
        <ele>421.2</ele>
        <time>2021-06-26T13:36:18Z</time>
      </trkpt>
      <trkpt lat="48.97709" lon="7.81594">
        <ele>421.4</ele>
        <time>2021-06-26T13:36:19Z</time>
      </trkpt>
      <trkpt lat="48.97713" lon="7.81596">
        <ele>421.4</ele>
        <time>2021-06-26T13:36:20Z</time>
      </trkpt>
      <trkpt lat="48.97717" lon="7.81598">
        <ele>421.4</ele>
        <time>2021-06-26T13:36:21Z</time>
      </trkpt>
      <trkpt lat="48.97721" lon="7.816">
        <ele>421.4</ele>
        <time>2021-06-26T13:36:22Z</time>
      </trkpt>
      <trkpt lat="48.97726" lon="7.81603">
        <ele>421.6</ele>
        <time>2021-06-26T13:36:23Z</time>
      </trkpt>
      <trkpt lat="48.9773" lon="7.81607">
        <ele>421.6</ele>
        <time>2021-06-26T13:36:24Z</time>
      </trkpt>
      <trkpt lat="48.97736" lon="7.81612">
        <ele>421.6</ele>
        <time>2021-06-26T13:36:25Z</time>
      </trkpt>
      <trkpt lat="48.97739" lon="7.81614">
        <ele>421.6</ele>
        <time>2021-06-26T13:36:26Z</time>
      </trkpt>
      <trkpt lat="48.97744" lon="7.81617">
        <ele>421.4</ele>
        <time>2021-06-26T13:36:27Z</time>
      </trkpt>
      <trkpt lat="48.97748" lon="7.8162">
        <ele>421</ele>
        <time>2021-06-26T13:36:28Z</time>
      </trkpt>
      <trkpt lat="48.97751" lon="7.81621">
        <ele>420.8</ele>
        <time>2021-06-26T13:36:29Z</time>
      </trkpt>
      <trkpt lat="48.97754" lon="7.81623">
        <ele>420.4</ele>
        <time>2021-06-26T13:36:30Z</time>
      </trkpt>
      <trkpt lat="48.97757" lon="7.81625">
        <ele>420.4</ele>
        <time>2021-06-26T13:36:31Z</time>
      </trkpt>
      <trkpt lat="48.97761" lon="7.81628">
        <ele>420</ele>
        <time>2021-06-26T13:36:32Z</time>
      </trkpt>
      <trkpt lat="48.97764" lon="7.81629">
        <ele>419.8</ele>
        <time>2021-06-26T13:36:33Z</time>
      </trkpt>
      <trkpt lat="48.97766" lon="7.8163">
        <ele>419.6</ele>
        <time>2021-06-26T13:36:34Z</time>
      </trkpt>
      <trkpt lat="48.97768" lon="7.81631">
        <ele>419.6</ele>
        <time>2021-06-26T13:36:35Z</time>
      </trkpt>
      <trkpt lat="48.9777" lon="7.81632">
        <ele>419.6</ele>
        <time>2021-06-26T13:36:36Z</time>
      </trkpt>
      <trkpt lat="48.97772" lon="7.81633">
        <ele>419.6</ele>
        <time>2021-06-26T13:36:37Z</time>
      </trkpt>
      <trkpt lat="48.97774" lon="7.81635">
        <ele>419.6</ele>
        <time>2021-06-26T13:36:38Z</time>
      </trkpt>
      <trkpt lat="48.97775" lon="7.81634">
        <ele>419.6</ele>
        <time>2021-06-26T13:36:39Z</time>
      </trkpt>
      <trkpt lat="48.97776" lon="7.81634">
        <ele>419.6</ele>
        <time>2021-06-26T13:36:40Z</time>
      </trkpt>
      <trkpt lat="48.97776" lon="7.81634">
        <ele>419.6</ele>
        <time>2021-06-26T13:36:41Z</time>
      </trkpt>
      <trkpt lat="48.97777" lon="7.81634">
        <ele>419.6</ele>
        <time>2021-06-26T13:36:42Z</time>
      </trkpt>
      <trkpt lat="48.97778" lon="7.81633">
        <ele>419.8</ele>
        <time>2021-06-26T13:36:43Z</time>
      </trkpt>
      <trkpt lat="48.9778" lon="7.81633">
        <ele>420.2</ele>
        <time>2021-06-26T13:36:45Z</time>
      </trkpt>
      <trkpt lat="48.97786" lon="7.81633">
        <ele>421</ele>
        <time>2021-06-26T13:36:48Z</time>
      </trkpt>
      <trkpt lat="48.97787" lon="7.81633">
        <ele>421.2</ele>
        <time>2021-06-26T13:36:49Z</time>
      </trkpt>
      <trkpt lat="48.97789" lon="7.81633">
        <ele>421.4</ele>
        <time>2021-06-26T13:36:50Z</time>
      </trkpt>
      <trkpt lat="48.9779" lon="7.81634">
        <ele>421.6</ele>
        <time>2021-06-26T13:36:51Z</time>
      </trkpt>
      <trkpt lat="48.97792" lon="7.81635">
        <ele>421.8</ele>
        <time>2021-06-26T13:36:52Z</time>
      </trkpt>
      <trkpt lat="48.97794" lon="7.81636">
        <ele>421.8</ele>
        <time>2021-06-26T13:36:53Z</time>
      </trkpt>
      <trkpt lat="48.97795" lon="7.81637">
        <ele>422.2</ele>
        <time>2021-06-26T13:36:54Z</time>
      </trkpt>
      <trkpt lat="48.97796" lon="7.81638">
        <ele>422.4</ele>
        <time>2021-06-26T13:36:55Z</time>
      </trkpt>
      <trkpt lat="48.97796" lon="7.8164">
        <ele>422.4</ele>
        <time>2021-06-26T13:36:56Z</time>
      </trkpt>
      <trkpt lat="48.97797" lon="7.81641">
        <ele>422.4</ele>
        <time>2021-06-26T13:36:57Z</time>
      </trkpt>
      <trkpt lat="48.97797" lon="7.81644">
        <ele>422.8</ele>
        <time>2021-06-26T13:36:58Z</time>
      </trkpt>
      <trkpt lat="48.97797" lon="7.81646">
        <ele>423</ele>
        <time>2021-06-26T13:36:59Z</time>
      </trkpt>
      <trkpt lat="48.97797" lon="7.81648">
        <ele>423.2</ele>
        <time>2021-06-26T13:37:00Z</time>
      </trkpt>
      <trkpt lat="48.97797" lon="7.81652">
        <ele>423.2</ele>
        <time>2021-06-26T13:37:02Z</time>
      </trkpt>
      <trkpt lat="48.97799" lon="7.81655">
        <ele>423.2</ele>
        <time>2021-06-26T13:37:03Z</time>
      </trkpt>
      <trkpt lat="48.97798" lon="7.81657">
        <ele>423.2</ele>
        <time>2021-06-26T13:37:04Z</time>
      </trkpt>
      <trkpt lat="48.97799" lon="7.8166">
        <ele>423.2</ele>
        <time>2021-06-26T13:37:05Z</time>
      </trkpt>
      <trkpt lat="48.97799" lon="7.81661">
        <ele>423.4</ele>
        <time>2021-06-26T13:37:06Z</time>
      </trkpt>
      <trkpt lat="48.97798" lon="7.81663">
        <ele>423.4</ele>
        <time>2021-06-26T13:37:07Z</time>
      </trkpt>
      <trkpt lat="48.97799" lon="7.81666">
        <ele>423.4</ele>
        <time>2021-06-26T13:37:08Z</time>
      </trkpt>
      <trkpt lat="48.97799" lon="7.81667">
        <ele>423.4</ele>
        <time>2021-06-26T13:37:09Z</time>
      </trkpt>
      <trkpt lat="48.97799" lon="7.81668">
        <ele>423.6</ele>
        <time>2021-06-26T13:37:10Z</time>
      </trkpt>
      <trkpt lat="48.97799" lon="7.81668">
        <ele>423.6</ele>
        <time>2021-06-26T13:37:11Z</time>
      </trkpt>
      <trkpt lat="48.97799" lon="7.81669">
        <ele>423.8</ele>
        <time>2021-06-26T13:37:12Z</time>
      </trkpt>
      <trkpt lat="48.97798" lon="7.81671">
        <ele>424</ele>
        <time>2021-06-26T13:37:13Z</time>
      </trkpt>
      <trkpt lat="48.97799" lon="7.81672">
        <ele>424</ele>
        <time>2021-06-26T13:37:14Z</time>
      </trkpt>
      <trkpt lat="48.978" lon="7.81674">
        <ele>424</ele>
        <time>2021-06-26T13:37:15Z</time>
      </trkpt>
      <trkpt lat="48.97801" lon="7.81675">
        <ele>424.2</ele>
        <time>2021-06-26T13:37:16Z</time>
      </trkpt>
      <trkpt lat="48.97801" lon="7.81675">
        <ele>424.2</ele>
        <time>2021-06-26T13:37:17Z</time>
      </trkpt>
      <trkpt lat="48.97801" lon="7.81675">
        <ele>424.4</ele>
        <time>2021-06-26T13:37:19Z</time>
      </trkpt>
      <trkpt lat="48.97802" lon="7.8168">
        <ele>425</ele>
        <time>2021-06-26T13:37:55Z</time>
      </trkpt>
      <trkpt lat="48.97802" lon="7.81681">
        <ele>425</ele>
        <time>2021-06-26T13:37:56Z</time>
      </trkpt>
      <trkpt lat="48.97801" lon="7.81682">
        <ele>425</ele>
        <time>2021-06-26T13:37:57Z</time>
      </trkpt>
      <trkpt lat="48.97801" lon="7.81682">
        <ele>425.2</ele>
        <time>2021-06-26T13:37:59Z</time>
      </trkpt>
      <trkpt lat="48.97801" lon="7.81682">
        <ele>425.8</ele>
        <time>2021-06-26T13:38:01Z</time>
      </trkpt>
      <trkpt lat="48.978" lon="7.81687">
        <ele>426.6</ele>
        <time>2021-06-26T13:38:46Z</time>
      </trkpt>
      <trkpt lat="48.978" lon="7.81687">
        <ele>426.4</ele>
        <time>2021-06-26T13:38:49Z</time>
      </trkpt>
      <trkpt lat="48.978" lon="7.81695">
        <ele>426.2</ele>
        <time>2021-06-26T13:39:21Z</time>
      </trkpt>
      <trkpt lat="48.97798" lon="7.81702">
        <ele>426</ele>
        <time>2021-06-26T13:39:23Z</time>
      </trkpt>
      <trkpt lat="48.97799" lon="7.81707">
        <ele>426</ele>
        <time>2021-06-26T13:39:24Z</time>
      </trkpt>
      <trkpt lat="48.97798" lon="7.81711">
        <ele>426</ele>
        <time>2021-06-26T13:39:25Z</time>
      </trkpt>
      <trkpt lat="48.97797" lon="7.81715">
        <ele>426</ele>
        <time>2021-06-26T13:39:26Z</time>
      </trkpt>
      <trkpt lat="48.97792" lon="7.81732">
        <ele>426</ele>
        <time>2021-06-26T13:39:30Z</time>
      </trkpt>
      <trkpt lat="48.97786" lon="7.81751">
        <ele>426</ele>
        <time>2021-06-26T13:39:35Z</time>
      </trkpt>
      <trkpt lat="48.97786" lon="7.81754">
        <ele>426</ele>
        <time>2021-06-26T13:39:36Z</time>
      </trkpt>
      <trkpt lat="48.97784" lon="7.81769">
        <ele>425.8</ele>
        <time>2021-06-26T13:39:39Z</time>
      </trkpt>
      <trkpt lat="48.97786" lon="7.81773">
        <ele>425.6</ele>
        <time>2021-06-26T13:39:40Z</time>
      </trkpt>
      <trkpt lat="48.97787" lon="7.81775">
        <ele>425.6</ele>
        <time>2021-06-26T13:39:41Z</time>
      </trkpt>
      <trkpt lat="48.97788" lon="7.81776">
        <ele>425.6</ele>
        <time>2021-06-26T13:39:42Z</time>
      </trkpt>
      <trkpt lat="48.97789" lon="7.81776">
        <ele>425.6</ele>
        <time>2021-06-26T13:39:43Z</time>
      </trkpt>
      <trkpt lat="48.97789" lon="7.81775">
        <ele>425.6</ele>
        <time>2021-06-26T13:39:44Z</time>
      </trkpt>
      <trkpt lat="48.97791" lon="7.81775">
        <ele>425.6</ele>
        <time>2021-06-26T13:39:45Z</time>
      </trkpt>
      <trkpt lat="48.97792" lon="7.81774">
        <ele>425.6</ele>
        <time>2021-06-26T13:39:46Z</time>
      </trkpt>
      <trkpt lat="48.97793" lon="7.81772">
        <ele>425.6</ele>
        <time>2021-06-26T13:39:47Z</time>
      </trkpt>
      <trkpt lat="48.97795" lon="7.81769">
        <ele>425.6</ele>
        <time>2021-06-26T13:39:48Z</time>
      </trkpt>
      <trkpt lat="48.97796" lon="7.81767">
        <ele>425.6</ele>
        <time>2021-06-26T13:39:49Z</time>
      </trkpt>
      <trkpt lat="48.97797" lon="7.81765">
        <ele>425.6</ele>
        <time>2021-06-26T13:39:50Z</time>
      </trkpt>
      <trkpt lat="48.97798" lon="7.81764">
        <ele>425.6</ele>
        <time>2021-06-26T13:39:51Z</time>
      </trkpt>
      <trkpt lat="48.978" lon="7.81762">
        <ele>425.8</ele>
        <time>2021-06-26T13:39:52Z</time>
      </trkpt>
      <trkpt lat="48.97801" lon="7.81761">
        <ele>426</ele>
        <time>2021-06-26T13:39:53Z</time>
      </trkpt>
      <trkpt lat="48.97802" lon="7.81758">
        <ele>426.2</ele>
        <time>2021-06-26T13:39:54Z</time>
      </trkpt>
      <trkpt lat="48.97804" lon="7.81756">
        <ele>426.6</ele>
        <time>2021-06-26T13:39:55Z</time>
      </trkpt>
      <trkpt lat="48.97809" lon="7.81752">
        <ele>427</ele>
        <time>2021-06-26T13:39:58Z</time>
      </trkpt>
      <trkpt lat="48.97812" lon="7.8175">
        <ele>427.4</ele>
        <time>2021-06-26T13:39:59Z</time>
      </trkpt>
      <trkpt lat="48.97813" lon="7.81748">
        <ele>427.8</ele>
        <time>2021-06-26T13:40:00Z</time>
      </trkpt>
      <trkpt lat="48.97814" lon="7.81746">
        <ele>428</ele>
        <time>2021-06-26T13:40:01Z</time>
      </trkpt>
      <trkpt lat="48.97815" lon="7.81743">
        <ele>428.2</ele>
        <time>2021-06-26T13:40:02Z</time>
      </trkpt>
      <trkpt lat="48.97817" lon="7.81741">
        <ele>428.6</ele>
        <time>2021-06-26T13:40:03Z</time>
      </trkpt>
      <trkpt lat="48.97817" lon="7.81738">
        <ele>428.8</ele>
        <time>2021-06-26T13:40:04Z</time>
      </trkpt>
      <trkpt lat="48.97818" lon="7.81735">
        <ele>429.2</ele>
        <time>2021-06-26T13:40:05Z</time>
      </trkpt>
      <trkpt lat="48.9782" lon="7.8173">
        <ele>429.4</ele>
        <time>2021-06-26T13:40:06Z</time>
      </trkpt>
      <trkpt lat="48.9782" lon="7.81728">
        <ele>429.8</ele>
        <time>2021-06-26T13:40:07Z</time>
      </trkpt>
      <trkpt lat="48.97822" lon="7.81726">
        <ele>430</ele>
        <time>2021-06-26T13:40:08Z</time>
      </trkpt>
      <trkpt lat="48.97824" lon="7.81725">
        <ele>430.2</ele>
        <time>2021-06-26T13:40:09Z</time>
      </trkpt>
      <trkpt lat="48.97826" lon="7.81722">
        <ele>430.4</ele>
        <time>2021-06-26T13:40:10Z</time>
      </trkpt>
      <trkpt lat="48.97827" lon="7.8172">
        <ele>430.6</ele>
        <time>2021-06-26T13:40:11Z</time>
      </trkpt>
      <trkpt lat="48.97827" lon="7.8172">
        <ele>430.8</ele>
        <time>2021-06-26T13:40:12Z</time>
      </trkpt>
      <trkpt lat="48.97828" lon="7.81718">
        <ele>431.2</ele>
        <time>2021-06-26T13:40:13Z</time>
      </trkpt>
      <trkpt lat="48.97829" lon="7.81717">
        <ele>431.4</ele>
        <time>2021-06-26T13:40:14Z</time>
      </trkpt>
      <trkpt lat="48.97831" lon="7.81715">
        <ele>431.8</ele>
        <time>2021-06-26T13:40:15Z</time>
      </trkpt>
      <trkpt lat="48.97832" lon="7.81713">
        <ele>431.8</ele>
        <time>2021-06-26T13:40:16Z</time>
      </trkpt>
      <trkpt lat="48.97832" lon="7.81712">
        <ele>432.2</ele>
        <time>2021-06-26T13:40:17Z</time>
      </trkpt>
      <trkpt lat="48.97833" lon="7.81711">
        <ele>432.4</ele>
        <time>2021-06-26T13:40:18Z</time>
      </trkpt>
      <trkpt lat="48.97834" lon="7.81709">
        <ele>432.6</ele>
        <time>2021-06-26T13:40:19Z</time>
      </trkpt>
      <trkpt lat="48.97835" lon="7.81708">
        <ele>432.8</ele>
        <time>2021-06-26T13:40:20Z</time>
      </trkpt>
      <trkpt lat="48.97835" lon="7.81706">
        <ele>433</ele>
        <time>2021-06-26T13:40:21Z</time>
      </trkpt>
      <trkpt lat="48.97836" lon="7.81705">
        <ele>433.4</ele>
        <time>2021-06-26T13:40:22Z</time>
      </trkpt>
      <trkpt lat="48.97836" lon="7.81704">
        <ele>433.6</ele>
        <time>2021-06-26T13:40:23Z</time>
      </trkpt>
      <trkpt lat="48.97837" lon="7.81702">
        <ele>433.8</ele>
        <time>2021-06-26T13:40:24Z</time>
      </trkpt>
      <trkpt lat="48.97838" lon="7.81699">
        <ele>434.2</ele>
        <time>2021-06-26T13:40:25Z</time>
      </trkpt>
      <trkpt lat="48.97838" lon="7.81697">
        <ele>434.4</ele>
        <time>2021-06-26T13:40:26Z</time>
      </trkpt>
      <trkpt lat="48.97839" lon="7.81695">
        <ele>434.6</ele>
        <time>2021-06-26T13:40:27Z</time>
      </trkpt>
      <trkpt lat="48.9784" lon="7.81692">
        <ele>434.6</ele>
        <time>2021-06-26T13:40:28Z</time>
      </trkpt>
      <trkpt lat="48.97842" lon="7.8169">
        <ele>434.8</ele>
        <time>2021-06-26T13:40:29Z</time>
      </trkpt>
      <trkpt lat="48.97842" lon="7.81689">
        <ele>435</ele>
        <time>2021-06-26T13:40:30Z</time>
      </trkpt>
      <trkpt lat="48.97843" lon="7.81688">
        <ele>435.2</ele>
        <time>2021-06-26T13:40:31Z</time>
      </trkpt>
      <trkpt lat="48.97844" lon="7.81686">
        <ele>435.4</ele>
        <time>2021-06-26T13:40:32Z</time>
      </trkpt>
      <trkpt lat="48.97844" lon="7.81684">
        <ele>435.4</ele>
        <time>2021-06-26T13:40:33Z</time>
      </trkpt>
      <trkpt lat="48.97845" lon="7.81682">
        <ele>435.6</ele>
        <time>2021-06-26T13:40:34Z</time>
      </trkpt>
      <trkpt lat="48.97846" lon="7.81681">
        <ele>435.8</ele>
        <time>2021-06-26T13:40:35Z</time>
      </trkpt>
      <trkpt lat="48.97846" lon="7.81678">
        <ele>436</ele>
        <time>2021-06-26T13:40:36Z</time>
      </trkpt>
      <trkpt lat="48.97846" lon="7.81676">
        <ele>436.2</ele>
        <time>2021-06-26T13:40:37Z</time>
      </trkpt>
      <trkpt lat="48.97846" lon="7.81675">
        <ele>436.6</ele>
        <time>2021-06-26T13:40:38Z</time>
      </trkpt>
      <trkpt lat="48.97846" lon="7.81673">
        <ele>437</ele>
        <time>2021-06-26T13:40:39Z</time>
      </trkpt>
      <trkpt lat="48.97847" lon="7.81671">
        <ele>437.2</ele>
        <time>2021-06-26T13:40:40Z</time>
      </trkpt>
      <trkpt lat="48.97847" lon="7.81669">
        <ele>437.2</ele>
        <time>2021-06-26T13:40:41Z</time>
      </trkpt>
      <trkpt lat="48.97848" lon="7.81668">
        <ele>437.2</ele>
        <time>2021-06-26T13:40:42Z</time>
      </trkpt>
      <trkpt lat="48.97847" lon="7.81666">
        <ele>437.4</ele>
        <time>2021-06-26T13:40:43Z</time>
      </trkpt>
      <trkpt lat="48.97847" lon="7.81665">
        <ele>437.4</ele>
        <time>2021-06-26T13:40:44Z</time>
      </trkpt>
      <trkpt lat="48.97848" lon="7.81664">
        <ele>437.4</ele>
        <time>2021-06-26T13:40:45Z</time>
      </trkpt>
      <trkpt lat="48.97848" lon="7.81661">
        <ele>437.4</ele>
        <time>2021-06-26T13:40:46Z</time>
      </trkpt>
      <trkpt lat="48.97848" lon="7.81659">
        <ele>437.4</ele>
        <time>2021-06-26T13:40:47Z</time>
      </trkpt>
      <trkpt lat="48.97847" lon="7.81657">
        <ele>437.4</ele>
        <time>2021-06-26T13:40:48Z</time>
      </trkpt>
      <trkpt lat="48.97847" lon="7.81656">
        <ele>437.4</ele>
        <time>2021-06-26T13:40:49Z</time>
      </trkpt>
      <trkpt lat="48.97847" lon="7.81654">
        <ele>437.4</ele>
        <time>2021-06-26T13:40:50Z</time>
      </trkpt>
      <trkpt lat="48.97847" lon="7.81652">
        <ele>437.4</ele>
        <time>2021-06-26T13:40:51Z</time>
      </trkpt>
      <trkpt lat="48.97847" lon="7.8165">
        <ele>437.4</ele>
        <time>2021-06-26T13:40:52Z</time>
      </trkpt>
      <trkpt lat="48.97847" lon="7.81648">
        <ele>437.4</ele>
        <time>2021-06-26T13:40:53Z</time>
      </trkpt>
      <trkpt lat="48.97847" lon="7.81646">
        <ele>437.4</ele>
        <time>2021-06-26T13:40:54Z</time>
      </trkpt>
      <trkpt lat="48.97848" lon="7.81644">
        <ele>437.4</ele>
        <time>2021-06-26T13:40:55Z</time>
      </trkpt>
      <trkpt lat="48.97848" lon="7.81642">
        <ele>437.4</ele>
        <time>2021-06-26T13:40:56Z</time>
      </trkpt>
      <trkpt lat="48.97848" lon="7.8164">
        <ele>437.4</ele>
        <time>2021-06-26T13:40:57Z</time>
      </trkpt>
      <trkpt lat="48.97848" lon="7.81638">
        <ele>437.4</ele>
        <time>2021-06-26T13:40:58Z</time>
      </trkpt>
      <trkpt lat="48.97847" lon="7.81636">
        <ele>437.4</ele>
        <time>2021-06-26T13:40:59Z</time>
      </trkpt>
      <trkpt lat="48.97845" lon="7.81624">
        <ele>437.6</ele>
        <time>2021-06-26T13:41:04Z</time>
      </trkpt>
      <trkpt lat="48.97844" lon="7.8162">
        <ele>437.6</ele>
        <time>2021-06-26T13:41:06Z</time>
      </trkpt>
      <trkpt lat="48.97844" lon="7.81618">
        <ele>437.6</ele>
        <time>2021-06-26T13:41:07Z</time>
      </trkpt>
      <trkpt lat="48.97844" lon="7.81612">
        <ele>437.8</ele>
        <time>2021-06-26T13:41:10Z</time>
      </trkpt>
      <trkpt lat="48.97842" lon="7.81604">
        <ele>437.8</ele>
        <time>2021-06-26T13:41:13Z</time>
      </trkpt>
      <trkpt lat="48.9784" lon="7.81601">
        <ele>437.8</ele>
        <time>2021-06-26T13:41:14Z</time>
      </trkpt>
      <trkpt lat="48.97838" lon="7.81596">
        <ele>437.8</ele>
        <time>2021-06-26T13:41:16Z</time>
      </trkpt>
      <trkpt lat="48.97838" lon="7.81594">
        <ele>437.8</ele>
        <time>2021-06-26T13:41:17Z</time>
      </trkpt>
      <trkpt lat="48.97838" lon="7.81592">
        <ele>437.8</ele>
        <time>2021-06-26T13:41:18Z</time>
      </trkpt>
      <trkpt lat="48.97838" lon="7.8159">
        <ele>437.8</ele>
        <time>2021-06-26T13:41:19Z</time>
      </trkpt>
      <trkpt lat="48.97839" lon="7.81588">
        <ele>437.8</ele>
        <time>2021-06-26T13:41:20Z</time>
      </trkpt>
      <trkpt lat="48.97839" lon="7.81587">
        <ele>437.8</ele>
        <time>2021-06-26T13:41:21Z</time>
      </trkpt>
      <trkpt lat="48.97839" lon="7.81585">
        <ele>438</ele>
        <time>2021-06-26T13:41:22Z</time>
      </trkpt>
      <trkpt lat="48.97839" lon="7.81584">
        <ele>438</ele>
        <time>2021-06-26T13:41:23Z</time>
      </trkpt>
      <trkpt lat="48.97839" lon="7.81583">
        <ele>438</ele>
        <time>2021-06-26T13:41:24Z</time>
      </trkpt>
      <trkpt lat="48.97839" lon="7.81582">
        <ele>438</ele>
        <time>2021-06-26T13:41:25Z</time>
      </trkpt>
      <trkpt lat="48.9784" lon="7.8158">
        <ele>438.2</ele>
        <time>2021-06-26T13:41:26Z</time>
      </trkpt>
      <trkpt lat="48.97841" lon="7.81578">
        <ele>438.4</ele>
        <time>2021-06-26T13:41:27Z</time>
      </trkpt>
      <trkpt lat="48.97841" lon="7.81577">
        <ele>438.8</ele>
        <time>2021-06-26T13:41:28Z</time>
      </trkpt>
      <trkpt lat="48.97841" lon="7.81576">
        <ele>439</ele>
        <time>2021-06-26T13:41:29Z</time>
      </trkpt>
      <trkpt lat="48.97842" lon="7.81574">
        <ele>439.2</ele>
        <time>2021-06-26T13:41:30Z</time>
      </trkpt>
      <trkpt lat="48.97843" lon="7.81572">
        <ele>439.4</ele>
        <time>2021-06-26T13:41:31Z</time>
      </trkpt>
      <trkpt lat="48.97845" lon="7.81568">
        <ele>439.8</ele>
        <time>2021-06-26T13:41:32Z</time>
      </trkpt>
      <trkpt lat="48.97845" lon="7.81566">
        <ele>440</ele>
        <time>2021-06-26T13:41:33Z</time>
      </trkpt>
      <trkpt lat="48.97846" lon="7.81565">
        <ele>440.2</ele>
        <time>2021-06-26T13:41:34Z</time>
      </trkpt>
      <trkpt lat="48.97846" lon="7.81564">
        <ele>440.4</ele>
        <time>2021-06-26T13:41:35Z</time>
      </trkpt>
      <trkpt lat="48.97846" lon="7.81562">
        <ele>440.6</ele>
        <time>2021-06-26T13:41:36Z</time>
      </trkpt>
      <trkpt lat="48.97847" lon="7.81561">
        <ele>440.6</ele>
        <time>2021-06-26T13:41:37Z</time>
      </trkpt>
      <trkpt lat="48.97848" lon="7.81559">
        <ele>440.8</ele>
        <time>2021-06-26T13:41:38Z</time>
      </trkpt>
      <trkpt lat="48.97849" lon="7.81558">
        <ele>441</ele>
        <time>2021-06-26T13:41:39Z</time>
      </trkpt>
      <trkpt lat="48.9785" lon="7.81556">
        <ele>441.2</ele>
        <time>2021-06-26T13:41:40Z</time>
      </trkpt>
      <trkpt lat="48.9785" lon="7.81555">
        <ele>441.4</ele>
        <time>2021-06-26T13:41:41Z</time>
      </trkpt>
      <trkpt lat="48.97852" lon="7.81553">
        <ele>441.6</ele>
        <time>2021-06-26T13:41:42Z</time>
      </trkpt>
      <trkpt lat="48.97854" lon="7.8155">
        <ele>441.6</ele>
        <time>2021-06-26T13:41:43Z</time>
      </trkpt>
      <trkpt lat="48.97854" lon="7.81549">
        <ele>441.6</ele>
        <time>2021-06-26T13:41:44Z</time>
      </trkpt>
      <trkpt lat="48.97854" lon="7.81549">
        <ele>442</ele>
        <time>2021-06-26T13:41:45Z</time>
      </trkpt>
      <trkpt lat="48.97854" lon="7.81549">
        <ele>442.2</ele>
        <time>2021-06-26T13:41:46Z</time>
      </trkpt>
      <trkpt lat="48.97854" lon="7.81547">
        <ele>444</ele>
        <time>2021-06-26T13:44:19Z</time>
      </trkpt>
      <trkpt lat="48.97855" lon="7.81546">
        <ele>444</ele>
        <time>2021-06-26T13:44:20Z</time>
      </trkpt>
      <trkpt lat="48.97856" lon="7.81535">
        <ele>444.4</ele>
        <time>2021-06-26T13:44:25Z</time>
      </trkpt>
      <trkpt lat="48.97857" lon="7.81533">
        <ele>444.4</ele>
        <time>2021-06-26T13:44:26Z</time>
      </trkpt>
      <trkpt lat="48.97858" lon="7.8153">
        <ele>444.6</ele>
        <time>2021-06-26T13:44:27Z</time>
      </trkpt>
      <trkpt lat="48.97859" lon="7.81528">
        <ele>444.8</ele>
        <time>2021-06-26T13:44:29Z</time>
      </trkpt>
      <trkpt lat="48.9786" lon="7.81525">
        <ele>445</ele>
        <time>2021-06-26T13:44:30Z</time>
      </trkpt>
      <trkpt lat="48.9786" lon="7.81524">
        <ele>445</ele>
        <time>2021-06-26T13:44:31Z</time>
      </trkpt>
      <trkpt lat="48.97861" lon="7.81523">
        <ele>445.2</ele>
        <time>2021-06-26T13:44:32Z</time>
      </trkpt>
      <trkpt lat="48.97861" lon="7.81521">
        <ele>445.2</ele>
        <time>2021-06-26T13:44:33Z</time>
      </trkpt>
      <trkpt lat="48.97861" lon="7.81521">
        <ele>445.4</ele>
        <time>2021-06-26T13:44:34Z</time>
      </trkpt>
      <trkpt lat="48.97863" lon="7.81518">
        <ele>445.6</ele>
        <time>2021-06-26T13:44:35Z</time>
      </trkpt>
      <trkpt lat="48.97864" lon="7.81515">
        <ele>445.6</ele>
        <time>2021-06-26T13:44:36Z</time>
      </trkpt>
      <trkpt lat="48.97864" lon="7.81512">
        <ele>445.8</ele>
        <time>2021-06-26T13:44:37Z</time>
      </trkpt>
      <trkpt lat="48.97864" lon="7.8151">
        <ele>446</ele>
        <time>2021-06-26T13:44:38Z</time>
      </trkpt>
      <trkpt lat="48.97865" lon="7.81508">
        <ele>446</ele>
        <time>2021-06-26T13:44:39Z</time>
      </trkpt>
      <trkpt lat="48.97865" lon="7.81507">
        <ele>446</ele>
        <time>2021-06-26T13:44:40Z</time>
      </trkpt>
      <trkpt lat="48.97866" lon="7.81505">
        <ele>446.2</ele>
        <time>2021-06-26T13:44:41Z</time>
      </trkpt>
      <trkpt lat="48.97867" lon="7.81503">
        <ele>446.2</ele>
        <time>2021-06-26T13:44:42Z</time>
      </trkpt>
      <trkpt lat="48.97868" lon="7.81502">
        <ele>446.4</ele>
        <time>2021-06-26T13:44:43Z</time>
      </trkpt>
      <trkpt lat="48.97872" lon="7.81495">
        <ele>446.4</ele>
        <time>2021-06-26T13:44:44Z</time>
      </trkpt>
      <trkpt lat="48.97872" lon="7.81495">
        <ele>446.4</ele>
        <time>2021-06-26T13:44:45Z</time>
      </trkpt>
      <trkpt lat="48.97874" lon="7.81494">
        <ele>446.6</ele>
        <time>2021-06-26T13:44:46Z</time>
      </trkpt>
      <trkpt lat="48.97874" lon="7.81493">
        <ele>446.8</ele>
        <time>2021-06-26T13:44:47Z</time>
      </trkpt>
      <trkpt lat="48.97874" lon="7.81489">
        <ele>447.2</ele>
        <time>2021-06-26T13:44:51Z</time>
      </trkpt>
      <trkpt lat="48.97875" lon="7.81487">
        <ele>447.6</ele>
        <time>2021-06-26T13:44:53Z</time>
      </trkpt>
      <trkpt lat="48.97875" lon="7.81485">
        <ele>447.8</ele>
        <time>2021-06-26T13:44:54Z</time>
      </trkpt>
      <trkpt lat="48.97875" lon="7.81484">
        <ele>448</ele>
        <time>2021-06-26T13:44:55Z</time>
      </trkpt>
      <trkpt lat="48.97875" lon="7.81482">
        <ele>448.2</ele>
        <time>2021-06-26T13:44:56Z</time>
      </trkpt>
      <trkpt lat="48.97875" lon="7.8148">
        <ele>448.4</ele>
        <time>2021-06-26T13:44:57Z</time>
      </trkpt>
      <trkpt lat="48.97875" lon="7.81478">
        <ele>448.6</ele>
        <time>2021-06-26T13:44:58Z</time>
      </trkpt>
      <trkpt lat="48.97875" lon="7.81477">
        <ele>448.8</ele>
        <time>2021-06-26T13:44:59Z</time>
      </trkpt>
      <trkpt lat="48.97875" lon="7.81476">
        <ele>449.2</ele>
        <time>2021-06-26T13:45:00Z</time>
      </trkpt>
      <trkpt lat="48.97875" lon="7.81474">
        <ele>449.2</ele>
        <time>2021-06-26T13:45:01Z</time>
      </trkpt>
      <trkpt lat="48.97876" lon="7.81473">
        <ele>449.6</ele>
        <time>2021-06-26T13:45:02Z</time>
      </trkpt>
      <trkpt lat="48.97876" lon="7.81471">
        <ele>449.8</ele>
        <time>2021-06-26T13:45:03Z</time>
      </trkpt>
      <trkpt lat="48.97876" lon="7.8147">
        <ele>450</ele>
        <time>2021-06-26T13:45:04Z</time>
      </trkpt>
      <trkpt lat="48.97876" lon="7.81468">
        <ele>450.2</ele>
        <time>2021-06-26T13:45:05Z</time>
      </trkpt>
      <trkpt lat="48.97876" lon="7.81466">
        <ele>450.4</ele>
        <time>2021-06-26T13:45:06Z</time>
      </trkpt>
      <trkpt lat="48.97877" lon="7.81464">
        <ele>450.6</ele>
        <time>2021-06-26T13:45:07Z</time>
      </trkpt>
      <trkpt lat="48.97877" lon="7.81463">
        <ele>451</ele>
        <time>2021-06-26T13:45:08Z</time>
      </trkpt>
      <trkpt lat="48.97877" lon="7.81462">
        <ele>451.2</ele>
        <time>2021-06-26T13:45:09Z</time>
      </trkpt>
      <trkpt lat="48.97877" lon="7.81461">
        <ele>451.4</ele>
        <time>2021-06-26T13:45:10Z</time>
      </trkpt>
      <trkpt lat="48.97878" lon="7.81458">
        <ele>451.6</ele>
        <time>2021-06-26T13:45:11Z</time>
      </trkpt>
      <trkpt lat="48.97878" lon="7.81458">
        <ele>452</ele>
        <time>2021-06-26T13:45:12Z</time>
      </trkpt>
      <trkpt lat="48.97878" lon="7.81456">
        <ele>452</ele>
        <time>2021-06-26T13:45:13Z</time>
      </trkpt>
      <trkpt lat="48.97878" lon="7.81455">
        <ele>452</ele>
        <time>2021-06-26T13:45:14Z</time>
      </trkpt>
      <trkpt lat="48.97878" lon="7.81455">
        <ele>452.4</ele>
        <time>2021-06-26T13:45:16Z</time>
      </trkpt>
      <trkpt lat="48.97878" lon="7.81446">
        <ele>453.8</ele>
        <time>2021-06-26T13:45:25Z</time>
      </trkpt>
      <trkpt lat="48.97879" lon="7.81444">
        <ele>454</ele>
        <time>2021-06-26T13:45:26Z</time>
      </trkpt>
      <trkpt lat="48.9788" lon="7.81442">
        <ele>454</ele>
        <time>2021-06-26T13:45:27Z</time>
      </trkpt>
      <trkpt lat="48.9788" lon="7.8144">
        <ele>454</ele>
        <time>2021-06-26T13:45:28Z</time>
      </trkpt>
      <trkpt lat="48.97881" lon="7.81439">
        <ele>454</ele>
        <time>2021-06-26T13:45:29Z</time>
      </trkpt>
      <trkpt lat="48.9788" lon="7.81438">
        <ele>454</ele>
        <time>2021-06-26T13:45:30Z</time>
      </trkpt>
      <trkpt lat="48.9788" lon="7.81437">
        <ele>454.2</ele>
        <time>2021-06-26T13:45:31Z</time>
      </trkpt>
      <trkpt lat="48.9788" lon="7.81436">
        <ele>454.4</ele>
        <time>2021-06-26T13:45:32Z</time>
      </trkpt>
      <trkpt lat="48.9788" lon="7.81435">
        <ele>454.4</ele>
        <time>2021-06-26T13:45:33Z</time>
      </trkpt>
      <trkpt lat="48.97881" lon="7.81434">
        <ele>454.8</ele>
        <time>2021-06-26T13:45:34Z</time>
      </trkpt>
      <trkpt lat="48.97881" lon="7.81434">
        <ele>455</ele>
        <time>2021-06-26T13:45:35Z</time>
      </trkpt>
      <trkpt lat="48.97882" lon="7.81433">
        <ele>455.2</ele>
        <time>2021-06-26T13:45:36Z</time>
      </trkpt>
      <trkpt lat="48.97883" lon="7.81433">
        <ele>455.4</ele>
        <time>2021-06-26T13:45:37Z</time>
      </trkpt>
      <trkpt lat="48.97883" lon="7.81433">
        <ele>455.6</ele>
        <time>2021-06-26T13:45:38Z</time>
      </trkpt>
      <trkpt lat="48.97884" lon="7.81432">
        <ele>455.6</ele>
        <time>2021-06-26T13:45:39Z</time>
      </trkpt>
      <trkpt lat="48.97885" lon="7.81432">
        <ele>455.8</ele>
        <time>2021-06-26T13:45:40Z</time>
      </trkpt>
      <trkpt lat="48.97886" lon="7.81432">
        <ele>456</ele>
        <time>2021-06-26T13:45:41Z</time>
      </trkpt>
      <trkpt lat="48.97887" lon="7.8143">
        <ele>456.2</ele>
        <time>2021-06-26T13:45:42Z</time>
      </trkpt>
      <trkpt lat="48.97887" lon="7.81429">
        <ele>456.2</ele>
        <time>2021-06-26T13:45:43Z</time>
      </trkpt>
      <trkpt lat="48.97888" lon="7.81427">
        <ele>456.2</ele>
        <time>2021-06-26T13:45:44Z</time>
      </trkpt>
      <trkpt lat="48.97888" lon="7.81426">
        <ele>456.4</ele>
        <time>2021-06-26T13:45:45Z</time>
      </trkpt>
      <trkpt lat="48.97889" lon="7.81424">
        <ele>456.4</ele>
        <time>2021-06-26T13:45:46Z</time>
      </trkpt>
      <trkpt lat="48.97889" lon="7.81423">
        <ele>456.6</ele>
        <time>2021-06-26T13:45:47Z</time>
      </trkpt>
      <trkpt lat="48.97889" lon="7.81421">
        <ele>456.6</ele>
        <time>2021-06-26T13:45:48Z</time>
      </trkpt>
      <trkpt lat="48.9789" lon="7.81419">
        <ele>456.6</ele>
        <time>2021-06-26T13:45:49Z</time>
      </trkpt>
      <trkpt lat="48.9789" lon="7.81418">
        <ele>456.8</ele>
        <time>2021-06-26T13:45:50Z</time>
      </trkpt>
      <trkpt lat="48.9789" lon="7.81416">
        <ele>456.8</ele>
        <time>2021-06-26T13:45:51Z</time>
      </trkpt>
      <trkpt lat="48.9789" lon="7.81415">
        <ele>457</ele>
        <time>2021-06-26T13:45:52Z</time>
      </trkpt>
      <trkpt lat="48.9789" lon="7.81413">
        <ele>457.2</ele>
        <time>2021-06-26T13:45:53Z</time>
      </trkpt>
      <trkpt lat="48.9789" lon="7.81412">
        <ele>457.2</ele>
        <time>2021-06-26T13:45:54Z</time>
      </trkpt>
      <trkpt lat="48.97891" lon="7.81412">
        <ele>457.4</ele>
        <time>2021-06-26T13:45:55Z</time>
      </trkpt>
      <trkpt lat="48.97893" lon="7.81411">
        <ele>457.6</ele>
        <time>2021-06-26T13:45:56Z</time>
      </trkpt>
      <trkpt lat="48.97894" lon="7.81411">
        <ele>457.6</ele>
        <time>2021-06-26T13:45:57Z</time>
      </trkpt>
      <trkpt lat="48.97895" lon="7.8141">
        <ele>457.6</ele>
        <time>2021-06-26T13:45:58Z</time>
      </trkpt>
      <trkpt lat="48.97897" lon="7.8141">
        <ele>457.8</ele>
        <time>2021-06-26T13:45:59Z</time>
      </trkpt>
      <trkpt lat="48.97898" lon="7.81411">
        <ele>457.8</ele>
        <time>2021-06-26T13:46:00Z</time>
      </trkpt>
      <trkpt lat="48.979" lon="7.81413">
        <ele>457.8</ele>
        <time>2021-06-26T13:46:01Z</time>
      </trkpt>
      <trkpt lat="48.97901" lon="7.81414">
        <ele>457.8</ele>
        <time>2021-06-26T13:46:02Z</time>
      </trkpt>
      <trkpt lat="48.97902" lon="7.81416">
        <ele>457.8</ele>
        <time>2021-06-26T13:46:03Z</time>
      </trkpt>
      <trkpt lat="48.97904" lon="7.81417">
        <ele>457.8</ele>
        <time>2021-06-26T13:46:04Z</time>
      </trkpt>
      <trkpt lat="48.97904" lon="7.81418">
        <ele>457.8</ele>
        <time>2021-06-26T13:46:05Z</time>
      </trkpt>
      <trkpt lat="48.97905" lon="7.81419">
        <ele>457.8</ele>
        <time>2021-06-26T13:46:06Z</time>
      </trkpt>
      <trkpt lat="48.97907" lon="7.81421">
        <ele>457.8</ele>
        <time>2021-06-26T13:46:07Z</time>
      </trkpt>
      <trkpt lat="48.9791" lon="7.81423">
        <ele>457.8</ele>
        <time>2021-06-26T13:46:09Z</time>
      </trkpt>
      <trkpt lat="48.9791" lon="7.81425">
        <ele>457.8</ele>
        <time>2021-06-26T13:46:10Z</time>
      </trkpt>
      <trkpt lat="48.97911" lon="7.81427">
        <ele>457.8</ele>
        <time>2021-06-26T13:46:11Z</time>
      </trkpt>
      <trkpt lat="48.97912" lon="7.81431">
        <ele>457.8</ele>
        <time>2021-06-26T13:46:13Z</time>
      </trkpt>
      <trkpt lat="48.97913" lon="7.81433">
        <ele>457.8</ele>
        <time>2021-06-26T13:46:14Z</time>
      </trkpt>
      <trkpt lat="48.97914" lon="7.81434">
        <ele>457.8</ele>
        <time>2021-06-26T13:46:15Z</time>
      </trkpt>
      <trkpt lat="48.97918" lon="7.81435">
        <ele>457.8</ele>
        <time>2021-06-26T13:46:17Z</time>
      </trkpt>
      <trkpt lat="48.9792" lon="7.81438">
        <ele>457.8</ele>
        <time>2021-06-26T13:46:19Z</time>
      </trkpt>
      <trkpt lat="48.97929" lon="7.81445">
        <ele>458</ele>
        <time>2021-06-26T13:46:24Z</time>
      </trkpt>
      <trkpt lat="48.97932" lon="7.81449">
        <ele>457.8</ele>
        <time>2021-06-26T13:46:26Z</time>
      </trkpt>
      <trkpt lat="48.97937" lon="7.81452">
        <ele>458</ele>
        <time>2021-06-26T13:46:29Z</time>
      </trkpt>
      <trkpt lat="48.97938" lon="7.81453">
        <ele>458</ele>
        <time>2021-06-26T13:46:30Z</time>
      </trkpt>
      <trkpt lat="48.97945" lon="7.81457">
        <ele>458.2</ele>
        <time>2021-06-26T13:46:34Z</time>
      </trkpt>
      <trkpt lat="48.97949" lon="7.8146">
        <ele>458.2</ele>
        <time>2021-06-26T13:46:36Z</time>
      </trkpt>
      <trkpt lat="48.97961" lon="7.81476">
        <ele>458.8</ele>
        <time>2021-06-26T13:46:43Z</time>
      </trkpt>
      <trkpt lat="48.97965" lon="7.81483">
        <ele>459</ele>
        <time>2021-06-26T13:46:46Z</time>
      </trkpt>
      <trkpt lat="48.9797" lon="7.81491">
        <ele>459.2</ele>
        <time>2021-06-26T13:46:50Z</time>
      </trkpt>
      <trkpt lat="48.97971" lon="7.81494">
        <ele>459.4</ele>
        <time>2021-06-26T13:46:51Z</time>
      </trkpt>
      <trkpt lat="48.97972" lon="7.81496">
        <ele>459.4</ele>
        <time>2021-06-26T13:46:52Z</time>
      </trkpt>
      <trkpt lat="48.97972" lon="7.815">
        <ele>459.4</ele>
        <time>2021-06-26T13:46:53Z</time>
      </trkpt>
      <trkpt lat="48.97973" lon="7.81503">
        <ele>459.4</ele>
        <time>2021-06-26T13:46:54Z</time>
      </trkpt>
      <trkpt lat="48.97974" lon="7.81505">
        <ele>459.6</ele>
        <time>2021-06-26T13:46:55Z</time>
      </trkpt>
      <trkpt lat="48.97976" lon="7.81508">
        <ele>459.6</ele>
        <time>2021-06-26T13:46:56Z</time>
      </trkpt>
      <trkpt lat="48.97976" lon="7.81511">
        <ele>459.6</ele>
        <time>2021-06-26T13:46:57Z</time>
      </trkpt>
      <trkpt lat="48.9798" lon="7.81523">
        <ele>459.8</ele>
        <time>2021-06-26T13:47:00Z</time>
      </trkpt>
      <trkpt lat="48.9798" lon="7.81526">
        <ele>460</ele>
        <time>2021-06-26T13:47:01Z</time>
      </trkpt>
      <trkpt lat="48.9798" lon="7.81533">
        <ele>460</ele>
        <time>2021-06-26T13:47:03Z</time>
      </trkpt>
      <trkpt lat="48.9798" lon="7.81536">
        <ele>460.2</ele>
        <time>2021-06-26T13:47:04Z</time>
      </trkpt>
      <trkpt lat="48.97981" lon="7.8154">
        <ele>460.2</ele>
        <time>2021-06-26T13:47:05Z</time>
      </trkpt>
      <trkpt lat="48.97982" lon="7.81577">
        <ele>460.8</ele>
        <time>2021-06-26T13:47:14Z</time>
      </trkpt>
      <trkpt lat="48.97982" lon="7.81583">
        <ele>460.8</ele>
        <time>2021-06-26T13:47:16Z</time>
      </trkpt>
      <trkpt lat="48.97982" lon="7.81592">
        <ele>460.8</ele>
        <time>2021-06-26T13:47:18Z</time>
      </trkpt>
      <trkpt lat="48.97983" lon="7.81595">
        <ele>460.8</ele>
        <time>2021-06-26T13:47:19Z</time>
      </trkpt>
      <trkpt lat="48.97984" lon="7.81598">
        <ele>460.8</ele>
        <time>2021-06-26T13:47:20Z</time>
      </trkpt>
      <trkpt lat="48.97985" lon="7.81601">
        <ele>460.8</ele>
        <time>2021-06-26T13:47:21Z</time>
      </trkpt>
      <trkpt lat="48.97986" lon="7.81605">
        <ele>460.8</ele>
        <time>2021-06-26T13:47:22Z</time>
      </trkpt>
      <trkpt lat="48.97985" lon="7.81608">
        <ele>461</ele>
        <time>2021-06-26T13:47:23Z</time>
      </trkpt>
      <trkpt lat="48.97985" lon="7.81611">
        <ele>461</ele>
        <time>2021-06-26T13:47:24Z</time>
      </trkpt>
      <trkpt lat="48.97987" lon="7.81614">
        <ele>461</ele>
        <time>2021-06-26T13:47:25Z</time>
      </trkpt>
      <trkpt lat="48.97988" lon="7.81619">
        <ele>461</ele>
        <time>2021-06-26T13:47:26Z</time>
      </trkpt>
      <trkpt lat="48.97987" lon="7.81626">
        <ele>461.2</ele>
        <time>2021-06-26T13:47:28Z</time>
      </trkpt>
      <trkpt lat="48.97986" lon="7.81633">
        <ele>461.4</ele>
        <time>2021-06-26T13:47:30Z</time>
      </trkpt>
      <trkpt lat="48.97985" lon="7.81637">
        <ele>461.6</ele>
        <time>2021-06-26T13:47:31Z</time>
      </trkpt>
      <trkpt lat="48.97984" lon="7.8164">
        <ele>461.6</ele>
        <time>2021-06-26T13:47:32Z</time>
      </trkpt>
      <trkpt lat="48.97983" lon="7.81643">
        <ele>461.6</ele>
        <time>2021-06-26T13:47:33Z</time>
      </trkpt>
      <trkpt lat="48.97982" lon="7.81654">
        <ele>461.8</ele>
        <time>2021-06-26T13:47:36Z</time>
      </trkpt>
      <trkpt lat="48.97977" lon="7.81678">
        <ele>462</ele>
        <time>2021-06-26T13:47:42Z</time>
      </trkpt>
      <trkpt lat="48.97975" lon="7.81707">
        <ele>462</ele>
        <time>2021-06-26T13:47:48Z</time>
      </trkpt>
      <trkpt lat="48.97979" lon="7.8174">
        <ele>462</ele>
        <time>2021-06-26T13:47:54Z</time>
      </trkpt>
      <trkpt lat="48.97979" lon="7.81745">
        <ele>462</ele>
        <time>2021-06-26T13:47:55Z</time>
      </trkpt>
      <trkpt lat="48.97979" lon="7.81751">
        <ele>462</ele>
        <time>2021-06-26T13:47:56Z</time>
      </trkpt>
      <trkpt lat="48.9798" lon="7.81773">
        <ele>462</ele>
        <time>2021-06-26T13:48:01Z</time>
      </trkpt>
      <trkpt lat="48.97979" lon="7.81778">
        <ele>462</ele>
        <time>2021-06-26T13:48:02Z</time>
      </trkpt>
      <trkpt lat="48.97979" lon="7.81782">
        <ele>462</ele>
        <time>2021-06-26T13:48:03Z</time>
      </trkpt>
      <trkpt lat="48.97978" lon="7.81796">
        <ele>462.2</ele>
        <time>2021-06-26T13:48:06Z</time>
      </trkpt>
      <trkpt lat="48.97977" lon="7.81805">
        <ele>462.2</ele>
        <time>2021-06-26T13:48:08Z</time>
      </trkpt>
      <trkpt lat="48.97975" lon="7.81809">
        <ele>462.2</ele>
        <time>2021-06-26T13:48:09Z</time>
      </trkpt>
      <trkpt lat="48.97975" lon="7.81812">
        <ele>462.4</ele>
        <time>2021-06-26T13:48:10Z</time>
      </trkpt>
      <trkpt lat="48.97974" lon="7.81835">
        <ele>462.6</ele>
        <time>2021-06-26T13:48:15Z</time>
      </trkpt>
      <trkpt lat="48.97974" lon="7.81849">
        <ele>462.8</ele>
        <time>2021-06-26T13:48:18Z</time>
      </trkpt>
      <trkpt lat="48.97975" lon="7.81854">
        <ele>462.8</ele>
        <time>2021-06-26T13:48:19Z</time>
      </trkpt>
      <trkpt lat="48.97977" lon="7.81862">
        <ele>463</ele>
        <time>2021-06-26T13:48:21Z</time>
      </trkpt>
      <trkpt lat="48.97979" lon="7.81874">
        <ele>463.2</ele>
        <time>2021-06-26T13:48:24Z</time>
      </trkpt>
      <trkpt lat="48.97981" lon="7.81884">
        <ele>463.2</ele>
        <time>2021-06-26T13:48:26Z</time>
      </trkpt>
      <trkpt lat="48.97982" lon="7.81889">
        <ele>463.2</ele>
        <time>2021-06-26T13:48:27Z</time>
      </trkpt>
      <trkpt lat="48.97982" lon="7.81893">
        <ele>463.2</ele>
        <time>2021-06-26T13:48:28Z</time>
      </trkpt>
      <trkpt lat="48.97982" lon="7.81897">
        <ele>463.2</ele>
        <time>2021-06-26T13:48:29Z</time>
      </trkpt>
      <trkpt lat="48.97982" lon="7.81902">
        <ele>463.2</ele>
        <time>2021-06-26T13:48:30Z</time>
      </trkpt>
      <trkpt lat="48.97983" lon="7.81907">
        <ele>463.4</ele>
        <time>2021-06-26T13:48:31Z</time>
      </trkpt>
      <trkpt lat="48.97983" lon="7.81935">
        <ele>463.6</ele>
        <time>2021-06-26T13:48:37Z</time>
      </trkpt>
      <trkpt lat="48.97984" lon="7.81939">
        <ele>463.6</ele>
        <time>2021-06-26T13:48:38Z</time>
      </trkpt>
      <trkpt lat="48.97985" lon="7.81942">
        <ele>463.6</ele>
        <time>2021-06-26T13:48:39Z</time>
      </trkpt>
      <trkpt lat="48.97986" lon="7.81944">
        <ele>463.8</ele>
        <time>2021-06-26T13:48:40Z</time>
      </trkpt>
      <trkpt lat="48.97987" lon="7.81945">
        <ele>463.8</ele>
        <time>2021-06-26T13:48:41Z</time>
      </trkpt>
      <trkpt lat="48.97987" lon="7.81946">
        <ele>463.8</ele>
        <time>2021-06-26T13:48:42Z</time>
      </trkpt>
      <trkpt lat="48.97987" lon="7.81946">
        <ele>464</ele>
        <time>2021-06-26T13:48:44Z</time>
      </trkpt>
      <trkpt lat="48.97987" lon="7.81947">
        <ele>464.4</ele>
        <time>2021-06-26T13:48:47Z</time>
      </trkpt>
      <trkpt lat="48.97987" lon="7.81947">
        <ele>464.4</ele>
        <time>2021-06-26T13:48:48Z</time>
      </trkpt>
      <trkpt lat="48.97987" lon="7.81947">
        <ele>464.6</ele>
        <time>2021-06-26T13:48:49Z</time>
      </trkpt>
      <trkpt lat="48.97987" lon="7.81947">
        <ele>464.8</ele>
        <time>2021-06-26T13:48:51Z</time>
      </trkpt>
      <trkpt lat="48.97986" lon="7.8195">
        <ele>464.6</ele>
        <time>2021-06-26T13:49:38Z</time>
      </trkpt>
      <trkpt lat="48.97985" lon="7.81952">
        <ele>464.6</ele>
        <time>2021-06-26T13:49:39Z</time>
      </trkpt>
      <trkpt lat="48.97984" lon="7.81955">
        <ele>464.6</ele>
        <time>2021-06-26T13:49:40Z</time>
      </trkpt>
      <trkpt lat="48.97978" lon="7.81975">
        <ele>464.6</ele>
        <time>2021-06-26T13:49:45Z</time>
      </trkpt>
      <trkpt lat="48.9797" lon="7.82003">
        <ele>464.2</ele>
        <time>2021-06-26T13:49:50Z</time>
      </trkpt>
      <trkpt lat="48.97968" lon="7.8201">
        <ele>464</ele>
        <time>2021-06-26T13:49:51Z</time>
      </trkpt>
      <trkpt lat="48.97966" lon="7.82025">
        <ele>463.6</ele>
        <time>2021-06-26T13:49:53Z</time>
      </trkpt>
      <trkpt lat="48.97963" lon="7.82039">
        <ele>463.2</ele>
        <time>2021-06-26T13:49:55Z</time>
      </trkpt>
      <trkpt lat="48.97962" lon="7.82046">
        <ele>462.8</ele>
        <time>2021-06-26T13:49:56Z</time>
      </trkpt>
      <trkpt lat="48.97953" lon="7.82077">
        <ele>461.6</ele>
        <time>2021-06-26T13:50:00Z</time>
      </trkpt>
      <trkpt lat="48.9795" lon="7.82084">
        <ele>461.4</ele>
        <time>2021-06-26T13:50:01Z</time>
      </trkpt>
      <trkpt lat="48.97948" lon="7.8209">
        <ele>461.2</ele>
        <time>2021-06-26T13:50:02Z</time>
      </trkpt>
      <trkpt lat="48.97947" lon="7.82098">
        <ele>461</ele>
        <time>2021-06-26T13:50:03Z</time>
      </trkpt>
      <trkpt lat="48.97945" lon="7.82107">
        <ele>460.6</ele>
        <time>2021-06-26T13:50:04Z</time>
      </trkpt>
      <trkpt lat="48.97942" lon="7.82123">
        <ele>460</ele>
        <time>2021-06-26T13:50:06Z</time>
      </trkpt>
      <trkpt lat="48.97938" lon="7.82139">
        <ele>459.4</ele>
        <time>2021-06-26T13:50:08Z</time>
      </trkpt>
      <trkpt lat="48.97932" lon="7.82161">
        <ele>458.4</ele>
        <time>2021-06-26T13:50:11Z</time>
      </trkpt>
      <trkpt lat="48.97929" lon="7.82179">
        <ele>457.6</ele>
        <time>2021-06-26T13:50:13Z</time>
      </trkpt>
      <trkpt lat="48.97928" lon="7.82187">
        <ele>457.4</ele>
        <time>2021-06-26T13:50:14Z</time>
      </trkpt>
      <trkpt lat="48.97918" lon="7.82241">
        <ele>456.4</ele>
        <time>2021-06-26T13:50:21Z</time>
      </trkpt>
      <trkpt lat="48.97917" lon="7.8225">
        <ele>456.2</ele>
        <time>2021-06-26T13:50:22Z</time>
      </trkpt>
      <trkpt lat="48.97918" lon="7.82258">
        <ele>456</ele>
        <time>2021-06-26T13:50:23Z</time>
      </trkpt>
      <trkpt lat="48.9792" lon="7.82263">
        <ele>455.8</ele>
        <time>2021-06-26T13:50:24Z</time>
      </trkpt>
      <trkpt lat="48.97923" lon="7.82267">
        <ele>455.6</ele>
        <time>2021-06-26T13:50:25Z</time>
      </trkpt>
      <trkpt lat="48.97925" lon="7.82268">
        <ele>455.6</ele>
        <time>2021-06-26T13:50:26Z</time>
      </trkpt>
      <trkpt lat="48.97928" lon="7.82269">
        <ele>455.6</ele>
        <time>2021-06-26T13:50:27Z</time>
      </trkpt>
      <trkpt lat="48.97931" lon="7.82269">
        <ele>455.6</ele>
        <time>2021-06-26T13:50:28Z</time>
      </trkpt>
      <trkpt lat="48.97933" lon="7.82269">
        <ele>455.6</ele>
        <time>2021-06-26T13:50:29Z</time>
      </trkpt>
      <trkpt lat="48.97937" lon="7.8227">
        <ele>455.6</ele>
        <time>2021-06-26T13:50:30Z</time>
      </trkpt>
      <trkpt lat="48.97945" lon="7.82273">
        <ele>455.6</ele>
        <time>2021-06-26T13:50:33Z</time>
      </trkpt>
      <trkpt lat="48.97948" lon="7.82274">
        <ele>455.6</ele>
        <time>2021-06-26T13:50:34Z</time>
      </trkpt>
      <trkpt lat="48.97965" lon="7.82294">
        <ele>456.4</ele>
        <time>2021-06-26T13:50:40Z</time>
      </trkpt>
      <trkpt lat="48.97974" lon="7.82307">
        <ele>457.2</ele>
        <time>2021-06-26T13:50:43Z</time>
      </trkpt>
      <trkpt lat="48.97979" lon="7.8232">
        <ele>458</ele>
        <time>2021-06-26T13:50:46Z</time>
      </trkpt>
      <trkpt lat="48.97981" lon="7.82324">
        <ele>458.2</ele>
        <time>2021-06-26T13:50:47Z</time>
      </trkpt>
      <trkpt lat="48.97982" lon="7.82328">
        <ele>458.4</ele>
        <time>2021-06-26T13:50:48Z</time>
      </trkpt>
      <trkpt lat="48.97982" lon="7.82333">
        <ele>458.8</ele>
        <time>2021-06-26T13:50:49Z</time>
      </trkpt>
      <trkpt lat="48.97983" lon="7.82337">
        <ele>459</ele>
        <time>2021-06-26T13:50:50Z</time>
      </trkpt>
      <trkpt lat="48.97983" lon="7.82341">
        <ele>459.2</ele>
        <time>2021-06-26T13:50:51Z</time>
      </trkpt>
      <trkpt lat="48.97985" lon="7.82346">
        <ele>459.2</ele>
        <time>2021-06-26T13:50:52Z</time>
      </trkpt>
      <trkpt lat="48.97987" lon="7.8235">
        <ele>459.4</ele>
        <time>2021-06-26T13:50:53Z</time>
      </trkpt>
      <trkpt lat="48.97988" lon="7.82356">
        <ele>459.6</ele>
        <time>2021-06-26T13:50:54Z</time>
      </trkpt>
      <trkpt lat="48.97989" lon="7.82361">
        <ele>459.6</ele>
        <time>2021-06-26T13:50:55Z</time>
      </trkpt>
      <trkpt lat="48.97989" lon="7.82366">
        <ele>459.8</ele>
        <time>2021-06-26T13:50:56Z</time>
      </trkpt>
      <trkpt lat="48.97991" lon="7.8237">
        <ele>459.8</ele>
        <time>2021-06-26T13:50:57Z</time>
      </trkpt>
      <trkpt lat="48.97992" lon="7.82374">
        <ele>460</ele>
        <time>2021-06-26T13:50:58Z</time>
      </trkpt>
      <trkpt lat="48.97994" lon="7.8238">
        <ele>460</ele>
        <time>2021-06-26T13:50:59Z</time>
      </trkpt>
      <trkpt lat="48.97995" lon="7.82384">
        <ele>460.2</ele>
        <time>2021-06-26T13:51:00Z</time>
      </trkpt>
      <trkpt lat="48.97995" lon="7.82388">
        <ele>460.2</ele>
        <time>2021-06-26T13:51:01Z</time>
      </trkpt>
      <trkpt lat="48.97995" lon="7.8239">
        <ele>460.4</ele>
        <time>2021-06-26T13:51:02Z</time>
      </trkpt>
      <trkpt lat="48.97995" lon="7.82395">
        <ele>460.4</ele>
        <time>2021-06-26T13:51:03Z</time>
      </trkpt>
      <trkpt lat="48.97998" lon="7.824">
        <ele>460.6</ele>
        <time>2021-06-26T13:51:04Z</time>
      </trkpt>
      <trkpt lat="48.97999" lon="7.82406">
        <ele>460.8</ele>
        <time>2021-06-26T13:51:05Z</time>
      </trkpt>
      <trkpt lat="48.98" lon="7.8241">
        <ele>461</ele>
        <time>2021-06-26T13:51:06Z</time>
      </trkpt>
      <trkpt lat="48.98" lon="7.82414">
        <ele>461</ele>
        <time>2021-06-26T13:51:07Z</time>
      </trkpt>
      <trkpt lat="48.98001" lon="7.82418">
        <ele>461</ele>
        <time>2021-06-26T13:51:08Z</time>
      </trkpt>
      <trkpt lat="48.98001" lon="7.82422">
        <ele>461</ele>
        <time>2021-06-26T13:51:09Z</time>
      </trkpt>
      <trkpt lat="48.98002" lon="7.82428">
        <ele>461.2</ele>
        <time>2021-06-26T13:51:10Z</time>
      </trkpt>
      <trkpt lat="48.98002" lon="7.82433">
        <ele>461.2</ele>
        <time>2021-06-26T13:51:11Z</time>
      </trkpt>
      <trkpt lat="48.98003" lon="7.82436">
        <ele>461.4</ele>
        <time>2021-06-26T13:51:12Z</time>
      </trkpt>
      <trkpt lat="48.98005" lon="7.82441">
        <ele>461.4</ele>
        <time>2021-06-26T13:51:13Z</time>
      </trkpt>
      <trkpt lat="48.98005" lon="7.82445">
        <ele>461.6</ele>
        <time>2021-06-26T13:51:14Z</time>
      </trkpt>
      <trkpt lat="48.98006" lon="7.82449">
        <ele>461.6</ele>
        <time>2021-06-26T13:51:15Z</time>
      </trkpt>
      <trkpt lat="48.98007" lon="7.82454">
        <ele>461.8</ele>
        <time>2021-06-26T13:51:16Z</time>
      </trkpt>
      <trkpt lat="48.98007" lon="7.82457">
        <ele>462</ele>
        <time>2021-06-26T13:51:17Z</time>
      </trkpt>
      <trkpt lat="48.98006" lon="7.82461">
        <ele>462</ele>
        <time>2021-06-26T13:51:18Z</time>
      </trkpt>
      <trkpt lat="48.98006" lon="7.82466">
        <ele>462.2</ele>
        <time>2021-06-26T13:51:19Z</time>
      </trkpt>
      <trkpt lat="48.98006" lon="7.8247">
        <ele>462.2</ele>
        <time>2021-06-26T13:51:20Z</time>
      </trkpt>
      <trkpt lat="48.98006" lon="7.82473">
        <ele>462.4</ele>
        <time>2021-06-26T13:51:21Z</time>
      </trkpt>
      <trkpt lat="48.98006" lon="7.82477">
        <ele>462.6</ele>
        <time>2021-06-26T13:51:22Z</time>
      </trkpt>
      <trkpt lat="48.98007" lon="7.8248">
        <ele>462.8</ele>
        <time>2021-06-26T13:51:23Z</time>
      </trkpt>
      <trkpt lat="48.98007" lon="7.82482">
        <ele>462.6</ele>
        <time>2021-06-26T13:51:24Z</time>
      </trkpt>
      <trkpt lat="48.98006" lon="7.82484">
        <ele>462.8</ele>
        <time>2021-06-26T13:51:25Z</time>
      </trkpt>
      <trkpt lat="48.98006" lon="7.82486">
        <ele>463.2</ele>
        <time>2021-06-26T13:51:26Z</time>
      </trkpt>
      <trkpt lat="48.98006" lon="7.82489">
        <ele>463.2</ele>
        <time>2021-06-26T13:51:27Z</time>
      </trkpt>
      <trkpt lat="48.98006" lon="7.82493">
        <ele>463.4</ele>
        <time>2021-06-26T13:51:28Z</time>
      </trkpt>
      <trkpt lat="48.98004" lon="7.82494">
        <ele>463.6</ele>
        <time>2021-06-26T13:51:29Z</time>
      </trkpt>
      <trkpt lat="48.98003" lon="7.82495">
        <ele>463.8</ele>
        <time>2021-06-26T13:51:30Z</time>
      </trkpt>
      <trkpt lat="48.98003" lon="7.82496">
        <ele>464.2</ele>
        <time>2021-06-26T13:51:31Z</time>
      </trkpt>
      <trkpt lat="48.98002" lon="7.82497">
        <ele>464.4</ele>
        <time>2021-06-26T13:51:32Z</time>
      </trkpt>
      <trkpt lat="48.98001" lon="7.82498">
        <ele>464.6</ele>
        <time>2021-06-26T13:51:33Z</time>
      </trkpt>
      <trkpt lat="48.98" lon="7.82499">
        <ele>464.8</ele>
        <time>2021-06-26T13:51:34Z</time>
      </trkpt>
      <trkpt lat="48.97999" lon="7.82501">
        <ele>464.8</ele>
        <time>2021-06-26T13:51:35Z</time>
      </trkpt>
      <trkpt lat="48.97999" lon="7.82502">
        <ele>465</ele>
        <time>2021-06-26T13:51:36Z</time>
      </trkpt>
      <trkpt lat="48.97998" lon="7.82503">
        <ele>465</ele>
        <time>2021-06-26T13:51:37Z</time>
      </trkpt>
      <trkpt lat="48.97997" lon="7.82503">
        <ele>465</ele>
        <time>2021-06-26T13:51:38Z</time>
      </trkpt>
      <trkpt lat="48.97996" lon="7.82503">
        <ele>465.2</ele>
        <time>2021-06-26T13:51:39Z</time>
      </trkpt>
      <trkpt lat="48.97995" lon="7.82503">
        <ele>465.2</ele>
        <time>2021-06-26T13:51:40Z</time>
      </trkpt>
      <trkpt lat="48.97993" lon="7.82503">
        <ele>465.2</ele>
        <time>2021-06-26T13:51:41Z</time>
      </trkpt>
      <trkpt lat="48.97991" lon="7.82505">
        <ele>465.2</ele>
        <time>2021-06-26T13:51:42Z</time>
      </trkpt>
      <trkpt lat="48.9799" lon="7.82506">
        <ele>465.2</ele>
        <time>2021-06-26T13:51:43Z</time>
      </trkpt>
      <trkpt lat="48.97988" lon="7.82508">
        <ele>465.2</ele>
        <time>2021-06-26T13:51:44Z</time>
      </trkpt>
      <trkpt lat="48.97986" lon="7.8251">
        <ele>465.2</ele>
        <time>2021-06-26T13:51:45Z</time>
      </trkpt>
      <trkpt lat="48.97984" lon="7.82512">
        <ele>465.2</ele>
        <time>2021-06-26T13:51:46Z</time>
      </trkpt>
      <trkpt lat="48.97983" lon="7.82515">
        <ele>465.2</ele>
        <time>2021-06-26T13:51:47Z</time>
      </trkpt>
      <trkpt lat="48.97981" lon="7.82517">
        <ele>465.2</ele>
        <time>2021-06-26T13:51:48Z</time>
      </trkpt>
      <trkpt lat="48.9798" lon="7.8252">
        <ele>465.2</ele>
        <time>2021-06-26T13:51:49Z</time>
      </trkpt>
      <trkpt lat="48.97978" lon="7.82522">
        <ele>465.2</ele>
        <time>2021-06-26T13:51:50Z</time>
      </trkpt>
      <trkpt lat="48.97977" lon="7.82524">
        <ele>465.2</ele>
        <time>2021-06-26T13:51:51Z</time>
      </trkpt>
      <trkpt lat="48.97976" lon="7.82524">
        <ele>465.2</ele>
        <time>2021-06-26T13:51:52Z</time>
      </trkpt>
      <trkpt lat="48.97975" lon="7.82523">
        <ele>465.2</ele>
        <time>2021-06-26T13:51:53Z</time>
      </trkpt>
      <trkpt lat="48.97973" lon="7.82523">
        <ele>465.2</ele>
        <time>2021-06-26T13:51:54Z</time>
      </trkpt>
      <trkpt lat="48.97971" lon="7.82525">
        <ele>465.2</ele>
        <time>2021-06-26T13:51:55Z</time>
      </trkpt>
      <trkpt lat="48.97965" lon="7.8253">
        <ele>465.2</ele>
        <time>2021-06-26T13:51:58Z</time>
      </trkpt>
      <trkpt lat="48.97947" lon="7.82548">
        <ele>465.2</ele>
        <time>2021-06-26T13:52:07Z</time>
      </trkpt>
      <trkpt lat="48.97945" lon="7.82549">
        <ele>465.2</ele>
        <time>2021-06-26T13:52:08Z</time>
      </trkpt>
      <trkpt lat="48.97937" lon="7.82553">
        <ele>465.2</ele>
        <time>2021-06-26T13:52:12Z</time>
      </trkpt>
      <trkpt lat="48.97935" lon="7.82555">
        <ele>465.2</ele>
        <time>2021-06-26T13:52:13Z</time>
      </trkpt>
      <trkpt lat="48.97934" lon="7.82556">
        <ele>465.2</ele>
        <time>2021-06-26T13:52:14Z</time>
      </trkpt>
      <trkpt lat="48.97932" lon="7.82557">
        <ele>465.2</ele>
        <time>2021-06-26T13:52:15Z</time>
      </trkpt>
      <trkpt lat="48.97931" lon="7.82557">
        <ele>465.2</ele>
        <time>2021-06-26T13:52:16Z</time>
      </trkpt>
      <trkpt lat="48.9793" lon="7.82558">
        <ele>465.4</ele>
        <time>2021-06-26T13:52:17Z</time>
      </trkpt>
      <trkpt lat="48.97928" lon="7.8256">
        <ele>465.4</ele>
        <time>2021-06-26T13:52:18Z</time>
      </trkpt>
      <trkpt lat="48.97927" lon="7.82561">
        <ele>465.4</ele>
        <time>2021-06-26T13:52:19Z</time>
      </trkpt>
      <trkpt lat="48.97926" lon="7.82563">
        <ele>465.4</ele>
        <time>2021-06-26T13:52:20Z</time>
      </trkpt>
      <trkpt lat="48.97925" lon="7.82564">
        <ele>465.6</ele>
        <time>2021-06-26T13:52:21Z</time>
      </trkpt>
      <trkpt lat="48.97925" lon="7.82566">
        <ele>465.8</ele>
        <time>2021-06-26T13:52:22Z</time>
      </trkpt>
      <trkpt lat="48.97924" lon="7.82567">
        <ele>466</ele>
        <time>2021-06-26T13:52:23Z</time>
      </trkpt>
      <trkpt lat="48.97922" lon="7.82568">
        <ele>466</ele>
        <time>2021-06-26T13:52:24Z</time>
      </trkpt>
      <trkpt lat="48.97921" lon="7.82569">
        <ele>466.2</ele>
        <time>2021-06-26T13:52:25Z</time>
      </trkpt>
      <trkpt lat="48.9792" lon="7.8257">
        <ele>466.4</ele>
        <time>2021-06-26T13:52:26Z</time>
      </trkpt>
      <trkpt lat="48.97918" lon="7.82571">
        <ele>466.6</ele>
        <time>2021-06-26T13:52:27Z</time>
      </trkpt>
      <trkpt lat="48.97918" lon="7.82572">
        <ele>466.6</ele>
        <time>2021-06-26T13:52:28Z</time>
      </trkpt>
      <trkpt lat="48.97917" lon="7.82573">
        <ele>466.8</ele>
        <time>2021-06-26T13:52:29Z</time>
      </trkpt>
      <trkpt lat="48.97916" lon="7.82575">
        <ele>467</ele>
        <time>2021-06-26T13:52:30Z</time>
      </trkpt>
      <trkpt lat="48.9791" lon="7.82578">
        <ele>467.8</ele>
        <time>2021-06-26T13:52:33Z</time>
      </trkpt>
      <trkpt lat="48.97909" lon="7.8258">
        <ele>468.2</ele>
        <time>2021-06-26T13:52:34Z</time>
      </trkpt>
      <trkpt lat="48.97907" lon="7.82581">
        <ele>468.4</ele>
        <time>2021-06-26T13:52:35Z</time>
      </trkpt>
      <trkpt lat="48.97906" lon="7.82583">
        <ele>468.8</ele>
        <time>2021-06-26T13:52:36Z</time>
      </trkpt>
      <trkpt lat="48.97905" lon="7.82583">
        <ele>469.2</ele>
        <time>2021-06-26T13:52:37Z</time>
      </trkpt>
      <trkpt lat="48.97904" lon="7.82585">
        <ele>469.6</ele>
        <time>2021-06-26T13:52:38Z</time>
      </trkpt>
      <trkpt lat="48.97904" lon="7.82585">
        <ele>469.8</ele>
        <time>2021-06-26T13:52:39Z</time>
      </trkpt>
      <trkpt lat="48.97903" lon="7.82586">
        <ele>470.2</ele>
        <time>2021-06-26T13:52:40Z</time>
      </trkpt>
      <trkpt lat="48.97902" lon="7.82587">
        <ele>470.6</ele>
        <time>2021-06-26T13:52:41Z</time>
      </trkpt>
      <trkpt lat="48.97901" lon="7.82588">
        <ele>470.8</ele>
        <time>2021-06-26T13:52:42Z</time>
      </trkpt>
      <trkpt lat="48.97899" lon="7.8259">
        <ele>471.2</ele>
        <time>2021-06-26T13:52:43Z</time>
      </trkpt>
      <trkpt lat="48.97899" lon="7.82591">
        <ele>471.4</ele>
        <time>2021-06-26T13:52:44Z</time>
      </trkpt>
      <trkpt lat="48.97898" lon="7.82593">
        <ele>471.8</ele>
        <time>2021-06-26T13:52:45Z</time>
      </trkpt>
      <trkpt lat="48.97897" lon="7.82595">
        <ele>472</ele>
        <time>2021-06-26T13:52:46Z</time>
      </trkpt>
      <trkpt lat="48.97896" lon="7.82597">
        <ele>472.4</ele>
        <time>2021-06-26T13:52:47Z</time>
      </trkpt>
      <trkpt lat="48.97895" lon="7.82598">
        <ele>472.6</ele>
        <time>2021-06-26T13:52:48Z</time>
      </trkpt>
      <trkpt lat="48.97895" lon="7.82598">
        <ele>472.8</ele>
        <time>2021-06-26T13:52:49Z</time>
      </trkpt>
      <trkpt lat="48.97893" lon="7.82599">
        <ele>473</ele>
        <time>2021-06-26T13:52:50Z</time>
      </trkpt>
      <trkpt lat="48.97893" lon="7.826">
        <ele>473.4</ele>
        <time>2021-06-26T13:52:51Z</time>
      </trkpt>
      <trkpt lat="48.97893" lon="7.826">
        <ele>473.6</ele>
        <time>2021-06-26T13:52:53Z</time>
      </trkpt>
      <trkpt lat="48.97891" lon="7.826">
        <ele>474.2</ele>
        <time>2021-06-26T13:55:17Z</time>
      </trkpt>
      <trkpt lat="48.9789" lon="7.826">
        <ele>474.2</ele>
        <time>2021-06-26T13:55:19Z</time>
      </trkpt>
      <trkpt lat="48.97889" lon="7.826">
        <ele>474.2</ele>
        <time>2021-06-26T13:55:21Z</time>
      </trkpt>
      <trkpt lat="48.97888" lon="7.82601">
        <ele>474.2</ele>
        <time>2021-06-26T13:55:22Z</time>
      </trkpt>
      <trkpt lat="48.97874" lon="7.8261">
        <ele>474.2</ele>
        <time>2021-06-26T13:55:27Z</time>
      </trkpt>
      <trkpt lat="48.97864" lon="7.82618">
        <ele>474.2</ele>
        <time>2021-06-26T13:55:30Z</time>
      </trkpt>
      <trkpt lat="48.97854" lon="7.82628">
        <ele>474</ele>
        <time>2021-06-26T13:55:33Z</time>
      </trkpt>
      <trkpt lat="48.97838" lon="7.82643">
        <ele>473.4</ele>
        <time>2021-06-26T13:55:37Z</time>
      </trkpt>
      <trkpt lat="48.97834" lon="7.82646">
        <ele>473.2</ele>
        <time>2021-06-26T13:55:38Z</time>
      </trkpt>
      <trkpt lat="48.97831" lon="7.82649">
        <ele>473</ele>
        <time>2021-06-26T13:55:39Z</time>
      </trkpt>
      <trkpt lat="48.97829" lon="7.82651">
        <ele>472.8</ele>
        <time>2021-06-26T13:55:40Z</time>
      </trkpt>
      <trkpt lat="48.97827" lon="7.82653">
        <ele>472.6</ele>
        <time>2021-06-26T13:55:41Z</time>
      </trkpt>
      <trkpt lat="48.97826" lon="7.82654">
        <ele>472.4</ele>
        <time>2021-06-26T13:55:42Z</time>
      </trkpt>
      <trkpt lat="48.97826" lon="7.82654">
        <ele>472</ele>
        <time>2021-06-26T13:55:43Z</time>
      </trkpt>
      <trkpt lat="48.97826" lon="7.82654">
        <ele>471.8</ele>
        <time>2021-06-26T13:55:45Z</time>
      </trkpt>
      <trkpt lat="48.97827" lon="7.82652">
        <ele>472.6</ele>
        <time>2021-06-26T14:10:59Z</time>
      </trkpt>
      <trkpt lat="48.97827" lon="7.8265">
        <ele>472.6</ele>
        <time>2021-06-26T14:11:00Z</time>
      </trkpt>
      <trkpt lat="48.97835" lon="7.82638">
        <ele>472.6</ele>
        <time>2021-06-26T14:11:05Z</time>
      </trkpt>
      <trkpt lat="48.97841" lon="7.82623">
        <ele>472.6</ele>
        <time>2021-06-26T14:11:10Z</time>
      </trkpt>
      <trkpt lat="48.9784" lon="7.82621">
        <ele>472.6</ele>
        <time>2021-06-26T14:11:11Z</time>
      </trkpt>
      <trkpt lat="48.97838" lon="7.82618">
        <ele>472.6</ele>
        <time>2021-06-26T14:11:12Z</time>
      </trkpt>
      <trkpt lat="48.97835" lon="7.82615">
        <ele>472.6</ele>
        <time>2021-06-26T14:11:13Z</time>
      </trkpt>
      <trkpt lat="48.97833" lon="7.82611">
        <ele>472.6</ele>
        <time>2021-06-26T14:11:15Z</time>
      </trkpt>
      <trkpt lat="48.97833" lon="7.82609">
        <ele>472.6</ele>
        <time>2021-06-26T14:11:16Z</time>
      </trkpt>
      <trkpt lat="48.97833" lon="7.82606">
        <ele>472.6</ele>
        <time>2021-06-26T14:11:17Z</time>
      </trkpt>
      <trkpt lat="48.97834" lon="7.82603">
        <ele>472.6</ele>
        <time>2021-06-26T14:11:18Z</time>
      </trkpt>
      <trkpt lat="48.97835" lon="7.82601">
        <ele>472.4</ele>
        <time>2021-06-26T14:11:19Z</time>
      </trkpt>
      <trkpt lat="48.97835" lon="7.826">
        <ele>472</ele>
        <time>2021-06-26T14:11:20Z</time>
      </trkpt>
      <trkpt lat="48.97835" lon="7.826">
        <ele>471.6</ele>
        <time>2021-06-26T14:11:21Z</time>
      </trkpt>
      <trkpt lat="48.97836" lon="7.82599">
        <ele>471.2</ele>
        <time>2021-06-26T14:11:22Z</time>
      </trkpt>
      <trkpt lat="48.97836" lon="7.82598">
        <ele>470.6</ele>
        <time>2021-06-26T14:11:24Z</time>
      </trkpt>
      <trkpt lat="48.97837" lon="7.82594">
        <ele>470.4</ele>
        <time>2021-06-26T14:11:25Z</time>
      </trkpt>
      <trkpt lat="48.97836" lon="7.82583">
        <ele>469.8</ele>
        <time>2021-06-26T14:11:28Z</time>
      </trkpt>
      <trkpt lat="48.97836" lon="7.82583">
        <ele>469.8</ele>
        <time>2021-06-26T14:11:29Z</time>
      </trkpt>
      <trkpt lat="48.97839" lon="7.82568">
        <ele>469.6</ele>
        <time>2021-06-26T14:11:33Z</time>
      </trkpt>
      <trkpt lat="48.97841" lon="7.82564">
        <ele>469.6</ele>
        <time>2021-06-26T14:11:34Z</time>
      </trkpt>
      <trkpt lat="48.97842" lon="7.82557">
        <ele>469.4</ele>
        <time>2021-06-26T14:11:35Z</time>
      </trkpt>
      <trkpt lat="48.97845" lon="7.82549">
        <ele>469</ele>
        <time>2021-06-26T14:11:36Z</time>
      </trkpt>
      <trkpt lat="48.97847" lon="7.82541">
        <ele>467.6</ele>
        <time>2021-06-26T14:11:39Z</time>
      </trkpt>
      <trkpt lat="48.9785" lon="7.82531">
        <ele>467.2</ele>
        <time>2021-06-26T14:11:40Z</time>
      </trkpt>
      <trkpt lat="48.9785" lon="7.82522">
        <ele>466.2</ele>
        <time>2021-06-26T14:11:42Z</time>
      </trkpt>
      <trkpt lat="48.97851" lon="7.82516">
        <ele>465.8</ele>
        <time>2021-06-26T14:11:43Z</time>
      </trkpt>
      <trkpt lat="48.97851" lon="7.82511">
        <ele>465.2</ele>
        <time>2021-06-26T14:11:44Z</time>
      </trkpt>
      <trkpt lat="48.97854" lon="7.82498">
        <ele>463.8</ele>
        <time>2021-06-26T14:11:46Z</time>
      </trkpt>
      <trkpt lat="48.97859" lon="7.82486">
        <ele>462.4</ele>
        <time>2021-06-26T14:11:48Z</time>
      </trkpt>
      <trkpt lat="48.97861" lon="7.82481">
        <ele>461.6</ele>
        <time>2021-06-26T14:11:49Z</time>
      </trkpt>
      <trkpt lat="48.97863" lon="7.82477">
        <ele>461</ele>
        <time>2021-06-26T14:11:50Z</time>
      </trkpt>
      <trkpt lat="48.97866" lon="7.82472">
        <ele>460.2</ele>
        <time>2021-06-26T14:11:51Z</time>
      </trkpt>
      <trkpt lat="48.97868" lon="7.82466">
        <ele>459.4</ele>
        <time>2021-06-26T14:11:52Z</time>
      </trkpt>
      <trkpt lat="48.97867" lon="7.82461">
        <ele>458.6</ele>
        <time>2021-06-26T14:11:53Z</time>
      </trkpt>
      <trkpt lat="48.97867" lon="7.82457">
        <ele>457.8</ele>
        <time>2021-06-26T14:11:54Z</time>
      </trkpt>
      <trkpt lat="48.97867" lon="7.82454">
        <ele>456.8</ele>
        <time>2021-06-26T14:11:55Z</time>
      </trkpt>
      <trkpt lat="48.97866" lon="7.82451">
        <ele>455.8</ele>
        <time>2021-06-26T14:11:56Z</time>
      </trkpt>
      <trkpt lat="48.97867" lon="7.8245">
        <ele>455.2</ele>
        <time>2021-06-26T14:11:57Z</time>
      </trkpt>
      <trkpt lat="48.97867" lon="7.82448">
        <ele>454.6</ele>
        <time>2021-06-26T14:11:58Z</time>
      </trkpt>
      <trkpt lat="48.97869" lon="7.82448">
        <ele>454.2</ele>
        <time>2021-06-26T14:11:59Z</time>
      </trkpt>
      <trkpt lat="48.9787" lon="7.82447">
        <ele>453.8</ele>
        <time>2021-06-26T14:12:00Z</time>
      </trkpt>
      <trkpt lat="48.97872" lon="7.82445">
        <ele>453.6</ele>
        <time>2021-06-26T14:12:01Z</time>
      </trkpt>
      <trkpt lat="48.97875" lon="7.82439">
        <ele>453</ele>
        <time>2021-06-26T14:12:04Z</time>
      </trkpt>
      <trkpt lat="48.97875" lon="7.82439">
        <ele>452.8</ele>
        <time>2021-06-26T14:12:05Z</time>
      </trkpt>
      <trkpt lat="48.97882" lon="7.82426">
        <ele>452.8</ele>
        <time>2021-06-26T14:12:09Z</time>
      </trkpt>
      <trkpt lat="48.97882" lon="7.82426">
        <ele>452.8</ele>
        <time>2021-06-26T14:12:10Z</time>
      </trkpt>
      <trkpt lat="48.97896" lon="7.82401">
        <ele>452.8</ele>
        <time>2021-06-26T14:12:18Z</time>
      </trkpt>
      <trkpt lat="48.97897" lon="7.82392">
        <ele>452.6</ele>
        <time>2021-06-26T14:12:21Z</time>
      </trkpt>
      <trkpt lat="48.97898" lon="7.82389">
        <ele>452.6</ele>
        <time>2021-06-26T14:12:22Z</time>
      </trkpt>
      <trkpt lat="48.97899" lon="7.82387">
        <ele>452.6</ele>
        <time>2021-06-26T14:12:24Z</time>
      </trkpt>
      <trkpt lat="48.979" lon="7.82381">
        <ele>452.6</ele>
        <time>2021-06-26T14:12:25Z</time>
      </trkpt>
      <trkpt lat="48.97901" lon="7.82378">
        <ele>452.6</ele>
        <time>2021-06-26T14:12:26Z</time>
      </trkpt>
      <trkpt lat="48.97901" lon="7.82375">
        <ele>452.8</ele>
        <time>2021-06-26T14:12:27Z</time>
      </trkpt>
      <trkpt lat="48.97901" lon="7.82372">
        <ele>452.8</ele>
        <time>2021-06-26T14:12:28Z</time>
      </trkpt>
      <trkpt lat="48.97901" lon="7.82369">
        <ele>452.8</ele>
        <time>2021-06-26T14:12:29Z</time>
      </trkpt>
      <trkpt lat="48.97901" lon="7.82367">
        <ele>453</ele>
        <time>2021-06-26T14:12:30Z</time>
      </trkpt>
      <trkpt lat="48.97902" lon="7.82364">
        <ele>453</ele>
        <time>2021-06-26T14:12:31Z</time>
      </trkpt>
      <trkpt lat="48.97902" lon="7.82361">
        <ele>453.2</ele>
        <time>2021-06-26T14:12:32Z</time>
      </trkpt>
      <trkpt lat="48.97902" lon="7.82359">
        <ele>453.2</ele>
        <time>2021-06-26T14:12:33Z</time>
      </trkpt>
      <trkpt lat="48.97902" lon="7.82356">
        <ele>453.4</ele>
        <time>2021-06-26T14:12:34Z</time>
      </trkpt>
      <trkpt lat="48.97901" lon="7.82352">
        <ele>453.4</ele>
        <time>2021-06-26T14:12:35Z</time>
      </trkpt>
      <trkpt lat="48.979" lon="7.82349">
        <ele>453.4</ele>
        <time>2021-06-26T14:12:36Z</time>
      </trkpt>
      <trkpt lat="48.97901" lon="7.82344">
        <ele>453.4</ele>
        <time>2021-06-26T14:12:37Z</time>
      </trkpt>
      <trkpt lat="48.97901" lon="7.82338">
        <ele>453.4</ele>
        <time>2021-06-26T14:12:38Z</time>
      </trkpt>
      <trkpt lat="48.97902" lon="7.82322">
        <ele>453.4</ele>
        <time>2021-06-26T14:12:41Z</time>
      </trkpt>
      <trkpt lat="48.97902" lon="7.82319">
        <ele>453.4</ele>
        <time>2021-06-26T14:12:42Z</time>
      </trkpt>
      <trkpt lat="48.97903" lon="7.82315">
        <ele>453.4</ele>
        <time>2021-06-26T14:12:43Z</time>
      </trkpt>
      <trkpt lat="48.97902" lon="7.82309">
        <ele>453.4</ele>
        <time>2021-06-26T14:12:44Z</time>
      </trkpt>
      <trkpt lat="48.97903" lon="7.82304">
        <ele>453.4</ele>
        <time>2021-06-26T14:12:45Z</time>
      </trkpt>
      <trkpt lat="48.97902" lon="7.82298">
        <ele>453.2</ele>
        <time>2021-06-26T14:12:46Z</time>
      </trkpt>
      <trkpt lat="48.97896" lon="7.82275">
        <ele>452.6</ele>
        <time>2021-06-26T14:12:50Z</time>
      </trkpt>
      <trkpt lat="48.97894" lon="7.82269">
        <ele>452.6</ele>
        <time>2021-06-26T14:12:51Z</time>
      </trkpt>
      <trkpt lat="48.97894" lon="7.82264">
        <ele>452.4</ele>
        <time>2021-06-26T14:12:52Z</time>
      </trkpt>
      <trkpt lat="48.97894" lon="7.82259">
        <ele>452.2</ele>
        <time>2021-06-26T14:12:53Z</time>
      </trkpt>
      <trkpt lat="48.97893" lon="7.82253">
        <ele>452</ele>
        <time>2021-06-26T14:12:55Z</time>
      </trkpt>
      <trkpt lat="48.97893" lon="7.82251">
        <ele>452</ele>
        <time>2021-06-26T14:12:56Z</time>
      </trkpt>
      <trkpt lat="48.97893" lon="7.82249">
        <ele>452</ele>
        <time>2021-06-26T14:12:57Z</time>
      </trkpt>
      <trkpt lat="48.97892" lon="7.82246">
        <ele>452</ele>
        <time>2021-06-26T14:12:58Z</time>
      </trkpt>
      <trkpt lat="48.97892" lon="7.82247">
        <ele>451.8</ele>
        <time>2021-06-26T14:12:59Z</time>
      </trkpt>
      <trkpt lat="48.97892" lon="7.82247">
        <ele>451.8</ele>
        <time>2021-06-26T14:13:00Z</time>
      </trkpt>
      <trkpt lat="48.97879" lon="7.82242">
        <ele>451.8</ele>
        <time>2021-06-26T14:13:04Z</time>
      </trkpt>
      <trkpt lat="48.97876" lon="7.8224">
        <ele>451.8</ele>
        <time>2021-06-26T14:13:05Z</time>
      </trkpt>
      <trkpt lat="48.97874" lon="7.82241">
        <ele>451.8</ele>
        <time>2021-06-26T14:13:06Z</time>
      </trkpt>
      <trkpt lat="48.97872" lon="7.82241">
        <ele>451.6</ele>
        <time>2021-06-26T14:13:07Z</time>
      </trkpt>
      <trkpt lat="48.97871" lon="7.82245">
        <ele>451.6</ele>
        <time>2021-06-26T14:13:08Z</time>
      </trkpt>
      <trkpt lat="48.97869" lon="7.82248">
        <ele>451.4</ele>
        <time>2021-06-26T14:13:09Z</time>
      </trkpt>
      <trkpt lat="48.97869" lon="7.82252">
        <ele>451.2</ele>
        <time>2021-06-26T14:13:10Z</time>
      </trkpt>
      <trkpt lat="48.97868" lon="7.82256">
        <ele>450.6</ele>
        <time>2021-06-26T14:13:11Z</time>
      </trkpt>
      <trkpt lat="48.97867" lon="7.82261">
        <ele>449.8</ele>
        <time>2021-06-26T14:13:12Z</time>
      </trkpt>
      <trkpt lat="48.97866" lon="7.82265">
        <ele>448.8</ele>
        <time>2021-06-26T14:13:14Z</time>
      </trkpt>
      <trkpt lat="48.97863" lon="7.82281">
        <ele>448</ele>
        <time>2021-06-26T14:13:16Z</time>
      </trkpt>
      <trkpt lat="48.9786" lon="7.82293">
        <ele>447.4</ele>
        <time>2021-06-26T14:13:18Z</time>
      </trkpt>
      <trkpt lat="48.97857" lon="7.82306">
        <ele>447.2</ele>
        <time>2021-06-26T14:13:20Z</time>
      </trkpt>
      <trkpt lat="48.97854" lon="7.82318">
        <ele>446.8</ele>
        <time>2021-06-26T14:13:22Z</time>
      </trkpt>
      <trkpt lat="48.97853" lon="7.82324">
        <ele>446.4</ele>
        <time>2021-06-26T14:13:23Z</time>
      </trkpt>
      <trkpt lat="48.97851" lon="7.82331">
        <ele>446</ele>
        <time>2021-06-26T14:13:24Z</time>
      </trkpt>
      <trkpt lat="48.97846" lon="7.82344">
        <ele>445.2</ele>
        <time>2021-06-26T14:13:26Z</time>
      </trkpt>
      <trkpt lat="48.97844" lon="7.82351">
        <ele>444.8</ele>
        <time>2021-06-26T14:13:27Z</time>
      </trkpt>
      <trkpt lat="48.97841" lon="7.82357">
        <ele>444.6</ele>
        <time>2021-06-26T14:13:28Z</time>
      </trkpt>
      <trkpt lat="48.97837" lon="7.8237">
        <ele>443.8</ele>
        <time>2021-06-26T14:13:30Z</time>
      </trkpt>
      <trkpt lat="48.97833" lon="7.82375">
        <ele>443.4</ele>
        <time>2021-06-26T14:13:31Z</time>
      </trkpt>
      <trkpt lat="48.97828" lon="7.82386">
        <ele>442.8</ele>
        <time>2021-06-26T14:13:33Z</time>
      </trkpt>
      <trkpt lat="48.97826" lon="7.8239">
        <ele>442.2</ele>
        <time>2021-06-26T14:13:34Z</time>
      </trkpt>
      <trkpt lat="48.97824" lon="7.82394">
        <ele>441.8</ele>
        <time>2021-06-26T14:13:35Z</time>
      </trkpt>
      <trkpt lat="48.97822" lon="7.82399">
        <ele>441.6</ele>
        <time>2021-06-26T14:13:36Z</time>
      </trkpt>
      <trkpt lat="48.97822" lon="7.82399">
        <ele>441.2</ele>
        <time>2021-06-26T14:13:37Z</time>
      </trkpt>
      <trkpt lat="48.97821" lon="7.82403">
        <ele>441</ele>
        <time>2021-06-26T14:13:38Z</time>
      </trkpt>
      <trkpt lat="48.97817" lon="7.8241">
        <ele>440.8</ele>
        <time>2021-06-26T14:13:39Z</time>
      </trkpt>
      <trkpt lat="48.97814" lon="7.82414">
        <ele>440.4</ele>
        <time>2021-06-26T14:13:40Z</time>
      </trkpt>
      <trkpt lat="48.97811" lon="7.82417">
        <ele>440</ele>
        <time>2021-06-26T14:13:41Z</time>
      </trkpt>
      <trkpt lat="48.97809" lon="7.82421">
        <ele>439.6</ele>
        <time>2021-06-26T14:13:42Z</time>
      </trkpt>
      <trkpt lat="48.97805" lon="7.82425">
        <ele>439.4</ele>
        <time>2021-06-26T14:13:43Z</time>
      </trkpt>
      <trkpt lat="48.97802" lon="7.82429">
        <ele>439.2</ele>
        <time>2021-06-26T14:13:44Z</time>
      </trkpt>
      <trkpt lat="48.9779" lon="7.82443">
        <ele>438.6</ele>
        <time>2021-06-26T14:13:47Z</time>
      </trkpt>
      <trkpt lat="48.97787" lon="7.82448">
        <ele>438.4</ele>
        <time>2021-06-26T14:13:48Z</time>
      </trkpt>
      <trkpt lat="48.97783" lon="7.82454">
        <ele>438.2</ele>
        <time>2021-06-26T14:13:49Z</time>
      </trkpt>
      <trkpt lat="48.97776" lon="7.82466">
        <ele>437.4</ele>
        <time>2021-06-26T14:13:51Z</time>
      </trkpt>
      <trkpt lat="48.97772" lon="7.8247">
        <ele>437</ele>
        <time>2021-06-26T14:13:52Z</time>
      </trkpt>
      <trkpt lat="48.9776" lon="7.82481">
        <ele>436.2</ele>
        <time>2021-06-26T14:13:55Z</time>
      </trkpt>
      <trkpt lat="48.97756" lon="7.82486">
        <ele>435.8</ele>
        <time>2021-06-26T14:13:56Z</time>
      </trkpt>
      <trkpt lat="48.97746" lon="7.82501">
        <ele>434.6</ele>
        <time>2021-06-26T14:13:59Z</time>
      </trkpt>
      <trkpt lat="48.97736" lon="7.82517">
        <ele>433.8</ele>
        <time>2021-06-26T14:14:02Z</time>
      </trkpt>
      <trkpt lat="48.97733" lon="7.82522">
        <ele>433.4</ele>
        <time>2021-06-26T14:14:03Z</time>
      </trkpt>
      <trkpt lat="48.9773" lon="7.82526">
        <ele>432.8</ele>
        <time>2021-06-26T14:14:04Z</time>
      </trkpt>
      <trkpt lat="48.97728" lon="7.82528">
        <ele>432.6</ele>
        <time>2021-06-26T14:14:05Z</time>
      </trkpt>
      <trkpt lat="48.97725" lon="7.8253">
        <ele>432.2</ele>
        <time>2021-06-26T14:14:06Z</time>
      </trkpt>
      <trkpt lat="48.97723" lon="7.82532">
        <ele>431.8</ele>
        <time>2021-06-26T14:14:07Z</time>
      </trkpt>
      <trkpt lat="48.97721" lon="7.82534">
        <ele>431.4</ele>
        <time>2021-06-26T14:14:08Z</time>
      </trkpt>
      <trkpt lat="48.97719" lon="7.82535">
        <ele>431.2</ele>
        <time>2021-06-26T14:14:09Z</time>
      </trkpt>
      <trkpt lat="48.97715" lon="7.82537">
        <ele>430.4</ele>
        <time>2021-06-26T14:14:11Z</time>
      </trkpt>
      <trkpt lat="48.97713" lon="7.82535">
        <ele>430</ele>
        <time>2021-06-26T14:14:12Z</time>
      </trkpt>
      <trkpt lat="48.97711" lon="7.82534">
        <ele>429.6</ele>
        <time>2021-06-26T14:14:13Z</time>
      </trkpt>
      <trkpt lat="48.97706" lon="7.82528">
        <ele>429.2</ele>
        <time>2021-06-26T14:14:15Z</time>
      </trkpt>
      <trkpt lat="48.97703" lon="7.82525">
        <ele>429</ele>
        <time>2021-06-26T14:14:16Z</time>
      </trkpt>
      <trkpt lat="48.97701" lon="7.82522">
        <ele>428.8</ele>
        <time>2021-06-26T14:14:17Z</time>
      </trkpt>
      <trkpt lat="48.97698" lon="7.8252">
        <ele>428</ele>
        <time>2021-06-26T14:14:18Z</time>
      </trkpt>
      <trkpt lat="48.97696" lon="7.82518">
        <ele>427.2</ele>
        <time>2021-06-26T14:14:19Z</time>
      </trkpt>
      <trkpt lat="48.97694" lon="7.82515">
        <ele>426.2</ele>
        <time>2021-06-26T14:14:20Z</time>
      </trkpt>
      <trkpt lat="48.97692" lon="7.82513">
        <ele>425</ele>
        <time>2021-06-26T14:14:21Z</time>
      </trkpt>
      <trkpt lat="48.97689" lon="7.82511">
        <ele>424</ele>
        <time>2021-06-26T14:14:22Z</time>
      </trkpt>
      <trkpt lat="48.97687" lon="7.82508">
        <ele>422.6</ele>
        <time>2021-06-26T14:14:23Z</time>
      </trkpt>
      <trkpt lat="48.97684" lon="7.82506">
        <ele>421.2</ele>
        <time>2021-06-26T14:14:24Z</time>
      </trkpt>
      <trkpt lat="48.97681" lon="7.82506">
        <ele>420.2</ele>
        <time>2021-06-26T14:14:25Z</time>
      </trkpt>
      <trkpt lat="48.97678" lon="7.82505">
        <ele>419.2</ele>
        <time>2021-06-26T14:14:26Z</time>
      </trkpt>
      <trkpt lat="48.97675" lon="7.82504">
        <ele>418.4</ele>
        <time>2021-06-26T14:14:27Z</time>
      </trkpt>
      <trkpt lat="48.97672" lon="7.82502">
        <ele>417.2</ele>
        <time>2021-06-26T14:14:28Z</time>
      </trkpt>
      <trkpt lat="48.97671" lon="7.82501">
        <ele>416</ele>
        <time>2021-06-26T14:14:29Z</time>
      </trkpt>
      <trkpt lat="48.97671" lon="7.825">
        <ele>416</ele>
        <time>2021-06-26T14:14:30Z</time>
      </trkpt>
      <trkpt lat="48.97671" lon="7.82499">
        <ele>415</ele>
        <time>2021-06-26T14:14:31Z</time>
      </trkpt>
      <trkpt lat="48.97671" lon="7.82499">
        <ele>413.8</ele>
        <time>2021-06-26T14:14:32Z</time>
      </trkpt>
      <trkpt lat="48.97671" lon="7.82499">
        <ele>412.6</ele>
        <time>2021-06-26T14:14:33Z</time>
      </trkpt>
      <trkpt lat="48.97668" lon="7.82497">
        <ele>408</ele>
        <time>2021-06-26T14:16:54Z</time>
      </trkpt>
      <trkpt lat="48.97665" lon="7.82496">
        <ele>408</ele>
        <time>2021-06-26T14:16:55Z</time>
      </trkpt>
      <trkpt lat="48.97656" lon="7.82491">
        <ele>408</ele>
        <time>2021-06-26T14:16:58Z</time>
      </trkpt>
      <trkpt lat="48.97644" lon="7.82484">
        <ele>408</ele>
        <time>2021-06-26T14:16:59Z</time>
      </trkpt>
      <trkpt lat="48.97633" lon="7.82472">
        <ele>408</ele>
        <time>2021-06-26T14:17:01Z</time>
      </trkpt>
      <trkpt lat="48.97618" lon="7.82452">
        <ele>406</ele>
        <time>2021-06-26T14:17:04Z</time>
      </trkpt>
      <trkpt lat="48.97615" lon="7.82448">
        <ele>404.6</ele>
        <time>2021-06-26T14:17:05Z</time>
      </trkpt>
      <trkpt lat="48.97614" lon="7.82446">
        <ele>403.2</ele>
        <time>2021-06-26T14:17:06Z</time>
      </trkpt>
      <trkpt lat="48.97613" lon="7.82444">
        <ele>401.6</ele>
        <time>2021-06-26T14:17:07Z</time>
      </trkpt>
      <trkpt lat="48.97613" lon="7.82444">
        <ele>400.2</ele>
        <time>2021-06-26T14:17:08Z</time>
      </trkpt>
      <trkpt lat="48.97611" lon="7.82442">
        <ele>398</ele>
        <time>2021-06-26T14:17:09Z</time>
      </trkpt>
      <trkpt lat="48.9761" lon="7.8244">
        <ele>396</ele>
        <time>2021-06-26T14:17:10Z</time>
      </trkpt>
      <trkpt lat="48.97609" lon="7.82434">
        <ele>394.4</ele>
        <time>2021-06-26T14:17:11Z</time>
      </trkpt>
      <trkpt lat="48.97608" lon="7.82432">
        <ele>393.2</ele>
        <time>2021-06-26T14:17:12Z</time>
      </trkpt>
      <trkpt lat="48.97608" lon="7.82432">
        <ele>392.2</ele>
        <time>2021-06-26T14:17:13Z</time>
      </trkpt>
      <trkpt lat="48.97607" lon="7.82428">
        <ele>391.6</ele>
        <time>2021-06-26T14:17:14Z</time>
      </trkpt>
      <trkpt lat="48.97606" lon="7.82426">
        <ele>391.2</ele>
        <time>2021-06-26T14:17:15Z</time>
      </trkpt>
      <trkpt lat="48.97604" lon="7.82424">
        <ele>390.8</ele>
        <time>2021-06-26T14:17:16Z</time>
      </trkpt>
      <trkpt lat="48.97603" lon="7.82422">
        <ele>390.2</ele>
        <time>2021-06-26T14:17:17Z</time>
      </trkpt>
      <trkpt lat="48.97599" lon="7.82415">
        <ele>389.6</ele>
        <time>2021-06-26T14:17:19Z</time>
      </trkpt>
      <trkpt lat="48.97592" lon="7.82411">
        <ele>388.8</ele>
        <time>2021-06-26T14:17:21Z</time>
      </trkpt>
      <trkpt lat="48.97589" lon="7.8241">
        <ele>388.4</ele>
        <time>2021-06-26T14:17:22Z</time>
      </trkpt>
      <trkpt lat="48.97586" lon="7.82408">
        <ele>388.2</ele>
        <time>2021-06-26T14:17:23Z</time>
      </trkpt>
      <trkpt lat="48.97584" lon="7.82407">
        <ele>387.6</ele>
        <time>2021-06-26T14:17:24Z</time>
      </trkpt>
      <trkpt lat="48.97582" lon="7.82405">
        <ele>387.6</ele>
        <time>2021-06-26T14:17:25Z</time>
      </trkpt>
      <trkpt lat="48.97581" lon="7.82404">
        <ele>387</ele>
        <time>2021-06-26T14:17:26Z</time>
      </trkpt>
      <trkpt lat="48.9758" lon="7.82404">
        <ele>386</ele>
        <time>2021-06-26T14:17:27Z</time>
      </trkpt>
      <trkpt lat="48.9758" lon="7.82404">
        <ele>384.8</ele>
        <time>2021-06-26T14:17:28Z</time>
      </trkpt>
      <trkpt lat="48.97576" lon="7.82401">
        <ele>379</ele>
        <time>2021-06-26T14:17:41Z</time>
      </trkpt>
      <trkpt lat="48.97572" lon="7.82399">
        <ele>379</ele>
        <time>2021-06-26T14:17:43Z</time>
      </trkpt>
      <trkpt lat="48.97554" lon="7.82386">
        <ele>379</ele>
        <time>2021-06-26T14:17:46Z</time>
      </trkpt>
      <trkpt lat="48.9753" lon="7.82363">
        <ele>377.6</ele>
        <time>2021-06-26T14:17:51Z</time>
      </trkpt>
      <trkpt lat="48.97526" lon="7.8236">
        <ele>377.2</ele>
        <time>2021-06-26T14:17:52Z</time>
      </trkpt>
      <trkpt lat="48.97523" lon="7.82359">
        <ele>376.4</ele>
        <time>2021-06-26T14:17:53Z</time>
      </trkpt>
      <trkpt lat="48.97522" lon="7.82358">
        <ele>376</ele>
        <time>2021-06-26T14:17:54Z</time>
      </trkpt>
      <trkpt lat="48.9752" lon="7.82357">
        <ele>375.4</ele>
        <time>2021-06-26T14:17:55Z</time>
      </trkpt>
      <trkpt lat="48.97518" lon="7.82357">
        <ele>375.2</ele>
        <time>2021-06-26T14:17:56Z</time>
      </trkpt>
      <trkpt lat="48.97517" lon="7.82356">
        <ele>374.6</ele>
        <time>2021-06-26T14:17:57Z</time>
      </trkpt>
      <trkpt lat="48.97517" lon="7.82356">
        <ele>374.4</ele>
        <time>2021-06-26T14:17:58Z</time>
      </trkpt>
      <trkpt lat="48.97517" lon="7.82356">
        <ele>374</ele>
        <time>2021-06-26T14:17:59Z</time>
      </trkpt>
      <trkpt lat="48.97517" lon="7.82356">
        <ele>374</ele>
        <time>2021-06-26T14:18:00Z</time>
      </trkpt>
      <trkpt lat="48.97515" lon="7.82357">
        <ele>371.4</ele>
        <time>2021-06-26T14:18:35Z</time>
      </trkpt>
      <trkpt lat="48.97513" lon="7.8236">
        <ele>371.2</ele>
        <time>2021-06-26T14:18:37Z</time>
      </trkpt>
      <trkpt lat="48.97515" lon="7.82362">
        <ele>371.2</ele>
        <time>2021-06-26T14:18:39Z</time>
      </trkpt>
      <trkpt lat="48.97517" lon="7.82359">
        <ele>371.2</ele>
        <time>2021-06-26T14:18:41Z</time>
      </trkpt>
      <trkpt lat="48.97518" lon="7.82358">
        <ele>371.2</ele>
        <time>2021-06-26T14:18:42Z</time>
      </trkpt>
      <trkpt lat="48.97518" lon="7.82358">
        <ele>371.2</ele>
        <time>2021-06-26T14:18:43Z</time>
      </trkpt>
      <trkpt lat="48.97522" lon="7.8236">
        <ele>371.2</ele>
        <time>2021-06-26T14:18:44Z</time>
      </trkpt>
      <trkpt lat="48.97524" lon="7.82366">
        <ele>371.2</ele>
        <time>2021-06-26T14:18:47Z</time>
      </trkpt>
      <trkpt lat="48.97525" lon="7.8237">
        <ele>371.2</ele>
        <time>2021-06-26T14:18:49Z</time>
      </trkpt>
      <trkpt lat="48.97526" lon="7.82372">
        <ele>371.2</ele>
        <time>2021-06-26T14:18:50Z</time>
      </trkpt>
      <trkpt lat="48.97527" lon="7.82374">
        <ele>371.4</ele>
        <time>2021-06-26T14:18:51Z</time>
      </trkpt>
      <trkpt lat="48.97527" lon="7.82376">
        <ele>371.4</ele>
        <time>2021-06-26T14:18:52Z</time>
      </trkpt>
      <trkpt lat="48.97529" lon="7.82378">
        <ele>371.8</ele>
        <time>2021-06-26T14:18:53Z</time>
      </trkpt>
      <trkpt lat="48.97529" lon="7.8238">
        <ele>372</ele>
        <time>2021-06-26T14:18:54Z</time>
      </trkpt>
      <trkpt lat="48.97531" lon="7.82385">
        <ele>372.6</ele>
        <time>2021-06-26T14:18:56Z</time>
      </trkpt>
      <trkpt lat="48.97534" lon="7.82393">
        <ele>373.4</ele>
        <time>2021-06-26T14:18:59Z</time>
      </trkpt>
      <trkpt lat="48.97535" lon="7.82397">
        <ele>373.6</ele>
        <time>2021-06-26T14:19:01Z</time>
      </trkpt>
      <trkpt lat="48.97537" lon="7.824">
        <ele>373.8</ele>
        <time>2021-06-26T14:19:02Z</time>
      </trkpt>
      <trkpt lat="48.9754" lon="7.8241">
        <ele>374</ele>
        <time>2021-06-26T14:19:05Z</time>
      </trkpt>
      <trkpt lat="48.97542" lon="7.82417">
        <ele>374.2</ele>
        <time>2021-06-26T14:19:07Z</time>
      </trkpt>
      <trkpt lat="48.97543" lon="7.82421">
        <ele>374.2</ele>
        <time>2021-06-26T14:19:08Z</time>
      </trkpt>
      <trkpt lat="48.97545" lon="7.82424">
        <ele>374.2</ele>
        <time>2021-06-26T14:19:09Z</time>
      </trkpt>
      <trkpt lat="48.97546" lon="7.82428">
        <ele>374.2</ele>
        <time>2021-06-26T14:19:10Z</time>
      </trkpt>
      <trkpt lat="48.97547" lon="7.82431">
        <ele>374.4</ele>
        <time>2021-06-26T14:19:11Z</time>
      </trkpt>
      <trkpt lat="48.97549" lon="7.82434">
        <ele>374.4</ele>
        <time>2021-06-26T14:19:12Z</time>
      </trkpt>
      <trkpt lat="48.97551" lon="7.82437">
        <ele>374.4</ele>
        <time>2021-06-26T14:19:13Z</time>
      </trkpt>
      <trkpt lat="48.97553" lon="7.8244">
        <ele>374.4</ele>
        <time>2021-06-26T14:19:14Z</time>
      </trkpt>
      <trkpt lat="48.97554" lon="7.82445">
        <ele>374.6</ele>
        <time>2021-06-26T14:19:15Z</time>
      </trkpt>
      <trkpt lat="48.97556" lon="7.82449">
        <ele>374.6</ele>
        <time>2021-06-26T14:19:16Z</time>
      </trkpt>
      <trkpt lat="48.97556" lon="7.82449">
        <ele>374.6</ele>
        <time>2021-06-26T14:19:17Z</time>
      </trkpt>
      <trkpt lat="48.97557" lon="7.82453">
        <ele>374.6</ele>
        <time>2021-06-26T14:19:18Z</time>
      </trkpt>
      <trkpt lat="48.9756" lon="7.82461">
        <ele>374.8</ele>
        <time>2021-06-26T14:19:19Z</time>
      </trkpt>
      <trkpt lat="48.97562" lon="7.8247">
        <ele>374.8</ele>
        <time>2021-06-26T14:19:21Z</time>
      </trkpt>
      <trkpt lat="48.97566" lon="7.82488">
        <ele>375</ele>
        <time>2021-06-26T14:19:26Z</time>
      </trkpt>
      <trkpt lat="48.97566" lon="7.8249">
        <ele>375</ele>
        <time>2021-06-26T14:19:27Z</time>
      </trkpt>
      <trkpt lat="48.97567" lon="7.82495">
        <ele>375</ele>
        <time>2021-06-26T14:19:28Z</time>
      </trkpt>
      <trkpt lat="48.97568" lon="7.82499">
        <ele>375</ele>
        <time>2021-06-26T14:19:29Z</time>
      </trkpt>
      <trkpt lat="48.97568" lon="7.82503">
        <ele>375.2</ele>
        <time>2021-06-26T14:19:30Z</time>
      </trkpt>
      <trkpt lat="48.97568" lon="7.82506">
        <ele>375.2</ele>
        <time>2021-06-26T14:19:31Z</time>
      </trkpt>
      <trkpt lat="48.97568" lon="7.82511">
        <ele>375.4</ele>
        <time>2021-06-26T14:19:32Z</time>
      </trkpt>
      <trkpt lat="48.97568" lon="7.82513">
        <ele>375.4</ele>
        <time>2021-06-26T14:19:33Z</time>
      </trkpt>
      <trkpt lat="48.97568" lon="7.82515">
        <ele>375.4</ele>
        <time>2021-06-26T14:19:34Z</time>
      </trkpt>
      <trkpt lat="48.97569" lon="7.82518">
        <ele>375.6</ele>
        <time>2021-06-26T14:19:35Z</time>
      </trkpt>
      <trkpt lat="48.97569" lon="7.82521">
        <ele>375.8</ele>
        <time>2021-06-26T14:19:36Z</time>
      </trkpt>
      <trkpt lat="48.9757" lon="7.82523">
        <ele>375.8</ele>
        <time>2021-06-26T14:19:37Z</time>
      </trkpt>
      <trkpt lat="48.9757" lon="7.82529">
        <ele>376.2</ele>
        <time>2021-06-26T14:19:39Z</time>
      </trkpt>
      <trkpt lat="48.97569" lon="7.82532">
        <ele>376.4</ele>
        <time>2021-06-26T14:19:40Z</time>
      </trkpt>
      <trkpt lat="48.9757" lon="7.82535">
        <ele>376.6</ele>
        <time>2021-06-26T14:19:41Z</time>
      </trkpt>
      <trkpt lat="48.9757" lon="7.82539">
        <ele>376.8</ele>
        <time>2021-06-26T14:19:42Z</time>
      </trkpt>
      <trkpt lat="48.9757" lon="7.82546">
        <ele>377</ele>
        <time>2021-06-26T14:19:44Z</time>
      </trkpt>
      <trkpt lat="48.9757" lon="7.8255">
        <ele>377.2</ele>
        <time>2021-06-26T14:19:45Z</time>
      </trkpt>
      <trkpt lat="48.97571" lon="7.82555">
        <ele>378</ele>
        <time>2021-06-26T14:19:48Z</time>
      </trkpt>
      <trkpt lat="48.97571" lon="7.82562">
        <ele>378.2</ele>
        <time>2021-06-26T14:19:49Z</time>
      </trkpt>
      <trkpt lat="48.97571" lon="7.82565">
        <ele>378.4</ele>
        <time>2021-06-26T14:19:50Z</time>
      </trkpt>
      <trkpt lat="48.97572" lon="7.82567">
        <ele>378.6</ele>
        <time>2021-06-26T14:19:51Z</time>
      </trkpt>
      <trkpt lat="48.97571" lon="7.82569">
        <ele>378.6</ele>
        <time>2021-06-26T14:19:52Z</time>
      </trkpt>
      <trkpt lat="48.97572" lon="7.82572">
        <ele>378.8</ele>
        <time>2021-06-26T14:19:53Z</time>
      </trkpt>
      <trkpt lat="48.97573" lon="7.82574">
        <ele>378.8</ele>
        <time>2021-06-26T14:19:54Z</time>
      </trkpt>
      <trkpt lat="48.97573" lon="7.82574">
        <ele>379</ele>
        <time>2021-06-26T14:19:55Z</time>
      </trkpt>
      <trkpt lat="48.97575" lon="7.82579">
        <ele>379.2</ele>
        <time>2021-06-26T14:19:56Z</time>
      </trkpt>
      <trkpt lat="48.97575" lon="7.82583">
        <ele>379.2</ele>
        <time>2021-06-26T14:19:57Z</time>
      </trkpt>
      <trkpt lat="48.97576" lon="7.82586">
        <ele>379.4</ele>
        <time>2021-06-26T14:19:58Z</time>
      </trkpt>
      <trkpt lat="48.97577" lon="7.82589">
        <ele>379.4</ele>
        <time>2021-06-26T14:19:59Z</time>
      </trkpt>
      <trkpt lat="48.97577" lon="7.82592">
        <ele>379.6</ele>
        <time>2021-06-26T14:20:00Z</time>
      </trkpt>
      <trkpt lat="48.97578" lon="7.82594">
        <ele>379.8</ele>
        <time>2021-06-26T14:20:01Z</time>
      </trkpt>
      <trkpt lat="48.97579" lon="7.82597">
        <ele>380</ele>
        <time>2021-06-26T14:20:02Z</time>
      </trkpt>
      <trkpt lat="48.9758" lon="7.826">
        <ele>380</ele>
        <time>2021-06-26T14:20:03Z</time>
      </trkpt>
      <trkpt lat="48.97581" lon="7.82604">
        <ele>380.2</ele>
        <time>2021-06-26T14:20:04Z</time>
      </trkpt>
      <trkpt lat="48.97582" lon="7.82607">
        <ele>380.4</ele>
        <time>2021-06-26T14:20:05Z</time>
      </trkpt>
      <trkpt lat="48.97582" lon="7.8261">
        <ele>380.6</ele>
        <time>2021-06-26T14:20:06Z</time>
      </trkpt>
      <trkpt lat="48.97582" lon="7.82614">
        <ele>380.8</ele>
        <time>2021-06-26T14:20:07Z</time>
      </trkpt>
      <trkpt lat="48.97581" lon="7.82618">
        <ele>381</ele>
        <time>2021-06-26T14:20:08Z</time>
      </trkpt>
      <trkpt lat="48.97581" lon="7.82621">
        <ele>381</ele>
        <time>2021-06-26T14:20:09Z</time>
      </trkpt>
      <trkpt lat="48.97581" lon="7.82624">
        <ele>381.2</ele>
        <time>2021-06-26T14:20:10Z</time>
      </trkpt>
      <trkpt lat="48.97583" lon="7.82627">
        <ele>381.4</ele>
        <time>2021-06-26T14:20:11Z</time>
      </trkpt>
      <trkpt lat="48.97584" lon="7.8263">
        <ele>381.6</ele>
        <time>2021-06-26T14:20:12Z</time>
      </trkpt>
      <trkpt lat="48.97584" lon="7.82635">
        <ele>381.8</ele>
        <time>2021-06-26T14:20:13Z</time>
      </trkpt>
      <trkpt lat="48.97584" lon="7.82638">
        <ele>382</ele>
        <time>2021-06-26T14:20:14Z</time>
      </trkpt>
      <trkpt lat="48.97585" lon="7.82643">
        <ele>382.2</ele>
        <time>2021-06-26T14:20:15Z</time>
      </trkpt>
      <trkpt lat="48.97586" lon="7.82645">
        <ele>382.4</ele>
        <time>2021-06-26T14:20:16Z</time>
      </trkpt>
      <trkpt lat="48.97587" lon="7.82647">
        <ele>382.4</ele>
        <time>2021-06-26T14:20:17Z</time>
      </trkpt>
      <trkpt lat="48.97587" lon="7.82649">
        <ele>382.4</ele>
        <time>2021-06-26T14:20:18Z</time>
      </trkpt>
      <trkpt lat="48.97587" lon="7.82653">
        <ele>382.6</ele>
        <time>2021-06-26T14:20:19Z</time>
      </trkpt>
      <trkpt lat="48.97587" lon="7.82657">
        <ele>382.8</ele>
        <time>2021-06-26T14:20:20Z</time>
      </trkpt>
      <trkpt lat="48.97588" lon="7.8266">
        <ele>382.8</ele>
        <time>2021-06-26T14:20:21Z</time>
      </trkpt>
      <trkpt lat="48.97589" lon="7.82663">
        <ele>383</ele>
        <time>2021-06-26T14:20:22Z</time>
      </trkpt>
      <trkpt lat="48.97591" lon="7.82665">
        <ele>383</ele>
        <time>2021-06-26T14:20:23Z</time>
      </trkpt>
      <trkpt lat="48.97592" lon="7.82668">
        <ele>383.2</ele>
        <time>2021-06-26T14:20:24Z</time>
      </trkpt>
      <trkpt lat="48.97593" lon="7.82671">
        <ele>383.2</ele>
        <time>2021-06-26T14:20:25Z</time>
      </trkpt>
      <trkpt lat="48.97593" lon="7.82676">
        <ele>383.4</ele>
        <time>2021-06-26T14:20:26Z</time>
      </trkpt>
      <trkpt lat="48.97594" lon="7.82678">
        <ele>383.4</ele>
        <time>2021-06-26T14:20:27Z</time>
      </trkpt>
      <trkpt lat="48.97595" lon="7.82682">
        <ele>383.6</ele>
        <time>2021-06-26T14:20:28Z</time>
      </trkpt>
      <trkpt lat="48.97596" lon="7.82685">
        <ele>383.8</ele>
        <time>2021-06-26T14:20:29Z</time>
      </trkpt>
      <trkpt lat="48.97597" lon="7.82688">
        <ele>384</ele>
        <time>2021-06-26T14:20:30Z</time>
      </trkpt>
      <trkpt lat="48.97597" lon="7.8269">
        <ele>384</ele>
        <time>2021-06-26T14:20:31Z</time>
      </trkpt>
      <trkpt lat="48.97597" lon="7.82692">
        <ele>384.2</ele>
        <time>2021-06-26T14:20:32Z</time>
      </trkpt>
      <trkpt lat="48.97598" lon="7.82694">
        <ele>384.4</ele>
        <time>2021-06-26T14:20:33Z</time>
      </trkpt>
      <trkpt lat="48.97599" lon="7.82696">
        <ele>384.6</ele>
        <time>2021-06-26T14:20:34Z</time>
      </trkpt>
      <trkpt lat="48.976" lon="7.82699">
        <ele>384.8</ele>
        <time>2021-06-26T14:20:35Z</time>
      </trkpt>
      <trkpt lat="48.97601" lon="7.82701">
        <ele>384.8</ele>
        <time>2021-06-26T14:20:36Z</time>
      </trkpt>
      <trkpt lat="48.97602" lon="7.82703">
        <ele>385</ele>
        <time>2021-06-26T14:20:37Z</time>
      </trkpt>
      <trkpt lat="48.97603" lon="7.82706">
        <ele>385.2</ele>
        <time>2021-06-26T14:20:38Z</time>
      </trkpt>
      <trkpt lat="48.97604" lon="7.82708">
        <ele>385.6</ele>
        <time>2021-06-26T14:20:39Z</time>
      </trkpt>
      <trkpt lat="48.97605" lon="7.8271">
        <ele>385.8</ele>
        <time>2021-06-26T14:20:40Z</time>
      </trkpt>
      <trkpt lat="48.97606" lon="7.82713">
        <ele>385.8</ele>
        <time>2021-06-26T14:20:41Z</time>
      </trkpt>
      <trkpt lat="48.97606" lon="7.82715">
        <ele>386</ele>
        <time>2021-06-26T14:20:42Z</time>
      </trkpt>
      <trkpt lat="48.97607" lon="7.82718">
        <ele>386.2</ele>
        <time>2021-06-26T14:20:43Z</time>
      </trkpt>
      <trkpt lat="48.97608" lon="7.8272">
        <ele>386.4</ele>
        <time>2021-06-26T14:20:44Z</time>
      </trkpt>
      <trkpt lat="48.97609" lon="7.82722">
        <ele>386.4</ele>
        <time>2021-06-26T14:20:45Z</time>
      </trkpt>
      <trkpt lat="48.9761" lon="7.82724">
        <ele>386.6</ele>
        <time>2021-06-26T14:20:46Z</time>
      </trkpt>
      <trkpt lat="48.97611" lon="7.82725">
        <ele>387</ele>
        <time>2021-06-26T14:20:47Z</time>
      </trkpt>
      <trkpt lat="48.97613" lon="7.82728">
        <ele>387</ele>
        <time>2021-06-26T14:20:48Z</time>
      </trkpt>
      <trkpt lat="48.97614" lon="7.82729">
        <ele>387.2</ele>
        <time>2021-06-26T14:20:49Z</time>
      </trkpt>
      <trkpt lat="48.97615" lon="7.82731">
        <ele>387.2</ele>
        <time>2021-06-26T14:20:50Z</time>
      </trkpt>
      <trkpt lat="48.97615" lon="7.82733">
        <ele>387.4</ele>
        <time>2021-06-26T14:20:51Z</time>
      </trkpt>
      <trkpt lat="48.97616" lon="7.82735">
        <ele>387.4</ele>
        <time>2021-06-26T14:20:52Z</time>
      </trkpt>
      <trkpt lat="48.97618" lon="7.82738">
        <ele>387.4</ele>
        <time>2021-06-26T14:20:53Z</time>
      </trkpt>
      <trkpt lat="48.97619" lon="7.82739">
        <ele>387.4</ele>
        <time>2021-06-26T14:20:54Z</time>
      </trkpt>
      <trkpt lat="48.97619" lon="7.82739">
        <ele>387.4</ele>
        <time>2021-06-26T14:20:55Z</time>
      </trkpt>
      <trkpt lat="48.97621" lon="7.82743">
        <ele>387.6</ele>
        <time>2021-06-26T14:20:56Z</time>
      </trkpt>
      <trkpt lat="48.97621" lon="7.82743">
        <ele>387.8</ele>
        <time>2021-06-26T14:20:57Z</time>
      </trkpt>
      <trkpt lat="48.97624" lon="7.82746">
        <ele>388</ele>
        <time>2021-06-26T14:20:58Z</time>
      </trkpt>
      <trkpt lat="48.97625" lon="7.82748">
        <ele>388</ele>
        <time>2021-06-26T14:20:59Z</time>
      </trkpt>
      <trkpt lat="48.97626" lon="7.8275">
        <ele>388</ele>
        <time>2021-06-26T14:21:00Z</time>
      </trkpt>
      <trkpt lat="48.97628" lon="7.82751">
        <ele>388.2</ele>
        <time>2021-06-26T14:21:01Z</time>
      </trkpt>
      <trkpt lat="48.97629" lon="7.82753">
        <ele>388.2</ele>
        <time>2021-06-26T14:21:02Z</time>
      </trkpt>
      <trkpt lat="48.9763" lon="7.82756">
        <ele>388.4</ele>
        <time>2021-06-26T14:21:03Z</time>
      </trkpt>
      <trkpt lat="48.97631" lon="7.82758">
        <ele>388.4</ele>
        <time>2021-06-26T14:21:04Z</time>
      </trkpt>
      <trkpt lat="48.97633" lon="7.82761">
        <ele>388.6</ele>
        <time>2021-06-26T14:21:05Z</time>
      </trkpt>
      <trkpt lat="48.97634" lon="7.82763">
        <ele>388.8</ele>
        <time>2021-06-26T14:21:06Z</time>
      </trkpt>
      <trkpt lat="48.97635" lon="7.82765">
        <ele>389</ele>
        <time>2021-06-26T14:21:07Z</time>
      </trkpt>
      <trkpt lat="48.97637" lon="7.82767">
        <ele>389</ele>
        <time>2021-06-26T14:21:08Z</time>
      </trkpt>
      <trkpt lat="48.97639" lon="7.8277">
        <ele>389.2</ele>
        <time>2021-06-26T14:21:09Z</time>
      </trkpt>
      <trkpt lat="48.9764" lon="7.82771">
        <ele>389.2</ele>
        <time>2021-06-26T14:21:10Z</time>
      </trkpt>
      <trkpt lat="48.97641" lon="7.82773">
        <ele>389.4</ele>
        <time>2021-06-26T14:21:11Z</time>
      </trkpt>
      <trkpt lat="48.97642" lon="7.82775">
        <ele>389.4</ele>
        <time>2021-06-26T14:21:12Z</time>
      </trkpt>
      <trkpt lat="48.97643" lon="7.82777">
        <ele>389.4</ele>
        <time>2021-06-26T14:21:13Z</time>
      </trkpt>
      <trkpt lat="48.97645" lon="7.82779">
        <ele>389.4</ele>
        <time>2021-06-26T14:21:14Z</time>
      </trkpt>
      <trkpt lat="48.97646" lon="7.82781">
        <ele>389.6</ele>
        <time>2021-06-26T14:21:15Z</time>
      </trkpt>
      <trkpt lat="48.97647" lon="7.82783">
        <ele>389.6</ele>
        <time>2021-06-26T14:21:16Z</time>
      </trkpt>
      <trkpt lat="48.97647" lon="7.82786">
        <ele>390</ele>
        <time>2021-06-26T14:21:17Z</time>
      </trkpt>
      <trkpt lat="48.97649" lon="7.82788">
        <ele>390</ele>
        <time>2021-06-26T14:21:18Z</time>
      </trkpt>
      <trkpt lat="48.9765" lon="7.82791">
        <ele>390.2</ele>
        <time>2021-06-26T14:21:19Z</time>
      </trkpt>
      <trkpt lat="48.97651" lon="7.82793">
        <ele>390.4</ele>
        <time>2021-06-26T14:21:20Z</time>
      </trkpt>
      <trkpt lat="48.97652" lon="7.82796">
        <ele>390.6</ele>
        <time>2021-06-26T14:21:21Z</time>
      </trkpt>
      <trkpt lat="48.97654" lon="7.82799">
        <ele>390.6</ele>
        <time>2021-06-26T14:21:22Z</time>
      </trkpt>
      <trkpt lat="48.97655" lon="7.82801">
        <ele>390.8</ele>
        <time>2021-06-26T14:21:23Z</time>
      </trkpt>
      <trkpt lat="48.97656" lon="7.82804">
        <ele>391</ele>
        <time>2021-06-26T14:21:24Z</time>
      </trkpt>
      <trkpt lat="48.97657" lon="7.82806">
        <ele>391.2</ele>
        <time>2021-06-26T14:21:25Z</time>
      </trkpt>
      <trkpt lat="48.97658" lon="7.82808">
        <ele>391.2</ele>
        <time>2021-06-26T14:21:26Z</time>
      </trkpt>
      <trkpt lat="48.97659" lon="7.8281">
        <ele>391.4</ele>
        <time>2021-06-26T14:21:27Z</time>
      </trkpt>
      <trkpt lat="48.9766" lon="7.82813">
        <ele>391.6</ele>
        <time>2021-06-26T14:21:28Z</time>
      </trkpt>
      <trkpt lat="48.97661" lon="7.82816">
        <ele>391.6</ele>
        <time>2021-06-26T14:21:29Z</time>
      </trkpt>
      <trkpt lat="48.97661" lon="7.82819">
        <ele>391.6</ele>
        <time>2021-06-26T14:21:30Z</time>
      </trkpt>
      <trkpt lat="48.97662" lon="7.82821">
        <ele>391.8</ele>
        <time>2021-06-26T14:21:31Z</time>
      </trkpt>
      <trkpt lat="48.97664" lon="7.82825">
        <ele>391.8</ele>
        <time>2021-06-26T14:21:32Z</time>
      </trkpt>
      <trkpt lat="48.97664" lon="7.82827">
        <ele>392</ele>
        <time>2021-06-26T14:21:33Z</time>
      </trkpt>
      <trkpt lat="48.97665" lon="7.82829">
        <ele>392</ele>
        <time>2021-06-26T14:21:34Z</time>
      </trkpt>
      <trkpt lat="48.97666" lon="7.82832">
        <ele>392.2</ele>
        <time>2021-06-26T14:21:35Z</time>
      </trkpt>
      <trkpt lat="48.97667" lon="7.82834">
        <ele>392.4</ele>
        <time>2021-06-26T14:21:36Z</time>
      </trkpt>
      <trkpt lat="48.97669" lon="7.82836">
        <ele>392.6</ele>
        <time>2021-06-26T14:21:37Z</time>
      </trkpt>
      <trkpt lat="48.9767" lon="7.82839">
        <ele>392.8</ele>
        <time>2021-06-26T14:21:38Z</time>
      </trkpt>
      <trkpt lat="48.97671" lon="7.82841">
        <ele>393</ele>
        <time>2021-06-26T14:21:39Z</time>
      </trkpt>
      <trkpt lat="48.97673" lon="7.82844">
        <ele>393</ele>
        <time>2021-06-26T14:21:40Z</time>
      </trkpt>
      <trkpt lat="48.97673" lon="7.82844">
        <ele>393.2</ele>
        <time>2021-06-26T14:21:41Z</time>
      </trkpt>
      <trkpt lat="48.97675" lon="7.82847">
        <ele>393.4</ele>
        <time>2021-06-26T14:21:42Z</time>
      </trkpt>
      <trkpt lat="48.97677" lon="7.8285">
        <ele>393.6</ele>
        <time>2021-06-26T14:21:43Z</time>
      </trkpt>
      <trkpt lat="48.97678" lon="7.82852">
        <ele>393.8</ele>
        <time>2021-06-26T14:21:44Z</time>
      </trkpt>
      <trkpt lat="48.9768" lon="7.82855">
        <ele>393.8</ele>
        <time>2021-06-26T14:21:45Z</time>
      </trkpt>
      <trkpt lat="48.97681" lon="7.82857">
        <ele>393.8</ele>
        <time>2021-06-26T14:21:46Z</time>
      </trkpt>
      <trkpt lat="48.97682" lon="7.82859">
        <ele>394</ele>
        <time>2021-06-26T14:21:47Z</time>
      </trkpt>
      <trkpt lat="48.97684" lon="7.8286">
        <ele>394</ele>
        <time>2021-06-26T14:21:48Z</time>
      </trkpt>
      <trkpt lat="48.97685" lon="7.82862">
        <ele>394.2</ele>
        <time>2021-06-26T14:21:49Z</time>
      </trkpt>
      <trkpt lat="48.97687" lon="7.82864">
        <ele>394.4</ele>
        <time>2021-06-26T14:21:50Z</time>
      </trkpt>
      <trkpt lat="48.97688" lon="7.82866">
        <ele>394.4</ele>
        <time>2021-06-26T14:21:51Z</time>
      </trkpt>
      <trkpt lat="48.9769" lon="7.82868">
        <ele>394.4</ele>
        <time>2021-06-26T14:21:52Z</time>
      </trkpt>
      <trkpt lat="48.97691" lon="7.8287">
        <ele>394.4</ele>
        <time>2021-06-26T14:21:53Z</time>
      </trkpt>
      <trkpt lat="48.97692" lon="7.82872">
        <ele>394.6</ele>
        <time>2021-06-26T14:21:54Z</time>
      </trkpt>
      <trkpt lat="48.97694" lon="7.82876">
        <ele>394.6</ele>
        <time>2021-06-26T14:21:55Z</time>
      </trkpt>
      <trkpt lat="48.97695" lon="7.82878">
        <ele>394.6</ele>
        <time>2021-06-26T14:21:56Z</time>
      </trkpt>
      <trkpt lat="48.97696" lon="7.8288">
        <ele>394.8</ele>
        <time>2021-06-26T14:21:57Z</time>
      </trkpt>
      <trkpt lat="48.97697" lon="7.82882">
        <ele>394.8</ele>
        <time>2021-06-26T14:21:58Z</time>
      </trkpt>
      <trkpt lat="48.97698" lon="7.82883">
        <ele>394.8</ele>
        <time>2021-06-26T14:21:59Z</time>
      </trkpt>
      <trkpt lat="48.97699" lon="7.82885">
        <ele>395</ele>
        <time>2021-06-26T14:22:00Z</time>
      </trkpt>
      <trkpt lat="48.977" lon="7.82887">
        <ele>395</ele>
        <time>2021-06-26T14:22:01Z</time>
      </trkpt>
      <trkpt lat="48.97702" lon="7.8289">
        <ele>395</ele>
        <time>2021-06-26T14:22:02Z</time>
      </trkpt>
      <trkpt lat="48.97702" lon="7.82894">
        <ele>395.2</ele>
        <time>2021-06-26T14:22:03Z</time>
      </trkpt>
      <trkpt lat="48.97703" lon="7.82897">
        <ele>395.2</ele>
        <time>2021-06-26T14:22:04Z</time>
      </trkpt>
      <trkpt lat="48.97704" lon="7.82899">
        <ele>395.4</ele>
        <time>2021-06-26T14:22:05Z</time>
      </trkpt>
      <trkpt lat="48.9771" lon="7.82915">
        <ele>396</ele>
        <time>2021-06-26T14:22:11Z</time>
      </trkpt>
      <trkpt lat="48.9771" lon="7.82918">
        <ele>396.2</ele>
        <time>2021-06-26T14:22:12Z</time>
      </trkpt>
      <trkpt lat="48.97712" lon="7.82922">
        <ele>396.2</ele>
        <time>2021-06-26T14:22:13Z</time>
      </trkpt>
      <trkpt lat="48.97715" lon="7.82934">
        <ele>396.2</ele>
        <time>2021-06-26T14:22:18Z</time>
      </trkpt>
      <trkpt lat="48.97715" lon="7.82935">
        <ele>396.2</ele>
        <time>2021-06-26T14:22:19Z</time>
      </trkpt>
      <trkpt lat="48.97715" lon="7.82935">
        <ele>396.2</ele>
        <time>2021-06-26T14:22:20Z</time>
      </trkpt>
      <trkpt lat="48.97712" lon="7.82934">
        <ele>396.2</ele>
        <time>2021-06-26T14:22:21Z</time>
      </trkpt>
      <trkpt lat="48.97711" lon="7.82934">
        <ele>396.2</ele>
        <time>2021-06-26T14:22:22Z</time>
      </trkpt>
      <trkpt lat="48.9771" lon="7.82933">
        <ele>396.2</ele>
        <time>2021-06-26T14:22:24Z</time>
      </trkpt>
      <trkpt lat="48.9771" lon="7.82933">
        <ele>394.2</ele>
        <time>2021-06-26T14:22:39Z</time>
      </trkpt>
      <trkpt lat="48.9771" lon="7.82932">
        <ele>394.2</ele>
        <time>2021-06-26T14:22:42Z</time>
      </trkpt>
      <trkpt lat="48.9771" lon="7.82932">
        <ele>394</ele>
        <time>2021-06-26T14:22:43Z</time>
      </trkpt>
      <trkpt lat="48.97695" lon="7.82923">
        <ele>394</ele>
        <time>2021-06-26T14:22:49Z</time>
      </trkpt>
      <trkpt lat="48.97693" lon="7.8292">
        <ele>394</ele>
        <time>2021-06-26T14:22:50Z</time>
      </trkpt>
      <trkpt lat="48.97691" lon="7.82917">
        <ele>394</ele>
        <time>2021-06-26T14:22:51Z</time>
      </trkpt>
      <trkpt lat="48.97682" lon="7.82907">
        <ele>393.2</ele>
        <time>2021-06-26T14:22:55Z</time>
      </trkpt>
      <trkpt lat="48.9768" lon="7.82905">
        <ele>392.6</ele>
        <time>2021-06-26T14:22:57Z</time>
      </trkpt>
      <trkpt lat="48.97674" lon="7.82899">
        <ele>391.8</ele>
        <time>2021-06-26T14:22:59Z</time>
      </trkpt>
      <trkpt lat="48.97667" lon="7.82894">
        <ele>390.4</ele>
        <time>2021-06-26T14:23:02Z</time>
      </trkpt>
      <trkpt lat="48.97666" lon="7.82893">
        <ele>389.6</ele>
        <time>2021-06-26T14:23:03Z</time>
      </trkpt>
      <trkpt lat="48.97666" lon="7.82893">
        <ele>388.8</ele>
        <time>2021-06-26T14:23:04Z</time>
      </trkpt>
      <trkpt lat="48.97666" lon="7.82893">
        <ele>388</ele>
        <time>2021-06-26T14:23:05Z</time>
      </trkpt>
      <trkpt lat="48.97667" lon="7.82893">
        <ele>383.2</ele>
        <time>2021-06-26T14:23:39Z</time>
      </trkpt>
      <trkpt lat="48.97666" lon="7.82893">
        <ele>383.2</ele>
        <time>2021-06-26T14:23:40Z</time>
      </trkpt>
      <trkpt lat="48.97666" lon="7.82893">
        <ele>383</ele>
        <time>2021-06-26T14:23:42Z</time>
      </trkpt>
      <trkpt lat="48.97665" lon="7.82892">
        <ele>383</ele>
        <time>2021-06-26T14:23:46Z</time>
      </trkpt>
      <trkpt lat="48.97665" lon="7.82892">
        <ele>383</ele>
        <time>2021-06-26T14:23:48Z</time>
      </trkpt>
      <trkpt lat="48.97665" lon="7.82891">
        <ele>382.8</ele>
        <time>2021-06-26T14:23:52Z</time>
      </trkpt>
      <trkpt lat="48.97662" lon="7.82889">
        <ele>382.2</ele>
        <time>2021-06-26T14:23:55Z</time>
      </trkpt>
      <trkpt lat="48.97657" lon="7.82886">
        <ele>382.2</ele>
        <time>2021-06-26T14:23:58Z</time>
      </trkpt>
      <trkpt lat="48.97653" lon="7.82881">
        <ele>382</ele>
        <time>2021-06-26T14:24:00Z</time>
      </trkpt>
      <trkpt lat="48.97651" lon="7.82879">
        <ele>382</ele>
        <time>2021-06-26T14:24:01Z</time>
      </trkpt>
      <trkpt lat="48.97649" lon="7.82877">
        <ele>382</ele>
        <time>2021-06-26T14:24:02Z</time>
      </trkpt>
      <trkpt lat="48.9764" lon="7.82867">
        <ele>381.8</ele>
        <time>2021-06-26T14:24:05Z</time>
      </trkpt>
      <trkpt lat="48.97634" lon="7.8286">
        <ele>380.8</ele>
        <time>2021-06-26T14:24:08Z</time>
      </trkpt>
      <trkpt lat="48.97634" lon="7.8286">
        <ele>380.4</ele>
        <time>2021-06-26T14:24:09Z</time>
      </trkpt>
      <trkpt lat="48.97634" lon="7.8286">
        <ele>379.8</ele>
        <time>2021-06-26T14:24:10Z</time>
      </trkpt>
      <trkpt lat="48.97633" lon="7.82859">
        <ele>379.2</ele>
        <time>2021-06-26T14:24:11Z</time>
      </trkpt>
      <trkpt lat="48.97632" lon="7.82858">
        <ele>378.8</ele>
        <time>2021-06-26T14:24:12Z</time>
      </trkpt>
      <trkpt lat="48.9763" lon="7.82856">
        <ele>378.4</ele>
        <time>2021-06-26T14:24:13Z</time>
      </trkpt>
      <trkpt lat="48.97625" lon="7.82853">
        <ele>377.4</ele>
        <time>2021-06-26T14:24:15Z</time>
      </trkpt>
      <trkpt lat="48.97623" lon="7.82851">
        <ele>377</ele>
        <time>2021-06-26T14:24:16Z</time>
      </trkpt>
      <trkpt lat="48.97621" lon="7.82849">
        <ele>376.8</ele>
        <time>2021-06-26T14:24:17Z</time>
      </trkpt>
      <trkpt lat="48.97613" lon="7.82838">
        <ele>376</ele>
        <time>2021-06-26T14:24:23Z</time>
      </trkpt>
      <trkpt lat="48.97613" lon="7.82837">
        <ele>375.6</ele>
        <time>2021-06-26T14:24:24Z</time>
      </trkpt>
      <trkpt lat="48.97612" lon="7.82835">
        <ele>375</ele>
        <time>2021-06-26T14:24:25Z</time>
      </trkpt>
      <trkpt lat="48.9761" lon="7.82833">
        <ele>374.4</ele>
        <time>2021-06-26T14:24:26Z</time>
      </trkpt>
      <trkpt lat="48.97606" lon="7.8283">
        <ele>373.4</ele>
        <time>2021-06-26T14:24:28Z</time>
      </trkpt>
      <trkpt lat="48.97602" lon="7.82829">
        <ele>372.6</ele>
        <time>2021-06-26T14:24:30Z</time>
      </trkpt>
      <trkpt lat="48.97599" lon="7.82828">
        <ele>372.2</ele>
        <time>2021-06-26T14:24:31Z</time>
      </trkpt>
      <trkpt lat="48.97598" lon="7.82827">
        <ele>371.8</ele>
        <time>2021-06-26T14:24:32Z</time>
      </trkpt>
      <trkpt lat="48.97597" lon="7.82827">
        <ele>371</ele>
        <time>2021-06-26T14:24:34Z</time>
      </trkpt>
      <trkpt lat="48.97597" lon="7.82827">
        <ele>370.6</ele>
        <time>2021-06-26T14:24:35Z</time>
      </trkpt>
      <trkpt lat="48.97596" lon="7.82826">
        <ele>366.2</ele>
        <time>2021-06-26T14:26:19Z</time>
      </trkpt>
      <trkpt lat="48.9758" lon="7.8282">
        <ele>366.2</ele>
        <time>2021-06-26T14:26:25Z</time>
      </trkpt>
      <trkpt lat="48.9758" lon="7.8282">
        <ele>366.2</ele>
        <time>2021-06-26T14:26:26Z</time>
      </trkpt>
      <trkpt lat="48.97579" lon="7.8282">
        <ele>365.6</ele>
        <time>2021-06-26T14:26:28Z</time>
      </trkpt>
      <trkpt lat="48.97579" lon="7.82823">
        <ele>362.4</ele>
        <time>2021-06-26T14:27:02Z</time>
      </trkpt>
      <trkpt lat="48.9758" lon="7.82825">
        <ele>362.4</ele>
        <time>2021-06-26T14:27:03Z</time>
      </trkpt>
      <trkpt lat="48.9758" lon="7.82827">
        <ele>362.4</ele>
        <time>2021-06-26T14:27:04Z</time>
      </trkpt>
      <trkpt lat="48.97581" lon="7.8283">
        <ele>362.4</ele>
        <time>2021-06-26T14:27:05Z</time>
      </trkpt>
      <trkpt lat="48.97581" lon="7.82832">
        <ele>362.4</ele>
        <time>2021-06-26T14:27:06Z</time>
      </trkpt>
      <trkpt lat="48.97583" lon="7.82834">
        <ele>362.4</ele>
        <time>2021-06-26T14:27:07Z</time>
      </trkpt>
      <trkpt lat="48.97584" lon="7.82838">
        <ele>362.4</ele>
        <time>2021-06-26T14:27:09Z</time>
      </trkpt>
      <trkpt lat="48.97584" lon="7.82841">
        <ele>362.4</ele>
        <time>2021-06-26T14:27:10Z</time>
      </trkpt>
      <trkpt lat="48.97588" lon="7.82852">
        <ele>362.4</ele>
        <time>2021-06-26T14:27:14Z</time>
      </trkpt>
      <trkpt lat="48.97596" lon="7.82871">
        <ele>363</ele>
        <time>2021-06-26T14:27:22Z</time>
      </trkpt>
      <trkpt lat="48.97603" lon="7.82889">
        <ele>363.2</ele>
        <time>2021-06-26T14:27:29Z</time>
      </trkpt>
      <trkpt lat="48.97608" lon="7.829">
        <ele>363.6</ele>
        <time>2021-06-26T14:27:34Z</time>
      </trkpt>
      <trkpt lat="48.97609" lon="7.82905">
        <ele>363.6</ele>
        <time>2021-06-26T14:27:35Z</time>
      </trkpt>
      <trkpt lat="48.9761" lon="7.82908">
        <ele>363.8</ele>
        <time>2021-06-26T14:27:36Z</time>
      </trkpt>
      <trkpt lat="48.97612" lon="7.8291">
        <ele>363.8</ele>
        <time>2021-06-26T14:27:37Z</time>
      </trkpt>
      <trkpt lat="48.97613" lon="7.82914">
        <ele>363.8</ele>
        <time>2021-06-26T14:27:38Z</time>
      </trkpt>
      <trkpt lat="48.97617" lon="7.82922">
        <ele>364.2</ele>
        <time>2021-06-26T14:27:42Z</time>
      </trkpt>
      <trkpt lat="48.97621" lon="7.82932">
        <ele>364.4</ele>
        <time>2021-06-26T14:27:44Z</time>
      </trkpt>
      <trkpt lat="48.97626" lon="7.82942">
        <ele>364.8</ele>
        <time>2021-06-26T14:27:48Z</time>
      </trkpt>
      <trkpt lat="48.97638" lon="7.82965">
        <ele>365.4</ele>
        <time>2021-06-26T14:27:55Z</time>
      </trkpt>
      <trkpt lat="48.9765" lon="7.82982">
        <ele>365.4</ele>
        <time>2021-06-26T14:28:02Z</time>
      </trkpt>
      <trkpt lat="48.97653" lon="7.82984">
        <ele>365.6</ele>
        <time>2021-06-26T14:28:03Z</time>
      </trkpt>
      <trkpt lat="48.97654" lon="7.82986">
        <ele>365.6</ele>
        <time>2021-06-26T14:28:04Z</time>
      </trkpt>
      <trkpt lat="48.97657" lon="7.82989">
        <ele>365.6</ele>
        <time>2021-06-26T14:28:05Z</time>
      </trkpt>
      <trkpt lat="48.97659" lon="7.82991">
        <ele>365.8</ele>
        <time>2021-06-26T14:28:06Z</time>
      </trkpt>
      <trkpt lat="48.97661" lon="7.82994">
        <ele>365.8</ele>
        <time>2021-06-26T14:28:07Z</time>
      </trkpt>
      <trkpt lat="48.97671" lon="7.83011">
        <ele>366.4</ele>
        <time>2021-06-26T14:28:12Z</time>
      </trkpt>
      <trkpt lat="48.97674" lon="7.83019">
        <ele>366.6</ele>
        <time>2021-06-26T14:28:14Z</time>
      </trkpt>
      <trkpt lat="48.97684" lon="7.83036">
        <ele>366.8</ele>
        <time>2021-06-26T14:28:19Z</time>
      </trkpt>
      <trkpt lat="48.97701" lon="7.83072">
        <ele>366.8</ele>
        <time>2021-06-26T14:28:28Z</time>
      </trkpt>
      <trkpt lat="48.97716" lon="7.83103">
        <ele>367</ele>
        <time>2021-06-26T14:28:37Z</time>
      </trkpt>
      <trkpt lat="48.97718" lon="7.83106">
        <ele>367</ele>
        <time>2021-06-26T14:28:38Z</time>
      </trkpt>
      <trkpt lat="48.9772" lon="7.83108">
        <ele>367</ele>
        <time>2021-06-26T14:28:39Z</time>
      </trkpt>
      <trkpt lat="48.97722" lon="7.83111">
        <ele>367</ele>
        <time>2021-06-26T14:28:40Z</time>
      </trkpt>
      <trkpt lat="48.97724" lon="7.83114">
        <ele>367.2</ele>
        <time>2021-06-26T14:28:41Z</time>
      </trkpt>
      <trkpt lat="48.97726" lon="7.83117">
        <ele>367.4</ele>
        <time>2021-06-26T14:28:42Z</time>
      </trkpt>
      <trkpt lat="48.9773" lon="7.83122">
        <ele>367.8</ele>
        <time>2021-06-26T14:28:44Z</time>
      </trkpt>
      <trkpt lat="48.97732" lon="7.83124">
        <ele>367.8</ele>
        <time>2021-06-26T14:28:45Z</time>
      </trkpt>
      <trkpt lat="48.97734" lon="7.83126">
        <ele>368</ele>
        <time>2021-06-26T14:28:46Z</time>
      </trkpt>
      <trkpt lat="48.97736" lon="7.83129">
        <ele>368</ele>
        <time>2021-06-26T14:28:47Z</time>
      </trkpt>
      <trkpt lat="48.9774" lon="7.83134">
        <ele>368.4</ele>
        <time>2021-06-26T14:28:49Z</time>
      </trkpt>
      <trkpt lat="48.97742" lon="7.83137">
        <ele>368.4</ele>
        <time>2021-06-26T14:28:50Z</time>
      </trkpt>
      <trkpt lat="48.97744" lon="7.8314">
        <ele>368.6</ele>
        <time>2021-06-26T14:28:51Z</time>
      </trkpt>
      <trkpt lat="48.97748" lon="7.83145">
        <ele>368.8</ele>
        <time>2021-06-26T14:28:53Z</time>
      </trkpt>
      <trkpt lat="48.97759" lon="7.83163">
        <ele>369.4</ele>
        <time>2021-06-26T14:28:59Z</time>
      </trkpt>
      <trkpt lat="48.97773" lon="7.83177">
        <ele>369.8</ele>
        <time>2021-06-26T14:29:05Z</time>
      </trkpt>
      <trkpt lat="48.97775" lon="7.83179">
        <ele>370</ele>
        <time>2021-06-26T14:29:06Z</time>
      </trkpt>
      <trkpt lat="48.97791" lon="7.83196">
        <ele>370.8</ele>
        <time>2021-06-26T14:29:13Z</time>
      </trkpt>
      <trkpt lat="48.97794" lon="7.83198">
        <ele>370.8</ele>
        <time>2021-06-26T14:29:14Z</time>
      </trkpt>
      <trkpt lat="48.97798" lon="7.83203">
        <ele>371</ele>
        <time>2021-06-26T14:29:16Z</time>
      </trkpt>
      <trkpt lat="48.97801" lon="7.83204">
        <ele>371</ele>
        <time>2021-06-26T14:29:17Z</time>
      </trkpt>
      <trkpt lat="48.97804" lon="7.83208">
        <ele>371</ele>
        <time>2021-06-26T14:29:18Z</time>
      </trkpt>
      <trkpt lat="48.97806" lon="7.83211">
        <ele>371</ele>
        <time>2021-06-26T14:29:19Z</time>
      </trkpt>
      <trkpt lat="48.97809" lon="7.83213">
        <ele>371.2</ele>
        <time>2021-06-26T14:29:20Z</time>
      </trkpt>
      <trkpt lat="48.97817" lon="7.83222">
        <ele>371.4</ele>
        <time>2021-06-26T14:29:23Z</time>
      </trkpt>
      <trkpt lat="48.97826" lon="7.83237">
        <ele>371.8</ele>
        <time>2021-06-26T14:29:27Z</time>
      </trkpt>
      <trkpt lat="48.97829" lon="7.83241">
        <ele>371.8</ele>
        <time>2021-06-26T14:29:28Z</time>
      </trkpt>
      <trkpt lat="48.97831" lon="7.83244">
        <ele>372</ele>
        <time>2021-06-26T14:29:29Z</time>
      </trkpt>
      <trkpt lat="48.97838" lon="7.83254">
        <ele>372</ele>
        <time>2021-06-26T14:29:32Z</time>
      </trkpt>
      <trkpt lat="48.97848" lon="7.83266">
        <ele>372.2</ele>
        <time>2021-06-26T14:29:37Z</time>
      </trkpt>
      <trkpt lat="48.97852" lon="7.83271">
        <ele>372.4</ele>
        <time>2021-06-26T14:29:39Z</time>
      </trkpt>
      <trkpt lat="48.97854" lon="7.83272">
        <ele>372.6</ele>
        <time>2021-06-26T14:29:40Z</time>
      </trkpt>
      <trkpt lat="48.97856" lon="7.83274">
        <ele>372.6</ele>
        <time>2021-06-26T14:29:41Z</time>
      </trkpt>
      <trkpt lat="48.97858" lon="7.83276">
        <ele>372.6</ele>
        <time>2021-06-26T14:29:42Z</time>
      </trkpt>
      <trkpt lat="48.9786" lon="7.83278">
        <ele>372.8</ele>
        <time>2021-06-26T14:29:43Z</time>
      </trkpt>
      <trkpt lat="48.97862" lon="7.83279">
        <ele>372.8</ele>
        <time>2021-06-26T14:29:44Z</time>
      </trkpt>
      <trkpt lat="48.97864" lon="7.83281">
        <ele>372.8</ele>
        <time>2021-06-26T14:29:45Z</time>
      </trkpt>
      <trkpt lat="48.97866" lon="7.83284">
        <ele>372.8</ele>
        <time>2021-06-26T14:29:46Z</time>
      </trkpt>
      <trkpt lat="48.97868" lon="7.83286">
        <ele>373</ele>
        <time>2021-06-26T14:29:47Z</time>
      </trkpt>
      <trkpt lat="48.9787" lon="7.83288">
        <ele>373</ele>
        <time>2021-06-26T14:29:48Z</time>
      </trkpt>
      <trkpt lat="48.97872" lon="7.8329">
        <ele>373</ele>
        <time>2021-06-26T14:29:49Z</time>
      </trkpt>
      <trkpt lat="48.97877" lon="7.83294">
        <ele>373.4</ele>
        <time>2021-06-26T14:29:52Z</time>
      </trkpt>
      <trkpt lat="48.97891" lon="7.83309">
        <ele>373.6</ele>
        <time>2021-06-26T14:29:57Z</time>
      </trkpt>
      <trkpt lat="48.97899" lon="7.83316">
        <ele>373.8</ele>
        <time>2021-06-26T14:30:01Z</time>
      </trkpt>
      <trkpt lat="48.97901" lon="7.83318">
        <ele>373.8</ele>
        <time>2021-06-26T14:30:02Z</time>
      </trkpt>
      <trkpt lat="48.97904" lon="7.83321">
        <ele>374</ele>
        <time>2021-06-26T14:30:03Z</time>
      </trkpt>
      <trkpt lat="48.97906" lon="7.83324">
        <ele>374</ele>
        <time>2021-06-26T14:30:04Z</time>
      </trkpt>
      <trkpt lat="48.97909" lon="7.83326">
        <ele>374</ele>
        <time>2021-06-26T14:30:05Z</time>
      </trkpt>
      <trkpt lat="48.97911" lon="7.83328">
        <ele>374.2</ele>
        <time>2021-06-26T14:30:06Z</time>
      </trkpt>
      <trkpt lat="48.97913" lon="7.8333">
        <ele>374.2</ele>
        <time>2021-06-26T14:30:07Z</time>
      </trkpt>
      <trkpt lat="48.97919" lon="7.83338">
        <ele>374.4</ele>
        <time>2021-06-26T14:30:10Z</time>
      </trkpt>
      <trkpt lat="48.97921" lon="7.83341">
        <ele>374.4</ele>
        <time>2021-06-26T14:30:11Z</time>
      </trkpt>
      <trkpt lat="48.97923" lon="7.83344">
        <ele>374.4</ele>
        <time>2021-06-26T14:30:12Z</time>
      </trkpt>
      <trkpt lat="48.97936" lon="7.83359">
        <ele>375</ele>
        <time>2021-06-26T14:30:17Z</time>
      </trkpt>
      <trkpt lat="48.97939" lon="7.83362">
        <ele>375</ele>
        <time>2021-06-26T14:30:18Z</time>
      </trkpt>
      <trkpt lat="48.9795" lon="7.83373">
        <ele>375.4</ele>
        <time>2021-06-26T14:30:22Z</time>
      </trkpt>
      <trkpt lat="48.97972" lon="7.83397">
        <ele>375.4</ele>
        <time>2021-06-26T14:30:30Z</time>
      </trkpt>
      <trkpt lat="48.97988" lon="7.83409">
        <ele>375.6</ele>
        <time>2021-06-26T14:30:36Z</time>
      </trkpt>
      <trkpt lat="48.97992" lon="7.83414">
        <ele>375.6</ele>
        <time>2021-06-26T14:30:38Z</time>
      </trkpt>
      <trkpt lat="48.97994" lon="7.83416">
        <ele>375.8</ele>
        <time>2021-06-26T14:30:39Z</time>
      </trkpt>
      <trkpt lat="48.97997" lon="7.83419">
        <ele>375.8</ele>
        <time>2021-06-26T14:30:40Z</time>
      </trkpt>
      <trkpt lat="48.97999" lon="7.83421">
        <ele>375.8</ele>
        <time>2021-06-26T14:30:41Z</time>
      </trkpt>
      <trkpt lat="48.98002" lon="7.83424">
        <ele>375.8</ele>
        <time>2021-06-26T14:30:42Z</time>
      </trkpt>
      <trkpt lat="48.98004" lon="7.83428">
        <ele>375.8</ele>
        <time>2021-06-26T14:30:43Z</time>
      </trkpt>
      <trkpt lat="48.98007" lon="7.83431">
        <ele>375.8</ele>
        <time>2021-06-26T14:30:44Z</time>
      </trkpt>
      <trkpt lat="48.98012" lon="7.83439">
        <ele>376</ele>
        <time>2021-06-26T14:30:46Z</time>
      </trkpt>
      <trkpt lat="48.98017" lon="7.83446">
        <ele>376.2</ele>
        <time>2021-06-26T14:30:48Z</time>
      </trkpt>
      <trkpt lat="48.98027" lon="7.83462">
        <ele>376.6</ele>
        <time>2021-06-26T14:30:53Z</time>
      </trkpt>
      <trkpt lat="48.98043" lon="7.83494">
        <ele>376.6</ele>
        <time>2021-06-26T14:31:00Z</time>
      </trkpt>
      <trkpt lat="48.98055" lon="7.83513">
        <ele>376.6</ele>
        <time>2021-06-26T14:31:05Z</time>
      </trkpt>
      <trkpt lat="48.98065" lon="7.83524">
        <ele>376.6</ele>
        <time>2021-06-26T14:31:09Z</time>
      </trkpt>
      <trkpt lat="48.98067" lon="7.83527">
        <ele>376.6</ele>
        <time>2021-06-26T14:31:10Z</time>
      </trkpt>
      <trkpt lat="48.98069" lon="7.83531">
        <ele>376.6</ele>
        <time>2021-06-26T14:31:11Z</time>
      </trkpt>
      <trkpt lat="48.98072" lon="7.83534">
        <ele>376.6</ele>
        <time>2021-06-26T14:31:12Z</time>
      </trkpt>
      <trkpt lat="48.98074" lon="7.83538">
        <ele>376.6</ele>
        <time>2021-06-26T14:31:13Z</time>
      </trkpt>
      <trkpt lat="48.98085" lon="7.83553">
        <ele>376.4</ele>
        <time>2021-06-26T14:31:17Z</time>
      </trkpt>
      <trkpt lat="48.98087" lon="7.83556">
        <ele>376.4</ele>
        <time>2021-06-26T14:31:18Z</time>
      </trkpt>
      <trkpt lat="48.98104" lon="7.83578">
        <ele>376.6</ele>
        <time>2021-06-26T14:31:25Z</time>
      </trkpt>
      <trkpt lat="48.98107" lon="7.83581">
        <ele>376.6</ele>
        <time>2021-06-26T14:31:26Z</time>
      </trkpt>
      <trkpt lat="48.9811" lon="7.83584">
        <ele>376.6</ele>
        <time>2021-06-26T14:31:27Z</time>
      </trkpt>
      <trkpt lat="48.98125" lon="7.83613">
        <ele>377</ele>
        <time>2021-06-26T14:31:33Z</time>
      </trkpt>
      <trkpt lat="48.98141" lon="7.83641">
        <ele>377</ele>
        <time>2021-06-26T14:31:39Z</time>
      </trkpt>
      <trkpt lat="48.98158" lon="7.83676">
        <ele>376.2</ele>
        <time>2021-06-26T14:31:45Z</time>
      </trkpt>
      <trkpt lat="48.98176" lon="7.83706">
        <ele>375</ele>
        <time>2021-06-26T14:31:51Z</time>
      </trkpt>
      <trkpt lat="48.98179" lon="7.83711">
        <ele>374.8</ele>
        <time>2021-06-26T14:31:52Z</time>
      </trkpt>
      <trkpt lat="48.98182" lon="7.83716">
        <ele>374.8</ele>
        <time>2021-06-26T14:31:53Z</time>
      </trkpt>
      <trkpt lat="48.98192" lon="7.83733">
        <ele>374.4</ele>
        <time>2021-06-26T14:31:57Z</time>
      </trkpt>
      <trkpt lat="48.98195" lon="7.83737">
        <ele>374.2</ele>
        <time>2021-06-26T14:31:58Z</time>
      </trkpt>
      <trkpt lat="48.98197" lon="7.8374">
        <ele>374.2</ele>
        <time>2021-06-26T14:31:59Z</time>
      </trkpt>
      <trkpt lat="48.98199" lon="7.83744">
        <ele>374</ele>
        <time>2021-06-26T14:32:00Z</time>
      </trkpt>
      <trkpt lat="48.98201" lon="7.83747">
        <ele>374</ele>
        <time>2021-06-26T14:32:01Z</time>
      </trkpt>
      <trkpt lat="48.98203" lon="7.83751">
        <ele>374</ele>
        <time>2021-06-26T14:32:02Z</time>
      </trkpt>
      <trkpt lat="48.98205" lon="7.83755">
        <ele>374</ele>
        <time>2021-06-26T14:32:03Z</time>
      </trkpt>
      <trkpt lat="48.98208" lon="7.83759">
        <ele>374</ele>
        <time>2021-06-26T14:32:04Z</time>
      </trkpt>
      <trkpt lat="48.98218" lon="7.83773">
        <ele>374</ele>
        <time>2021-06-26T14:32:08Z</time>
      </trkpt>
      <trkpt lat="48.98222" lon="7.83778">
        <ele>374</ele>
        <time>2021-06-26T14:32:10Z</time>
      </trkpt>
      <trkpt lat="48.98224" lon="7.83781">
        <ele>374.2</ele>
        <time>2021-06-26T14:32:11Z</time>
      </trkpt>
      <trkpt lat="48.98226" lon="7.83783">
        <ele>374.4</ele>
        <time>2021-06-26T14:32:12Z</time>
      </trkpt>
      <trkpt lat="48.98227" lon="7.83785">
        <ele>374.4</ele>
        <time>2021-06-26T14:32:13Z</time>
      </trkpt>
      <trkpt lat="48.98229" lon="7.83787">
        <ele>374.6</ele>
        <time>2021-06-26T14:32:14Z</time>
      </trkpt>
      <trkpt lat="48.9823" lon="7.83788">
        <ele>374.8</ele>
        <time>2021-06-26T14:32:15Z</time>
      </trkpt>
      <trkpt lat="48.98231" lon="7.83789">
        <ele>374.8</ele>
        <time>2021-06-26T14:32:16Z</time>
      </trkpt>
      <trkpt lat="48.98232" lon="7.83791">
        <ele>375</ele>
        <time>2021-06-26T14:32:18Z</time>
      </trkpt>
      <trkpt lat="48.98233" lon="7.83792">
        <ele>375.4</ele>
        <time>2021-06-26T14:33:07Z</time>
      </trkpt>
      <trkpt lat="48.98234" lon="7.83793">
        <ele>375.4</ele>
        <time>2021-06-26T14:33:08Z</time>
      </trkpt>
      <trkpt lat="48.98235" lon="7.83794">
        <ele>375.4</ele>
        <time>2021-06-26T14:33:09Z</time>
      </trkpt>
      <trkpt lat="48.98242" lon="7.83802">
        <ele>375.4</ele>
        <time>2021-06-26T14:33:12Z</time>
      </trkpt>
      <trkpt lat="48.9825" lon="7.83811">
        <ele>375.4</ele>
        <time>2021-06-26T14:33:15Z</time>
      </trkpt>
      <trkpt lat="48.98252" lon="7.83815">
        <ele>375.4</ele>
        <time>2021-06-26T14:33:16Z</time>
      </trkpt>
      <trkpt lat="48.9826" lon="7.83824">
        <ele>375.2</ele>
        <time>2021-06-26T14:33:19Z</time>
      </trkpt>
      <trkpt lat="48.98275" lon="7.83844">
        <ele>375.2</ele>
        <time>2021-06-26T14:33:25Z</time>
      </trkpt>
      <trkpt lat="48.98298" lon="7.83873">
        <ele>375.4</ele>
        <time>2021-06-26T14:33:34Z</time>
      </trkpt>
      <trkpt lat="48.98301" lon="7.83876">
        <ele>375.4</ele>
        <time>2021-06-26T14:33:35Z</time>
      </trkpt>
      <trkpt lat="48.98303" lon="7.83879">
        <ele>375.6</ele>
        <time>2021-06-26T14:33:36Z</time>
      </trkpt>
      <trkpt lat="48.98307" lon="7.83886">
        <ele>375.6</ele>
        <time>2021-06-26T14:33:38Z</time>
      </trkpt>
      <trkpt lat="48.9831" lon="7.8389">
        <ele>375.8</ele>
        <time>2021-06-26T14:33:39Z</time>
      </trkpt>
      <trkpt lat="48.98312" lon="7.83892">
        <ele>375.8</ele>
        <time>2021-06-26T14:33:40Z</time>
      </trkpt>
      <trkpt lat="48.98314" lon="7.83896">
        <ele>376.2</ele>
        <time>2021-06-26T14:33:41Z</time>
      </trkpt>
      <trkpt lat="48.98316" lon="7.83899">
        <ele>376.4</ele>
        <time>2021-06-26T14:33:42Z</time>
      </trkpt>
      <trkpt lat="48.98318" lon="7.83902">
        <ele>376.6</ele>
        <time>2021-06-26T14:33:43Z</time>
      </trkpt>
      <trkpt lat="48.98321" lon="7.83904">
        <ele>376.8</ele>
        <time>2021-06-26T14:33:44Z</time>
      </trkpt>
      <trkpt lat="48.98324" lon="7.83907">
        <ele>377</ele>
        <time>2021-06-26T14:33:45Z</time>
      </trkpt>
      <trkpt lat="48.98326" lon="7.8391">
        <ele>377</ele>
        <time>2021-06-26T14:33:46Z</time>
      </trkpt>
      <trkpt lat="48.98337" lon="7.83922">
        <ele>378</ele>
        <time>2021-06-26T14:33:50Z</time>
      </trkpt>
      <trkpt lat="48.98345" lon="7.8393">
        <ele>378.2</ele>
        <time>2021-06-26T14:33:53Z</time>
      </trkpt>
      <trkpt lat="48.9835" lon="7.83934">
        <ele>378.8</ele>
        <time>2021-06-26T14:33:55Z</time>
      </trkpt>
      <trkpt lat="48.98352" lon="7.83938">
        <ele>379</ele>
        <time>2021-06-26T14:33:56Z</time>
      </trkpt>
      <trkpt lat="48.98354" lon="7.83941">
        <ele>379</ele>
        <time>2021-06-26T14:33:57Z</time>
      </trkpt>
      <trkpt lat="48.98356" lon="7.83943">
        <ele>379.2</ele>
        <time>2021-06-26T14:33:58Z</time>
      </trkpt>
      <trkpt lat="48.98358" lon="7.83945">
        <ele>379.2</ele>
        <time>2021-06-26T14:33:59Z</time>
      </trkpt>
      <trkpt lat="48.9836" lon="7.83948">
        <ele>379.2</ele>
        <time>2021-06-26T14:34:00Z</time>
      </trkpt>
      <trkpt lat="48.98362" lon="7.83951">
        <ele>379.2</ele>
        <time>2021-06-26T14:34:01Z</time>
      </trkpt>
      <trkpt lat="48.98364" lon="7.83954">
        <ele>379.2</ele>
        <time>2021-06-26T14:34:02Z</time>
      </trkpt>
      <trkpt lat="48.98366" lon="7.83955">
        <ele>379.2</ele>
        <time>2021-06-26T14:34:03Z</time>
      </trkpt>
      <trkpt lat="48.98368" lon="7.83958">
        <ele>379.4</ele>
        <time>2021-06-26T14:34:04Z</time>
      </trkpt>
      <trkpt lat="48.9837" lon="7.8396">
        <ele>379.4</ele>
        <time>2021-06-26T14:34:05Z</time>
      </trkpt>
      <trkpt lat="48.98372" lon="7.83963">
        <ele>379.4</ele>
        <time>2021-06-26T14:34:06Z</time>
      </trkpt>
      <trkpt lat="48.98374" lon="7.83966">
        <ele>379.4</ele>
        <time>2021-06-26T14:34:07Z</time>
      </trkpt>
      <trkpt lat="48.98376" lon="7.83968">
        <ele>379.4</ele>
        <time>2021-06-26T14:34:08Z</time>
      </trkpt>
      <trkpt lat="48.98378" lon="7.83971">
        <ele>379.6</ele>
        <time>2021-06-26T14:34:09Z</time>
      </trkpt>
      <trkpt lat="48.9838" lon="7.83974">
        <ele>379.6</ele>
        <time>2021-06-26T14:34:10Z</time>
      </trkpt>
      <trkpt lat="48.98382" lon="7.83976">
        <ele>379.6</ele>
        <time>2021-06-26T14:34:11Z</time>
      </trkpt>
      <trkpt lat="48.98384" lon="7.83978">
        <ele>379.8</ele>
        <time>2021-06-26T14:34:12Z</time>
      </trkpt>
      <trkpt lat="48.98386" lon="7.83981">
        <ele>379.8</ele>
        <time>2021-06-26T14:34:13Z</time>
      </trkpt>
      <trkpt lat="48.98388" lon="7.83984">
        <ele>379.8</ele>
        <time>2021-06-26T14:34:14Z</time>
      </trkpt>
      <trkpt lat="48.98391" lon="7.83988">
        <ele>380</ele>
        <time>2021-06-26T14:34:16Z</time>
      </trkpt>
      <trkpt lat="48.98393" lon="7.8399">
        <ele>380.2</ele>
        <time>2021-06-26T14:34:17Z</time>
      </trkpt>
      <trkpt lat="48.98395" lon="7.83992">
        <ele>380.2</ele>
        <time>2021-06-26T14:34:18Z</time>
      </trkpt>
      <trkpt lat="48.98397" lon="7.83993">
        <ele>380.4</ele>
        <time>2021-06-26T14:34:19Z</time>
      </trkpt>
      <trkpt lat="48.98399" lon="7.83995">
        <ele>380.4</ele>
        <time>2021-06-26T14:34:20Z</time>
      </trkpt>
      <trkpt lat="48.98401" lon="7.83997">
        <ele>380.6</ele>
        <time>2021-06-26T14:34:21Z</time>
      </trkpt>
      <trkpt lat="48.98403" lon="7.83999">
        <ele>380.6</ele>
        <time>2021-06-26T14:34:22Z</time>
      </trkpt>
      <trkpt lat="48.98405" lon="7.84">
        <ele>380.8</ele>
        <time>2021-06-26T14:34:23Z</time>
      </trkpt>
      <trkpt lat="48.98407" lon="7.84002">
        <ele>380.8</ele>
        <time>2021-06-26T14:34:24Z</time>
      </trkpt>
      <trkpt lat="48.98409" lon="7.84004">
        <ele>381.2</ele>
        <time>2021-06-26T14:34:25Z</time>
      </trkpt>
      <trkpt lat="48.98411" lon="7.84006">
        <ele>381.4</ele>
        <time>2021-06-26T14:34:26Z</time>
      </trkpt>
      <trkpt lat="48.98413" lon="7.84011">
        <ele>381.6</ele>
        <time>2021-06-26T14:34:28Z</time>
      </trkpt>
      <trkpt lat="48.98415" lon="7.84014">
        <ele>382</ele>
        <time>2021-06-26T14:34:29Z</time>
      </trkpt>
      <trkpt lat="48.98417" lon="7.84017">
        <ele>382.2</ele>
        <time>2021-06-26T14:34:30Z</time>
      </trkpt>
      <trkpt lat="48.9842" lon="7.8402">
        <ele>382.4</ele>
        <time>2021-06-26T14:34:31Z</time>
      </trkpt>
      <trkpt lat="48.98422" lon="7.84022">
        <ele>382.4</ele>
        <time>2021-06-26T14:34:32Z</time>
      </trkpt>
      <trkpt lat="48.98425" lon="7.84025">
        <ele>382.6</ele>
        <time>2021-06-26T14:34:33Z</time>
      </trkpt>
      <trkpt lat="48.98427" lon="7.84028">
        <ele>382.6</ele>
        <time>2021-06-26T14:34:34Z</time>
      </trkpt>
      <trkpt lat="48.98429" lon="7.8403">
        <ele>382.8</ele>
        <time>2021-06-26T14:34:35Z</time>
      </trkpt>
      <trkpt lat="48.98431" lon="7.84032">
        <ele>383</ele>
        <time>2021-06-26T14:34:36Z</time>
      </trkpt>
      <trkpt lat="48.98433" lon="7.84035">
        <ele>383</ele>
        <time>2021-06-26T14:34:37Z</time>
      </trkpt>
      <trkpt lat="48.98434" lon="7.84038">
        <ele>383.2</ele>
        <time>2021-06-26T14:34:38Z</time>
      </trkpt>
      <trkpt lat="48.98436" lon="7.8404">
        <ele>383.2</ele>
        <time>2021-06-26T14:34:39Z</time>
      </trkpt>
      <trkpt lat="48.98435" lon="7.84042">
        <ele>383.4</ele>
        <time>2021-06-26T14:34:40Z</time>
      </trkpt>
      <trkpt lat="48.98435" lon="7.84044">
        <ele>383.4</ele>
        <time>2021-06-26T14:34:41Z</time>
      </trkpt>
      <trkpt lat="48.98434" lon="7.84044">
        <ele>383.4</ele>
        <time>2021-06-26T14:34:42Z</time>
      </trkpt>
      <trkpt lat="48.98433" lon="7.84044">
        <ele>383.4</ele>
        <time>2021-06-26T14:34:43Z</time>
      </trkpt>
      <trkpt lat="48.98431" lon="7.84043">
        <ele>383.4</ele>
        <time>2021-06-26T14:34:44Z</time>
      </trkpt>
      <trkpt lat="48.98429" lon="7.84043">
        <ele>383.4</ele>
        <time>2021-06-26T14:34:45Z</time>
      </trkpt>
      <trkpt lat="48.98426" lon="7.84041">
        <ele>383.4</ele>
        <time>2021-06-26T14:34:46Z</time>
      </trkpt>
      <trkpt lat="48.98423" lon="7.8404">
        <ele>383.4</ele>
        <time>2021-06-26T14:34:47Z</time>
      </trkpt>
      <trkpt lat="48.9842" lon="7.84038">
        <ele>383.4</ele>
        <time>2021-06-26T14:34:48Z</time>
      </trkpt>
      <trkpt lat="48.98416" lon="7.84036">
        <ele>383.4</ele>
        <time>2021-06-26T14:34:49Z</time>
      </trkpt>
      <trkpt lat="48.98412" lon="7.84034">
        <ele>383.4</ele>
        <time>2021-06-26T14:34:50Z</time>
      </trkpt>
      <trkpt lat="48.98397" lon="7.84026">
        <ele>383.2</ele>
        <time>2021-06-26T14:34:53Z</time>
      </trkpt>
      <trkpt lat="48.9839" lon="7.84022">
        <ele>382.6</ele>
        <time>2021-06-26T14:34:54Z</time>
      </trkpt>
      <trkpt lat="48.98378" lon="7.84014">
        <ele>381.2</ele>
        <time>2021-06-26T14:34:56Z</time>
      </trkpt>
      <trkpt lat="48.98365" lon="7.84004">
        <ele>379.2</ele>
        <time>2021-06-26T14:34:58Z</time>
      </trkpt>
      <trkpt lat="48.98355" lon="7.83997">
        <ele>377.4</ele>
        <time>2021-06-26T14:35:00Z</time>
      </trkpt>
      <trkpt lat="48.98351" lon="7.83994">
        <ele>377</ele>
        <time>2021-06-26T14:35:01Z</time>
      </trkpt>
      <trkpt lat="48.98347" lon="7.83991">
        <ele>376</ele>
        <time>2021-06-26T14:35:02Z</time>
      </trkpt>
      <trkpt lat="48.98342" lon="7.83988">
        <ele>374.8</ele>
        <time>2021-06-26T14:35:03Z</time>
      </trkpt>
      <trkpt lat="48.98336" lon="7.83984">
        <ele>374.2</ele>
        <time>2021-06-26T14:35:04Z</time>
      </trkpt>
      <trkpt lat="48.9833" lon="7.8398">
        <ele>373.2</ele>
        <time>2021-06-26T14:35:05Z</time>
      </trkpt>
      <trkpt lat="48.98317" lon="7.83969">
        <ele>371</ele>
        <time>2021-06-26T14:35:07Z</time>
      </trkpt>
      <trkpt lat="48.98302" lon="7.83958">
        <ele>369.6</ele>
        <time>2021-06-26T14:35:09Z</time>
      </trkpt>
      <trkpt lat="48.98288" lon="7.83947">
        <ele>368.6</ele>
        <time>2021-06-26T14:35:11Z</time>
      </trkpt>
      <trkpt lat="48.9828" lon="7.83942">
        <ele>367.8</ele>
        <time>2021-06-26T14:35:12Z</time>
      </trkpt>
      <trkpt lat="48.98273" lon="7.83935">
        <ele>366.8</ele>
        <time>2021-06-26T14:35:13Z</time>
      </trkpt>
      <trkpt lat="48.98267" lon="7.83928">
        <ele>365.8</ele>
        <time>2021-06-26T14:35:14Z</time>
      </trkpt>
      <trkpt lat="48.98262" lon="7.83923">
        <ele>364.6</ele>
        <time>2021-06-26T14:35:15Z</time>
      </trkpt>
      <trkpt lat="48.98256" lon="7.83917">
        <ele>363.4</ele>
        <time>2021-06-26T14:35:16Z</time>
      </trkpt>
      <trkpt lat="48.98246" lon="7.83907">
        <ele>362.2</ele>
        <time>2021-06-26T14:35:17Z</time>
      </trkpt>
      <trkpt lat="48.9824" lon="7.83901">
        <ele>361.2</ele>
        <time>2021-06-26T14:35:18Z</time>
      </trkpt>
      <trkpt lat="48.98233" lon="7.83893">
        <ele>360</ele>
        <time>2021-06-26T14:35:19Z</time>
      </trkpt>
      <trkpt lat="48.98225" lon="7.83885">
        <ele>358.8</ele>
        <time>2021-06-26T14:35:20Z</time>
      </trkpt>
      <trkpt lat="48.98217" lon="7.83878">
        <ele>357.8</ele>
        <time>2021-06-26T14:35:21Z</time>
      </trkpt>
      <trkpt lat="48.9821" lon="7.83871">
        <ele>356.4</ele>
        <time>2021-06-26T14:35:22Z</time>
      </trkpt>
      <trkpt lat="48.98197" lon="7.83861">
        <ele>355.6</ele>
        <time>2021-06-26T14:35:24Z</time>
      </trkpt>
      <trkpt lat="48.9819" lon="7.83854">
        <ele>354.8</ele>
        <time>2021-06-26T14:35:25Z</time>
      </trkpt>
      <trkpt lat="48.98185" lon="7.8385">
        <ele>353.6</ele>
        <time>2021-06-26T14:35:26Z</time>
      </trkpt>
      <trkpt lat="48.9818" lon="7.83845">
        <ele>352.4</ele>
        <time>2021-06-26T14:35:27Z</time>
      </trkpt>
      <trkpt lat="48.9817" lon="7.83836">
        <ele>351.2</ele>
        <time>2021-06-26T14:35:28Z</time>
      </trkpt>
      <trkpt lat="48.98164" lon="7.83831">
        <ele>349.8</ele>
        <time>2021-06-26T14:35:29Z</time>
      </trkpt>
      <trkpt lat="48.98157" lon="7.83826">
        <ele>348.4</ele>
        <time>2021-06-26T14:35:30Z</time>
      </trkpt>
      <trkpt lat="48.98151" lon="7.83822">
        <ele>347.4</ele>
        <time>2021-06-26T14:35:31Z</time>
      </trkpt>
      <trkpt lat="48.98145" lon="7.83818">
        <ele>346.8</ele>
        <time>2021-06-26T14:35:32Z</time>
      </trkpt>
      <trkpt lat="48.98139" lon="7.83815">
        <ele>345.6</ele>
        <time>2021-06-26T14:35:33Z</time>
      </trkpt>
      <trkpt lat="48.98133" lon="7.83811">
        <ele>344.2</ele>
        <time>2021-06-26T14:35:34Z</time>
      </trkpt>
      <trkpt lat="48.98127" lon="7.83807">
        <ele>343.2</ele>
        <time>2021-06-26T14:35:35Z</time>
      </trkpt>
      <trkpt lat="48.98114" lon="7.83799">
        <ele>341.2</ele>
        <time>2021-06-26T14:35:37Z</time>
      </trkpt>
      <trkpt lat="48.98108" lon="7.83794">
        <ele>340.2</ele>
        <time>2021-06-26T14:35:38Z</time>
      </trkpt>
      <trkpt lat="48.98096" lon="7.83786">
        <ele>338.6</ele>
        <time>2021-06-26T14:35:40Z</time>
      </trkpt>
      <trkpt lat="48.9809" lon="7.83782">
        <ele>337.8</ele>
        <time>2021-06-26T14:35:41Z</time>
      </trkpt>
      <trkpt lat="48.98086" lon="7.83778">
        <ele>336.8</ele>
        <time>2021-06-26T14:35:42Z</time>
      </trkpt>
      <trkpt lat="48.98082" lon="7.83776">
        <ele>335.6</ele>
        <time>2021-06-26T14:35:43Z</time>
      </trkpt>
      <trkpt lat="48.9808" lon="7.83774">
        <ele>334.8</ele>
        <time>2021-06-26T14:35:44Z</time>
      </trkpt>
      <trkpt lat="48.98079" lon="7.83773">
        <ele>334</ele>
        <time>2021-06-26T14:35:45Z</time>
      </trkpt>
      <trkpt lat="48.98078" lon="7.83773">
        <ele>333.2</ele>
        <time>2021-06-26T14:35:46Z</time>
      </trkpt>
      <trkpt lat="48.98078" lon="7.83773">
        <ele>332.4</ele>
        <time>2021-06-26T14:35:47Z</time>
      </trkpt>
      <trkpt lat="48.98078" lon="7.83773">
        <ele>331.4</ele>
        <time>2021-06-26T14:35:48Z</time>
      </trkpt>
      <trkpt lat="48.98076" lon="7.8377">
        <ele>329.2</ele>
        <time>2021-06-26T14:35:51Z</time>
      </trkpt>
      <trkpt lat="48.98074" lon="7.83769">
        <ele>328.6</ele>
        <time>2021-06-26T14:35:52Z</time>
      </trkpt>
      <trkpt lat="48.98072" lon="7.83766">
        <ele>328.2</ele>
        <time>2021-06-26T14:35:53Z</time>
      </trkpt>
      <trkpt lat="48.98068" lon="7.83763">
        <ele>328</ele>
        <time>2021-06-26T14:35:54Z</time>
      </trkpt>
      <trkpt lat="48.98064" lon="7.83759">
        <ele>327.8</ele>
        <time>2021-06-26T14:35:55Z</time>
      </trkpt>
      <trkpt lat="48.98053" lon="7.8375">
        <ele>327.4</ele>
        <time>2021-06-26T14:35:57Z</time>
      </trkpt>
      <trkpt lat="48.98042" lon="7.8374">
        <ele>327.4</ele>
        <time>2021-06-26T14:35:59Z</time>
      </trkpt>
      <trkpt lat="48.98031" lon="7.8373">
        <ele>326.8</ele>
        <time>2021-06-26T14:36:01Z</time>
      </trkpt>
      <trkpt lat="48.98025" lon="7.83725">
        <ele>326.2</ele>
        <time>2021-06-26T14:36:02Z</time>
      </trkpt>
      <trkpt lat="48.98019" lon="7.8372">
        <ele>325.6</ele>
        <time>2021-06-26T14:36:03Z</time>
      </trkpt>
      <trkpt lat="48.98008" lon="7.83709">
        <ele>324</ele>
        <time>2021-06-26T14:36:05Z</time>
      </trkpt>
      <trkpt lat="48.97997" lon="7.83696">
        <ele>322.6</ele>
        <time>2021-06-26T14:36:07Z</time>
      </trkpt>
      <trkpt lat="48.9799" lon="7.83689">
        <ele>321.8</ele>
        <time>2021-06-26T14:36:08Z</time>
      </trkpt>
      <trkpt lat="48.97983" lon="7.83682">
        <ele>320.6</ele>
        <time>2021-06-26T14:36:09Z</time>
      </trkpt>
      <trkpt lat="48.97975" lon="7.83675">
        <ele>318.6</ele>
        <time>2021-06-26T14:36:11Z</time>
      </trkpt>
      <trkpt lat="48.97957" lon="7.83658">
        <ele>316.4</ele>
        <time>2021-06-26T14:36:13Z</time>
      </trkpt>
      <trkpt lat="48.97943" lon="7.83649">
        <ele>314.2</ele>
        <time>2021-06-26T14:36:15Z</time>
      </trkpt>
      <trkpt lat="48.97938" lon="7.83645">
        <ele>313</ele>
        <time>2021-06-26T14:36:16Z</time>
      </trkpt>
      <trkpt lat="48.97932" lon="7.83642">
        <ele>311.8</ele>
        <time>2021-06-26T14:36:17Z</time>
      </trkpt>
      <trkpt lat="48.97927" lon="7.83639">
        <ele>311</ele>
        <time>2021-06-26T14:36:18Z</time>
      </trkpt>
      <trkpt lat="48.97922" lon="7.83636">
        <ele>310.2</ele>
        <time>2021-06-26T14:36:19Z</time>
      </trkpt>
      <trkpt lat="48.97918" lon="7.83637">
        <ele>309.2</ele>
        <time>2021-06-26T14:36:20Z</time>
      </trkpt>
      <trkpt lat="48.97914" lon="7.83637">
        <ele>308.2</ele>
        <time>2021-06-26T14:36:21Z</time>
      </trkpt>
      <trkpt lat="48.97906" lon="7.83637">
        <ele>307</ele>
        <time>2021-06-26T14:36:22Z</time>
      </trkpt>
      <trkpt lat="48.979" lon="7.8364">
        <ele>306.2</ele>
        <time>2021-06-26T14:36:23Z</time>
      </trkpt>
      <trkpt lat="48.97893" lon="7.83642">
        <ele>305.4</ele>
        <time>2021-06-26T14:36:24Z</time>
      </trkpt>
      <trkpt lat="48.97886" lon="7.83645">
        <ele>304.6</ele>
        <time>2021-06-26T14:36:25Z</time>
      </trkpt>
      <trkpt lat="48.9788" lon="7.83647">
        <ele>304</ele>
        <time>2021-06-26T14:36:26Z</time>
      </trkpt>
      <trkpt lat="48.97871" lon="7.83651">
        <ele>302.6</ele>
        <time>2021-06-26T14:36:28Z</time>
      </trkpt>
      <trkpt lat="48.97866" lon="7.83654">
        <ele>301.8</ele>
        <time>2021-06-26T14:36:29Z</time>
      </trkpt>
      <trkpt lat="48.97861" lon="7.83658">
        <ele>300.4</ele>
        <time>2021-06-26T14:36:30Z</time>
      </trkpt>
      <trkpt lat="48.97858" lon="7.83661">
        <ele>299.2</ele>
        <time>2021-06-26T14:36:31Z</time>
      </trkpt>
      <trkpt lat="48.97855" lon="7.83663">
        <ele>298.2</ele>
        <time>2021-06-26T14:36:32Z</time>
      </trkpt>
      <trkpt lat="48.97835" lon="7.83677">
        <ele>296.6</ele>
        <time>2021-06-26T14:36:35Z</time>
      </trkpt>
      <trkpt lat="48.97831" lon="7.8368">
        <ele>296.2</ele>
        <time>2021-06-26T14:36:36Z</time>
      </trkpt>
      <trkpt lat="48.97828" lon="7.83683">
        <ele>296</ele>
        <time>2021-06-26T14:36:37Z</time>
      </trkpt>
      <trkpt lat="48.97826" lon="7.83687">
        <ele>295.2</ele>
        <time>2021-06-26T14:36:38Z</time>
      </trkpt>
      <trkpt lat="48.97825" lon="7.83691">
        <ele>294.6</ele>
        <time>2021-06-26T14:36:39Z</time>
      </trkpt>
      <trkpt lat="48.97826" lon="7.83693">
        <ele>294.4</ele>
        <time>2021-06-26T14:36:40Z</time>
      </trkpt>
      <trkpt lat="48.97827" lon="7.83693">
        <ele>293.6</ele>
        <time>2021-06-26T14:36:41Z</time>
      </trkpt>
      <trkpt lat="48.97827" lon="7.83693">
        <ele>292.6</ele>
        <time>2021-06-26T14:36:42Z</time>
      </trkpt>
      <trkpt lat="48.97827" lon="7.83693">
        <ele>291.6</ele>
        <time>2021-06-26T14:36:43Z</time>
      </trkpt>
      <trkpt lat="48.97827" lon="7.83693">
        <ele>291.2</ele>
        <time>2021-06-26T14:36:44Z</time>
      </trkpt>
      <trkpt lat="48.97829" lon="7.83695">
        <ele>289.6</ele>
        <time>2021-06-26T14:37:13Z</time>
      </trkpt>
      <trkpt lat="48.97832" lon="7.83699">
        <ele>289.6</ele>
        <time>2021-06-26T14:37:15Z</time>
      </trkpt>
      <trkpt lat="48.97834" lon="7.83701">
        <ele>289.6</ele>
        <time>2021-06-26T14:37:16Z</time>
      </trkpt>
      <trkpt lat="48.97834" lon="7.83701">
        <ele>289.6</ele>
        <time>2021-06-26T14:37:17Z</time>
      </trkpt>
      <trkpt lat="48.97838" lon="7.83704">
        <ele>289.6</ele>
        <time>2021-06-26T14:37:19Z</time>
      </trkpt>
      <trkpt lat="48.9784" lon="7.83705">
        <ele>289.6</ele>
        <time>2021-06-26T14:37:20Z</time>
      </trkpt>
      <trkpt lat="48.97841" lon="7.83706">
        <ele>289.6</ele>
        <time>2021-06-26T14:37:21Z</time>
      </trkpt>
      <trkpt lat="48.97848" lon="7.83712">
        <ele>289.4</ele>
        <time>2021-06-26T14:37:26Z</time>
      </trkpt>
      <trkpt lat="48.97849" lon="7.83713">
        <ele>289.2</ele>
        <time>2021-06-26T14:37:27Z</time>
      </trkpt>
      <trkpt lat="48.9785" lon="7.83714">
        <ele>289.2</ele>
        <time>2021-06-26T14:37:28Z</time>
      </trkpt>
      <trkpt lat="48.97851" lon="7.83715">
        <ele>289.2</ele>
        <time>2021-06-26T14:37:29Z</time>
      </trkpt>
      <trkpt lat="48.97852" lon="7.83716">
        <ele>289</ele>
        <time>2021-06-26T14:37:30Z</time>
      </trkpt>
      <trkpt lat="48.97853" lon="7.83717">
        <ele>289</ele>
        <time>2021-06-26T14:37:31Z</time>
      </trkpt>
      <trkpt lat="48.97854" lon="7.83719">
        <ele>289</ele>
        <time>2021-06-26T14:37:32Z</time>
      </trkpt>
      <trkpt lat="48.97855" lon="7.83721">
        <ele>289</ele>
        <time>2021-06-26T14:37:33Z</time>
      </trkpt>
      <trkpt lat="48.97857" lon="7.83723">
        <ele>289</ele>
        <time>2021-06-26T14:37:34Z</time>
      </trkpt>
      <trkpt lat="48.97862" lon="7.83726">
        <ele>288.8</ele>
        <time>2021-06-26T14:37:36Z</time>
      </trkpt>
      <trkpt lat="48.97865" lon="7.83728">
        <ele>288.8</ele>
        <time>2021-06-26T14:37:37Z</time>
      </trkpt>
      <trkpt lat="48.97868" lon="7.83731">
        <ele>288.8</ele>
        <time>2021-06-26T14:37:38Z</time>
      </trkpt>
      <trkpt lat="48.97877" lon="7.83739">
        <ele>288.6</ele>
        <time>2021-06-26T14:37:41Z</time>
      </trkpt>
      <trkpt lat="48.97887" lon="7.83749">
        <ele>288.2</ele>
        <time>2021-06-26T14:37:44Z</time>
      </trkpt>
      <trkpt lat="48.97899" lon="7.83762">
        <ele>288</ele>
        <time>2021-06-26T14:37:47Z</time>
      </trkpt>
      <trkpt lat="48.97911" lon="7.83775">
        <ele>287.6</ele>
        <time>2021-06-26T14:37:50Z</time>
      </trkpt>
      <trkpt lat="48.97915" lon="7.8378">
        <ele>287.6</ele>
        <time>2021-06-26T14:37:51Z</time>
      </trkpt>
      <trkpt lat="48.97919" lon="7.83785">
        <ele>287.2</ele>
        <time>2021-06-26T14:37:52Z</time>
      </trkpt>
      <trkpt lat="48.97931" lon="7.83809">
        <ele>286.4</ele>
        <time>2021-06-26T14:37:56Z</time>
      </trkpt>
      <trkpt lat="48.9794" lon="7.83826">
        <ele>285.8</ele>
        <time>2021-06-26T14:37:59Z</time>
      </trkpt>
      <trkpt lat="48.97945" lon="7.83838">
        <ele>285.6</ele>
        <time>2021-06-26T14:38:01Z</time>
      </trkpt>
      <trkpt lat="48.9795" lon="7.83851">
        <ele>285.2</ele>
        <time>2021-06-26T14:38:03Z</time>
      </trkpt>
      <trkpt lat="48.97967" lon="7.83887">
        <ele>284.4</ele>
        <time>2021-06-26T14:38:09Z</time>
      </trkpt>
      <trkpt lat="48.97971" lon="7.83893">
        <ele>284.2</ele>
        <time>2021-06-26T14:38:10Z</time>
      </trkpt>
      <trkpt lat="48.97983" lon="7.8391">
        <ele>283.8</ele>
        <time>2021-06-26T14:38:13Z</time>
      </trkpt>
      <trkpt lat="48.97987" lon="7.83916">
        <ele>283.4</ele>
        <time>2021-06-26T14:38:14Z</time>
      </trkpt>
      <trkpt lat="48.98" lon="7.83935">
        <ele>283.2</ele>
        <time>2021-06-26T14:38:17Z</time>
      </trkpt>
      <trkpt lat="48.98008" lon="7.83946">
        <ele>283</ele>
        <time>2021-06-26T14:38:19Z</time>
      </trkpt>
      <trkpt lat="48.98011" lon="7.83951">
        <ele>283</ele>
        <time>2021-06-26T14:38:20Z</time>
      </trkpt>
      <trkpt lat="48.98014" lon="7.83955">
        <ele>282.8</ele>
        <time>2021-06-26T14:38:21Z</time>
      </trkpt>
      <trkpt lat="48.98018" lon="7.8396">
        <ele>282.6</ele>
        <time>2021-06-26T14:38:22Z</time>
      </trkpt>
      <trkpt lat="48.9802" lon="7.83962">
        <ele>282</ele>
        <time>2021-06-26T14:38:23Z</time>
      </trkpt>
      <trkpt lat="48.98022" lon="7.83964">
        <ele>281.4</ele>
        <time>2021-06-26T14:38:24Z</time>
      </trkpt>
      <trkpt lat="48.98024" lon="7.83965">
        <ele>281.2</ele>
        <time>2021-06-26T14:38:25Z</time>
      </trkpt>
      <trkpt lat="48.98025" lon="7.83965">
        <ele>281</ele>
        <time>2021-06-26T14:38:26Z</time>
      </trkpt>
      <trkpt lat="48.98026" lon="7.83966">
        <ele>281</ele>
        <time>2021-06-26T14:38:27Z</time>
      </trkpt>
      <trkpt lat="48.98027" lon="7.83967">
        <ele>280.8</ele>
        <time>2021-06-26T14:38:28Z</time>
      </trkpt>
      <trkpt lat="48.98028" lon="7.83968">
        <ele>280.8</ele>
        <time>2021-06-26T14:38:29Z</time>
      </trkpt>
      <trkpt lat="48.98029" lon="7.83968">
        <ele>280.8</ele>
        <time>2021-06-26T14:38:30Z</time>
      </trkpt>
      <trkpt lat="48.98031" lon="7.83968">
        <ele>280.8</ele>
        <time>2021-06-26T14:38:31Z</time>
      </trkpt>
      <trkpt lat="48.98035" lon="7.83966">
        <ele>280.8</ele>
        <time>2021-06-26T14:38:34Z</time>
      </trkpt>
      <trkpt lat="48.98036" lon="7.83966">
        <ele>280.8</ele>
        <time>2021-06-26T14:38:35Z</time>
      </trkpt>
      <trkpt lat="48.98038" lon="7.83965">
        <ele>280.8</ele>
        <time>2021-06-26T14:38:36Z</time>
      </trkpt>
      <trkpt lat="48.98039" lon="7.83964">
        <ele>280.8</ele>
        <time>2021-06-26T14:38:37Z</time>
      </trkpt>
      <trkpt lat="48.98041" lon="7.83963">
        <ele>281.2</ele>
        <time>2021-06-26T14:38:38Z</time>
      </trkpt>
      <trkpt lat="48.98058" lon="7.83955">
        <ele>282.2</ele>
        <time>2021-06-26T14:38:47Z</time>
      </trkpt>
      <trkpt lat="48.98062" lon="7.83954">
        <ele>282.8</ele>
        <time>2021-06-26T14:38:50Z</time>
      </trkpt>
      <trkpt lat="48.98063" lon="7.83954">
        <ele>283</ele>
        <time>2021-06-26T14:38:51Z</time>
      </trkpt>
      <trkpt lat="48.98064" lon="7.83953">
        <ele>283.2</ele>
        <time>2021-06-26T14:38:52Z</time>
      </trkpt>
      <trkpt lat="48.98064" lon="7.83953">
        <ele>283.4</ele>
        <time>2021-06-26T14:38:53Z</time>
      </trkpt>
      <trkpt lat="48.98067" lon="7.83953">
        <ele>283.6</ele>
        <time>2021-06-26T14:38:54Z</time>
      </trkpt>
      <trkpt lat="48.98072" lon="7.83952">
        <ele>284.4</ele>
        <time>2021-06-26T14:38:58Z</time>
      </trkpt>
      <trkpt lat="48.98074" lon="7.83952">
        <ele>284.6</ele>
        <time>2021-06-26T14:38:59Z</time>
      </trkpt>
      <trkpt lat="48.98077" lon="7.83953">
        <ele>285</ele>
        <time>2021-06-26T14:39:01Z</time>
      </trkpt>
      <trkpt lat="48.98078" lon="7.83953">
        <ele>285.2</ele>
        <time>2021-06-26T14:39:02Z</time>
      </trkpt>
      <trkpt lat="48.9808" lon="7.83953">
        <ele>285.2</ele>
        <time>2021-06-26T14:39:03Z</time>
      </trkpt>
      <trkpt lat="48.98081" lon="7.83954">
        <ele>285.4</ele>
        <time>2021-06-26T14:39:04Z</time>
      </trkpt>
      <trkpt lat="48.98083" lon="7.83954">
        <ele>285.6</ele>
        <time>2021-06-26T14:39:05Z</time>
      </trkpt>
      <trkpt lat="48.98084" lon="7.83954">
        <ele>285.8</ele>
        <time>2021-06-26T14:39:06Z</time>
      </trkpt>
      <trkpt lat="48.98085" lon="7.83955">
        <ele>286</ele>
        <time>2021-06-26T14:39:07Z</time>
      </trkpt>
      <trkpt lat="48.98086" lon="7.83956">
        <ele>286.2</ele>
        <time>2021-06-26T14:39:08Z</time>
      </trkpt>
      <trkpt lat="48.98087" lon="7.83958">
        <ele>286.4</ele>
        <time>2021-06-26T14:39:09Z</time>
      </trkpt>
      <trkpt lat="48.98088" lon="7.8396">
        <ele>286.6</ele>
        <time>2021-06-26T14:39:10Z</time>
      </trkpt>
      <trkpt lat="48.98089" lon="7.83961">
        <ele>286.8</ele>
        <time>2021-06-26T14:39:11Z</time>
      </trkpt>
      <trkpt lat="48.98089" lon="7.83962">
        <ele>287</ele>
        <time>2021-06-26T14:39:12Z</time>
      </trkpt>
      <trkpt lat="48.98089" lon="7.83962">
        <ele>287.2</ele>
        <time>2021-06-26T14:39:13Z</time>
      </trkpt>
      <trkpt lat="48.98089" lon="7.83962">
        <ele>287.4</ele>
        <time>2021-06-26T14:39:14Z</time>
      </trkpt>
      <trkpt lat="48.98092" lon="7.83965">
        <ele>288</ele>
        <time>2021-06-26T14:39:44Z</time>
      </trkpt>
      <trkpt lat="48.98093" lon="7.83969">
        <ele>288</ele>
        <time>2021-06-26T14:39:45Z</time>
      </trkpt>
      <trkpt lat="48.98095" lon="7.83972">
        <ele>288</ele>
        <time>2021-06-26T14:39:46Z</time>
      </trkpt>
      <trkpt lat="48.98098" lon="7.83976">
        <ele>288</ele>
        <time>2021-06-26T14:39:47Z</time>
      </trkpt>
      <trkpt lat="48.98105" lon="7.83988">
        <ele>287.8</ele>
        <time>2021-06-26T14:39:50Z</time>
      </trkpt>
      <trkpt lat="48.98107" lon="7.83991">
        <ele>287.8</ele>
        <time>2021-06-26T14:39:51Z</time>
      </trkpt>
      <trkpt lat="48.9811" lon="7.83994">
        <ele>287.8</ele>
        <time>2021-06-26T14:39:52Z</time>
      </trkpt>
      <trkpt lat="48.98112" lon="7.83996">
        <ele>287.6</ele>
        <time>2021-06-26T14:39:53Z</time>
      </trkpt>
      <trkpt lat="48.98119" lon="7.84006">
        <ele>286.8</ele>
        <time>2021-06-26T14:39:56Z</time>
      </trkpt>
      <trkpt lat="48.98126" lon="7.84038">
        <ele>286.4</ele>
        <time>2021-06-26T14:40:02Z</time>
      </trkpt>
      <trkpt lat="48.98128" lon="7.84056">
        <ele>286.4</ele>
        <time>2021-06-26T14:40:05Z</time>
      </trkpt>
      <trkpt lat="48.98131" lon="7.84069">
        <ele>286.4</ele>
        <time>2021-06-26T14:40:07Z</time>
      </trkpt>
      <trkpt lat="48.98134" lon="7.84075">
        <ele>286.4</ele>
        <time>2021-06-26T14:40:08Z</time>
      </trkpt>
      <trkpt lat="48.98137" lon="7.8408">
        <ele>286.2</ele>
        <time>2021-06-26T14:40:09Z</time>
      </trkpt>
      <trkpt lat="48.98139" lon="7.84084">
        <ele>285.8</ele>
        <time>2021-06-26T14:40:10Z</time>
      </trkpt>
      <trkpt lat="48.98142" lon="7.84088">
        <ele>285.4</ele>
        <time>2021-06-26T14:40:11Z</time>
      </trkpt>
      <trkpt lat="48.98144" lon="7.84092">
        <ele>285.2</ele>
        <time>2021-06-26T14:40:12Z</time>
      </trkpt>
      <trkpt lat="48.98147" lon="7.84096">
        <ele>285</ele>
        <time>2021-06-26T14:40:13Z</time>
      </trkpt>
      <trkpt lat="48.9815" lon="7.84099">
        <ele>284.6</ele>
        <time>2021-06-26T14:40:14Z</time>
      </trkpt>
      <trkpt lat="48.98152" lon="7.84104">
        <ele>284.2</ele>
        <time>2021-06-26T14:40:15Z</time>
      </trkpt>
      <trkpt lat="48.98156" lon="7.84108">
        <ele>283.8</ele>
        <time>2021-06-26T14:40:16Z</time>
      </trkpt>
      <trkpt lat="48.98159" lon="7.8411">
        <ele>283.4</ele>
        <time>2021-06-26T14:40:17Z</time>
      </trkpt>
      <trkpt lat="48.98161" lon="7.84112">
        <ele>283.2</ele>
        <time>2021-06-26T14:40:18Z</time>
      </trkpt>
      <trkpt lat="48.98164" lon="7.84114">
        <ele>283.2</ele>
        <time>2021-06-26T14:40:19Z</time>
      </trkpt>
      <trkpt lat="48.98166" lon="7.84117">
        <ele>283.2</ele>
        <time>2021-06-26T14:40:20Z</time>
      </trkpt>
      <trkpt lat="48.98168" lon="7.8412">
        <ele>283.2</ele>
        <time>2021-06-26T14:40:21Z</time>
      </trkpt>
      <trkpt lat="48.9817" lon="7.84123">
        <ele>283.2</ele>
        <time>2021-06-26T14:40:22Z</time>
      </trkpt>
      <trkpt lat="48.98171" lon="7.84126">
        <ele>283.2</ele>
        <time>2021-06-26T14:40:23Z</time>
      </trkpt>
      <trkpt lat="48.98173" lon="7.8413">
        <ele>283.2</ele>
        <time>2021-06-26T14:40:24Z</time>
      </trkpt>
      <trkpt lat="48.98176" lon="7.84133">
        <ele>283.2</ele>
        <time>2021-06-26T14:40:25Z</time>
      </trkpt>
      <trkpt lat="48.98178" lon="7.84137">
        <ele>283.2</ele>
        <time>2021-06-26T14:40:26Z</time>
      </trkpt>
      <trkpt lat="48.9818" lon="7.8414">
        <ele>283.2</ele>
        <time>2021-06-26T14:40:27Z</time>
      </trkpt>
      <trkpt lat="48.98182" lon="7.84144">
        <ele>283.2</ele>
        <time>2021-06-26T14:40:28Z</time>
      </trkpt>
      <trkpt lat="48.98184" lon="7.84148">
        <ele>283.2</ele>
        <time>2021-06-26T14:40:29Z</time>
      </trkpt>
      <trkpt lat="48.98186" lon="7.84152">
        <ele>283.2</ele>
        <time>2021-06-26T14:40:30Z</time>
      </trkpt>
      <trkpt lat="48.98192" lon="7.84159">
        <ele>283.4</ele>
        <time>2021-06-26T14:40:33Z</time>
      </trkpt>
      <trkpt lat="48.98194" lon="7.84163">
        <ele>283.4</ele>
        <time>2021-06-26T14:40:34Z</time>
      </trkpt>
      <trkpt lat="48.98203" lon="7.84176">
        <ele>283.6</ele>
        <time>2021-06-26T14:40:38Z</time>
      </trkpt>
      <trkpt lat="48.98206" lon="7.84178">
        <ele>283.6</ele>
        <time>2021-06-26T14:40:39Z</time>
      </trkpt>
      <trkpt lat="48.98206" lon="7.84178">
        <ele>283.6</ele>
        <time>2021-06-26T14:40:40Z</time>
      </trkpt>
      <trkpt lat="48.98208" lon="7.84179">
        <ele>283.6</ele>
        <time>2021-06-26T14:40:41Z</time>
      </trkpt>
      <trkpt lat="48.98211" lon="7.84182">
        <ele>284</ele>
        <time>2021-06-26T14:40:42Z</time>
      </trkpt>
      <trkpt lat="48.98212" lon="7.84182">
        <ele>284.2</ele>
        <time>2021-06-26T14:40:43Z</time>
      </trkpt>
      <trkpt lat="48.98212" lon="7.84184">
        <ele>284.2</ele>
        <time>2021-06-26T14:40:44Z</time>
      </trkpt>
      <trkpt lat="48.98212" lon="7.84184">
        <ele>284.4</ele>
        <time>2021-06-26T14:40:45Z</time>
      </trkpt>
      <trkpt lat="48.98213" lon="7.84185">
        <ele>284.4</ele>
        <time>2021-06-26T14:40:46Z</time>
      </trkpt>
      <trkpt lat="48.98213" lon="7.84185">
        <ele>284.4</ele>
        <time>2021-06-26T14:40:47Z</time>
      </trkpt>
      <trkpt lat="48.98213" lon="7.84186">
        <ele>284.4</ele>
        <time>2021-06-26T14:40:48Z</time>
      </trkpt>
      <trkpt lat="48.98215" lon="7.84189">
        <ele>284.6</ele>
        <time>2021-06-26T14:40:51Z</time>
      </trkpt>
      <trkpt lat="48.98216" lon="7.84192">
        <ele>284.8</ele>
        <time>2021-06-26T14:40:53Z</time>
      </trkpt>
      <trkpt lat="48.98216" lon="7.84192">
        <ele>284.8</ele>
        <time>2021-06-26T14:40:54Z</time>
      </trkpt>
      <trkpt lat="48.98216" lon="7.84193">
        <ele>284.8</ele>
        <time>2021-06-26T14:40:55Z</time>
      </trkpt>
      <trkpt lat="48.98217" lon="7.84193">
        <ele>284.8</ele>
        <time>2021-06-26T14:40:56Z</time>
      </trkpt>
      <trkpt lat="48.98217" lon="7.84194">
        <ele>284.8</ele>
        <time>2021-06-26T14:40:57Z</time>
      </trkpt>
      <trkpt lat="48.98217" lon="7.84194">
        <ele>284.8</ele>
        <time>2021-06-26T14:40:58Z</time>
      </trkpt>
      <trkpt lat="48.98218" lon="7.84197">
        <ele>284.8</ele>
        <time>2021-06-26T14:40:59Z</time>
      </trkpt>
      <trkpt lat="48.98219" lon="7.84199">
        <ele>284.8</ele>
        <time>2021-06-26T14:41:00Z</time>
      </trkpt>
      <trkpt lat="48.98221" lon="7.842">
        <ele>284.8</ele>
        <time>2021-06-26T14:41:01Z</time>
      </trkpt>
      <trkpt lat="48.98222" lon="7.84201">
        <ele>284.8</ele>
        <time>2021-06-26T14:41:02Z</time>
      </trkpt>
      <trkpt lat="48.98223" lon="7.84203">
        <ele>284.8</ele>
        <time>2021-06-26T14:41:03Z</time>
      </trkpt>
      <trkpt lat="48.98224" lon="7.84204">
        <ele>284.8</ele>
        <time>2021-06-26T14:41:04Z</time>
      </trkpt>
      <trkpt lat="48.98225" lon="7.84206">
        <ele>284.8</ele>
        <time>2021-06-26T14:41:05Z</time>
      </trkpt>
      <trkpt lat="48.98226" lon="7.8421">
        <ele>285</ele>
        <time>2021-06-26T14:41:07Z</time>
      </trkpt>
      <trkpt lat="48.98231" lon="7.84225">
        <ele>285</ele>
        <time>2021-06-26T14:41:12Z</time>
      </trkpt>
      <trkpt lat="48.98232" lon="7.84228">
        <ele>285</ele>
        <time>2021-06-26T14:41:13Z</time>
      </trkpt>
      <trkpt lat="48.98234" lon="7.84232">
        <ele>285</ele>
        <time>2021-06-26T14:41:14Z</time>
      </trkpt>
      <trkpt lat="48.98238" lon="7.84244">
        <ele>284.8</ele>
        <time>2021-06-26T14:41:17Z</time>
      </trkpt>
      <trkpt lat="48.98239" lon="7.8425">
        <ele>284.8</ele>
        <time>2021-06-26T14:41:19Z</time>
      </trkpt>
      <trkpt lat="48.9824" lon="7.84253">
        <ele>284.8</ele>
        <time>2021-06-26T14:41:20Z</time>
      </trkpt>
      <trkpt lat="48.98242" lon="7.84256">
        <ele>284.8</ele>
        <time>2021-06-26T14:41:21Z</time>
      </trkpt>
      <trkpt lat="48.98244" lon="7.84258">
        <ele>284.8</ele>
        <time>2021-06-26T14:41:22Z</time>
      </trkpt>
      <trkpt lat="48.98246" lon="7.84261">
        <ele>284.8</ele>
        <time>2021-06-26T14:41:23Z</time>
      </trkpt>
      <trkpt lat="48.98248" lon="7.84262">
        <ele>284.8</ele>
        <time>2021-06-26T14:41:24Z</time>
      </trkpt>
      <trkpt lat="48.98249" lon="7.84265">
        <ele>284.8</ele>
        <time>2021-06-26T14:41:25Z</time>
      </trkpt>
      <trkpt lat="48.98251" lon="7.84272">
        <ele>284.8</ele>
        <time>2021-06-26T14:41:27Z</time>
      </trkpt>
      <trkpt lat="48.98253" lon="7.84276">
        <ele>284.8</ele>
        <time>2021-06-26T14:41:28Z</time>
      </trkpt>
      <trkpt lat="48.98254" lon="7.8428">
        <ele>284.8</ele>
        <time>2021-06-26T14:41:29Z</time>
      </trkpt>
      <trkpt lat="48.98261" lon="7.84302">
        <ele>285.2</ele>
        <time>2021-06-26T14:41:35Z</time>
      </trkpt>
      <trkpt lat="48.98266" lon="7.84315">
        <ele>285.6</ele>
        <time>2021-06-26T14:41:40Z</time>
      </trkpt>
      <trkpt lat="48.98268" lon="7.84316">
        <ele>285.6</ele>
        <time>2021-06-26T14:41:41Z</time>
      </trkpt>
      <trkpt lat="48.9827" lon="7.84318">
        <ele>285.6</ele>
        <time>2021-06-26T14:41:42Z</time>
      </trkpt>
      <trkpt lat="48.98271" lon="7.8432">
        <ele>285.8</ele>
        <time>2021-06-26T14:41:43Z</time>
      </trkpt>
      <trkpt lat="48.98273" lon="7.84322">
        <ele>285.8</ele>
        <time>2021-06-26T14:41:44Z</time>
      </trkpt>
      <trkpt lat="48.98273" lon="7.84323">
        <ele>286</ele>
        <time>2021-06-26T14:41:45Z</time>
      </trkpt>
      <trkpt lat="48.98275" lon="7.84324">
        <ele>286</ele>
        <time>2021-06-26T14:41:46Z</time>
      </trkpt>
      <trkpt lat="48.98275" lon="7.84325">
        <ele>286</ele>
        <time>2021-06-26T14:41:47Z</time>
      </trkpt>
      <trkpt lat="48.98276" lon="7.84325">
        <ele>286</ele>
        <time>2021-06-26T14:41:48Z</time>
      </trkpt>
      <trkpt lat="48.98276" lon="7.84325">
        <ele>286</ele>
        <time>2021-06-26T14:41:49Z</time>
      </trkpt>
      <trkpt lat="48.98277" lon="7.84328">
        <ele>286</ele>
        <time>2021-06-26T14:41:51Z</time>
      </trkpt>
      <trkpt lat="48.98278" lon="7.84329">
        <ele>286.2</ele>
        <time>2021-06-26T14:41:52Z</time>
      </trkpt>
      <trkpt lat="48.98278" lon="7.84329">
        <ele>286.2</ele>
        <time>2021-06-26T14:41:53Z</time>
      </trkpt>
      <trkpt lat="48.98278" lon="7.8433">
        <ele>286.4</ele>
        <time>2021-06-26T14:41:54Z</time>
      </trkpt>
      <trkpt lat="48.98279" lon="7.84331">
        <ele>286.6</ele>
        <time>2021-06-26T14:41:55Z</time>
      </trkpt>
      <trkpt lat="48.9828" lon="7.84332">
        <ele>286.6</ele>
        <time>2021-06-26T14:41:56Z</time>
      </trkpt>
      <trkpt lat="48.9828" lon="7.84332">
        <ele>286.6</ele>
        <time>2021-06-26T14:41:57Z</time>
      </trkpt>
      <trkpt lat="48.98281" lon="7.84332">
        <ele>286.8</ele>
        <time>2021-06-26T14:41:58Z</time>
      </trkpt>
      <trkpt lat="48.98281" lon="7.84332">
        <ele>286.8</ele>
        <time>2021-06-26T14:41:59Z</time>
      </trkpt>
      <trkpt lat="48.98281" lon="7.84332">
        <ele>286.8</ele>
        <time>2021-06-26T14:42:00Z</time>
      </trkpt>
      <trkpt lat="48.98282" lon="7.84333">
        <ele>287</ele>
        <time>2021-06-26T14:42:01Z</time>
      </trkpt>
      <trkpt lat="48.98284" lon="7.84336">
        <ele>287</ele>
        <time>2021-06-26T14:42:06Z</time>
      </trkpt>
      <trkpt lat="48.98284" lon="7.84336">
        <ele>287</ele>
        <time>2021-06-26T14:42:07Z</time>
      </trkpt>
      <trkpt lat="48.98284" lon="7.84336">
        <ele>287</ele>
        <time>2021-06-26T14:42:09Z</time>
      </trkpt>
      <trkpt lat="48.98286" lon="7.8434">
        <ele>286.8</ele>
        <time>2021-06-26T14:42:14Z</time>
      </trkpt>
      <trkpt lat="48.98287" lon="7.84342">
        <ele>286.8</ele>
        <time>2021-06-26T14:42:15Z</time>
      </trkpt>
      <trkpt lat="48.98288" lon="7.84343">
        <ele>286.6</ele>
        <time>2021-06-26T14:42:16Z</time>
      </trkpt>
      <trkpt lat="48.98288" lon="7.84344">
        <ele>286.6</ele>
        <time>2021-06-26T14:42:17Z</time>
      </trkpt>
      <trkpt lat="48.98288" lon="7.84344">
        <ele>286.6</ele>
        <time>2021-06-26T14:42:18Z</time>
      </trkpt>
      <trkpt lat="48.98288" lon="7.84344">
        <ele>286.6</ele>
        <time>2021-06-26T14:42:19Z</time>
      </trkpt>
      <trkpt lat="48.98288" lon="7.84347">
        <ele>286.6</ele>
        <time>2021-06-26T14:42:20Z</time>
      </trkpt>
      <trkpt lat="48.9829" lon="7.84355">
        <ele>286.6</ele>
        <time>2021-06-26T14:42:22Z</time>
      </trkpt>
      <trkpt lat="48.9829" lon="7.84359">
        <ele>286.8</ele>
        <time>2021-06-26T14:42:23Z</time>
      </trkpt>
      <trkpt lat="48.98291" lon="7.84362">
        <ele>286.6</ele>
        <time>2021-06-26T14:42:24Z</time>
      </trkpt>
      <trkpt lat="48.98291" lon="7.84369">
        <ele>286.6</ele>
        <time>2021-06-26T14:42:25Z</time>
      </trkpt>
      <trkpt lat="48.98292" lon="7.84376">
        <ele>286.6</ele>
        <time>2021-06-26T14:42:26Z</time>
      </trkpt>
      <trkpt lat="48.98296" lon="7.84387">
        <ele>286.6</ele>
        <time>2021-06-26T14:42:28Z</time>
      </trkpt>
      <trkpt lat="48.98299" lon="7.84392">
        <ele>286.6</ele>
        <time>2021-06-26T14:42:29Z</time>
      </trkpt>
      <trkpt lat="48.98301" lon="7.84398">
        <ele>286.6</ele>
        <time>2021-06-26T14:42:30Z</time>
      </trkpt>
      <trkpt lat="48.98303" lon="7.84404">
        <ele>286.6</ele>
        <time>2021-06-26T14:42:31Z</time>
      </trkpt>
      <trkpt lat="48.98306" lon="7.84414">
        <ele>286.6</ele>
        <time>2021-06-26T14:42:33Z</time>
      </trkpt>
      <trkpt lat="48.98315" lon="7.8443">
        <ele>285.8</ele>
        <time>2021-06-26T14:42:37Z</time>
      </trkpt>
      <trkpt lat="48.9832" lon="7.84438">
        <ele>285.4</ele>
        <time>2021-06-26T14:42:39Z</time>
      </trkpt>
      <trkpt lat="48.98324" lon="7.84442">
        <ele>285.2</ele>
        <time>2021-06-26T14:42:41Z</time>
      </trkpt>
      <trkpt lat="48.98326" lon="7.84444">
        <ele>285.2</ele>
        <time>2021-06-26T14:42:42Z</time>
      </trkpt>
      <trkpt lat="48.98327" lon="7.84448">
        <ele>285.2</ele>
        <time>2021-06-26T14:42:43Z</time>
      </trkpt>
      <trkpt lat="48.98327" lon="7.84455">
        <ele>285</ele>
        <time>2021-06-26T14:42:44Z</time>
      </trkpt>
      <trkpt lat="48.98329" lon="7.84462">
        <ele>285</ele>
        <time>2021-06-26T14:42:45Z</time>
      </trkpt>
      <trkpt lat="48.98332" lon="7.84468">
        <ele>285</ele>
        <time>2021-06-26T14:42:46Z</time>
      </trkpt>
      <trkpt lat="48.98335" lon="7.84473">
        <ele>285</ele>
        <time>2021-06-26T14:42:47Z</time>
      </trkpt>
      <trkpt lat="48.98338" lon="7.84476">
        <ele>284.8</ele>
        <time>2021-06-26T14:42:48Z</time>
      </trkpt>
      <trkpt lat="48.98341" lon="7.8448">
        <ele>284.8</ele>
        <time>2021-06-26T14:42:49Z</time>
      </trkpt>
      <trkpt lat="48.98344" lon="7.84484">
        <ele>284.8</ele>
        <time>2021-06-26T14:42:50Z</time>
      </trkpt>
      <trkpt lat="48.98346" lon="7.84487">
        <ele>284.8</ele>
        <time>2021-06-26T14:42:51Z</time>
      </trkpt>
      <trkpt lat="48.98348" lon="7.84489">
        <ele>284.2</ele>
        <time>2021-06-26T14:42:52Z</time>
      </trkpt>
      <trkpt lat="48.98349" lon="7.84491">
        <ele>284</ele>
        <time>2021-06-26T14:42:53Z</time>
      </trkpt>
      <trkpt lat="48.98349" lon="7.84491">
        <ele>283.8</ele>
        <time>2021-06-26T14:42:54Z</time>
      </trkpt>
      <trkpt lat="48.9835" lon="7.84491">
        <ele>283.8</ele>
        <time>2021-06-26T14:42:55Z</time>
      </trkpt>
      <trkpt lat="48.9835" lon="7.84492">
        <ele>283.6</ele>
        <time>2021-06-26T14:42:56Z</time>
      </trkpt>
      <trkpt lat="48.9835" lon="7.84493">
        <ele>283.6</ele>
        <time>2021-06-26T14:42:57Z</time>
      </trkpt>
      <trkpt lat="48.98351" lon="7.84493">
        <ele>283.6</ele>
        <time>2021-06-26T14:42:58Z</time>
      </trkpt>
      <trkpt lat="48.98351" lon="7.84493">
        <ele>283.6</ele>
        <time>2021-06-26T14:42:59Z</time>
      </trkpt>
      <trkpt lat="48.98352" lon="7.84494">
        <ele>283.6</ele>
        <time>2021-06-26T14:43:00Z</time>
      </trkpt>
      <trkpt lat="48.98352" lon="7.84494">
        <ele>283.6</ele>
        <time>2021-06-26T14:43:01Z</time>
      </trkpt>
      <trkpt lat="48.98353" lon="7.84495">
        <ele>283.6</ele>
        <time>2021-06-26T14:43:02Z</time>
      </trkpt>
      <trkpt lat="48.98353" lon="7.84495">
        <ele>283.8</ele>
        <time>2021-06-26T14:43:03Z</time>
      </trkpt>
      <trkpt lat="48.98354" lon="7.84497">
        <ele>283.8</ele>
        <time>2021-06-26T14:43:04Z</time>
      </trkpt>
      <trkpt lat="48.98354" lon="7.84498">
        <ele>283.8</ele>
        <time>2021-06-26T14:43:05Z</time>
      </trkpt>
      <trkpt lat="48.98354" lon="7.845">
        <ele>283.8</ele>
        <time>2021-06-26T14:43:06Z</time>
      </trkpt>
      <trkpt lat="48.98354" lon="7.84501">
        <ele>284</ele>
        <time>2021-06-26T14:43:07Z</time>
      </trkpt>
      <trkpt lat="48.98353" lon="7.84503">
        <ele>284</ele>
        <time>2021-06-26T14:43:09Z</time>
      </trkpt>
      <trkpt lat="48.98352" lon="7.84503">
        <ele>284</ele>
        <time>2021-06-26T14:43:10Z</time>
      </trkpt>
      <trkpt lat="48.98346" lon="7.84502">
        <ele>284</ele>
        <time>2021-06-26T14:43:13Z</time>
      </trkpt>
      <trkpt lat="48.98343" lon="7.84501">
        <ele>284</ele>
        <time>2021-06-26T14:43:14Z</time>
      </trkpt>
      <trkpt lat="48.98339" lon="7.845">
        <ele>284</ele>
        <time>2021-06-26T14:43:15Z</time>
      </trkpt>
      <trkpt lat="48.98334" lon="7.845">
        <ele>284</ele>
        <time>2021-06-26T14:43:16Z</time>
      </trkpt>
      <trkpt lat="48.98329" lon="7.84501">
        <ele>284</ele>
        <time>2021-06-26T14:43:17Z</time>
      </trkpt>
      <trkpt lat="48.98319" lon="7.84503">
        <ele>284</ele>
        <time>2021-06-26T14:43:19Z</time>
      </trkpt>
      <trkpt lat="48.98309" lon="7.84505">
        <ele>283</ele>
        <time>2021-06-26T14:43:22Z</time>
      </trkpt>
      <trkpt lat="48.98308" lon="7.84506">
        <ele>282.6</ele>
        <time>2021-06-26T14:43:23Z</time>
      </trkpt>
      <trkpt lat="48.98307" lon="7.84507">
        <ele>282.2</ele>
        <time>2021-06-26T14:43:24Z</time>
      </trkpt>
      <trkpt lat="48.98306" lon="7.84508">
        <ele>281.8</ele>
        <time>2021-06-26T14:43:25Z</time>
      </trkpt>
      <trkpt lat="48.98306" lon="7.84508">
        <ele>281.2</ele>
        <time>2021-06-26T14:43:26Z</time>
      </trkpt>
      <trkpt lat="48.98306" lon="7.84508">
        <ele>280.8</ele>
        <time>2021-06-26T14:43:27Z</time>
      </trkpt>
      <trkpt lat="48.98305" lon="7.84511">
        <ele>280.2</ele>
        <time>2021-06-26T14:43:40Z</time>
      </trkpt>
      <trkpt lat="48.98304" lon="7.84516">
        <ele>280.2</ele>
        <time>2021-06-26T14:43:42Z</time>
      </trkpt>
      <trkpt lat="48.98301" lon="7.84522">
        <ele>280.2</ele>
        <time>2021-06-26T14:43:44Z</time>
      </trkpt>
      <trkpt lat="48.98295" lon="7.84533">
        <ele>280</ele>
        <time>2021-06-26T14:43:46Z</time>
      </trkpt>
      <trkpt lat="48.98291" lon="7.8454">
        <ele>280</ele>
        <time>2021-06-26T14:43:47Z</time>
      </trkpt>
      <trkpt lat="48.98287" lon="7.84547">
        <ele>280</ele>
        <time>2021-06-26T14:43:48Z</time>
      </trkpt>
      <trkpt lat="48.98283" lon="7.84555">
        <ele>279.8</ele>
        <time>2021-06-26T14:43:49Z</time>
      </trkpt>
      <trkpt lat="48.98273" lon="7.84575">
        <ele>279.6</ele>
        <time>2021-06-26T14:43:51Z</time>
      </trkpt>
      <trkpt lat="48.98262" lon="7.84599">
        <ele>279</ele>
        <time>2021-06-26T14:43:53Z</time>
      </trkpt>
      <trkpt lat="48.9825" lon="7.84627">
        <ele>277.2</ele>
        <time>2021-06-26T14:43:55Z</time>
      </trkpt>
      <trkpt lat="48.98239" lon="7.84657">
        <ele>275</ele>
        <time>2021-06-26T14:43:57Z</time>
      </trkpt>
      <trkpt lat="48.98234" lon="7.84672">
        <ele>273.8</ele>
        <time>2021-06-26T14:43:58Z</time>
      </trkpt>
      <trkpt lat="48.98229" lon="7.84688">
        <ele>272.6</ele>
        <time>2021-06-26T14:43:59Z</time>
      </trkpt>
      <trkpt lat="48.98225" lon="7.84703">
        <ele>271</ele>
        <time>2021-06-26T14:44:00Z</time>
      </trkpt>
      <trkpt lat="48.98222" lon="7.84719">
        <ele>269.4</ele>
        <time>2021-06-26T14:44:01Z</time>
      </trkpt>
      <trkpt lat="48.98219" lon="7.84735">
        <ele>267.8</ele>
        <time>2021-06-26T14:44:02Z</time>
      </trkpt>
      <trkpt lat="48.98216" lon="7.84751">
        <ele>266.4</ele>
        <time>2021-06-26T14:44:03Z</time>
      </trkpt>
      <trkpt lat="48.98214" lon="7.84767">
        <ele>265.2</ele>
        <time>2021-06-26T14:44:04Z</time>
      </trkpt>
      <trkpt lat="48.98209" lon="7.84814">
        <ele>263.4</ele>
        <time>2021-06-26T14:44:07Z</time>
      </trkpt>
      <trkpt lat="48.98207" lon="7.84828">
        <ele>262.6</ele>
        <time>2021-06-26T14:44:08Z</time>
      </trkpt>
      <trkpt lat="48.98203" lon="7.84842">
        <ele>262</ele>
        <time>2021-06-26T14:44:09Z</time>
      </trkpt>
      <trkpt lat="48.98198" lon="7.84855">
        <ele>261.4</ele>
        <time>2021-06-26T14:44:10Z</time>
      </trkpt>
      <trkpt lat="48.98192" lon="7.84866">
        <ele>261</ele>
        <time>2021-06-26T14:44:11Z</time>
      </trkpt>
      <trkpt lat="48.98187" lon="7.84877">
        <ele>260.2</ele>
        <time>2021-06-26T14:44:12Z</time>
      </trkpt>
      <trkpt lat="48.98182" lon="7.84888">
        <ele>259.6</ele>
        <time>2021-06-26T14:44:13Z</time>
      </trkpt>
      <trkpt lat="48.98177" lon="7.84898">
        <ele>259</ele>
        <time>2021-06-26T14:44:14Z</time>
      </trkpt>
      <trkpt lat="48.98171" lon="7.84907">
        <ele>258.6</ele>
        <time>2021-06-26T14:44:15Z</time>
      </trkpt>
      <trkpt lat="48.98166" lon="7.84916">
        <ele>258.2</ele>
        <time>2021-06-26T14:44:16Z</time>
      </trkpt>
      <trkpt lat="48.98161" lon="7.84924">
        <ele>257.8</ele>
        <time>2021-06-26T14:44:17Z</time>
      </trkpt>
      <trkpt lat="48.98156" lon="7.84933">
        <ele>257.2</ele>
        <time>2021-06-26T14:44:18Z</time>
      </trkpt>
      <trkpt lat="48.98151" lon="7.84943">
        <ele>256.8</ele>
        <time>2021-06-26T14:44:19Z</time>
      </trkpt>
      <trkpt lat="48.98146" lon="7.84952">
        <ele>256.6</ele>
        <time>2021-06-26T14:44:20Z</time>
      </trkpt>
      <trkpt lat="48.9813" lon="7.8498">
        <ele>256</ele>
        <time>2021-06-26T14:44:23Z</time>
      </trkpt>
      <trkpt lat="48.9812" lon="7.84998">
        <ele>255.6</ele>
        <time>2021-06-26T14:44:25Z</time>
      </trkpt>
      <trkpt lat="48.98113" lon="7.85006">
        <ele>255.4</ele>
        <time>2021-06-26T14:44:26Z</time>
      </trkpt>
      <trkpt lat="48.981" lon="7.85027">
        <ele>255</ele>
        <time>2021-06-26T14:44:28Z</time>
      </trkpt>
      <trkpt lat="48.98086" lon="7.85047">
        <ele>254.4</ele>
        <time>2021-06-26T14:44:30Z</time>
      </trkpt>
      <trkpt lat="48.98079" lon="7.85057">
        <ele>254</ele>
        <time>2021-06-26T14:44:31Z</time>
      </trkpt>
      <trkpt lat="48.98056" lon="7.85086">
        <ele>252.6</ele>
        <time>2021-06-26T14:44:34Z</time>
      </trkpt>
      <trkpt lat="48.9804" lon="7.85105">
        <ele>252</ele>
        <time>2021-06-26T14:44:36Z</time>
      </trkpt>
      <trkpt lat="48.98032" lon="7.85114">
        <ele>250.8</ele>
        <time>2021-06-26T14:44:37Z</time>
      </trkpt>
      <trkpt lat="48.98011" lon="7.85142">
        <ele>249.4</ele>
        <time>2021-06-26T14:44:40Z</time>
      </trkpt>
      <trkpt lat="48.97998" lon="7.85161">
        <ele>248</ele>
        <time>2021-06-26T14:44:42Z</time>
      </trkpt>
      <trkpt lat="48.97977" lon="7.85193">
        <ele>246.6</ele>
        <time>2021-06-26T14:44:45Z</time>
      </trkpt>
      <trkpt lat="48.9797" lon="7.85202">
        <ele>246.4</ele>
        <time>2021-06-26T14:44:46Z</time>
      </trkpt>
      <trkpt lat="48.97964" lon="7.8521">
        <ele>246</ele>
        <time>2021-06-26T14:44:47Z</time>
      </trkpt>
      <trkpt lat="48.97957" lon="7.85218">
        <ele>245.8</ele>
        <time>2021-06-26T14:44:48Z</time>
      </trkpt>
      <trkpt lat="48.9795" lon="7.85225">
        <ele>245.6</ele>
        <time>2021-06-26T14:44:49Z</time>
      </trkpt>
      <trkpt lat="48.97944" lon="7.85231">
        <ele>245.4</ele>
        <time>2021-06-26T14:44:50Z</time>
      </trkpt>
      <trkpt lat="48.97937" lon="7.85236">
        <ele>245.2</ele>
        <time>2021-06-26T14:44:51Z</time>
      </trkpt>
      <trkpt lat="48.97931" lon="7.85243">
        <ele>245.2</ele>
        <time>2021-06-26T14:44:52Z</time>
      </trkpt>
      <trkpt lat="48.97926" lon="7.85249">
        <ele>245.2</ele>
        <time>2021-06-26T14:44:53Z</time>
      </trkpt>
      <trkpt lat="48.9792" lon="7.85254">
        <ele>245.2</ele>
        <time>2021-06-26T14:44:54Z</time>
      </trkpt>
      <trkpt lat="48.97915" lon="7.85259">
        <ele>245.2</ele>
        <time>2021-06-26T14:44:55Z</time>
      </trkpt>
      <trkpt lat="48.97911" lon="7.85264">
        <ele>245.2</ele>
        <time>2021-06-26T14:44:56Z</time>
      </trkpt>
      <trkpt lat="48.97907" lon="7.85269">
        <ele>245.2</ele>
        <time>2021-06-26T14:44:57Z</time>
      </trkpt>
      <trkpt lat="48.97902" lon="7.85272">
        <ele>245.2</ele>
        <time>2021-06-26T14:44:58Z</time>
      </trkpt>
      <trkpt lat="48.97898" lon="7.85276">
        <ele>245.2</ele>
        <time>2021-06-26T14:44:59Z</time>
      </trkpt>
      <trkpt lat="48.97893" lon="7.85278">
        <ele>245.2</ele>
        <time>2021-06-26T14:45:00Z</time>
      </trkpt>
      <trkpt lat="48.97889" lon="7.85282">
        <ele>245.2</ele>
        <time>2021-06-26T14:45:01Z</time>
      </trkpt>
      <trkpt lat="48.97886" lon="7.85285">
        <ele>245.4</ele>
        <time>2021-06-26T14:45:02Z</time>
      </trkpt>
      <trkpt lat="48.97883" lon="7.85289">
        <ele>245.8</ele>
        <time>2021-06-26T14:45:03Z</time>
      </trkpt>
      <trkpt lat="48.97879" lon="7.85292">
        <ele>246</ele>
        <time>2021-06-26T14:45:04Z</time>
      </trkpt>
      <trkpt lat="48.97876" lon="7.85295">
        <ele>246.4</ele>
        <time>2021-06-26T14:45:05Z</time>
      </trkpt>
      <trkpt lat="48.97873" lon="7.85297">
        <ele>246.6</ele>
        <time>2021-06-26T14:45:06Z</time>
      </trkpt>
      <trkpt lat="48.9787" lon="7.853">
        <ele>246.8</ele>
        <time>2021-06-26T14:45:07Z</time>
      </trkpt>
      <trkpt lat="48.97867" lon="7.85303">
        <ele>246.8</ele>
        <time>2021-06-26T14:45:08Z</time>
      </trkpt>
      <trkpt lat="48.97863" lon="7.85306">
        <ele>247</ele>
        <time>2021-06-26T14:45:09Z</time>
      </trkpt>
      <trkpt lat="48.97854" lon="7.85314">
        <ele>247.2</ele>
        <time>2021-06-26T14:45:12Z</time>
      </trkpt>
      <trkpt lat="48.97844" lon="7.85321">
        <ele>247.4</ele>
        <time>2021-06-26T14:45:15Z</time>
      </trkpt>
      <trkpt lat="48.9784" lon="7.85323">
        <ele>247.4</ele>
        <time>2021-06-26T14:45:16Z</time>
      </trkpt>
      <trkpt lat="48.97833" lon="7.85328">
        <ele>247.6</ele>
        <time>2021-06-26T14:45:18Z</time>
      </trkpt>
      <trkpt lat="48.9783" lon="7.8533">
        <ele>247.6</ele>
        <time>2021-06-26T14:45:19Z</time>
      </trkpt>
      <trkpt lat="48.97827" lon="7.85332">
        <ele>247.6</ele>
        <time>2021-06-26T14:45:21Z</time>
      </trkpt>
      <trkpt lat="48.97818" lon="7.85337">
        <ele>247.6</ele>
        <time>2021-06-26T14:45:23Z</time>
      </trkpt>
      <trkpt lat="48.97814" lon="7.85339">
        <ele>247.6</ele>
        <time>2021-06-26T14:45:24Z</time>
      </trkpt>
      <trkpt lat="48.97811" lon="7.85341">
        <ele>247.6</ele>
        <time>2021-06-26T14:45:25Z</time>
      </trkpt>
      <trkpt lat="48.97804" lon="7.85346">
        <ele>247.6</ele>
        <time>2021-06-26T14:45:27Z</time>
      </trkpt>
      <trkpt lat="48.97801" lon="7.85347">
        <ele>247.6</ele>
        <time>2021-06-26T14:45:28Z</time>
      </trkpt>
      <trkpt lat="48.97793" lon="7.85351">
        <ele>247.6</ele>
        <time>2021-06-26T14:45:30Z</time>
      </trkpt>
      <trkpt lat="48.97768" lon="7.85363">
        <ele>247.4</ele>
        <time>2021-06-26T14:45:36Z</time>
      </trkpt>
      <trkpt lat="48.97758" lon="7.85367">
        <ele>247.2</ele>
        <time>2021-06-26T14:45:39Z</time>
      </trkpt>
      <trkpt lat="48.97754" lon="7.85369">
        <ele>247.2</ele>
        <time>2021-06-26T14:45:40Z</time>
      </trkpt>
      <trkpt lat="48.9775" lon="7.8537">
        <ele>247</ele>
        <time>2021-06-26T14:45:41Z</time>
      </trkpt>
      <trkpt lat="48.97747" lon="7.85372">
        <ele>247</ele>
        <time>2021-06-26T14:45:42Z</time>
      </trkpt>
      <trkpt lat="48.97743" lon="7.85374">
        <ele>247</ele>
        <time>2021-06-26T14:45:43Z</time>
      </trkpt>
      <trkpt lat="48.9774" lon="7.85376">
        <ele>247</ele>
        <time>2021-06-26T14:45:44Z</time>
      </trkpt>
      <trkpt lat="48.97736" lon="7.85378">
        <ele>247</ele>
        <time>2021-06-26T14:45:45Z</time>
      </trkpt>
      <trkpt lat="48.97723" lon="7.85382">
        <ele>247</ele>
        <time>2021-06-26T14:45:48Z</time>
      </trkpt>
      <trkpt lat="48.97697" lon="7.85392">
        <ele>247</ele>
        <time>2021-06-26T14:45:55Z</time>
      </trkpt>
      <trkpt lat="48.97689" lon="7.85394">
        <ele>247.2</ele>
        <time>2021-06-26T14:45:57Z</time>
      </trkpt>
      <trkpt lat="48.97686" lon="7.85395">
        <ele>247.2</ele>
        <time>2021-06-26T14:45:58Z</time>
      </trkpt>
      <trkpt lat="48.97682" lon="7.85397">
        <ele>247.2</ele>
        <time>2021-06-26T14:45:59Z</time>
      </trkpt>
      <trkpt lat="48.97679" lon="7.85398">
        <ele>247.2</ele>
        <time>2021-06-26T14:46:00Z</time>
      </trkpt>
      <trkpt lat="48.97675" lon="7.85399">
        <ele>247.2</ele>
        <time>2021-06-26T14:46:01Z</time>
      </trkpt>
      <trkpt lat="48.97672" lon="7.85401">
        <ele>247.2</ele>
        <time>2021-06-26T14:46:02Z</time>
      </trkpt>
      <trkpt lat="48.97669" lon="7.85402">
        <ele>247.2</ele>
        <time>2021-06-26T14:46:03Z</time>
      </trkpt>
      <trkpt lat="48.9766" lon="7.85406">
        <ele>247.4</ele>
        <time>2021-06-26T14:46:05Z</time>
      </trkpt>
      <trkpt lat="48.97646" lon="7.85411">
        <ele>247.4</ele>
        <time>2021-06-26T14:46:08Z</time>
      </trkpt>
      <trkpt lat="48.97642" lon="7.85412">
        <ele>247.6</ele>
        <time>2021-06-26T14:46:09Z</time>
      </trkpt>
      <trkpt lat="48.97638" lon="7.85413">
        <ele>247.6</ele>
        <time>2021-06-26T14:46:10Z</time>
      </trkpt>
      <trkpt lat="48.97633" lon="7.85414">
        <ele>247.6</ele>
        <time>2021-06-26T14:46:11Z</time>
      </trkpt>
      <trkpt lat="48.97625" lon="7.85415">
        <ele>247.6</ele>
        <time>2021-06-26T14:46:13Z</time>
      </trkpt>
      <trkpt lat="48.97608" lon="7.8542">
        <ele>247.8</ele>
        <time>2021-06-26T14:46:17Z</time>
      </trkpt>
      <trkpt lat="48.97604" lon="7.85421">
        <ele>247.8</ele>
        <time>2021-06-26T14:46:18Z</time>
      </trkpt>
      <trkpt lat="48.976" lon="7.85423">
        <ele>247.8</ele>
        <time>2021-06-26T14:46:19Z</time>
      </trkpt>
      <trkpt lat="48.97596" lon="7.85424">
        <ele>247.8</ele>
        <time>2021-06-26T14:46:20Z</time>
      </trkpt>
      <trkpt lat="48.97593" lon="7.85424">
        <ele>247.8</ele>
        <time>2021-06-26T14:46:21Z</time>
      </trkpt>
      <trkpt lat="48.97589" lon="7.85425">
        <ele>247.8</ele>
        <time>2021-06-26T14:46:22Z</time>
      </trkpt>
      <trkpt lat="48.97586" lon="7.85426">
        <ele>247.8</ele>
        <time>2021-06-26T14:46:23Z</time>
      </trkpt>
      <trkpt lat="48.97582" lon="7.85427">
        <ele>247.8</ele>
        <time>2021-06-26T14:46:24Z</time>
      </trkpt>
      <trkpt lat="48.97575" lon="7.85428">
        <ele>247.8</ele>
        <time>2021-06-26T14:46:26Z</time>
      </trkpt>
      <trkpt lat="48.97571" lon="7.85429">
        <ele>247.8</ele>
        <time>2021-06-26T14:46:27Z</time>
      </trkpt>
      <trkpt lat="48.97568" lon="7.8543">
        <ele>247.8</ele>
        <time>2021-06-26T14:46:28Z</time>
      </trkpt>
      <trkpt lat="48.97564" lon="7.85431">
        <ele>247.8</ele>
        <time>2021-06-26T14:46:29Z</time>
      </trkpt>
      <trkpt lat="48.97556" lon="7.85432">
        <ele>247.8</ele>
        <time>2021-06-26T14:46:31Z</time>
      </trkpt>
      <trkpt lat="48.97537" lon="7.85435">
        <ele>247.6</ele>
        <time>2021-06-26T14:46:35Z</time>
      </trkpt>
      <trkpt lat="48.97531" lon="7.85436">
        <ele>247.6</ele>
        <time>2021-06-26T14:46:36Z</time>
      </trkpt>
      <trkpt lat="48.97497" lon="7.85446">
        <ele>246.4</ele>
        <time>2021-06-26T14:46:42Z</time>
      </trkpt>
      <trkpt lat="48.9749" lon="7.85449">
        <ele>246.2</ele>
        <time>2021-06-26T14:46:43Z</time>
      </trkpt>
      <trkpt lat="48.97471" lon="7.8546">
        <ele>245.4</ele>
        <time>2021-06-26T14:46:46Z</time>
      </trkpt>
      <trkpt lat="48.97458" lon="7.85468">
        <ele>245</ele>
        <time>2021-06-26T14:46:48Z</time>
      </trkpt>
      <trkpt lat="48.97451" lon="7.85471">
        <ele>244.4</ele>
        <time>2021-06-26T14:46:49Z</time>
      </trkpt>
      <trkpt lat="48.97431" lon="7.85486">
        <ele>243.2</ele>
        <time>2021-06-26T14:46:52Z</time>
      </trkpt>
      <trkpt lat="48.97425" lon="7.85493">
        <ele>243.2</ele>
        <time>2021-06-26T14:46:53Z</time>
      </trkpt>
      <trkpt lat="48.97401" lon="7.85516">
        <ele>242.2</ele>
        <time>2021-06-26T14:46:57Z</time>
      </trkpt>
      <trkpt lat="48.97377" lon="7.85536">
        <ele>240.8</ele>
        <time>2021-06-26T14:47:01Z</time>
      </trkpt>
      <trkpt lat="48.97359" lon="7.85552">
        <ele>239.8</ele>
        <time>2021-06-26T14:47:04Z</time>
      </trkpt>
      <trkpt lat="48.97353" lon="7.85557">
        <ele>239.4</ele>
        <time>2021-06-26T14:47:05Z</time>
      </trkpt>
      <trkpt lat="48.97337" lon="7.85576">
        <ele>238.8</ele>
        <time>2021-06-26T14:47:08Z</time>
      </trkpt>
      <trkpt lat="48.97332" lon="7.85582">
        <ele>238.6</ele>
        <time>2021-06-26T14:47:09Z</time>
      </trkpt>
      <trkpt lat="48.97311" lon="7.85603">
        <ele>238.2</ele>
        <time>2021-06-26T14:47:13Z</time>
      </trkpt>
      <trkpt lat="48.97306" lon="7.85608">
        <ele>238.2</ele>
        <time>2021-06-26T14:47:14Z</time>
      </trkpt>
      <trkpt lat="48.97302" lon="7.85612">
        <ele>238.2</ele>
        <time>2021-06-26T14:47:15Z</time>
      </trkpt>
      <trkpt lat="48.97297" lon="7.85616">
        <ele>238.2</ele>
        <time>2021-06-26T14:47:16Z</time>
      </trkpt>
      <trkpt lat="48.97294" lon="7.8562">
        <ele>238.2</ele>
        <time>2021-06-26T14:47:17Z</time>
      </trkpt>
      <trkpt lat="48.97284" lon="7.85629">
        <ele>238.2</ele>
        <time>2021-06-26T14:47:19Z</time>
      </trkpt>
      <trkpt lat="48.97279" lon="7.85634">
        <ele>238.2</ele>
        <time>2021-06-26T14:47:20Z</time>
      </trkpt>
      <trkpt lat="48.97266" lon="7.85648">
        <ele>238</ele>
        <time>2021-06-26T14:47:23Z</time>
      </trkpt>
      <trkpt lat="48.97254" lon="7.85662">
        <ele>237.8</ele>
        <time>2021-06-26T14:47:26Z</time>
      </trkpt>
      <trkpt lat="48.97249" lon="7.85667">
        <ele>237.8</ele>
        <time>2021-06-26T14:47:27Z</time>
      </trkpt>
      <trkpt lat="48.97245" lon="7.8567">
        <ele>237.8</ele>
        <time>2021-06-26T14:47:28Z</time>
      </trkpt>
      <trkpt lat="48.97241" lon="7.85676">
        <ele>237.8</ele>
        <time>2021-06-26T14:47:29Z</time>
      </trkpt>
      <trkpt lat="48.97236" lon="7.8568">
        <ele>237.8</ele>
        <time>2021-06-26T14:47:30Z</time>
      </trkpt>
      <trkpt lat="48.97233" lon="7.85684">
        <ele>237.8</ele>
        <time>2021-06-26T14:47:31Z</time>
      </trkpt>
      <trkpt lat="48.97227" lon="7.8569">
        <ele>237.8</ele>
        <time>2021-06-26T14:47:32Z</time>
      </trkpt>
      <trkpt lat="48.97223" lon="7.85696">
        <ele>237.8</ele>
        <time>2021-06-26T14:47:33Z</time>
      </trkpt>
      <trkpt lat="48.97197" lon="7.85723">
        <ele>238</ele>
        <time>2021-06-26T14:47:38Z</time>
      </trkpt>
      <trkpt lat="48.97168" lon="7.85752">
        <ele>238.2</ele>
        <time>2021-06-26T14:47:44Z</time>
      </trkpt>
      <trkpt lat="48.97146" lon="7.85773">
        <ele>238.2</ele>
        <time>2021-06-26T14:47:48Z</time>
      </trkpt>
      <trkpt lat="48.97141" lon="7.85778">
        <ele>238.2</ele>
        <time>2021-06-26T14:47:49Z</time>
      </trkpt>
      <trkpt lat="48.97137" lon="7.85783">
        <ele>238.2</ele>
        <time>2021-06-26T14:47:50Z</time>
      </trkpt>
      <trkpt lat="48.97132" lon="7.85788">
        <ele>238.2</ele>
        <time>2021-06-26T14:47:51Z</time>
      </trkpt>
      <trkpt lat="48.97127" lon="7.85793">
        <ele>238.2</ele>
        <time>2021-06-26T14:47:52Z</time>
      </trkpt>
      <trkpt lat="48.97123" lon="7.85797">
        <ele>238</ele>
        <time>2021-06-26T14:47:53Z</time>
      </trkpt>
      <trkpt lat="48.97107" lon="7.85816">
        <ele>237.4</ele>
        <time>2021-06-26T14:47:56Z</time>
      </trkpt>
      <trkpt lat="48.97096" lon="7.85826">
        <ele>237.2</ele>
        <time>2021-06-26T14:47:58Z</time>
      </trkpt>
      <trkpt lat="48.97071" lon="7.85853">
        <ele>236.4</ele>
        <time>2021-06-26T14:48:03Z</time>
      </trkpt>
      <trkpt lat="48.97053" lon="7.85873">
        <ele>235.8</ele>
        <time>2021-06-26T14:48:06Z</time>
      </trkpt>
      <trkpt lat="48.97035" lon="7.85892">
        <ele>235.2</ele>
        <time>2021-06-26T14:48:09Z</time>
      </trkpt>
      <trkpt lat="48.97012" lon="7.85919">
        <ele>234.2</ele>
        <time>2021-06-26T14:48:13Z</time>
      </trkpt>
      <trkpt lat="48.97" lon="7.85934">
        <ele>233.2</ele>
        <time>2021-06-26T14:48:15Z</time>
      </trkpt>
      <trkpt lat="48.96994" lon="7.85941">
        <ele>232</ele>
        <time>2021-06-26T14:48:17Z</time>
      </trkpt>
      <trkpt lat="48.9697" lon="7.85965">
        <ele>230.6</ele>
        <time>2021-06-26T14:48:20Z</time>
      </trkpt>
      <trkpt lat="48.96965" lon="7.8597">
        <ele>230.4</ele>
        <time>2021-06-26T14:48:21Z</time>
      </trkpt>
      <trkpt lat="48.96958" lon="7.85977">
        <ele>228.6</ele>
        <time>2021-06-26T14:48:23Z</time>
      </trkpt>
      <trkpt lat="48.96949" lon="7.85987">
        <ele>228</ele>
        <time>2021-06-26T14:48:24Z</time>
      </trkpt>
      <trkpt lat="48.9694" lon="7.85997">
        <ele>227.6</ele>
        <time>2021-06-26T14:48:25Z</time>
      </trkpt>
      <trkpt lat="48.96911" lon="7.86024">
        <ele>226.8</ele>
        <time>2021-06-26T14:48:30Z</time>
      </trkpt>
      <trkpt lat="48.96891" lon="7.8604">
        <ele>226.6</ele>
        <time>2021-06-26T14:48:33Z</time>
      </trkpt>
      <trkpt lat="48.96857" lon="7.86063">
        <ele>225.6</ele>
        <time>2021-06-26T14:48:38Z</time>
      </trkpt>
      <trkpt lat="48.96851" lon="7.86067">
        <ele>225.4</ele>
        <time>2021-06-26T14:48:39Z</time>
      </trkpt>
      <trkpt lat="48.96822" lon="7.86086">
        <ele>224</ele>
        <time>2021-06-26T14:48:43Z</time>
      </trkpt>
      <trkpt lat="48.96801" lon="7.86098">
        <ele>223</ele>
        <time>2021-06-26T14:48:46Z</time>
      </trkpt>
      <trkpt lat="48.96774" lon="7.86114">
        <ele>221.8</ele>
        <time>2021-06-26T14:48:50Z</time>
      </trkpt>
      <trkpt lat="48.96768" lon="7.86117">
        <ele>221.8</ele>
        <time>2021-06-26T14:48:51Z</time>
      </trkpt>
      <trkpt lat="48.96761" lon="7.86119">
        <ele>221.6</ele>
        <time>2021-06-26T14:48:52Z</time>
      </trkpt>
      <trkpt lat="48.96756" lon="7.8612">
        <ele>221.4</ele>
        <time>2021-06-26T14:48:54Z</time>
      </trkpt>
      <trkpt lat="48.96746" lon="7.86122">
        <ele>221.2</ele>
        <time>2021-06-26T14:48:55Z</time>
      </trkpt>
      <trkpt lat="48.96736" lon="7.86125">
        <ele>221.2</ele>
        <time>2021-06-26T14:48:56Z</time>
      </trkpt>
      <trkpt lat="48.96731" lon="7.86126">
        <ele>221</ele>
        <time>2021-06-26T14:48:57Z</time>
      </trkpt>
      <trkpt lat="48.96726" lon="7.86127">
        <ele>221.2</ele>
        <time>2021-06-26T14:48:58Z</time>
      </trkpt>
      <trkpt lat="48.9672" lon="7.86128">
        <ele>221</ele>
        <time>2021-06-26T14:48:59Z</time>
      </trkpt>
      <trkpt lat="48.96714" lon="7.86128">
        <ele>221</ele>
        <time>2021-06-26T14:49:00Z</time>
      </trkpt>
      <trkpt lat="48.96687" lon="7.86128">
        <ele>220.6</ele>
        <time>2021-06-26T14:49:05Z</time>
      </trkpt>
      <trkpt lat="48.96683" lon="7.86128">
        <ele>220.6</ele>
        <time>2021-06-26T14:49:06Z</time>
      </trkpt>
      <trkpt lat="48.96679" lon="7.86129">
        <ele>220.6</ele>
        <time>2021-06-26T14:49:07Z</time>
      </trkpt>
      <trkpt lat="48.9667" lon="7.86129">
        <ele>220.6</ele>
        <time>2021-06-26T14:49:08Z</time>
      </trkpt>
      <trkpt lat="48.96655" lon="7.86129">
        <ele>220.6</ele>
        <time>2021-06-26T14:49:11Z</time>
      </trkpt>
      <trkpt lat="48.96629" lon="7.86132">
        <ele>220.4</ele>
        <time>2021-06-26T14:49:16Z</time>
      </trkpt>
      <trkpt lat="48.96619" lon="7.86134">
        <ele>220.4</ele>
        <time>2021-06-26T14:49:18Z</time>
      </trkpt>
      <trkpt lat="48.96614" lon="7.86134">
        <ele>220.6</ele>
        <time>2021-06-26T14:49:19Z</time>
      </trkpt>
      <trkpt lat="48.9661" lon="7.86135">
        <ele>220.6</ele>
        <time>2021-06-26T14:49:20Z</time>
      </trkpt>
      <trkpt lat="48.96605" lon="7.86136">
        <ele>220.6</ele>
        <time>2021-06-26T14:49:21Z</time>
      </trkpt>
      <trkpt lat="48.96601" lon="7.86137">
        <ele>220.6</ele>
        <time>2021-06-26T14:49:22Z</time>
      </trkpt>
      <trkpt lat="48.96597" lon="7.86137">
        <ele>220.6</ele>
        <time>2021-06-26T14:49:23Z</time>
      </trkpt>
      <trkpt lat="48.96593" lon="7.86137">
        <ele>220.6</ele>
        <time>2021-06-26T14:49:24Z</time>
      </trkpt>
      <trkpt lat="48.9659" lon="7.86138">
        <ele>220.8</ele>
        <time>2021-06-26T14:49:25Z</time>
      </trkpt>
      <trkpt lat="48.96585" lon="7.86138">
        <ele>221</ele>
        <time>2021-06-26T14:49:26Z</time>
      </trkpt>
      <trkpt lat="48.96582" lon="7.86139">
        <ele>221.2</ele>
        <time>2021-06-26T14:49:27Z</time>
      </trkpt>
      <trkpt lat="48.96578" lon="7.86139">
        <ele>221.2</ele>
        <time>2021-06-26T14:49:28Z</time>
      </trkpt>
      <trkpt lat="48.96546" lon="7.86143">
        <ele>221.8</ele>
        <time>2021-06-26T14:49:37Z</time>
      </trkpt>
      <trkpt lat="48.96541" lon="7.86144">
        <ele>221.8</ele>
        <time>2021-06-26T14:49:39Z</time>
      </trkpt>
      <trkpt lat="48.96531" lon="7.86146">
        <ele>221.8</ele>
        <time>2021-06-26T14:49:42Z</time>
      </trkpt>
      <trkpt lat="48.96528" lon="7.86146">
        <ele>221.8</ele>
        <time>2021-06-26T14:49:43Z</time>
      </trkpt>
      <trkpt lat="48.96524" lon="7.86146">
        <ele>221.8</ele>
        <time>2021-06-26T14:49:44Z</time>
      </trkpt>
      <trkpt lat="48.96501" lon="7.86151">
        <ele>221.6</ele>
        <time>2021-06-26T14:49:50Z</time>
      </trkpt>
      <trkpt lat="48.96477" lon="7.86155">
        <ele>221.4</ele>
        <time>2021-06-26T14:49:56Z</time>
      </trkpt>
      <trkpt lat="48.96459" lon="7.86158">
        <ele>221.2</ele>
        <time>2021-06-26T14:50:01Z</time>
      </trkpt>
      <trkpt lat="48.96457" lon="7.86157">
        <ele>221.2</ele>
        <time>2021-06-26T14:50:02Z</time>
      </trkpt>
      <trkpt lat="48.96452" lon="7.86158">
        <ele>221.2</ele>
        <time>2021-06-26T14:50:03Z</time>
      </trkpt>
      <trkpt lat="48.96448" lon="7.86159">
        <ele>221.2</ele>
        <time>2021-06-26T14:50:04Z</time>
      </trkpt>
      <trkpt lat="48.9641" lon="7.86165">
        <ele>221.4</ele>
        <time>2021-06-26T14:50:13Z</time>
      </trkpt>
      <trkpt lat="48.96402" lon="7.86166">
        <ele>221.4</ele>
        <time>2021-06-26T14:50:15Z</time>
      </trkpt>
      <trkpt lat="48.96371" lon="7.86173">
        <ele>221.6</ele>
        <time>2021-06-26T14:50:22Z</time>
      </trkpt>
      <trkpt lat="48.96363" lon="7.86174">
        <ele>221.6</ele>
        <time>2021-06-26T14:50:24Z</time>
      </trkpt>
      <trkpt lat="48.96359" lon="7.86175">
        <ele>221.6</ele>
        <time>2021-06-26T14:50:25Z</time>
      </trkpt>
      <trkpt lat="48.96356" lon="7.86175">
        <ele>221.6</ele>
        <time>2021-06-26T14:50:26Z</time>
      </trkpt>
      <trkpt lat="48.96352" lon="7.86176">
        <ele>221.8</ele>
        <time>2021-06-26T14:50:27Z</time>
      </trkpt>
      <trkpt lat="48.96348" lon="7.86177">
        <ele>221.8</ele>
        <time>2021-06-26T14:50:28Z</time>
      </trkpt>
      <trkpt lat="48.96345" lon="7.86177">
        <ele>222</ele>
        <time>2021-06-26T14:50:29Z</time>
      </trkpt>
      <trkpt lat="48.96342" lon="7.86178">
        <ele>222</ele>
        <time>2021-06-26T14:50:30Z</time>
      </trkpt>
      <trkpt lat="48.96325" lon="7.86181">
        <ele>222.2</ele>
        <time>2021-06-26T14:50:34Z</time>
      </trkpt>
      <trkpt lat="48.9631" lon="7.86182">
        <ele>222.8</ele>
        <time>2021-06-26T14:50:38Z</time>
      </trkpt>
      <trkpt lat="48.9629" lon="7.86186">
        <ele>223.2</ele>
        <time>2021-06-26T14:50:44Z</time>
      </trkpt>
      <trkpt lat="48.96286" lon="7.86187">
        <ele>223.2</ele>
        <time>2021-06-26T14:50:45Z</time>
      </trkpt>
      <trkpt lat="48.96283" lon="7.86188">
        <ele>223.4</ele>
        <time>2021-06-26T14:50:46Z</time>
      </trkpt>
      <trkpt lat="48.96279" lon="7.86188">
        <ele>223.4</ele>
        <time>2021-06-26T14:50:47Z</time>
      </trkpt>
      <trkpt lat="48.96276" lon="7.86188">
        <ele>223.6</ele>
        <time>2021-06-26T14:50:48Z</time>
      </trkpt>
      <trkpt lat="48.96272" lon="7.86189">
        <ele>223.8</ele>
        <time>2021-06-26T14:50:49Z</time>
      </trkpt>
      <trkpt lat="48.96268" lon="7.86189">
        <ele>224</ele>
        <time>2021-06-26T14:50:50Z</time>
      </trkpt>
      <trkpt lat="48.96261" lon="7.86191">
        <ele>224</ele>
        <time>2021-06-26T14:50:52Z</time>
      </trkpt>
      <trkpt lat="48.96237" lon="7.86196">
        <ele>224</ele>
        <time>2021-06-26T14:50:58Z</time>
      </trkpt>
      <trkpt lat="48.96215" lon="7.862">
        <ele>224</ele>
        <time>2021-06-26T14:51:03Z</time>
      </trkpt>
      <trkpt lat="48.96211" lon="7.862">
        <ele>223.8</ele>
        <time>2021-06-26T14:51:04Z</time>
      </trkpt>
      <trkpt lat="48.962" lon="7.86201">
        <ele>223.8</ele>
        <time>2021-06-26T14:51:06Z</time>
      </trkpt>
      <trkpt lat="48.96183" lon="7.86204">
        <ele>223.2</ele>
        <time>2021-06-26T14:51:10Z</time>
      </trkpt>
      <trkpt lat="48.96175" lon="7.86204">
        <ele>223</ele>
        <time>2021-06-26T14:51:12Z</time>
      </trkpt>
      <trkpt lat="48.9615" lon="7.86207">
        <ele>222.6</ele>
        <time>2021-06-26T14:51:17Z</time>
      </trkpt>
      <trkpt lat="48.96141" lon="7.86208">
        <ele>222.6</ele>
        <time>2021-06-26T14:51:19Z</time>
      </trkpt>
      <trkpt lat="48.96117" lon="7.86212">
        <ele>222.2</ele>
        <time>2021-06-26T14:51:24Z</time>
      </trkpt>
      <trkpt lat="48.96102" lon="7.86215">
        <ele>222.2</ele>
        <time>2021-06-26T14:51:27Z</time>
      </trkpt>
      <trkpt lat="48.96073" lon="7.8622">
        <ele>221.6</ele>
        <time>2021-06-26T14:51:33Z</time>
      </trkpt>
      <trkpt lat="48.96041" lon="7.86228">
        <ele>221.4</ele>
        <time>2021-06-26T14:51:40Z</time>
      </trkpt>
      <trkpt lat="48.96036" lon="7.86229">
        <ele>221.4</ele>
        <time>2021-06-26T14:51:41Z</time>
      </trkpt>
      <trkpt lat="48.96027" lon="7.86232">
        <ele>221.4</ele>
        <time>2021-06-26T14:51:43Z</time>
      </trkpt>
      <trkpt lat="48.95998" lon="7.86244">
        <ele>221.2</ele>
        <time>2021-06-26T14:51:49Z</time>
      </trkpt>
      <trkpt lat="48.9598" lon="7.86253">
        <ele>221.2</ele>
        <time>2021-06-26T14:51:53Z</time>
      </trkpt>
      <trkpt lat="48.95976" lon="7.86254">
        <ele>221.2</ele>
        <time>2021-06-26T14:51:54Z</time>
      </trkpt>
      <trkpt lat="48.95971" lon="7.86256">
        <ele>221.2</ele>
        <time>2021-06-26T14:51:55Z</time>
      </trkpt>
      <trkpt lat="48.95966" lon="7.86258">
        <ele>221.2</ele>
        <time>2021-06-26T14:51:56Z</time>
      </trkpt>
      <trkpt lat="48.95948" lon="7.86267">
        <ele>221.2</ele>
        <time>2021-06-26T14:52:00Z</time>
      </trkpt>
      <trkpt lat="48.95935" lon="7.86275">
        <ele>221.2</ele>
        <time>2021-06-26T14:52:03Z</time>
      </trkpt>
      <trkpt lat="48.95917" lon="7.86285">
        <ele>221.2</ele>
        <time>2021-06-26T14:52:07Z</time>
      </trkpt>
      <trkpt lat="48.95904" lon="7.86293">
        <ele>221.2</ele>
        <time>2021-06-26T14:52:10Z</time>
      </trkpt>
      <trkpt lat="48.9589" lon="7.86299">
        <ele>221.6</ele>
        <time>2021-06-26T14:52:13Z</time>
      </trkpt>
      <trkpt lat="48.95878" lon="7.86307">
        <ele>221.6</ele>
        <time>2021-06-26T14:52:16Z</time>
      </trkpt>
      <trkpt lat="48.95869" lon="7.86312">
        <ele>221.8</ele>
        <time>2021-06-26T14:52:18Z</time>
      </trkpt>
      <trkpt lat="48.95865" lon="7.86316">
        <ele>221.8</ele>
        <time>2021-06-26T14:52:19Z</time>
      </trkpt>
      <trkpt lat="48.95854" lon="7.86329">
        <ele>221.8</ele>
        <time>2021-06-26T14:52:22Z</time>
      </trkpt>
      <trkpt lat="48.95838" lon="7.86352">
        <ele>221.8</ele>
        <time>2021-06-26T14:52:26Z</time>
      </trkpt>
      <trkpt lat="48.95834" lon="7.86357">
        <ele>221.8</ele>
        <time>2021-06-26T14:52:27Z</time>
      </trkpt>
      <trkpt lat="48.95818" lon="7.86378">
        <ele>221.2</ele>
        <time>2021-06-26T14:52:31Z</time>
      </trkpt>
      <trkpt lat="48.95811" lon="7.86388">
        <ele>220.8</ele>
        <time>2021-06-26T14:52:33Z</time>
      </trkpt>
      <trkpt lat="48.95807" lon="7.86392">
        <ele>220.6</ele>
        <time>2021-06-26T14:52:34Z</time>
      </trkpt>
      <trkpt lat="48.95805" lon="7.86397">
        <ele>220.4</ele>
        <time>2021-06-26T14:52:35Z</time>
      </trkpt>
      <trkpt lat="48.95802" lon="7.864">
        <ele>220.4</ele>
        <time>2021-06-26T14:52:36Z</time>
      </trkpt>
      <trkpt lat="48.95799" lon="7.86404">
        <ele>220.4</ele>
        <time>2021-06-26T14:52:37Z</time>
      </trkpt>
      <trkpt lat="48.95794" lon="7.86412">
        <ele>220.2</ele>
        <time>2021-06-26T14:52:38Z</time>
      </trkpt>
      <trkpt lat="48.9579" lon="7.86416">
        <ele>220.2</ele>
        <time>2021-06-26T14:52:39Z</time>
      </trkpt>
      <trkpt lat="48.95787" lon="7.86421">
        <ele>220.2</ele>
        <time>2021-06-26T14:52:40Z</time>
      </trkpt>
      <trkpt lat="48.95783" lon="7.86426">
        <ele>220</ele>
        <time>2021-06-26T14:52:41Z</time>
      </trkpt>
      <trkpt lat="48.9578" lon="7.86431">
        <ele>220</ele>
        <time>2021-06-26T14:52:42Z</time>
      </trkpt>
      <trkpt lat="48.95769" lon="7.86445">
        <ele>219.4</ele>
        <time>2021-06-26T14:52:45Z</time>
      </trkpt>
      <trkpt lat="48.95763" lon="7.86452">
        <ele>219.4</ele>
        <time>2021-06-26T14:52:46Z</time>
      </trkpt>
      <trkpt lat="48.95759" lon="7.86458">
        <ele>219.2</ele>
        <time>2021-06-26T14:52:47Z</time>
      </trkpt>
      <trkpt lat="48.95739" lon="7.86477">
        <ele>218.8</ele>
        <time>2021-06-26T14:52:51Z</time>
      </trkpt>
      <trkpt lat="48.95727" lon="7.86484">
        <ele>218.2</ele>
        <time>2021-06-26T14:52:53Z</time>
      </trkpt>
      <trkpt lat="48.9571" lon="7.86495">
        <ele>217</ele>
        <time>2021-06-26T14:52:56Z</time>
      </trkpt>
      <trkpt lat="48.95689" lon="7.86513">
        <ele>215.8</ele>
        <time>2021-06-26T14:53:00Z</time>
      </trkpt>
      <trkpt lat="48.95669" lon="7.86535">
        <ele>214.8</ele>
        <time>2021-06-26T14:53:04Z</time>
      </trkpt>
      <trkpt lat="48.95665" lon="7.86541">
        <ele>214.8</ele>
        <time>2021-06-26T14:53:05Z</time>
      </trkpt>
      <trkpt lat="48.95657" lon="7.86552">
        <ele>214.4</ele>
        <time>2021-06-26T14:53:07Z</time>
      </trkpt>
      <trkpt lat="48.95653" lon="7.86557">
        <ele>214</ele>
        <time>2021-06-26T14:53:08Z</time>
      </trkpt>
      <trkpt lat="48.95648" lon="7.86564">
        <ele>213.8</ele>
        <time>2021-06-26T14:53:09Z</time>
      </trkpt>
      <trkpt lat="48.95643" lon="7.8657">
        <ele>213.8</ele>
        <time>2021-06-26T14:53:10Z</time>
      </trkpt>
      <trkpt lat="48.95639" lon="7.86576">
        <ele>213.4</ele>
        <time>2021-06-26T14:53:11Z</time>
      </trkpt>
      <trkpt lat="48.95635" lon="7.86582">
        <ele>213.2</ele>
        <time>2021-06-26T14:53:12Z</time>
      </trkpt>
      <trkpt lat="48.95631" lon="7.86588">
        <ele>212.8</ele>
        <time>2021-06-26T14:53:13Z</time>
      </trkpt>
      <trkpt lat="48.95627" lon="7.86594">
        <ele>212.6</ele>
        <time>2021-06-26T14:53:14Z</time>
      </trkpt>
      <trkpt lat="48.95623" lon="7.866">
        <ele>212.4</ele>
        <time>2021-06-26T14:53:15Z</time>
      </trkpt>
      <trkpt lat="48.95615" lon="7.86613">
        <ele>212.2</ele>
        <time>2021-06-26T14:53:17Z</time>
      </trkpt>
      <trkpt lat="48.95599" lon="7.86639">
        <ele>211.8</ele>
        <time>2021-06-26T14:53:21Z</time>
      </trkpt>
      <trkpt lat="48.95595" lon="7.86645">
        <ele>211.6</ele>
        <time>2021-06-26T14:53:22Z</time>
      </trkpt>
      <trkpt lat="48.95583" lon="7.86662">
        <ele>211.2</ele>
        <time>2021-06-26T14:53:25Z</time>
      </trkpt>
      <trkpt lat="48.9558" lon="7.86668">
        <ele>211</ele>
        <time>2021-06-26T14:53:26Z</time>
      </trkpt>
      <trkpt lat="48.95577" lon="7.86674">
        <ele>210.8</ele>
        <time>2021-06-26T14:53:27Z</time>
      </trkpt>
      <trkpt lat="48.95574" lon="7.86679">
        <ele>210.6</ele>
        <time>2021-06-26T14:53:28Z</time>
      </trkpt>
      <trkpt lat="48.95572" lon="7.86684">
        <ele>210.6</ele>
        <time>2021-06-26T14:53:29Z</time>
      </trkpt>
      <trkpt lat="48.95571" lon="7.86688">
        <ele>210.6</ele>
        <time>2021-06-26T14:53:30Z</time>
      </trkpt>
      <trkpt lat="48.9557" lon="7.86691">
        <ele>210.4</ele>
        <time>2021-06-26T14:53:31Z</time>
      </trkpt>
      <trkpt lat="48.9557" lon="7.86692">
        <ele>210.4</ele>
        <time>2021-06-26T14:53:32Z</time>
      </trkpt>
      <trkpt lat="48.95569" lon="7.86693">
        <ele>210.4</ele>
        <time>2021-06-26T14:53:33Z</time>
      </trkpt>
      <trkpt lat="48.95569" lon="7.86693">
        <ele>210.4</ele>
        <time>2021-06-26T14:53:34Z</time>
      </trkpt>
      <trkpt lat="48.95568" lon="7.86694">
        <ele>210.4</ele>
        <time>2021-06-26T14:53:35Z</time>
      </trkpt>
      <trkpt lat="48.95568" lon="7.86694">
        <ele>210.4</ele>
        <time>2021-06-26T14:53:36Z</time>
      </trkpt>
      <trkpt lat="48.95566" lon="7.86696">
        <ele>210.8</ele>
        <time>2021-06-26T14:54:18Z</time>
      </trkpt>
      <trkpt lat="48.95564" lon="7.86698">
        <ele>210.8</ele>
        <time>2021-06-26T14:54:19Z</time>
      </trkpt>
      <trkpt lat="48.95561" lon="7.86702">
        <ele>210.8</ele>
        <time>2021-06-26T14:54:20Z</time>
      </trkpt>
      <trkpt lat="48.95559" lon="7.86706">
        <ele>210.8</ele>
        <time>2021-06-26T14:54:21Z</time>
      </trkpt>
      <trkpt lat="48.95555" lon="7.8671">
        <ele>210.8</ele>
        <time>2021-06-26T14:54:22Z</time>
      </trkpt>
      <trkpt lat="48.95552" lon="7.86716">
        <ele>210.8</ele>
        <time>2021-06-26T14:54:23Z</time>
      </trkpt>
      <trkpt lat="48.95546" lon="7.86729">
        <ele>210.8</ele>
        <time>2021-06-26T14:54:25Z</time>
      </trkpt>
      <trkpt lat="48.95534" lon="7.86759">
        <ele>210.2</ele>
        <time>2021-06-26T14:54:29Z</time>
      </trkpt>
      <trkpt lat="48.95528" lon="7.86775">
        <ele>209.8</ele>
        <time>2021-06-26T14:54:31Z</time>
      </trkpt>
      <trkpt lat="48.95525" lon="7.86783">
        <ele>209.6</ele>
        <time>2021-06-26T14:54:32Z</time>
      </trkpt>
      <trkpt lat="48.95517" lon="7.86811">
        <ele>209.2</ele>
        <time>2021-06-26T14:54:35Z</time>
      </trkpt>
      <trkpt lat="48.9551" lon="7.86837">
        <ele>208.6</ele>
        <time>2021-06-26T14:54:38Z</time>
      </trkpt>
      <trkpt lat="48.95505" lon="7.86855">
        <ele>208.2</ele>
        <time>2021-06-26T14:54:40Z</time>
      </trkpt>
      <trkpt lat="48.95503" lon="7.86863">
        <ele>208</ele>
        <time>2021-06-26T14:54:41Z</time>
      </trkpt>
      <trkpt lat="48.95491" lon="7.86912">
        <ele>207.2</ele>
        <time>2021-06-26T14:54:47Z</time>
      </trkpt>
      <trkpt lat="48.95489" lon="7.8692">
        <ele>207</ele>
        <time>2021-06-26T14:54:48Z</time>
      </trkpt>
      <trkpt lat="48.95487" lon="7.86928">
        <ele>207</ele>
        <time>2021-06-26T14:54:49Z</time>
      </trkpt>
      <trkpt lat="48.95485" lon="7.86936">
        <ele>207</ele>
        <time>2021-06-26T14:54:50Z</time>
      </trkpt>
      <trkpt lat="48.95482" lon="7.86943">
        <ele>207</ele>
        <time>2021-06-26T14:54:51Z</time>
      </trkpt>
      <trkpt lat="48.9548" lon="7.86951">
        <ele>207</ele>
        <time>2021-06-26T14:54:52Z</time>
      </trkpt>
      <trkpt lat="48.95479" lon="7.86959">
        <ele>206.8</ele>
        <time>2021-06-26T14:54:53Z</time>
      </trkpt>
      <trkpt lat="48.95477" lon="7.86967">
        <ele>206.8</ele>
        <time>2021-06-26T14:54:54Z</time>
      </trkpt>
      <trkpt lat="48.95475" lon="7.86974">
        <ele>206.8</ele>
        <time>2021-06-26T14:54:55Z</time>
      </trkpt>
      <trkpt lat="48.95473" lon="7.86982">
        <ele>206.8</ele>
        <time>2021-06-26T14:54:56Z</time>
      </trkpt>
      <trkpt lat="48.95456" lon="7.87048">
        <ele>206.6</ele>
        <time>2021-06-26T14:55:04Z</time>
      </trkpt>
      <trkpt lat="48.95448" lon="7.8708">
        <ele>206.6</ele>
        <time>2021-06-26T14:55:08Z</time>
      </trkpt>
      <trkpt lat="48.95446" lon="7.87087">
        <ele>206.6</ele>
        <time>2021-06-26T14:55:10Z</time>
      </trkpt>
      <trkpt lat="48.95441" lon="7.87102">
        <ele>206.4</ele>
        <time>2021-06-26T14:55:11Z</time>
      </trkpt>
      <trkpt lat="48.95439" lon="7.8711">
        <ele>206.4</ele>
        <time>2021-06-26T14:55:12Z</time>
      </trkpt>
      <trkpt lat="48.95437" lon="7.87118">
        <ele>206.6</ele>
        <time>2021-06-26T14:55:13Z</time>
      </trkpt>
      <trkpt lat="48.95435" lon="7.87124">
        <ele>206.6</ele>
        <time>2021-06-26T14:55:14Z</time>
      </trkpt>
      <trkpt lat="48.95432" lon="7.87133">
        <ele>206.6</ele>
        <time>2021-06-26T14:55:15Z</time>
      </trkpt>
      <trkpt lat="48.9543" lon="7.87141">
        <ele>206.6</ele>
        <time>2021-06-26T14:55:16Z</time>
      </trkpt>
      <trkpt lat="48.95428" lon="7.87148">
        <ele>206.8</ele>
        <time>2021-06-26T14:55:17Z</time>
      </trkpt>
      <trkpt lat="48.95426" lon="7.87155">
        <ele>206.6</ele>
        <time>2021-06-26T14:55:18Z</time>
      </trkpt>
      <trkpt lat="48.9542" lon="7.87175">
        <ele>206.8</ele>
        <time>2021-06-26T14:55:21Z</time>
      </trkpt>
      <trkpt lat="48.95418" lon="7.8718">
        <ele>206.8</ele>
        <time>2021-06-26T14:55:22Z</time>
      </trkpt>
      <trkpt lat="48.95416" lon="7.87186">
        <ele>206.8</ele>
        <time>2021-06-26T14:55:23Z</time>
      </trkpt>
      <trkpt lat="48.95414" lon="7.87191">
        <ele>206.6</ele>
        <time>2021-06-26T14:55:24Z</time>
      </trkpt>
      <trkpt lat="48.95411" lon="7.87198">
        <ele>206.6</ele>
        <time>2021-06-26T14:55:25Z</time>
      </trkpt>
      <trkpt lat="48.95407" lon="7.87211">
        <ele>206.8</ele>
        <time>2021-06-26T14:55:27Z</time>
      </trkpt>
      <trkpt lat="48.95401" lon="7.87222">
        <ele>207</ele>
        <time>2021-06-26T14:55:29Z</time>
      </trkpt>
      <trkpt lat="48.95372" lon="7.87261">
        <ele>206.8</ele>
        <time>2021-06-26T14:55:36Z</time>
      </trkpt>
      <trkpt lat="48.95343" lon="7.87299">
        <ele>206.6</ele>
        <time>2021-06-26T14:55:43Z</time>
      </trkpt>
      <trkpt lat="48.95339" lon="7.87307">
        <ele>206.6</ele>
        <time>2021-06-26T14:55:44Z</time>
      </trkpt>
      <trkpt lat="48.95333" lon="7.87321">
        <ele>206.6</ele>
        <time>2021-06-26T14:55:46Z</time>
      </trkpt>
      <trkpt lat="48.9533" lon="7.87328">
        <ele>206.6</ele>
        <time>2021-06-26T14:55:47Z</time>
      </trkpt>
      <trkpt lat="48.95327" lon="7.87335">
        <ele>206.4</ele>
        <time>2021-06-26T14:55:48Z</time>
      </trkpt>
      <trkpt lat="48.95325" lon="7.87342">
        <ele>206.4</ele>
        <time>2021-06-26T14:55:49Z</time>
      </trkpt>
      <trkpt lat="48.95322" lon="7.87349">
        <ele>206.4</ele>
        <time>2021-06-26T14:55:50Z</time>
      </trkpt>
      <trkpt lat="48.9532" lon="7.87356">
        <ele>206.2</ele>
        <time>2021-06-26T14:55:51Z</time>
      </trkpt>
      <trkpt lat="48.95318" lon="7.87362">
        <ele>206.2</ele>
        <time>2021-06-26T14:55:52Z</time>
      </trkpt>
      <trkpt lat="48.95315" lon="7.8737">
        <ele>206.2</ele>
        <time>2021-06-26T14:55:53Z</time>
      </trkpt>
      <trkpt lat="48.95295" lon="7.8743">
        <ele>205.8</ele>
        <time>2021-06-26T14:56:01Z</time>
      </trkpt>
      <trkpt lat="48.95283" lon="7.87467">
        <ele>205.6</ele>
        <time>2021-06-26T14:56:06Z</time>
      </trkpt>
      <trkpt lat="48.95278" lon="7.87481">
        <ele>205.6</ele>
        <time>2021-06-26T14:56:08Z</time>
      </trkpt>
      <trkpt lat="48.9527" lon="7.875">
        <ele>205.4</ele>
        <time>2021-06-26T14:56:11Z</time>
      </trkpt>
      <trkpt lat="48.95267" lon="7.87508">
        <ele>205.4</ele>
        <time>2021-06-26T14:56:12Z</time>
      </trkpt>
      <trkpt lat="48.95265" lon="7.87515">
        <ele>205.4</ele>
        <time>2021-06-26T14:56:13Z</time>
      </trkpt>
      <trkpt lat="48.95262" lon="7.87522">
        <ele>205.4</ele>
        <time>2021-06-26T14:56:14Z</time>
      </trkpt>
      <trkpt lat="48.95259" lon="7.87528">
        <ele>205.6</ele>
        <time>2021-06-26T14:56:15Z</time>
      </trkpt>
      <trkpt lat="48.95256" lon="7.87535">
        <ele>205.6</ele>
        <time>2021-06-26T14:56:16Z</time>
      </trkpt>
      <trkpt lat="48.95245" lon="7.8756">
        <ele>205.6</ele>
        <time>2021-06-26T14:56:19Z</time>
      </trkpt>
      <trkpt lat="48.95233" lon="7.87586">
        <ele>205.6</ele>
        <time>2021-06-26T14:56:22Z</time>
      </trkpt>
      <trkpt lat="48.95224" lon="7.87603">
        <ele>205.6</ele>
        <time>2021-06-26T14:56:24Z</time>
      </trkpt>
      <trkpt lat="48.95221" lon="7.87611">
        <ele>205.6</ele>
        <time>2021-06-26T14:56:25Z</time>
      </trkpt>
      <trkpt lat="48.95217" lon="7.87619">
        <ele>205.6</ele>
        <time>2021-06-26T14:56:26Z</time>
      </trkpt>
      <trkpt lat="48.95209" lon="7.87633">
        <ele>205.8</ele>
        <time>2021-06-26T14:56:28Z</time>
      </trkpt>
      <trkpt lat="48.95205" lon="7.87639">
        <ele>205.8</ele>
        <time>2021-06-26T14:56:29Z</time>
      </trkpt>
      <trkpt lat="48.95201" lon="7.87646">
        <ele>205.8</ele>
        <time>2021-06-26T14:56:30Z</time>
      </trkpt>
      <trkpt lat="48.95197" lon="7.87652">
        <ele>205.8</ele>
        <time>2021-06-26T14:56:31Z</time>
      </trkpt>
      <trkpt lat="48.95194" lon="7.87659">
        <ele>205.8</ele>
        <time>2021-06-26T14:56:32Z</time>
      </trkpt>
      <trkpt lat="48.95182" lon="7.87679">
        <ele>206.2</ele>
        <time>2021-06-26T14:56:35Z</time>
      </trkpt>
      <trkpt lat="48.95173" lon="7.8769">
        <ele>206.4</ele>
        <time>2021-06-26T14:56:37Z</time>
      </trkpt>
      <trkpt lat="48.95162" lon="7.87706">
        <ele>206.6</ele>
        <time>2021-06-26T14:56:40Z</time>
      </trkpt>
      <trkpt lat="48.95158" lon="7.87712">
        <ele>206.6</ele>
        <time>2021-06-26T14:56:41Z</time>
      </trkpt>
      <trkpt lat="48.95154" lon="7.87717">
        <ele>206.6</ele>
        <time>2021-06-26T14:56:42Z</time>
      </trkpt>
      <trkpt lat="48.95151" lon="7.87721">
        <ele>206.6</ele>
        <time>2021-06-26T14:56:43Z</time>
      </trkpt>
      <trkpt lat="48.95147" lon="7.87726">
        <ele>206.6</ele>
        <time>2021-06-26T14:56:44Z</time>
      </trkpt>
      <trkpt lat="48.9514" lon="7.87736">
        <ele>206.6</ele>
        <time>2021-06-26T14:56:46Z</time>
      </trkpt>
      <trkpt lat="48.95136" lon="7.87741">
        <ele>206.6</ele>
        <time>2021-06-26T14:56:47Z</time>
      </trkpt>
      <trkpt lat="48.95132" lon="7.87746">
        <ele>206.6</ele>
        <time>2021-06-26T14:56:48Z</time>
      </trkpt>
      <trkpt lat="48.95128" lon="7.87751">
        <ele>206.6</ele>
        <time>2021-06-26T14:56:49Z</time>
      </trkpt>
      <trkpt lat="48.95117" lon="7.87763">
        <ele>206.8</ele>
        <time>2021-06-26T14:56:52Z</time>
      </trkpt>
      <trkpt lat="48.95101" lon="7.8778">
        <ele>207</ele>
        <time>2021-06-26T14:56:56Z</time>
      </trkpt>
      <trkpt lat="48.9507" lon="7.87806">
        <ele>207</ele>
        <time>2021-06-26T14:57:03Z</time>
      </trkpt>
      <trkpt lat="48.95023" lon="7.87845">
        <ele>206.6</ele>
        <time>2021-06-26T14:57:14Z</time>
      </trkpt>
      <trkpt lat="48.95011" lon="7.87854">
        <ele>206.4</ele>
        <time>2021-06-26T14:57:17Z</time>
      </trkpt>
      <trkpt lat="48.95002" lon="7.87862">
        <ele>206.4</ele>
        <time>2021-06-26T14:57:19Z</time>
      </trkpt>
      <trkpt lat="48.94993" lon="7.87868">
        <ele>206.4</ele>
        <time>2021-06-26T14:57:21Z</time>
      </trkpt>
      <trkpt lat="48.94953" lon="7.87898">
        <ele>205.8</ele>
        <time>2021-06-26T14:57:29Z</time>
      </trkpt>
      <trkpt lat="48.94936" lon="7.87911">
        <ele>205.4</ele>
        <time>2021-06-26T14:57:32Z</time>
      </trkpt>
      <trkpt lat="48.94917" lon="7.87925">
        <ele>204.2</ele>
        <time>2021-06-26T14:57:35Z</time>
      </trkpt>
      <trkpt lat="48.94905" lon="7.87933">
        <ele>203.2</ele>
        <time>2021-06-26T14:57:37Z</time>
      </trkpt>
      <trkpt lat="48.94892" lon="7.8794">
        <ele>202.2</ele>
        <time>2021-06-26T14:57:39Z</time>
      </trkpt>
      <trkpt lat="48.94885" lon="7.87943">
        <ele>201.8</ele>
        <time>2021-06-26T14:57:40Z</time>
      </trkpt>
      <trkpt lat="48.94879" lon="7.87946">
        <ele>201</ele>
        <time>2021-06-26T14:57:41Z</time>
      </trkpt>
      <trkpt lat="48.94872" lon="7.87948">
        <ele>200.6</ele>
        <time>2021-06-26T14:57:42Z</time>
      </trkpt>
      <trkpt lat="48.94848" lon="7.87952">
        <ele>199.2</ele>
        <time>2021-06-26T14:57:45Z</time>
      </trkpt>
      <trkpt lat="48.9484" lon="7.87953">
        <ele>198.4</ele>
        <time>2021-06-26T14:57:46Z</time>
      </trkpt>
      <trkpt lat="48.9483" lon="7.87954">
        <ele>197.8</ele>
        <time>2021-06-26T14:57:47Z</time>
      </trkpt>
      <trkpt lat="48.9481" lon="7.87955">
        <ele>196.6</ele>
        <time>2021-06-26T14:57:49Z</time>
      </trkpt>
      <trkpt lat="48.948" lon="7.87954">
        <ele>196.2</ele>
        <time>2021-06-26T14:57:50Z</time>
      </trkpt>
      <trkpt lat="48.94789" lon="7.87952">
        <ele>195.4</ele>
        <time>2021-06-26T14:57:51Z</time>
      </trkpt>
      <trkpt lat="48.94768" lon="7.87949">
        <ele>193.8</ele>
        <time>2021-06-26T14:57:53Z</time>
      </trkpt>
      <trkpt lat="48.94757" lon="7.87947">
        <ele>192.8</ele>
        <time>2021-06-26T14:57:54Z</time>
      </trkpt>
      <trkpt lat="48.94728" lon="7.87942">
        <ele>190.4</ele>
        <time>2021-06-26T14:57:57Z</time>
      </trkpt>
      <trkpt lat="48.94718" lon="7.87939">
        <ele>189.2</ele>
        <time>2021-06-26T14:57:58Z</time>
      </trkpt>
      <trkpt lat="48.9471" lon="7.87937">
        <ele>188</ele>
        <time>2021-06-26T14:57:59Z</time>
      </trkpt>
      <trkpt lat="48.9469" lon="7.87931">
        <ele>186</ele>
        <time>2021-06-26T14:58:01Z</time>
      </trkpt>
      <trkpt lat="48.94681" lon="7.87929">
        <ele>185</ele>
        <time>2021-06-26T14:58:02Z</time>
      </trkpt>
      <trkpt lat="48.94672" lon="7.87926">
        <ele>184.4</ele>
        <time>2021-06-26T14:58:03Z</time>
      </trkpt>
      <trkpt lat="48.94665" lon="7.87925">
        <ele>183.8</ele>
        <time>2021-06-26T14:58:04Z</time>
      </trkpt>
      <trkpt lat="48.94654" lon="7.87924">
        <ele>183.4</ele>
        <time>2021-06-26T14:58:05Z</time>
      </trkpt>
      <trkpt lat="48.94645" lon="7.87924">
        <ele>183.2</ele>
        <time>2021-06-26T14:58:06Z</time>
      </trkpt>
      <trkpt lat="48.94637" lon="7.87923">
        <ele>182.2</ele>
        <time>2021-06-26T14:58:08Z</time>
      </trkpt>
      <trkpt lat="48.94625" lon="7.87923">
        <ele>181.8</ele>
        <time>2021-06-26T14:58:09Z</time>
      </trkpt>
      <trkpt lat="48.94613" lon="7.87923">
        <ele>181.4</ele>
        <time>2021-06-26T14:58:10Z</time>
      </trkpt>
      <trkpt lat="48.94606" lon="7.87922">
        <ele>180.6</ele>
        <time>2021-06-26T14:58:11Z</time>
      </trkpt>
      <trkpt lat="48.94598" lon="7.87921">
        <ele>180.2</ele>
        <time>2021-06-26T14:58:12Z</time>
      </trkpt>
      <trkpt lat="48.94591" lon="7.87921">
        <ele>179.6</ele>
        <time>2021-06-26T14:58:13Z</time>
      </trkpt>
      <trkpt lat="48.94584" lon="7.8792">
        <ele>179.2</ele>
        <time>2021-06-26T14:58:14Z</time>
      </trkpt>
      <trkpt lat="48.94562" lon="7.87917">
        <ele>178.4</ele>
        <time>2021-06-26T14:58:17Z</time>
      </trkpt>
      <trkpt lat="48.94554" lon="7.87916">
        <ele>178.2</ele>
        <time>2021-06-26T14:58:18Z</time>
      </trkpt>
      <trkpt lat="48.94548" lon="7.87915">
        <ele>178</ele>
        <time>2021-06-26T14:58:19Z</time>
      </trkpt>
      <trkpt lat="48.9454" lon="7.87913">
        <ele>177.8</ele>
        <time>2021-06-26T14:58:20Z</time>
      </trkpt>
      <trkpt lat="48.94511" lon="7.87913">
        <ele>177</ele>
        <time>2021-06-26T14:58:24Z</time>
      </trkpt>
      <trkpt lat="48.94495" lon="7.87916">
        <ele>176.6</ele>
        <time>2021-06-26T14:58:26Z</time>
      </trkpt>
      <trkpt lat="48.94471" lon="7.87921">
        <ele>176</ele>
        <time>2021-06-26T14:58:29Z</time>
      </trkpt>
      <trkpt lat="48.94447" lon="7.8793">
        <ele>174.8</ele>
        <time>2021-06-26T14:58:32Z</time>
      </trkpt>
      <trkpt lat="48.9443" lon="7.87938">
        <ele>173.6</ele>
        <time>2021-06-26T14:58:34Z</time>
      </trkpt>
      <trkpt lat="48.94422" lon="7.87944">
        <ele>173.2</ele>
        <time>2021-06-26T14:58:35Z</time>
      </trkpt>
      <trkpt lat="48.94414" lon="7.87951">
        <ele>172.4</ele>
        <time>2021-06-26T14:58:36Z</time>
      </trkpt>
      <trkpt lat="48.944" lon="7.87966">
        <ele>171.2</ele>
        <time>2021-06-26T14:58:38Z</time>
      </trkpt>
      <trkpt lat="48.94382" lon="7.87987">
        <ele>170.2</ele>
        <time>2021-06-26T14:58:40Z</time>
      </trkpt>
      <trkpt lat="48.94374" lon="7.87996">
        <ele>169.4</ele>
        <time>2021-06-26T14:58:41Z</time>
      </trkpt>
      <trkpt lat="48.94366" lon="7.88006">
        <ele>168.8</ele>
        <time>2021-06-26T14:58:42Z</time>
      </trkpt>
      <trkpt lat="48.9435" lon="7.88024">
        <ele>166.8</ele>
        <time>2021-06-26T14:58:44Z</time>
      </trkpt>
      <trkpt lat="48.94334" lon="7.8804">
        <ele>165</ele>
        <time>2021-06-26T14:58:46Z</time>
      </trkpt>
      <trkpt lat="48.94328" lon="7.88046">
        <ele>164.4</ele>
        <time>2021-06-26T14:58:47Z</time>
      </trkpt>
      <trkpt lat="48.94318" lon="7.88055">
        <ele>163.4</ele>
        <time>2021-06-26T14:58:48Z</time>
      </trkpt>
      <trkpt lat="48.9431" lon="7.8806">
        <ele>163</ele>
        <time>2021-06-26T14:58:49Z</time>
      </trkpt>
      <trkpt lat="48.94302" lon="7.88064">
        <ele>162.2</ele>
        <time>2021-06-26T14:58:50Z</time>
      </trkpt>
      <trkpt lat="48.94293" lon="7.88066">
        <ele>161.8</ele>
        <time>2021-06-26T14:58:51Z</time>
      </trkpt>
      <trkpt lat="48.94285" lon="7.88067">
        <ele>161.4</ele>
        <time>2021-06-26T14:58:52Z</time>
      </trkpt>
      <trkpt lat="48.94275" lon="7.88069">
        <ele>161.2</ele>
        <time>2021-06-26T14:58:53Z</time>
      </trkpt>
      <trkpt lat="48.94267" lon="7.88069">
        <ele>161</ele>
        <time>2021-06-26T14:58:54Z</time>
      </trkpt>
      <trkpt lat="48.94259" lon="7.88069">
        <ele>161</ele>
        <time>2021-06-26T14:58:55Z</time>
      </trkpt>
      <trkpt lat="48.94254" lon="7.88069">
        <ele>160.4</ele>
        <time>2021-06-26T14:58:56Z</time>
      </trkpt>
      <trkpt lat="48.94245" lon="7.88069">
        <ele>160.2</ele>
        <time>2021-06-26T14:58:57Z</time>
      </trkpt>
      <trkpt lat="48.94238" lon="7.88068">
        <ele>160.2</ele>
        <time>2021-06-26T14:58:58Z</time>
      </trkpt>
      <trkpt lat="48.94231" lon="7.88068">
        <ele>160</ele>
        <time>2021-06-26T14:58:59Z</time>
      </trkpt>
      <trkpt lat="48.94226" lon="7.88068">
        <ele>159.8</ele>
        <time>2021-06-26T14:59:00Z</time>
      </trkpt>
      <trkpt lat="48.94198" lon="7.88065">
        <ele>159.2</ele>
        <time>2021-06-26T14:59:04Z</time>
      </trkpt>
      <trkpt lat="48.94191" lon="7.88065">
        <ele>159.2</ele>
        <time>2021-06-26T14:59:05Z</time>
      </trkpt>
      <trkpt lat="48.94184" lon="7.88064">
        <ele>159.2</ele>
        <time>2021-06-26T14:59:06Z</time>
      </trkpt>
      <trkpt lat="48.94178" lon="7.88064">
        <ele>159</ele>
        <time>2021-06-26T14:59:07Z</time>
      </trkpt>
      <trkpt lat="48.94171" lon="7.88065">
        <ele>159</ele>
        <time>2021-06-26T14:59:08Z</time>
      </trkpt>
      <trkpt lat="48.94165" lon="7.88067">
        <ele>159</ele>
        <time>2021-06-26T14:59:09Z</time>
      </trkpt>
      <trkpt lat="48.94152" lon="7.8807">
        <ele>158.8</ele>
        <time>2021-06-26T14:59:11Z</time>
      </trkpt>
      <trkpt lat="48.9414" lon="7.88074">
        <ele>158.6</ele>
        <time>2021-06-26T14:59:13Z</time>
      </trkpt>
      <trkpt lat="48.94134" lon="7.88076">
        <ele>158.6</ele>
        <time>2021-06-26T14:59:14Z</time>
      </trkpt>
      <trkpt lat="48.94127" lon="7.88077">
        <ele>158.4</ele>
        <time>2021-06-26T14:59:15Z</time>
      </trkpt>
      <trkpt lat="48.94121" lon="7.8808">
        <ele>158.4</ele>
        <time>2021-06-26T14:59:16Z</time>
      </trkpt>
      <trkpt lat="48.94115" lon="7.88082">
        <ele>158.4</ele>
        <time>2021-06-26T14:59:17Z</time>
      </trkpt>
      <trkpt lat="48.94109" lon="7.88084">
        <ele>158.2</ele>
        <time>2021-06-26T14:59:18Z</time>
      </trkpt>
      <trkpt lat="48.94104" lon="7.88086">
        <ele>158.2</ele>
        <time>2021-06-26T14:59:19Z</time>
      </trkpt>
      <trkpt lat="48.94092" lon="7.8809">
        <ele>158.2</ele>
        <time>2021-06-26T14:59:21Z</time>
      </trkpt>
      <trkpt lat="48.94087" lon="7.88092">
        <ele>158</ele>
        <time>2021-06-26T14:59:22Z</time>
      </trkpt>
      <trkpt lat="48.94081" lon="7.88095">
        <ele>158</ele>
        <time>2021-06-26T14:59:23Z</time>
      </trkpt>
      <trkpt lat="48.94076" lon="7.88097">
        <ele>158</ele>
        <time>2021-06-26T14:59:24Z</time>
      </trkpt>
      <trkpt lat="48.94071" lon="7.88099">
        <ele>158</ele>
        <time>2021-06-26T14:59:25Z</time>
      </trkpt>
      <trkpt lat="48.94066" lon="7.88101">
        <ele>158</ele>
        <time>2021-06-26T14:59:26Z</time>
      </trkpt>
      <trkpt lat="48.94061" lon="7.88103">
        <ele>158</ele>
        <time>2021-06-26T14:59:27Z</time>
      </trkpt>
      <trkpt lat="48.94056" lon="7.88106">
        <ele>158</ele>
        <time>2021-06-26T14:59:28Z</time>
      </trkpt>
      <trkpt lat="48.94052" lon="7.88108">
        <ele>158</ele>
        <time>2021-06-26T14:59:29Z</time>
      </trkpt>
      <trkpt lat="48.94047" lon="7.88108">
        <ele>158</ele>
        <time>2021-06-26T14:59:30Z</time>
      </trkpt>
      <trkpt lat="48.94044" lon="7.88106">
        <ele>158</ele>
        <time>2021-06-26T14:59:31Z</time>
      </trkpt>
      <trkpt lat="48.94043" lon="7.88102">
        <ele>158</ele>
        <time>2021-06-26T14:59:32Z</time>
      </trkpt>
      <trkpt lat="48.94043" lon="7.88097">
        <ele>158</ele>
        <time>2021-06-26T14:59:33Z</time>
      </trkpt>
      <trkpt lat="48.94043" lon="7.88092">
        <ele>158</ele>
        <time>2021-06-26T14:59:34Z</time>
      </trkpt>
      <trkpt lat="48.94041" lon="7.88086">
        <ele>158</ele>
        <time>2021-06-26T14:59:35Z</time>
      </trkpt>
      <trkpt lat="48.94041" lon="7.88086">
        <ele>158</ele>
        <time>2021-06-26T14:59:36Z</time>
      </trkpt>
      <trkpt lat="48.94028" lon="7.88072">
        <ele>158</ele>
        <time>2021-06-26T14:59:39Z</time>
      </trkpt>
      <trkpt lat="48.94023" lon="7.88069">
        <ele>158</ele>
        <time>2021-06-26T14:59:40Z</time>
      </trkpt>
      <trkpt lat="48.93985" lon="7.88035">
        <ele>158.4</ele>
        <time>2021-06-26T14:59:48Z</time>
      </trkpt>
      <trkpt lat="48.9398" lon="7.88031">
        <ele>158.4</ele>
        <time>2021-06-26T14:59:49Z</time>
      </trkpt>
      <trkpt lat="48.93964" lon="7.88016">
        <ele>158.4</ele>
        <time>2021-06-26T14:59:53Z</time>
      </trkpt>
      <trkpt lat="48.9396" lon="7.88012">
        <ele>158.4</ele>
        <time>2021-06-26T14:59:54Z</time>
      </trkpt>
      <trkpt lat="48.93957" lon="7.88007">
        <ele>158.4</ele>
        <time>2021-06-26T14:59:55Z</time>
      </trkpt>
      <trkpt lat="48.93954" lon="7.88002">
        <ele>158.4</ele>
        <time>2021-06-26T14:59:56Z</time>
      </trkpt>
      <trkpt lat="48.93951" lon="7.87998">
        <ele>158.4</ele>
        <time>2021-06-26T14:59:57Z</time>
      </trkpt>
      <trkpt lat="48.93948" lon="7.87994">
        <ele>158.4</ele>
        <time>2021-06-26T14:59:58Z</time>
      </trkpt>
      <trkpt lat="48.93936" lon="7.87983">
        <ele>158.6</ele>
        <time>2021-06-26T15:00:01Z</time>
      </trkpt>
      <trkpt lat="48.93934" lon="7.8798">
        <ele>158.6</ele>
        <time>2021-06-26T15:00:02Z</time>
      </trkpt>
      <trkpt lat="48.93927" lon="7.87972">
        <ele>158.8</ele>
        <time>2021-06-26T15:00:04Z</time>
      </trkpt>
      <trkpt lat="48.93924" lon="7.87969">
        <ele>158.8</ele>
        <time>2021-06-26T15:00:05Z</time>
      </trkpt>
      <trkpt lat="48.93921" lon="7.87967">
        <ele>159</ele>
        <time>2021-06-26T15:00:06Z</time>
      </trkpt>
      <trkpt lat="48.93916" lon="7.87963">
        <ele>159</ele>
        <time>2021-06-26T15:00:07Z</time>
      </trkpt>
      <trkpt lat="48.93913" lon="7.87961">
        <ele>159</ele>
        <time>2021-06-26T15:00:08Z</time>
      </trkpt>
      <trkpt lat="48.9391" lon="7.87958">
        <ele>159.2</ele>
        <time>2021-06-26T15:00:09Z</time>
      </trkpt>
      <trkpt lat="48.93907" lon="7.87955">
        <ele>159.2</ele>
        <time>2021-06-26T15:00:10Z</time>
      </trkpt>
      <trkpt lat="48.93906" lon="7.87954">
        <ele>159.4</ele>
        <time>2021-06-26T15:00:11Z</time>
      </trkpt>
      <trkpt lat="48.93905" lon="7.87953">
        <ele>159.8</ele>
        <time>2021-06-26T15:00:12Z</time>
      </trkpt>
      <trkpt lat="48.93905" lon="7.87953">
        <ele>160</ele>
        <time>2021-06-26T15:00:13Z</time>
      </trkpt>
      <trkpt lat="48.93905" lon="7.87953">
        <ele>160.2</ele>
        <time>2021-06-26T15:00:14Z</time>
      </trkpt>
      <trkpt lat="48.93904" lon="7.87952">
        <ele>160.4</ele>
        <time>2021-06-26T15:00:15Z</time>
      </trkpt>
      <trkpt lat="48.93903" lon="7.87952">
        <ele>160.6</ele>
        <time>2021-06-26T15:00:16Z</time>
      </trkpt>
      <trkpt lat="48.93902" lon="7.87952">
        <ele>160.8</ele>
        <time>2021-06-26T15:00:17Z</time>
      </trkpt>
      <trkpt lat="48.93901" lon="7.87953">
        <ele>160.8</ele>
        <time>2021-06-26T15:00:18Z</time>
      </trkpt>
      <trkpt lat="48.939" lon="7.87953">
        <ele>161</ele>
        <time>2021-06-26T15:00:19Z</time>
      </trkpt>
      <trkpt lat="48.93899" lon="7.87954">
        <ele>161</ele>
        <time>2021-06-26T15:00:20Z</time>
      </trkpt>
      <trkpt lat="48.93898" lon="7.87955">
        <ele>161</ele>
        <time>2021-06-26T15:00:21Z</time>
      </trkpt>
      <trkpt lat="48.93897" lon="7.87955">
        <ele>161</ele>
        <time>2021-06-26T15:00:23Z</time>
      </trkpt>
      <trkpt lat="48.93896" lon="7.87956">
        <ele>161</ele>
        <time>2021-06-26T15:00:24Z</time>
      </trkpt>
      <trkpt lat="48.93896" lon="7.87956">
        <ele>161</ele>
        <time>2021-06-26T15:00:25Z</time>
      </trkpt>
      <trkpt lat="48.93896" lon="7.87956">
        <ele>161</ele>
        <time>2021-06-26T15:00:26Z</time>
      </trkpt>
      <trkpt lat="48.93896" lon="7.87956">
        <ele>161</ele>
        <time>2021-06-26T15:00:27Z</time>
      </trkpt>
      <trkpt lat="48.93896" lon="7.87956">
        <ele>161</ele>
        <time>2021-06-26T15:00:28Z</time>
      </trkpt>
      <trkpt lat="48.93894" lon="7.87959">
        <ele>161</ele>
        <time>2021-06-26T15:00:32Z</time>
      </trkpt>
      <trkpt lat="48.93893" lon="7.8796">
        <ele>161</ele>
        <time>2021-06-26T15:00:33Z</time>
      </trkpt>
      <trkpt lat="48.93891" lon="7.87962">
        <ele>161</ele>
        <time>2021-06-26T15:00:34Z</time>
      </trkpt>
      <trkpt lat="48.9389" lon="7.87964">
        <ele>161</ele>
        <time>2021-06-26T15:00:35Z</time>
      </trkpt>
      <trkpt lat="48.93888" lon="7.87966">
        <ele>161</ele>
        <time>2021-06-26T15:00:36Z</time>
      </trkpt>
      <trkpt lat="48.93881" lon="7.87979">
        <ele>161</ele>
        <time>2021-06-26T15:00:39Z</time>
      </trkpt>
      <trkpt lat="48.93879" lon="7.87984">
        <ele>161</ele>
        <time>2021-06-26T15:00:40Z</time>
      </trkpt>
      <trkpt lat="48.9387" lon="7.88003">
        <ele>161</ele>
        <time>2021-06-26T15:00:44Z</time>
      </trkpt>
      <trkpt lat="48.93868" lon="7.88008">
        <ele>161.2</ele>
        <time>2021-06-26T15:00:45Z</time>
      </trkpt>
      <trkpt lat="48.93854" lon="7.88033">
        <ele>161.4</ele>
        <time>2021-06-26T15:00:51Z</time>
      </trkpt>
      <trkpt lat="48.93851" lon="7.88033">
        <ele>161.4</ele>
        <time>2021-06-26T15:00:52Z</time>
      </trkpt>
      <trkpt lat="48.93848" lon="7.88031">
        <ele>161.4</ele>
        <time>2021-06-26T15:00:53Z</time>
      </trkpt>
      <trkpt lat="48.93845" lon="7.88028">
        <ele>161.6</ele>
        <time>2021-06-26T15:00:54Z</time>
      </trkpt>
      <trkpt lat="48.93841" lon="7.88026">
        <ele>161.6</ele>
        <time>2021-06-26T15:00:55Z</time>
      </trkpt>
      <trkpt lat="48.93839" lon="7.88024">
        <ele>161.6</ele>
        <time>2021-06-26T15:00:56Z</time>
      </trkpt>
      <trkpt lat="48.93836" lon="7.88022">
        <ele>161.8</ele>
        <time>2021-06-26T15:00:57Z</time>
      </trkpt>
      <trkpt lat="48.93833" lon="7.88019">
        <ele>161.8</ele>
        <time>2021-06-26T15:00:58Z</time>
      </trkpt>
      <trkpt lat="48.9383" lon="7.88017">
        <ele>161.8</ele>
        <time>2021-06-26T15:00:59Z</time>
      </trkpt>
      <trkpt lat="48.93827" lon="7.88014">
        <ele>161.8</ele>
        <time>2021-06-26T15:01:00Z</time>
      </trkpt>
      <trkpt lat="48.93823" lon="7.88012">
        <ele>161.8</ele>
        <time>2021-06-26T15:01:01Z</time>
      </trkpt>
      <trkpt lat="48.93819" lon="7.88009">
        <ele>162</ele>
        <time>2021-06-26T15:01:02Z</time>
      </trkpt>
      <trkpt lat="48.93816" lon="7.88006">
        <ele>162.2</ele>
        <time>2021-06-26T15:01:03Z</time>
      </trkpt>
      <trkpt lat="48.9381" lon="7.88001">
        <ele>162.8</ele>
        <time>2021-06-26T15:01:05Z</time>
      </trkpt>
      <trkpt lat="48.93786" lon="7.87984">
        <ele>163.6</ele>
        <time>2021-06-26T15:01:11Z</time>
      </trkpt>
      <trkpt lat="48.9378" lon="7.8798">
        <ele>163.6</ele>
        <time>2021-06-26T15:01:12Z</time>
      </trkpt>
      <trkpt lat="48.93768" lon="7.87977">
        <ele>163.6</ele>
        <time>2021-06-26T15:01:14Z</time>
      </trkpt>
      <trkpt lat="48.93757" lon="7.87985">
        <ele>163.6</ele>
        <time>2021-06-26T15:01:16Z</time>
      </trkpt>
      <trkpt lat="48.93751" lon="7.8799">
        <ele>163.6</ele>
        <time>2021-06-26T15:01:17Z</time>
      </trkpt>
      <trkpt lat="48.93746" lon="7.87997">
        <ele>163.4</ele>
        <time>2021-06-26T15:01:18Z</time>
      </trkpt>
      <trkpt lat="48.9374" lon="7.88003">
        <ele>163.2</ele>
        <time>2021-06-26T15:01:19Z</time>
      </trkpt>
      <trkpt lat="48.93735" lon="7.88009">
        <ele>162.4</ele>
        <time>2021-06-26T15:01:20Z</time>
      </trkpt>
      <trkpt lat="48.93731" lon="7.88014">
        <ele>162</ele>
        <time>2021-06-26T15:01:21Z</time>
      </trkpt>
      <trkpt lat="48.93727" lon="7.8802">
        <ele>161.2</ele>
        <time>2021-06-26T15:01:22Z</time>
      </trkpt>
      <trkpt lat="48.93724" lon="7.88024">
        <ele>160.6</ele>
        <time>2021-06-26T15:01:23Z</time>
      </trkpt>
      <trkpt lat="48.93721" lon="7.88028">
        <ele>160</ele>
        <time>2021-06-26T15:01:24Z</time>
      </trkpt>
      <trkpt lat="48.9372" lon="7.88031">
        <ele>159.2</ele>
        <time>2021-06-26T15:01:25Z</time>
      </trkpt>
      <trkpt lat="48.93719" lon="7.88033">
        <ele>158.8</ele>
        <time>2021-06-26T15:01:26Z</time>
      </trkpt>
      <trkpt lat="48.93719" lon="7.88034">
        <ele>158.2</ele>
        <time>2021-06-26T15:01:27Z</time>
      </trkpt>
      <trkpt lat="48.93719" lon="7.88035">
        <ele>158.2</ele>
        <time>2021-06-26T15:01:28Z</time>
      </trkpt>
      <trkpt lat="48.93718" lon="7.88036">
        <ele>158</ele>
        <time>2021-06-26T15:01:29Z</time>
      </trkpt>
      <trkpt lat="48.93717" lon="7.88036">
        <ele>157.8</ele>
        <time>2021-06-26T15:01:30Z</time>
      </trkpt>
      <trkpt lat="48.93716" lon="7.88036">
        <ele>157.6</ele>
        <time>2021-06-26T15:01:31Z</time>
      </trkpt>
      <trkpt lat="48.93713" lon="7.88037">
        <ele>157.4</ele>
        <time>2021-06-26T15:01:33Z</time>
      </trkpt>
      <trkpt lat="48.93711" lon="7.88038">
        <ele>157.4</ele>
        <time>2021-06-26T15:01:34Z</time>
      </trkpt>
      <trkpt lat="48.93702" lon="7.88039">
        <ele>157.4</ele>
        <time>2021-06-26T15:01:37Z</time>
      </trkpt>
      <trkpt lat="48.93686" lon="7.88039">
        <ele>157.2</ele>
        <time>2021-06-26T15:01:41Z</time>
      </trkpt>
      <trkpt lat="48.93682" lon="7.88039">
        <ele>157.2</ele>
        <time>2021-06-26T15:01:42Z</time>
      </trkpt>
      <trkpt lat="48.93679" lon="7.88038">
        <ele>157.2</ele>
        <time>2021-06-26T15:01:43Z</time>
      </trkpt>
      <trkpt lat="48.93675" lon="7.88036">
        <ele>157.2</ele>
        <time>2021-06-26T15:01:44Z</time>
      </trkpt>
      <trkpt lat="48.93672" lon="7.88032">
        <ele>157</ele>
        <time>2021-06-26T15:01:45Z</time>
      </trkpt>
      <trkpt lat="48.93669" lon="7.88028">
        <ele>157</ele>
        <time>2021-06-26T15:01:46Z</time>
      </trkpt>
      <trkpt lat="48.93667" lon="7.88023">
        <ele>157</ele>
        <time>2021-06-26T15:01:47Z</time>
      </trkpt>
      <trkpt lat="48.93663" lon="7.8802">
        <ele>157</ele>
        <time>2021-06-26T15:01:48Z</time>
      </trkpt>
      <trkpt lat="48.93659" lon="7.88009">
        <ele>157</ele>
        <time>2021-06-26T15:01:51Z</time>
      </trkpt>
      <trkpt lat="48.93659" lon="7.88006">
        <ele>157</ele>
        <time>2021-06-26T15:01:52Z</time>
      </trkpt>
      <trkpt lat="48.93659" lon="7.88006">
        <ele>157</ele>
        <time>2021-06-26T15:01:53Z</time>
      </trkpt>
      <trkpt lat="48.9366" lon="7.88003">
        <ele>157</ele>
        <time>2021-06-26T15:01:54Z</time>
      </trkpt>
      <trkpt lat="48.9366" lon="7.88003">
        <ele>157</ele>
        <time>2021-06-26T15:01:55Z</time>
      </trkpt>
      <trkpt lat="48.9366" lon="7.88003">
        <ele>157</ele>
        <time>2021-06-26T15:01:56Z</time>
      </trkpt>
      <trkpt lat="48.9366" lon="7.87999">
        <ele>157.4</ele>
        <time>2021-06-26T15:03:10Z</time>
      </trkpt>
      <trkpt lat="48.93661" lon="7.87988">
        <ele>157.4</ele>
        <time>2021-06-26T15:03:12Z</time>
      </trkpt>
      <trkpt lat="48.93664" lon="7.87955">
        <ele>157.2</ele>
        <time>2021-06-26T15:03:17Z</time>
      </trkpt>
      <trkpt lat="48.93664" lon="7.87948">
        <ele>157.2</ele>
        <time>2021-06-26T15:03:18Z</time>
      </trkpt>
      <trkpt lat="48.93665" lon="7.87943">
        <ele>157.2</ele>
        <time>2021-06-26T15:03:19Z</time>
      </trkpt>
      <trkpt lat="48.93666" lon="7.8794">
        <ele>157.2</ele>
        <time>2021-06-26T15:03:20Z</time>
      </trkpt>
      <trkpt lat="48.93666" lon="7.87939">
        <ele>157.2</ele>
        <time>2021-06-26T15:03:21Z</time>
      </trkpt>
      <trkpt lat="48.93666" lon="7.87939">
        <ele>157.2</ele>
        <time>2021-06-26T15:03:22Z</time>
      </trkpt>
      <trkpt lat="48.93666" lon="7.87939">
        <ele>157</ele>
        <time>2021-06-26T15:03:23Z</time>
      </trkpt>
      <trkpt lat="48.93666" lon="7.87939">
        <ele>157</ele>
        <time>2021-06-26T15:03:24Z</time>
      </trkpt>
    </trkseg>
  </trk>
</gpx>